<?xml version="1.0" encoding="UTF-8" standalone="no" ?>
<gpx xmlns="http://www.topografix.com/GPX/1/1" xmlns:xsi="http://www.w3.org/2001/XMLSchema-instance" xsi:schemaLocation="http://www.topografix.com/GPX/1/1 http://www.topografix.com/GPX/1/1/gpx.xsd" version="1.1" creator="VisuGPX - https://www.visugpx.com">
  <metadata>
    <name>Cirque de Navacelles - Blandas</name>
    <desc><![CDATA[2019-04 - Cirque de Navacelles - Blandas - Foux de la Vis

[b]album[/b] : [url]https://photos.app.goo.gl/FntF3kXkvTAJqNUt5[/url]
[img]https://blogger.googleusercontent.com/img/b/R29vZ2xl/AVvXsEjsUOXGILRkYxvc-n4LbRXlHf3bp8F9dN5CEyZ0OKQXIqRrtTvF3v-CSKQouLmSDSamq5bcp-eUpZVUYmoQjVhG4N3rOBvliirXRjhmMUuCoc1sKchByZcSsoCGVoSt_Ov4KJtI1Sq9_J2LOCRIamzBcl92HnZnv4lmCpKdhkVV-YoTk3U7PiKo2IxVMJXE/s600/201-04-14%20-%20Cirque%20Navacelles.JPG[/img]
[b]Idées de randonnées dans la même région[/b]
Parcours : [url]https://www.visugpx.com/membres/24856/causses/la-vis-navacelles/[/url]
Photos : [url]https://jcvertygo.blogspot.com/p/vis.html[/url]]]></desc>
  </metadata>
  <trk>
    <name><![CDATA[SityTrail - Cirque de Navacelles - Blandas - Foux de la Vis]]></name>
    <extensions>
      <line xmlns="http://www.topografix.com/GPX/gpx_style/0/2">
        <color>0000FF</color>
        <width>4</width>
      </line>
    </extensions>
    <trkseg>
      <trkpt lat="43.88755" lon="3.50844">
        <ele>614</ele>
        <time>2019-04-14T09:12:27.610Z</time>
      </trkpt>
      <trkpt lat="43.88756" lon="3.50843">
        <ele>614</ele>
        <time>2019-04-14T09:12:28.582Z</time>
      </trkpt>
      <trkpt lat="43.88758" lon="3.50842">
        <ele>614</ele>
        <time>2019-04-14T09:12:32.609Z</time>
      </trkpt>
      <trkpt lat="43.88762" lon="3.5084">
        <ele>614</ele>
        <time>2019-04-14T09:12:37.585Z</time>
      </trkpt>
      <trkpt lat="43.88765" lon="3.50834">
        <ele>612</ele>
        <time>2019-04-14T09:12:42.610Z</time>
      </trkpt>
      <trkpt lat="43.88767" lon="3.50826">
        <ele>612</ele>
        <time>2019-04-14T09:12:47.612Z</time>
      </trkpt>
      <trkpt lat="43.88768" lon="3.50819">
        <ele>613</ele>
        <time>2019-04-14T09:12:52.580Z</time>
      </trkpt>
      <trkpt lat="43.88768" lon="3.50812">
        <ele>613</ele>
        <time>2019-04-14T09:12:57.582Z</time>
      </trkpt>
      <trkpt lat="43.88771" lon="3.50807">
        <ele>613</ele>
        <time>2019-04-14T09:13:02.581Z</time>
      </trkpt>
      <trkpt lat="43.88773" lon="3.50805">
        <ele>613</ele>
        <time>2019-04-14T09:13:06.590Z</time>
      </trkpt>
      <trkpt lat="43.88779" lon="3.50802">
        <ele>613</ele>
        <time>2019-04-14T09:13:11.587Z</time>
      </trkpt>
      <trkpt lat="43.88776" lon="3.50798">
        <ele>613</ele>
        <time>2019-04-14T09:13:15.616Z</time>
      </trkpt>
      <trkpt lat="43.88772" lon="3.50792">
        <ele>613</ele>
        <time>2019-04-14T09:13:20.611Z</time>
      </trkpt>
      <trkpt lat="43.88773" lon="3.50785">
        <ele>615</ele>
        <time>2019-04-14T09:13:25.596Z</time>
      </trkpt>
      <trkpt lat="43.88772" lon="3.50778">
        <ele>615</ele>
        <time>2019-04-14T09:13:30.582Z</time>
      </trkpt>
      <trkpt lat="43.88774" lon="3.50771">
        <ele>615</ele>
        <time>2019-04-14T09:13:34.590Z</time>
      </trkpt>
      <trkpt lat="43.88774" lon="3.50766">
        <ele>615</ele>
        <time>2019-04-14T09:13:38.613Z</time>
      </trkpt>
      <trkpt lat="43.88776" lon="3.5076">
        <ele>617</ele>
        <time>2019-04-14T09:13:43.606Z</time>
      </trkpt>
      <trkpt lat="43.88779" lon="3.50753">
        <ele>617</ele>
        <time>2019-04-14T09:13:48.611Z</time>
      </trkpt>
      <trkpt lat="43.88781" lon="3.50746">
        <ele>617</ele>
        <time>2019-04-14T09:13:53.591Z</time>
      </trkpt>
      <trkpt lat="43.88786" lon="3.50741">
        <ele>617</ele>
        <time>2019-04-14T09:13:58.588Z</time>
      </trkpt>
      <trkpt lat="43.88788" lon="3.50733">
        <ele>618</ele>
        <time>2019-04-14T09:14:03.592Z</time>
      </trkpt>
      <trkpt lat="43.88787" lon="3.50724">
        <ele>618</ele>
        <time>2019-04-14T09:14:08.613Z</time>
      </trkpt>
      <trkpt lat="43.88785" lon="3.50717">
        <ele>618</ele>
        <time>2019-04-14T09:14:13.597Z</time>
      </trkpt>
      <trkpt lat="43.88783" lon="3.50712">
        <ele>618</ele>
        <time>2019-04-14T09:14:18.592Z</time>
      </trkpt>
      <trkpt lat="43.88785" lon="3.50707">
        <ele>619</ele>
        <time>2019-04-14T09:14:22.592Z</time>
      </trkpt>
      <trkpt lat="43.88784" lon="3.50701">
        <ele>619</ele>
        <time>2019-04-14T09:14:26.614Z</time>
      </trkpt>
      <trkpt lat="43.88782" lon="3.50694">
        <ele>619</ele>
        <time>2019-04-14T09:14:31.609Z</time>
      </trkpt>
      <trkpt lat="43.88783" lon="3.50686">
        <ele>619</ele>
        <time>2019-04-14T09:14:36.611Z</time>
      </trkpt>
      <trkpt lat="43.88781" lon="3.5068">
        <ele>619</ele>
        <time>2019-04-14T09:14:41.578Z</time>
      </trkpt>
      <trkpt lat="43.88778" lon="3.50675">
        <ele>619</ele>
        <time>2019-04-14T09:14:45.581Z</time>
      </trkpt>
      <trkpt lat="43.88776" lon="3.5067">
        <ele>619</ele>
        <time>2019-04-14T09:14:49.612Z</time>
      </trkpt>
      <trkpt lat="43.88775" lon="3.50664">
        <ele>619</ele>
        <time>2019-04-14T09:14:54.617Z</time>
      </trkpt>
      <trkpt lat="43.88773" lon="3.50659">
        <ele>619</ele>
        <time>2019-04-14T09:14:59.617Z</time>
      </trkpt>
      <trkpt lat="43.8877" lon="3.50655">
        <ele>619</ele>
        <time>2019-04-14T09:15:04.588Z</time>
      </trkpt>
      <trkpt lat="43.88766" lon="3.50651">
        <ele>621</ele>
        <time>2019-04-14T09:15:09.581Z</time>
      </trkpt>
      <trkpt lat="43.88763" lon="3.50649">
        <ele>621</ele>
        <time>2019-04-14T09:15:13.612Z</time>
      </trkpt>
      <trkpt lat="43.88756" lon="3.50639">
        <ele>621</ele>
        <time>2019-04-14T09:15:27.591Z</time>
      </trkpt>
      <trkpt lat="43.88763" lon="3.50637">
        <ele>621</ele>
        <time>2019-04-14T09:15:32.581Z</time>
      </trkpt>
      <trkpt lat="43.88766" lon="3.50636">
        <ele>621</ele>
        <time>2019-04-14T09:15:37.585Z</time>
      </trkpt>
      <trkpt lat="43.88772" lon="3.50632">
        <ele>621</ele>
        <time>2019-04-14T09:15:42.629Z</time>
      </trkpt>
      <trkpt lat="43.88778" lon="3.50628">
        <ele>621</ele>
        <time>2019-04-14T09:15:47.599Z</time>
      </trkpt>
      <trkpt lat="43.88785" lon="3.50623">
        <ele>622</ele>
        <time>2019-04-14T09:15:52.580Z</time>
      </trkpt>
      <trkpt lat="43.8879" lon="3.50619">
        <ele>622</ele>
        <time>2019-04-14T09:15:57.589Z</time>
      </trkpt>
      <trkpt lat="43.88794" lon="3.50616">
        <ele>616</ele>
        <time>2019-04-14T09:16:02.593Z</time>
      </trkpt>
      <trkpt lat="43.88797" lon="3.50612">
        <ele>616</ele>
        <time>2019-04-14T09:16:07.573Z</time>
      </trkpt>
      <trkpt lat="43.88797" lon="3.50612">
        <ele>616</ele>
        <time>2019-04-14T09:16:12.603Z</time>
      </trkpt>
      <trkpt lat="43.88797" lon="3.50611">
        <ele>616</ele>
        <time>2019-04-14T09:16:31.575Z</time>
      </trkpt>
      <trkpt lat="43.888" lon="3.50605">
        <ele>616</ele>
        <time>2019-04-14T09:16:36.607Z</time>
      </trkpt>
      <trkpt lat="43.88805" lon="3.50601">
        <ele>616</ele>
        <time>2019-04-14T09:16:41.632Z</time>
      </trkpt>
      <trkpt lat="43.8881" lon="3.50597">
        <ele>618</ele>
        <time>2019-04-14T09:16:46.590Z</time>
      </trkpt>
      <trkpt lat="43.88815" lon="3.50591">
        <ele>618</ele>
        <time>2019-04-14T09:16:51.585Z</time>
      </trkpt>
      <trkpt lat="43.88818" lon="3.50586">
        <ele>618</ele>
        <time>2019-04-14T09:16:56.612Z</time>
      </trkpt>
      <trkpt lat="43.8882" lon="3.50586">
        <ele>602</ele>
        <time>2019-04-14T09:17:01.613Z</time>
      </trkpt>
      <trkpt lat="43.88816" lon="3.50593">
        <ele>618</ele>
        <time>2019-04-14T09:17:06.580Z</time>
      </trkpt>
      <trkpt lat="43.88817" lon="3.50597">
        <ele>618</ele>
        <time>2019-04-14T09:17:10.585Z</time>
      </trkpt>
      <trkpt lat="43.88822" lon="3.5059">
        <ele>602</ele>
        <time>2019-04-14T09:17:15.580Z</time>
      </trkpt>
      <trkpt lat="43.88829" lon="3.50586">
        <ele>602</ele>
        <time>2019-04-14T09:17:20.579Z</time>
      </trkpt>
      <trkpt lat="43.88833" lon="3.50583">
        <ele>602</ele>
        <time>2019-04-14T09:17:24.612Z</time>
      </trkpt>
      <trkpt lat="43.88837" lon="3.5058">
        <ele>602</ele>
        <time>2019-04-14T09:17:29.591Z</time>
      </trkpt>
      <trkpt lat="43.88842" lon="3.50574">
        <ele>602</ele>
        <time>2019-04-14T09:17:34.591Z</time>
      </trkpt>
      <trkpt lat="43.88844" lon="3.5057">
        <ele>602</ele>
        <time>2019-04-14T09:17:39.582Z</time>
      </trkpt>
      <trkpt lat="43.88847" lon="3.50566">
        <ele>603</ele>
        <time>2019-04-14T09:17:43.589Z</time>
      </trkpt>
      <trkpt lat="43.88851" lon="3.50562">
        <ele>581</ele>
        <time>2019-04-14T09:17:48.582Z</time>
      </trkpt>
      <trkpt lat="43.88852" lon="3.50556">
        <ele>581</ele>
        <time>2019-04-14T09:17:53.591Z</time>
      </trkpt>
      <trkpt lat="43.88855" lon="3.50554">
        <ele>581</ele>
        <time>2019-04-14T09:17:57.608Z</time>
      </trkpt>
      <trkpt lat="43.88857" lon="3.5056">
        <ele>581</ele>
        <time>2019-04-14T09:18:02.618Z</time>
      </trkpt>
      <trkpt lat="43.88858" lon="3.50564">
        <ele>581</ele>
        <time>2019-04-14T09:18:06.624Z</time>
      </trkpt>
      <trkpt lat="43.88861" lon="3.50557">
        <ele>581</ele>
        <time>2019-04-14T09:18:11.605Z</time>
      </trkpt>
      <trkpt lat="43.88859" lon="3.50551">
        <ele>581</ele>
        <time>2019-04-14T09:18:16.611Z</time>
      </trkpt>
      <trkpt lat="43.88857" lon="3.50546">
        <ele>581</ele>
        <time>2019-04-14T09:18:21.582Z</time>
      </trkpt>
      <trkpt lat="43.88857" lon="3.50537">
        <ele>579</ele>
        <time>2019-04-14T09:18:33.620Z</time>
      </trkpt>
      <trkpt lat="43.8886" lon="3.50542">
        <ele>581</ele>
        <time>2019-04-14T09:18:38.585Z</time>
      </trkpt>
      <trkpt lat="43.88861" lon="3.50546">
        <ele>581</ele>
        <time>2019-04-14T09:18:42.589Z</time>
      </trkpt>
      <trkpt lat="43.88864" lon="3.50552">
        <ele>581</ele>
        <time>2019-04-14T09:18:47.581Z</time>
      </trkpt>
      <trkpt lat="43.88867" lon="3.50556">
        <ele>581</ele>
        <time>2019-04-14T09:18:51.597Z</time>
      </trkpt>
      <trkpt lat="43.8887" lon="3.50569">
        <ele>581</ele>
        <time>2019-04-14T09:19:15.610Z</time>
      </trkpt>
      <trkpt lat="43.88875" lon="3.50567">
        <ele>581</ele>
        <time>2019-04-14T09:19:20.610Z</time>
      </trkpt>
      <trkpt lat="43.8888" lon="3.50564">
        <ele>565</ele>
        <time>2019-04-14T09:19:25.585Z</time>
      </trkpt>
      <trkpt lat="43.88885" lon="3.5056">
        <ele>565</ele>
        <time>2019-04-14T09:19:29.612Z</time>
      </trkpt>
      <trkpt lat="43.88888" lon="3.50557">
        <ele>565</ele>
        <time>2019-04-14T09:19:34.591Z</time>
      </trkpt>
      <trkpt lat="43.8889" lon="3.50552">
        <ele>565</ele>
        <time>2019-04-14T09:19:39.590Z</time>
      </trkpt>
      <trkpt lat="43.88892" lon="3.50556">
        <ele>565</ele>
        <time>2019-04-14T09:19:43.601Z</time>
      </trkpt>
      <trkpt lat="43.88893" lon="3.50562">
        <ele>565</ele>
        <time>2019-04-14T09:19:48.581Z</time>
      </trkpt>
      <trkpt lat="43.8889" lon="3.50567">
        <ele>565</ele>
        <time>2019-04-14T09:19:53.629Z</time>
      </trkpt>
      <trkpt lat="43.8889" lon="3.50572">
        <ele>559</ele>
        <time>2019-04-14T09:19:58.602Z</time>
      </trkpt>
      <trkpt lat="43.88888" lon="3.5058">
        <ele>559</ele>
        <time>2019-04-14T09:20:03.617Z</time>
      </trkpt>
      <trkpt lat="43.88885" lon="3.50585">
        <ele>559</ele>
        <time>2019-04-14T09:20:08.606Z</time>
      </trkpt>
      <trkpt lat="43.88888" lon="3.50588">
        <ele>559</ele>
        <time>2019-04-14T09:20:13.611Z</time>
      </trkpt>
      <trkpt lat="43.88894" lon="3.50586">
        <ele>559</ele>
        <time>2019-04-14T09:20:18.582Z</time>
      </trkpt>
      <trkpt lat="43.88901" lon="3.50583">
        <ele>559</ele>
        <time>2019-04-14T09:20:23.594Z</time>
      </trkpt>
      <trkpt lat="43.88904" lon="3.50578">
        <ele>542</ele>
        <time>2019-04-14T09:20:28.613Z</time>
      </trkpt>
      <trkpt lat="43.88908" lon="3.50574">
        <ele>542</ele>
        <time>2019-04-14T09:20:33.591Z</time>
      </trkpt>
      <trkpt lat="43.88917" lon="3.50569">
        <ele>546</ele>
        <time>2019-04-14T09:20:52.611Z</time>
      </trkpt>
      <trkpt lat="43.88919" lon="3.50571">
        <ele>542</ele>
        <time>2019-04-14T09:20:57.582Z</time>
      </trkpt>
      <trkpt lat="43.88922" lon="3.50565">
        <ele>546</ele>
        <time>2019-04-14T09:21:02.613Z</time>
      </trkpt>
      <trkpt lat="43.88923" lon="3.50559">
        <ele>546</ele>
        <time>2019-04-14T09:21:07.582Z</time>
      </trkpt>
      <trkpt lat="43.88923" lon="3.50552">
        <ele>546</ele>
        <time>2019-04-14T09:21:11.611Z</time>
      </trkpt>
      <trkpt lat="43.88924" lon="3.50548">
        <ele>546</ele>
        <time>2019-04-14T09:21:16.611Z</time>
      </trkpt>
      <trkpt lat="43.88926" lon="3.50553">
        <ele>546</ele>
        <time>2019-04-14T09:21:21.582Z</time>
      </trkpt>
      <trkpt lat="43.88928" lon="3.50556">
        <ele>546</ele>
        <time>2019-04-14T09:21:26.581Z</time>
      </trkpt>
      <trkpt lat="43.88931" lon="3.50561">
        <ele>546</ele>
        <time>2019-04-14T09:21:31.583Z</time>
      </trkpt>
      <trkpt lat="43.88931" lon="3.50565">
        <ele>531</ele>
        <time>2019-04-14T09:21:35.591Z</time>
      </trkpt>
      <trkpt lat="43.88929" lon="3.5057">
        <ele>542</ele>
        <time>2019-04-14T09:21:40.584Z</time>
      </trkpt>
      <trkpt lat="43.88927" lon="3.50575">
        <ele>542</ele>
        <time>2019-04-14T09:21:45.581Z</time>
      </trkpt>
      <trkpt lat="43.88926" lon="3.50579">
        <ele>542</ele>
        <time>2019-04-14T09:21:49.610Z</time>
      </trkpt>
      <trkpt lat="43.88924" lon="3.50585">
        <ele>542</ele>
        <time>2019-04-14T09:21:54.611Z</time>
      </trkpt>
      <trkpt lat="43.88922" lon="3.50591">
        <ele>542</ele>
        <time>2019-04-14T09:21:59.611Z</time>
      </trkpt>
      <trkpt lat="43.88923" lon="3.50598">
        <ele>536</ele>
        <time>2019-04-14T09:22:04.610Z</time>
      </trkpt>
      <trkpt lat="43.88929" lon="3.50598">
        <ele>536</ele>
        <time>2019-04-14T09:22:09.581Z</time>
      </trkpt>
      <trkpt lat="43.88934" lon="3.50596">
        <ele>530</ele>
        <time>2019-04-14T09:22:14.582Z</time>
      </trkpt>
      <trkpt lat="43.88938" lon="3.50592">
        <ele>530</ele>
        <time>2019-04-14T09:22:19.603Z</time>
      </trkpt>
      <trkpt lat="43.88939" lon="3.50591">
        <ele>530</ele>
        <time>2019-04-14T09:22:24.573Z</time>
      </trkpt>
      <trkpt lat="43.88941" lon="3.50583">
        <ele>530</ele>
        <time>2019-04-14T09:22:38.582Z</time>
      </trkpt>
      <trkpt lat="43.88946" lon="3.5058">
        <ele>530</ele>
        <time>2019-04-14T09:22:43.596Z</time>
      </trkpt>
      <trkpt lat="43.88951" lon="3.50575">
        <ele>530</ele>
        <time>2019-04-14T09:22:48.571Z</time>
      </trkpt>
      <trkpt lat="43.88953" lon="3.50567">
        <ele>531</ele>
        <time>2019-04-14T09:22:53.573Z</time>
      </trkpt>
      <trkpt lat="43.88953" lon="3.50562">
        <ele>531</ele>
        <time>2019-04-14T09:22:57.603Z</time>
      </trkpt>
      <trkpt lat="43.88957" lon="3.50561">
        <ele>531</ele>
        <time>2019-04-14T09:23:20.622Z</time>
      </trkpt>
      <trkpt lat="43.88958" lon="3.50569">
        <ele>531</ele>
        <time>2019-04-14T09:23:25.584Z</time>
      </trkpt>
      <trkpt lat="43.88958" lon="3.50575">
        <ele>530</ele>
        <time>2019-04-14T09:23:29.596Z</time>
      </trkpt>
      <trkpt lat="43.88957" lon="3.50581">
        <ele>530</ele>
        <time>2019-04-14T09:23:34.598Z</time>
      </trkpt>
      <trkpt lat="43.88957" lon="3.50587">
        <ele>530</ele>
        <time>2019-04-14T09:23:38.622Z</time>
      </trkpt>
      <trkpt lat="43.88952" lon="3.50594">
        <ele>530</ele>
        <time>2019-04-14T09:23:43.592Z</time>
      </trkpt>
      <trkpt lat="43.8895" lon="3.50601">
        <ele>520</ele>
        <time>2019-04-14T09:23:47.593Z</time>
      </trkpt>
      <trkpt lat="43.88954" lon="3.50602">
        <ele>520</ele>
        <time>2019-04-14T09:23:52.613Z</time>
      </trkpt>
      <trkpt lat="43.88962" lon="3.506">
        <ele>504</ele>
        <time>2019-04-14T09:23:57.582Z</time>
      </trkpt>
      <trkpt lat="43.88967" lon="3.50598">
        <ele>504</ele>
        <time>2019-04-14T09:24:01.591Z</time>
      </trkpt>
      <trkpt lat="43.88971" lon="3.50595">
        <ele>513</ele>
        <time>2019-04-14T09:24:06.589Z</time>
      </trkpt>
      <trkpt lat="43.88975" lon="3.50591">
        <ele>513</ele>
        <time>2019-04-14T09:24:11.595Z</time>
      </trkpt>
      <trkpt lat="43.88978" lon="3.50588">
        <ele>513</ele>
        <time>2019-04-14T09:24:15.612Z</time>
      </trkpt>
      <trkpt lat="43.88982" lon="3.50585">
        <ele>513</ele>
        <time>2019-04-14T09:24:20.614Z</time>
      </trkpt>
      <trkpt lat="43.88985" lon="3.50583">
        <ele>513</ele>
        <time>2019-04-14T09:24:25.573Z</time>
      </trkpt>
      <trkpt lat="43.88988" lon="3.50578">
        <ele>501</ele>
        <time>2019-04-14T09:24:29.586Z</time>
      </trkpt>
      <trkpt lat="43.88992" lon="3.50576">
        <ele>501</ele>
        <time>2019-04-14T09:24:34.592Z</time>
      </trkpt>
      <trkpt lat="43.89" lon="3.50572">
        <ele>501</ele>
        <time>2019-04-14T09:24:44.612Z</time>
      </trkpt>
      <trkpt lat="43.89002" lon="3.50577">
        <ele>501</ele>
        <time>2019-04-14T09:24:49.612Z</time>
      </trkpt>
      <trkpt lat="43.89002" lon="3.50581">
        <ele>501</ele>
        <time>2019-04-14T09:24:54.590Z</time>
      </trkpt>
      <trkpt lat="43.89" lon="3.50586">
        <ele>501</ele>
        <time>2019-04-14T09:24:58.611Z</time>
      </trkpt>
      <trkpt lat="43.88997" lon="3.50591">
        <ele>501</ele>
        <time>2019-04-14T09:25:03.587Z</time>
      </trkpt>
      <trkpt lat="43.89" lon="3.50604">
        <ele>494</ele>
        <time>2019-04-14T09:25:23.583Z</time>
      </trkpt>
      <trkpt lat="43.89005" lon="3.50602">
        <ele>494</ele>
        <time>2019-04-14T09:25:27.590Z</time>
      </trkpt>
      <trkpt lat="43.8901" lon="3.50602">
        <ele>494</ele>
        <time>2019-04-14T09:25:31.614Z</time>
      </trkpt>
      <trkpt lat="43.89015" lon="3.506">
        <ele>483</ele>
        <time>2019-04-14T09:25:36.610Z</time>
      </trkpt>
      <trkpt lat="43.89019" lon="3.50599">
        <ele>483</ele>
        <time>2019-04-14T09:25:41.590Z</time>
      </trkpt>
      <trkpt lat="43.89023" lon="3.50596">
        <ele>489</ele>
        <time>2019-04-14T09:25:46.591Z</time>
      </trkpt>
      <trkpt lat="43.89028" lon="3.50593">
        <ele>489</ele>
        <time>2019-04-14T09:25:51.590Z</time>
      </trkpt>
      <trkpt lat="43.8903" lon="3.50592">
        <ele>489</ele>
        <time>2019-04-14T09:25:56.587Z</time>
      </trkpt>
      <trkpt lat="43.89032" lon="3.50591">
        <ele>489</ele>
        <time>2019-04-14T09:26:01.612Z</time>
      </trkpt>
      <trkpt lat="43.89037" lon="3.50591">
        <ele>489</ele>
        <time>2019-04-14T09:26:06.587Z</time>
      </trkpt>
      <trkpt lat="43.89041" lon="3.50587">
        <ele>489</ele>
        <time>2019-04-14T09:26:11.592Z</time>
      </trkpt>
      <trkpt lat="43.89044" lon="3.50581">
        <ele>481</ele>
        <time>2019-04-14T09:26:16.584Z</time>
      </trkpt>
      <trkpt lat="43.89049" lon="3.50578">
        <ele>481</ele>
        <time>2019-04-14T09:26:21.583Z</time>
      </trkpt>
      <trkpt lat="43.89051" lon="3.50583">
        <ele>481</ele>
        <time>2019-04-14T09:26:26.577Z</time>
      </trkpt>
      <trkpt lat="43.89054" lon="3.50583">
        <ele>481</ele>
        <time>2019-04-14T09:26:31.614Z</time>
      </trkpt>
      <trkpt lat="43.89056" lon="3.50585">
        <ele>481</ele>
        <time>2019-04-14T09:26:36.592Z</time>
      </trkpt>
      <trkpt lat="43.89061" lon="3.50585">
        <ele>481</ele>
        <time>2019-04-14T09:26:40.614Z</time>
      </trkpt>
      <trkpt lat="43.89068" lon="3.50584">
        <ele>481</ele>
        <time>2019-04-14T09:26:45.616Z</time>
      </trkpt>
      <trkpt lat="43.89072" lon="3.50586">
        <ele>472</ele>
        <time>2019-04-14T09:26:50.584Z</time>
      </trkpt>
      <trkpt lat="43.89075" lon="3.50588">
        <ele>472</ele>
        <time>2019-04-14T09:26:55.591Z</time>
      </trkpt>
      <trkpt lat="43.89075" lon="3.50591">
        <ele>472</ele>
        <time>2019-04-14T09:26:59.618Z</time>
      </trkpt>
      <trkpt lat="43.89077" lon="3.50592">
        <ele>472</ele>
        <time>2019-04-14T09:27:04.582Z</time>
      </trkpt>
      <trkpt lat="43.89078" lon="3.50596">
        <ele>472</ele>
        <time>2019-04-14T09:27:08.613Z</time>
      </trkpt>
      <trkpt lat="43.89081" lon="3.50601">
        <ele>475</ele>
        <time>2019-04-14T09:27:13.597Z</time>
      </trkpt>
      <trkpt lat="43.89086" lon="3.50601">
        <ele>475</ele>
        <time>2019-04-14T09:27:18.589Z</time>
      </trkpt>
      <trkpt lat="43.89086" lon="3.50602">
        <ele>475</ele>
        <time>2019-04-14T09:27:22.610Z</time>
      </trkpt>
      <trkpt lat="43.8909" lon="3.50608">
        <ele>475</ele>
        <time>2019-04-14T09:27:27.611Z</time>
      </trkpt>
      <trkpt lat="43.89096" lon="3.50607">
        <ele>475</ele>
        <time>2019-04-14T09:27:32.611Z</time>
      </trkpt>
      <trkpt lat="43.891" lon="3.50605">
        <ele>465</ele>
        <time>2019-04-14T09:27:37.583Z</time>
      </trkpt>
      <trkpt lat="43.89106" lon="3.50605">
        <ele>465</ele>
        <time>2019-04-14T09:27:42.588Z</time>
      </trkpt>
      <trkpt lat="43.89109" lon="3.50603">
        <ele>465</ele>
        <time>2019-04-14T09:27:46.606Z</time>
      </trkpt>
      <trkpt lat="43.89114" lon="3.50603">
        <ele>465</ele>
        <time>2019-04-14T09:27:51.627Z</time>
      </trkpt>
      <trkpt lat="43.89118" lon="3.50603">
        <ele>465</ele>
        <time>2019-04-14T09:27:56.584Z</time>
      </trkpt>
      <trkpt lat="43.89122" lon="3.50602">
        <ele>465</ele>
        <time>2019-04-14T09:28:01.590Z</time>
      </trkpt>
      <trkpt lat="43.89128" lon="3.50602">
        <ele>458</ele>
        <time>2019-04-14T09:28:05.607Z</time>
      </trkpt>
      <trkpt lat="43.89131" lon="3.50605">
        <ele>458</ele>
        <time>2019-04-14T09:28:10.593Z</time>
      </trkpt>
      <trkpt lat="43.89138" lon="3.50601">
        <ele>458</ele>
        <time>2019-04-14T09:28:15.591Z</time>
      </trkpt>
      <trkpt lat="43.89143" lon="3.50599">
        <ele>458</ele>
        <time>2019-04-14T09:28:20.585Z</time>
      </trkpt>
      <trkpt lat="43.89148" lon="3.50597">
        <ele>458</ele>
        <time>2019-04-14T09:28:24.613Z</time>
      </trkpt>
      <trkpt lat="43.89154" lon="3.50598">
        <ele>454</ele>
        <time>2019-04-14T09:28:29.613Z</time>
      </trkpt>
      <trkpt lat="43.89156" lon="3.50599">
        <ele>454</ele>
        <time>2019-04-14T09:28:34.612Z</time>
      </trkpt>
      <trkpt lat="43.8916" lon="3.506">
        <ele>454</ele>
        <time>2019-04-14T09:28:39.585Z</time>
      </trkpt>
      <trkpt lat="43.89164" lon="3.506">
        <ele>454</ele>
        <time>2019-04-14T09:28:44.581Z</time>
      </trkpt>
      <trkpt lat="43.89171" lon="3.50603">
        <ele>454</ele>
        <time>2019-04-14T09:28:49.597Z</time>
      </trkpt>
      <trkpt lat="43.89179" lon="3.50603">
        <ele>454</ele>
        <time>2019-04-14T09:28:54.581Z</time>
      </trkpt>
      <trkpt lat="43.89181" lon="3.50601">
        <ele>451</ele>
        <time>2019-04-14T09:28:59.578Z</time>
      </trkpt>
      <trkpt lat="43.89186" lon="3.50601">
        <ele>451</ele>
        <time>2019-04-14T09:29:04.582Z</time>
      </trkpt>
      <trkpt lat="43.89191" lon="3.506">
        <ele>451</ele>
        <time>2019-04-14T09:29:09.583Z</time>
      </trkpt>
      <trkpt lat="43.89198" lon="3.50601">
        <ele>451</ele>
        <time>2019-04-14T09:29:14.582Z</time>
      </trkpt>
      <trkpt lat="43.89204" lon="3.50603">
        <ele>451</ele>
        <time>2019-04-14T09:29:19.592Z</time>
      </trkpt>
      <trkpt lat="43.8921" lon="3.50604">
        <ele>448</ele>
        <time>2019-04-14T09:29:23.614Z</time>
      </trkpt>
      <trkpt lat="43.89215" lon="3.50605">
        <ele>448</ele>
        <time>2019-04-14T09:29:28.583Z</time>
      </trkpt>
      <trkpt lat="43.8922" lon="3.50606">
        <ele>448</ele>
        <time>2019-04-14T09:29:33.584Z</time>
      </trkpt>
      <trkpt lat="43.89226" lon="3.50607">
        <ele>448</ele>
        <time>2019-04-14T09:29:37.592Z</time>
      </trkpt>
      <trkpt lat="43.89232" lon="3.50606">
        <ele>448</ele>
        <time>2019-04-14T09:29:42.593Z</time>
      </trkpt>
      <trkpt lat="43.89237" lon="3.50607">
        <ele>444</ele>
        <time>2019-04-14T09:29:47.593Z</time>
      </trkpt>
      <trkpt lat="43.89243" lon="3.50606">
        <ele>444</ele>
        <time>2019-04-14T09:29:52.612Z</time>
      </trkpt>
      <trkpt lat="43.89248" lon="3.50608">
        <ele>444</ele>
        <time>2019-04-14T09:29:57.593Z</time>
      </trkpt>
      <trkpt lat="43.89256" lon="3.50607">
        <ele>444</ele>
        <time>2019-04-14T09:30:02.588Z</time>
      </trkpt>
      <trkpt lat="43.89263" lon="3.50606">
        <ele>444</ele>
        <time>2019-04-14T09:30:07.591Z</time>
      </trkpt>
      <trkpt lat="43.89267" lon="3.50608">
        <ele>446</ele>
        <time>2019-04-14T09:30:12.583Z</time>
      </trkpt>
      <trkpt lat="43.89273" lon="3.50611">
        <ele>446</ele>
        <time>2019-04-14T09:30:17.593Z</time>
      </trkpt>
      <trkpt lat="43.89277" lon="3.50613">
        <ele>446</ele>
        <time>2019-04-14T09:30:22.590Z</time>
      </trkpt>
      <trkpt lat="43.8928" lon="3.50614">
        <ele>446</ele>
        <time>2019-04-14T09:30:27.594Z</time>
      </trkpt>
      <trkpt lat="43.89282" lon="3.50616">
        <ele>446</ele>
        <time>2019-04-14T09:30:31.603Z</time>
      </trkpt>
      <trkpt lat="43.89286" lon="3.50619">
        <ele>446</ele>
        <time>2019-04-14T09:30:36.611Z</time>
      </trkpt>
      <trkpt lat="43.89291" lon="3.50623">
        <ele>446</ele>
        <time>2019-04-14T09:30:41.595Z</time>
      </trkpt>
      <trkpt lat="43.89297" lon="3.50626">
        <ele>437</ele>
        <time>2019-04-14T09:30:46.612Z</time>
      </trkpt>
      <trkpt lat="43.89304" lon="3.50625">
        <ele>448</ele>
        <time>2019-04-14T09:30:51.581Z</time>
      </trkpt>
      <trkpt lat="43.89309" lon="3.50626">
        <ele>437</ele>
        <time>2019-04-14T09:30:56.612Z</time>
      </trkpt>
      <trkpt lat="43.89315" lon="3.50628">
        <ele>437</ele>
        <time>2019-04-14T09:31:01.574Z</time>
      </trkpt>
      <trkpt lat="43.89317" lon="3.50627">
        <ele>437</ele>
        <time>2019-04-14T09:31:06.577Z</time>
      </trkpt>
      <trkpt lat="43.89318" lon="3.50625">
        <ele>437</ele>
        <time>2019-04-14T09:31:11.575Z</time>
      </trkpt>
      <trkpt lat="43.89322" lon="3.50624">
        <ele>442</ele>
        <time>2019-04-14T09:31:16.582Z</time>
      </trkpt>
      <trkpt lat="43.89329" lon="3.50624">
        <ele>442</ele>
        <time>2019-04-14T09:31:21.594Z</time>
      </trkpt>
      <trkpt lat="43.89335" lon="3.50625">
        <ele>442</ele>
        <time>2019-04-14T09:31:25.595Z</time>
      </trkpt>
      <trkpt lat="43.89342" lon="3.50627">
        <ele>437</ele>
        <time>2019-04-14T09:31:30.593Z</time>
      </trkpt>
      <trkpt lat="43.89349" lon="3.50629">
        <ele>438</ele>
        <time>2019-04-14T09:31:35.614Z</time>
      </trkpt>
      <trkpt lat="43.89353" lon="3.50629">
        <ele>438</ele>
        <time>2019-04-14T09:31:40.614Z</time>
      </trkpt>
      <trkpt lat="43.89358" lon="3.5063">
        <ele>438</ele>
        <time>2019-04-14T09:31:45.583Z</time>
      </trkpt>
      <trkpt lat="43.89361" lon="3.5063">
        <ele>438</ele>
        <time>2019-04-14T09:31:49.613Z</time>
      </trkpt>
      <trkpt lat="43.89369" lon="3.50628">
        <ele>438</ele>
        <time>2019-04-14T09:31:54.582Z</time>
      </trkpt>
      <trkpt lat="43.89374" lon="3.50627">
        <ele>438</ele>
        <time>2019-04-14T09:31:58.615Z</time>
      </trkpt>
      <trkpt lat="43.89377" lon="3.50621">
        <ele>435</ele>
        <time>2019-04-14T09:32:03.583Z</time>
      </trkpt>
      <trkpt lat="43.89378" lon="3.50616">
        <ele>435</ele>
        <time>2019-04-14T09:32:07.588Z</time>
      </trkpt>
      <trkpt lat="43.8938" lon="3.5061">
        <ele>435</ele>
        <time>2019-04-14T09:32:12.583Z</time>
      </trkpt>
      <trkpt lat="43.89382" lon="3.50606">
        <ele>435</ele>
        <time>2019-04-14T09:32:16.612Z</time>
      </trkpt>
      <trkpt lat="43.89383" lon="3.50607">
        <ele>435</ele>
        <time>2019-04-14T09:32:21.592Z</time>
      </trkpt>
      <trkpt lat="43.89383" lon="3.50612">
        <ele>435</ele>
        <time>2019-04-14T09:32:26.583Z</time>
      </trkpt>
      <trkpt lat="43.89383" lon="3.50617">
        <ele>435</ele>
        <time>2019-04-14T09:32:30.593Z</time>
      </trkpt>
      <trkpt lat="43.89383" lon="3.50624">
        <ele>435</ele>
        <time>2019-04-14T09:32:35.584Z</time>
      </trkpt>
      <trkpt lat="43.89385" lon="3.5063">
        <ele>430</ele>
        <time>2019-04-14T09:32:39.602Z</time>
      </trkpt>
      <trkpt lat="43.89389" lon="3.50636">
        <ele>430</ele>
        <time>2019-04-14T09:32:44.581Z</time>
      </trkpt>
      <trkpt lat="43.89391" lon="3.5064">
        <ele>430</ele>
        <time>2019-04-14T09:32:49.612Z</time>
      </trkpt>
      <trkpt lat="43.89394" lon="3.50646">
        <ele>430</ele>
        <time>2019-04-14T09:32:54.615Z</time>
      </trkpt>
      <trkpt lat="43.89395" lon="3.50653">
        <ele>430</ele>
        <time>2019-04-14T09:32:59.583Z</time>
      </trkpt>
      <trkpt lat="43.89393" lon="3.50657">
        <ele>424</ele>
        <time>2019-04-14T09:33:03.613Z</time>
      </trkpt>
      <trkpt lat="43.89391" lon="3.50664">
        <ele>424</ele>
        <time>2019-04-14T09:33:08.611Z</time>
      </trkpt>
      <trkpt lat="43.89396" lon="3.50667">
        <ele>424</ele>
        <time>2019-04-14T09:33:13.616Z</time>
      </trkpt>
      <trkpt lat="43.89401" lon="3.50668">
        <ele>424</ele>
        <time>2019-04-14T09:33:18.588Z</time>
      </trkpt>
      <trkpt lat="43.89409" lon="3.50667">
        <ele>422</ele>
        <time>2019-04-14T09:33:23.585Z</time>
      </trkpt>
      <trkpt lat="43.89411" lon="3.5067">
        <ele>422</ele>
        <time>2019-04-14T09:33:27.613Z</time>
      </trkpt>
      <trkpt lat="43.89411" lon="3.50677">
        <ele>422</ele>
        <time>2019-04-14T09:33:32.613Z</time>
      </trkpt>
      <trkpt lat="43.89416" lon="3.50678">
        <ele>422</ele>
        <time>2019-04-14T09:33:37.612Z</time>
      </trkpt>
      <trkpt lat="43.89421" lon="3.50676">
        <ele>422</ele>
        <time>2019-04-14T09:33:42.613Z</time>
      </trkpt>
      <trkpt lat="43.89423" lon="3.50683">
        <ele>413</ele>
        <time>2019-04-14T09:33:47.585Z</time>
      </trkpt>
      <trkpt lat="43.89423" lon="3.50689">
        <ele>413</ele>
        <time>2019-04-14T09:33:52.611Z</time>
      </trkpt>
      <trkpt lat="43.89425" lon="3.50693">
        <ele>413</ele>
        <time>2019-04-14T09:33:57.591Z</time>
      </trkpt>
      <trkpt lat="43.89428" lon="3.50693">
        <ele>413</ele>
        <time>2019-04-14T09:34:01.599Z</time>
      </trkpt>
      <trkpt lat="43.89432" lon="3.50697">
        <ele>411</ele>
        <time>2019-04-14T09:34:06.614Z</time>
      </trkpt>
      <trkpt lat="43.89438" lon="3.507">
        <ele>411</ele>
        <time>2019-04-14T09:34:11.581Z</time>
      </trkpt>
      <trkpt lat="43.8944" lon="3.50704">
        <ele>411</ele>
        <time>2019-04-14T09:34:15.585Z</time>
      </trkpt>
      <trkpt lat="43.89443" lon="3.50707">
        <ele>411</ele>
        <time>2019-04-14T09:34:20.613Z</time>
      </trkpt>
      <trkpt lat="43.89448" lon="3.50702">
        <ele>411</ele>
        <time>2019-04-14T09:34:25.612Z</time>
      </trkpt>
      <trkpt lat="43.8945" lon="3.50693">
        <ele>411</ele>
        <time>2019-04-14T09:34:30.590Z</time>
      </trkpt>
      <trkpt lat="43.89453" lon="3.50686">
        <ele>411</ele>
        <time>2019-04-14T09:34:35.586Z</time>
      </trkpt>
      <trkpt lat="43.89453" lon="3.50679">
        <ele>417</ele>
        <time>2019-04-14T09:34:40.613Z</time>
      </trkpt>
      <trkpt lat="43.89454" lon="3.50673">
        <ele>417</ele>
        <time>2019-04-14T09:34:45.586Z</time>
      </trkpt>
      <trkpt lat="43.89453" lon="3.50666">
        <ele>417</ele>
        <time>2019-04-14T09:34:50.593Z</time>
      </trkpt>
      <trkpt lat="43.89453" lon="3.5066">
        <ele>417</ele>
        <time>2019-04-14T09:34:55.581Z</time>
      </trkpt>
      <trkpt lat="43.89453" lon="3.50653">
        <ele>417</ele>
        <time>2019-04-14T09:35:00.611Z</time>
      </trkpt>
      <trkpt lat="43.89454" lon="3.50645">
        <ele>416</ele>
        <time>2019-04-14T09:35:05.582Z</time>
      </trkpt>
      <trkpt lat="43.89455" lon="3.50639">
        <ele>416</ele>
        <time>2019-04-14T09:35:09.610Z</time>
      </trkpt>
      <trkpt lat="43.89456" lon="3.50633">
        <ele>416</ele>
        <time>2019-04-14T09:35:14.589Z</time>
      </trkpt>
      <trkpt lat="43.89456" lon="3.50628">
        <ele>416</ele>
        <time>2019-04-14T09:35:18.609Z</time>
      </trkpt>
      <trkpt lat="43.89454" lon="3.50622">
        <ele>412</ele>
        <time>2019-04-14T09:35:23.596Z</time>
      </trkpt>
      <trkpt lat="43.89455" lon="3.50616">
        <ele>412</ele>
        <time>2019-04-14T09:35:28.584Z</time>
      </trkpt>
      <trkpt lat="43.89455" lon="3.50615">
        <ele>412</ele>
        <time>2019-04-14T09:35:33.595Z</time>
      </trkpt>
      <trkpt lat="43.89456" lon="3.50622">
        <ele>412</ele>
        <time>2019-04-14T09:35:38.591Z</time>
      </trkpt>
      <trkpt lat="43.89457" lon="3.50626">
        <ele>416</ele>
        <time>2019-04-14T09:35:42.624Z</time>
      </trkpt>
      <trkpt lat="43.89457" lon="3.50632">
        <ele>416</ele>
        <time>2019-04-14T09:35:47.613Z</time>
      </trkpt>
      <trkpt lat="43.8946" lon="3.50638">
        <ele>396</ele>
        <time>2019-04-14T09:35:52.614Z</time>
      </trkpt>
      <trkpt lat="43.89463" lon="3.50642">
        <ele>396</ele>
        <time>2019-04-14T09:35:57.582Z</time>
      </trkpt>
      <trkpt lat="43.89466" lon="3.50644">
        <ele>396</ele>
        <time>2019-04-14T09:36:02.596Z</time>
      </trkpt>
      <trkpt lat="43.89467" lon="3.50645">
        <ele>396</ele>
        <time>2019-04-14T09:36:06.625Z</time>
      </trkpt>
      <trkpt lat="43.89471" lon="3.50646">
        <ele>396</ele>
        <time>2019-04-14T09:36:11.586Z</time>
      </trkpt>
      <trkpt lat="43.89473" lon="3.50651">
        <ele>396</ele>
        <time>2019-04-14T09:36:15.606Z</time>
      </trkpt>
      <trkpt lat="43.89475" lon="3.50656">
        <ele>397</ele>
        <time>2019-04-14T09:36:20.612Z</time>
      </trkpt>
      <trkpt lat="43.89475" lon="3.50657">
        <ele>397</ele>
        <time>2019-04-14T09:36:25.592Z</time>
      </trkpt>
      <trkpt lat="43.89479" lon="3.50664">
        <ele>397</ele>
        <time>2019-04-14T09:36:30.630Z</time>
      </trkpt>
      <trkpt lat="43.89479" lon="3.50671">
        <ele>397</ele>
        <time>2019-04-14T09:36:35.589Z</time>
      </trkpt>
      <trkpt lat="43.89481" lon="3.50677">
        <ele>397</ele>
        <time>2019-04-14T09:36:40.581Z</time>
      </trkpt>
      <trkpt lat="43.89482" lon="3.50685">
        <ele>398</ele>
        <time>2019-04-14T09:36:45.584Z</time>
      </trkpt>
      <trkpt lat="43.89484" lon="3.5069">
        <ele>398</ele>
        <time>2019-04-14T09:36:50.589Z</time>
      </trkpt>
      <trkpt lat="43.89487" lon="3.5069">
        <ele>379</ele>
        <time>2019-04-14T09:36:55.583Z</time>
      </trkpt>
      <trkpt lat="43.8949" lon="3.50686">
        <ele>379</ele>
        <time>2019-04-14T09:36:59.611Z</time>
      </trkpt>
      <trkpt lat="43.89492" lon="3.50682">
        <ele>379</ele>
        <time>2019-04-14T09:37:04.582Z</time>
      </trkpt>
      <trkpt lat="43.89492" lon="3.50677">
        <ele>381</ele>
        <time>2019-04-14T09:37:09.592Z</time>
      </trkpt>
      <trkpt lat="43.89495" lon="3.50671">
        <ele>381</ele>
        <time>2019-04-14T09:37:14.623Z</time>
      </trkpt>
      <trkpt lat="43.89498" lon="3.50665">
        <ele>381</ele>
        <time>2019-04-14T09:37:19.580Z</time>
      </trkpt>
      <trkpt lat="43.89501" lon="3.50659">
        <ele>381</ele>
        <time>2019-04-14T09:37:23.628Z</time>
      </trkpt>
      <trkpt lat="43.89503" lon="3.5066">
        <ele>381</ele>
        <time>2019-04-14T09:37:28.611Z</time>
      </trkpt>
      <trkpt lat="43.89502" lon="3.50666">
        <ele>381</ele>
        <time>2019-04-14T09:37:33.622Z</time>
      </trkpt>
      <trkpt lat="43.89503" lon="3.5067">
        <ele>381</ele>
        <time>2019-04-14T09:37:38.588Z</time>
      </trkpt>
      <trkpt lat="43.895" lon="3.50677">
        <ele>381</ele>
        <time>2019-04-14T09:37:43.583Z</time>
      </trkpt>
      <trkpt lat="43.89499" lon="3.50682">
        <ele>379</ele>
        <time>2019-04-14T09:37:47.614Z</time>
      </trkpt>
      <trkpt lat="43.89498" lon="3.50689">
        <ele>379</ele>
        <time>2019-04-14T09:37:52.582Z</time>
      </trkpt>
      <trkpt lat="43.89498" lon="3.50694">
        <ele>379</ele>
        <time>2019-04-14T09:37:56.584Z</time>
      </trkpt>
      <trkpt lat="43.89498" lon="3.507">
        <ele>379</ele>
        <time>2019-04-14T09:38:00.613Z</time>
      </trkpt>
      <trkpt lat="43.89498" lon="3.50704">
        <ele>379</ele>
        <time>2019-04-14T09:38:05.592Z</time>
      </trkpt>
      <trkpt lat="43.89498" lon="3.50711">
        <ele>372</ele>
        <time>2019-04-14T09:38:10.592Z</time>
      </trkpt>
      <trkpt lat="43.89496" lon="3.50717">
        <ele>372</ele>
        <time>2019-04-14T09:38:15.613Z</time>
      </trkpt>
      <trkpt lat="43.89496" lon="3.50721">
        <ele>372</ele>
        <time>2019-04-14T09:38:20.613Z</time>
      </trkpt>
      <trkpt lat="43.89494" lon="3.50727">
        <ele>372</ele>
        <time>2019-04-14T09:38:25.585Z</time>
      </trkpt>
      <trkpt lat="43.89494" lon="3.50733">
        <ele>372</ele>
        <time>2019-04-14T09:38:30.612Z</time>
      </trkpt>
      <trkpt lat="43.89494" lon="3.50742">
        <ele>366</ele>
        <time>2019-04-14T09:38:35.620Z</time>
      </trkpt>
      <trkpt lat="43.89492" lon="3.50749">
        <ele>366</ele>
        <time>2019-04-14T09:38:40.582Z</time>
      </trkpt>
      <trkpt lat="43.89491" lon="3.50752">
        <ele>366</ele>
        <time>2019-04-14T09:38:44.612Z</time>
      </trkpt>
      <trkpt lat="43.8949" lon="3.50756">
        <ele>366</ele>
        <time>2019-04-14T09:38:49.587Z</time>
      </trkpt>
      <trkpt lat="43.89489" lon="3.50763">
        <ele>366</ele>
        <time>2019-04-14T09:38:54.616Z</time>
      </trkpt>
      <trkpt lat="43.89488" lon="3.50771">
        <ele>365</ele>
        <time>2019-04-14T09:38:59.587Z</time>
      </trkpt>
      <trkpt lat="43.89488" lon="3.50777">
        <ele>365</ele>
        <time>2019-04-14T09:39:04.582Z</time>
      </trkpt>
      <trkpt lat="43.89489" lon="3.50785">
        <ele>365</ele>
        <time>2019-04-14T09:39:09.586Z</time>
      </trkpt>
      <trkpt lat="43.89489" lon="3.5079">
        <ele>365</ele>
        <time>2019-04-14T09:39:13.592Z</time>
      </trkpt>
      <trkpt lat="43.89489" lon="3.50794">
        <ele>361</ele>
        <time>2019-04-14T09:39:18.591Z</time>
      </trkpt>
      <trkpt lat="43.89489" lon="3.50795">
        <ele>361</ele>
        <time>2019-04-14T09:39:22.619Z</time>
      </trkpt>
      <trkpt lat="43.8949" lon="3.50802">
        <ele>361</ele>
        <time>2019-04-14T09:39:27.573Z</time>
      </trkpt>
      <trkpt lat="43.89491" lon="3.50809">
        <ele>361</ele>
        <time>2019-04-14T09:39:31.586Z</time>
      </trkpt>
      <trkpt lat="43.89488" lon="3.50816">
        <ele>361</ele>
        <time>2019-04-14T09:39:36.613Z</time>
      </trkpt>
      <trkpt lat="43.89487" lon="3.50821">
        <ele>357</ele>
        <time>2019-04-14T09:39:41.588Z</time>
      </trkpt>
      <trkpt lat="43.89486" lon="3.50827">
        <ele>357</ele>
        <time>2019-04-14T09:39:45.595Z</time>
      </trkpt>
      <trkpt lat="43.89488" lon="3.50834">
        <ele>357</ele>
        <time>2019-04-14T09:39:50.617Z</time>
      </trkpt>
      <trkpt lat="43.89484" lon="3.5084">
        <ele>367</ele>
        <time>2019-04-14T09:39:55.595Z</time>
      </trkpt>
      <trkpt lat="43.89483" lon="3.50847">
        <ele>355</ele>
        <time>2019-04-14T09:40:00.574Z</time>
      </trkpt>
      <trkpt lat="43.89483" lon="3.50854">
        <ele>355</ele>
        <time>2019-04-14T09:40:05.573Z</time>
      </trkpt>
      <trkpt lat="43.89484" lon="3.50856">
        <ele>355</ele>
        <time>2019-04-14T09:40:09.580Z</time>
      </trkpt>
      <trkpt lat="43.89486" lon="3.50867">
        <ele>350</ele>
        <time>2019-04-14T09:40:14.576Z</time>
      </trkpt>
      <trkpt lat="43.89487" lon="3.50874">
        <ele>350</ele>
        <time>2019-04-14T09:40:19.573Z</time>
      </trkpt>
      <trkpt lat="43.89488" lon="3.50879">
        <ele>346</ele>
        <time>2019-04-14T09:40:23.610Z</time>
      </trkpt>
      <trkpt lat="43.89487" lon="3.50885">
        <ele>346</ele>
        <time>2019-04-14T09:40:28.572Z</time>
      </trkpt>
      <trkpt lat="43.89485" lon="3.50887">
        <ele>350</ele>
        <time>2019-04-14T09:40:33.575Z</time>
      </trkpt>
      <trkpt lat="43.89485" lon="3.50893">
        <ele>350</ele>
        <time>2019-04-14T09:40:37.611Z</time>
      </trkpt>
      <trkpt lat="43.89485" lon="3.50897">
        <ele>350</ele>
        <time>2019-04-14T09:40:42.615Z</time>
      </trkpt>
      <trkpt lat="43.89483" lon="3.50903">
        <ele>350</ele>
        <time>2019-04-14T09:40:47.613Z</time>
      </trkpt>
      <trkpt lat="43.89482" lon="3.50909">
        <ele>347</ele>
        <time>2019-04-14T09:40:52.577Z</time>
      </trkpt>
      <trkpt lat="43.8948" lon="3.50914">
        <ele>347</ele>
        <time>2019-04-14T09:40:56.611Z</time>
      </trkpt>
      <trkpt lat="43.89476" lon="3.50917">
        <ele>347</ele>
        <time>2019-04-14T09:41:01.589Z</time>
      </trkpt>
      <trkpt lat="43.89475" lon="3.50919">
        <ele>347</ele>
        <time>2019-04-14T09:41:06.581Z</time>
      </trkpt>
      <trkpt lat="43.89472" lon="3.50914">
        <ele>347</ele>
        <time>2019-04-14T09:41:11.615Z</time>
      </trkpt>
      <trkpt lat="43.89468" lon="3.50908">
        <ele>347</ele>
        <time>2019-04-14T09:41:16.571Z</time>
      </trkpt>
      <trkpt lat="43.8946" lon="3.50907">
        <ele>347</ele>
        <time>2019-04-14T09:41:21.572Z</time>
      </trkpt>
      <trkpt lat="43.89458" lon="3.50906">
        <ele>345</ele>
        <time>2019-04-14T09:41:26.576Z</time>
      </trkpt>
      <trkpt lat="43.89457" lon="3.50908">
        <ele>345</ele>
        <time>2019-04-14T09:41:31.574Z</time>
      </trkpt>
      <trkpt lat="43.8946" lon="3.5091">
        <ele>347</ele>
        <time>2019-04-14T09:41:35.577Z</time>
      </trkpt>
      <trkpt lat="43.89464" lon="3.50913">
        <ele>347</ele>
        <time>2019-04-14T09:41:40.573Z</time>
      </trkpt>
      <trkpt lat="43.89465" lon="3.50919">
        <ele>347</ele>
        <time>2019-04-14T09:41:44.611Z</time>
      </trkpt>
      <trkpt lat="43.89463" lon="3.50923">
        <ele>347</ele>
        <time>2019-04-14T09:41:49.582Z</time>
      </trkpt>
      <trkpt lat="43.89459" lon="3.50921">
        <ele>347</ele>
        <time>2019-04-14T09:41:53.593Z</time>
      </trkpt>
      <trkpt lat="43.89457" lon="3.50926">
        <ele>345</ele>
        <time>2019-04-14T09:41:58.615Z</time>
      </trkpt>
      <trkpt lat="43.89458" lon="3.50934">
        <ele>344</ele>
        <time>2019-04-14T09:42:03.574Z</time>
      </trkpt>
      <trkpt lat="43.8946" lon="3.50942">
        <ele>344</ele>
        <time>2019-04-14T09:42:13.574Z</time>
      </trkpt>
      <trkpt lat="43.89461" lon="3.50947">
        <ele>344</ele>
        <time>2019-04-14T09:42:17.591Z</time>
      </trkpt>
      <trkpt lat="43.89462" lon="3.50947">
        <ele>344</ele>
        <time>2019-04-14T09:42:21.614Z</time>
      </trkpt>
      <trkpt lat="43.89465" lon="3.5095">
        <ele>344</ele>
        <time>2019-04-14T09:42:26.583Z</time>
      </trkpt>
      <trkpt lat="43.89467" lon="3.50954">
        <ele>344</ele>
        <time>2019-04-14T09:42:31.596Z</time>
      </trkpt>
      <trkpt lat="43.89466" lon="3.50958">
        <ele>344</ele>
        <time>2019-04-14T09:42:35.616Z</time>
      </trkpt>
      <trkpt lat="43.89463" lon="3.50964">
        <ele>341</ele>
        <time>2019-04-14T09:42:40.613Z</time>
      </trkpt>
      <trkpt lat="43.89466" lon="3.50972">
        <ele>341</ele>
        <time>2019-04-14T09:42:45.594Z</time>
      </trkpt>
      <trkpt lat="43.89472" lon="3.5098">
        <ele>341</ele>
        <time>2019-04-14T09:42:50.593Z</time>
      </trkpt>
      <trkpt lat="43.89476" lon="3.50987">
        <ele>340</ele>
        <time>2019-04-14T09:42:55.591Z</time>
      </trkpt>
      <trkpt lat="43.89474" lon="3.50995">
        <ele>340</ele>
        <time>2019-04-14T09:43:00.611Z</time>
      </trkpt>
      <trkpt lat="43.8947" lon="3.51004">
        <ele>340</ele>
        <time>2019-04-14T09:43:05.613Z</time>
      </trkpt>
      <trkpt lat="43.89469" lon="3.51011">
        <ele>340</ele>
        <time>2019-04-14T09:43:10.622Z</time>
      </trkpt>
      <trkpt lat="43.8947" lon="3.51019">
        <ele>336</ele>
        <time>2019-04-14T09:43:15.612Z</time>
      </trkpt>
      <trkpt lat="43.89473" lon="3.51025">
        <ele>336</ele>
        <time>2019-04-14T09:43:20.583Z</time>
      </trkpt>
      <trkpt lat="43.89475" lon="3.51031">
        <ele>336</ele>
        <time>2019-04-14T09:43:25.619Z</time>
      </trkpt>
      <trkpt lat="43.89476" lon="3.5104">
        <ele>336</ele>
        <time>2019-04-14T09:43:30.615Z</time>
      </trkpt>
      <trkpt lat="43.89477" lon="3.51046">
        <ele>332</ele>
        <time>2019-04-14T09:43:53.596Z</time>
      </trkpt>
      <trkpt lat="43.89478" lon="3.51045">
        <ele>332</ele>
        <time>2019-04-14T09:43:58.616Z</time>
      </trkpt>
      <trkpt lat="43.89481" lon="3.51045">
        <ele>332</ele>
        <time>2019-04-14T09:45:17.592Z</time>
      </trkpt>
      <trkpt lat="43.8949" lon="3.51043">
        <ele>330</ele>
        <time>2019-04-14T09:45:22.605Z</time>
      </trkpt>
      <trkpt lat="43.89495" lon="3.51038">
        <ele>334</ele>
        <time>2019-04-14T09:45:27.592Z</time>
      </trkpt>
      <trkpt lat="43.89501" lon="3.51037">
        <ele>334</ele>
        <time>2019-04-14T09:45:32.614Z</time>
      </trkpt>
      <trkpt lat="43.89506" lon="3.51033">
        <ele>334</ele>
        <time>2019-04-14T09:45:37.578Z</time>
      </trkpt>
      <trkpt lat="43.89508" lon="3.5103">
        <ele>334</ele>
        <time>2019-04-14T09:45:41.589Z</time>
      </trkpt>
      <trkpt lat="43.8951" lon="3.51029">
        <ele>334</ele>
        <time>2019-04-14T09:45:46.585Z</time>
      </trkpt>
      <trkpt lat="43.89518" lon="3.51025">
        <ele>335</ele>
        <time>2019-04-14T09:45:51.583Z</time>
      </trkpt>
      <trkpt lat="43.89523" lon="3.51022">
        <ele>335</ele>
        <time>2019-04-14T09:45:56.581Z</time>
      </trkpt>
      <trkpt lat="43.89526" lon="3.5102">
        <ele>335</ele>
        <time>2019-04-14T09:46:01.614Z</time>
      </trkpt>
      <trkpt lat="43.89527" lon="3.51021">
        <ele>335</ele>
        <time>2019-04-14T09:46:06.623Z</time>
      </trkpt>
      <trkpt lat="43.8953" lon="3.51029">
        <ele>335</ele>
        <time>2019-04-14T09:46:40.611Z</time>
      </trkpt>
      <trkpt lat="43.89531" lon="3.51023">
        <ele>335</ele>
        <time>2019-04-14T09:46:45.587Z</time>
      </trkpt>
      <trkpt lat="43.89532" lon="3.51021">
        <ele>335</ele>
        <time>2019-04-14T09:46:49.593Z</time>
      </trkpt>
      <trkpt lat="43.89535" lon="3.51017">
        <ele>335</ele>
        <time>2019-04-14T09:46:53.615Z</time>
      </trkpt>
      <trkpt lat="43.89537" lon="3.51015">
        <ele>335</ele>
        <time>2019-04-14T09:46:58.586Z</time>
      </trkpt>
      <trkpt lat="43.89541" lon="3.51013">
        <ele>334</ele>
        <time>2019-04-14T09:47:17.604Z</time>
      </trkpt>
      <trkpt lat="43.89542" lon="3.51013">
        <ele>334</ele>
        <time>2019-04-14T09:47:22.576Z</time>
      </trkpt>
      <trkpt lat="43.89543" lon="3.51015">
        <ele>344</ele>
        <time>2019-04-14T09:47:27.574Z</time>
      </trkpt>
      <trkpt lat="43.89543" lon="3.51014">
        <ele>344</ele>
        <time>2019-04-14T09:47:31.612Z</time>
      </trkpt>
      <trkpt lat="43.89548" lon="3.51015">
        <ele>344</ele>
        <time>2019-04-14T09:47:36.582Z</time>
      </trkpt>
      <trkpt lat="43.8955" lon="3.51017">
        <ele>344</ele>
        <time>2019-04-14T09:47:41.585Z</time>
      </trkpt>
      <trkpt lat="43.89549" lon="3.51024">
        <ele>344</ele>
        <time>2019-04-14T09:47:46.587Z</time>
      </trkpt>
      <trkpt lat="43.89547" lon="3.5103">
        <ele>344</ele>
        <time>2019-04-14T09:47:50.614Z</time>
      </trkpt>
      <trkpt lat="43.89545" lon="3.51034">
        <ele>344</ele>
        <time>2019-04-14T09:47:55.613Z</time>
      </trkpt>
      <trkpt lat="43.89547" lon="3.51032">
        <ele>344</ele>
        <time>2019-04-14T09:48:00.575Z</time>
      </trkpt>
      <trkpt lat="43.89547" lon="3.51035">
        <ele>344</ele>
        <time>2019-04-14T09:48:05.574Z</time>
      </trkpt>
      <trkpt lat="43.89547" lon="3.51041">
        <ele>344</ele>
        <time>2019-04-14T09:48:09.592Z</time>
      </trkpt>
      <trkpt lat="43.89548" lon="3.51046">
        <ele>345</ele>
        <time>2019-04-14T09:48:14.596Z</time>
      </trkpt>
      <trkpt lat="43.89551" lon="3.51048">
        <ele>345</ele>
        <time>2019-04-14T09:48:19.583Z</time>
      </trkpt>
      <trkpt lat="43.89553" lon="3.51044">
        <ele>345</ele>
        <time>2019-04-14T09:48:23.618Z</time>
      </trkpt>
      <trkpt lat="43.89555" lon="3.51039">
        <ele>344</ele>
        <time>2019-04-14T09:48:27.627Z</time>
      </trkpt>
      <trkpt lat="43.89557" lon="3.51032">
        <ele>344</ele>
        <time>2019-04-14T09:48:32.612Z</time>
      </trkpt>
      <trkpt lat="43.8956" lon="3.51025">
        <ele>344</ele>
        <time>2019-04-14T09:48:37.582Z</time>
      </trkpt>
      <trkpt lat="43.89562" lon="3.51019">
        <ele>344</ele>
        <time>2019-04-14T09:48:41.613Z</time>
      </trkpt>
      <trkpt lat="43.89563" lon="3.51015">
        <ele>344</ele>
        <time>2019-04-14T09:48:46.574Z</time>
      </trkpt>
      <trkpt lat="43.89564" lon="3.51014">
        <ele>343</ele>
        <time>2019-04-14T09:48:50.573Z</time>
      </trkpt>
      <trkpt lat="43.89566" lon="3.51008">
        <ele>343</ele>
        <time>2019-04-14T09:48:55.582Z</time>
      </trkpt>
      <trkpt lat="43.89566" lon="3.51002">
        <ele>343</ele>
        <time>2019-04-14T09:48:59.593Z</time>
      </trkpt>
      <trkpt lat="43.89567" lon="3.50996">
        <ele>343</ele>
        <time>2019-04-14T09:49:04.583Z</time>
      </trkpt>
      <trkpt lat="43.89568" lon="3.50992">
        <ele>343</ele>
        <time>2019-04-14T09:49:08.614Z</time>
      </trkpt>
      <trkpt lat="43.8957" lon="3.50985">
        <ele>358</ele>
        <time>2019-04-14T09:49:13.599Z</time>
      </trkpt>
      <trkpt lat="43.89571" lon="3.5098">
        <ele>358</ele>
        <time>2019-04-14T09:49:17.607Z</time>
      </trkpt>
      <trkpt lat="43.89573" lon="3.50975">
        <ele>358</ele>
        <time>2019-04-14T09:49:22.584Z</time>
      </trkpt>
      <trkpt lat="43.89574" lon="3.5097">
        <ele>358</ele>
        <time>2019-04-14T09:49:26.604Z</time>
      </trkpt>
      <trkpt lat="43.89575" lon="3.50963">
        <ele>358</ele>
        <time>2019-04-14T09:49:31.582Z</time>
      </trkpt>
      <trkpt lat="43.89577" lon="3.50958">
        <ele>355</ele>
        <time>2019-04-14T09:49:35.611Z</time>
      </trkpt>
      <trkpt lat="43.89578" lon="3.50952">
        <ele>355</ele>
        <time>2019-04-14T09:49:40.615Z</time>
      </trkpt>
      <trkpt lat="43.89578" lon="3.50945">
        <ele>355</ele>
        <time>2019-04-14T09:49:45.587Z</time>
      </trkpt>
      <trkpt lat="43.89579" lon="3.50939">
        <ele>355</ele>
        <time>2019-04-14T09:49:49.620Z</time>
      </trkpt>
      <trkpt lat="43.89579" lon="3.50932">
        <ele>355</ele>
        <time>2019-04-14T09:49:54.584Z</time>
      </trkpt>
      <trkpt lat="43.89579" lon="3.50926">
        <ele>351</ele>
        <time>2019-04-14T09:49:58.612Z</time>
      </trkpt>
      <trkpt lat="43.89581" lon="3.5092">
        <ele>351</ele>
        <time>2019-04-14T09:50:02.617Z</time>
      </trkpt>
      <trkpt lat="43.89582" lon="3.50915">
        <ele>351</ele>
        <time>2019-04-14T09:50:07.594Z</time>
      </trkpt>
      <trkpt lat="43.89584" lon="3.50909">
        <ele>351</ele>
        <time>2019-04-14T09:50:12.583Z</time>
      </trkpt>
      <trkpt lat="43.89585" lon="3.50902">
        <ele>347</ele>
        <time>2019-04-14T09:50:16.616Z</time>
      </trkpt>
      <trkpt lat="43.89586" lon="3.50896">
        <ele>347</ele>
        <time>2019-04-14T09:50:21.582Z</time>
      </trkpt>
      <trkpt lat="43.89588" lon="3.50891">
        <ele>347</ele>
        <time>2019-04-14T09:50:25.612Z</time>
      </trkpt>
      <trkpt lat="43.89589" lon="3.50886">
        <ele>347</ele>
        <time>2019-04-14T09:50:29.624Z</time>
      </trkpt>
      <trkpt lat="43.8959" lon="3.50881">
        <ele>347</ele>
        <time>2019-04-14T09:50:34.586Z</time>
      </trkpt>
      <trkpt lat="43.89592" lon="3.50877">
        <ele>347</ele>
        <time>2019-04-14T09:50:38.610Z</time>
      </trkpt>
      <trkpt lat="43.89593" lon="3.50872">
        <ele>342</ele>
        <time>2019-04-14T09:50:43.592Z</time>
      </trkpt>
      <trkpt lat="43.89595" lon="3.50868">
        <ele>342</ele>
        <time>2019-04-14T09:50:48.579Z</time>
      </trkpt>
      <trkpt lat="43.89598" lon="3.50864">
        <ele>358</ele>
        <time>2019-04-14T09:50:58.594Z</time>
      </trkpt>
      <trkpt lat="43.896" lon="3.50857">
        <ele>358</ele>
        <time>2019-04-14T09:51:03.624Z</time>
      </trkpt>
      <trkpt lat="43.89601" lon="3.50852">
        <ele>358</ele>
        <time>2019-04-14T09:51:08.583Z</time>
      </trkpt>
      <trkpt lat="43.89603" lon="3.50846">
        <ele>354</ele>
        <time>2019-04-14T09:51:13.583Z</time>
      </trkpt>
      <trkpt lat="43.89605" lon="3.50841">
        <ele>354</ele>
        <time>2019-04-14T09:51:17.599Z</time>
      </trkpt>
      <trkpt lat="43.89607" lon="3.50835">
        <ele>354</ele>
        <time>2019-04-14T09:51:22.593Z</time>
      </trkpt>
      <trkpt lat="43.8961" lon="3.50829">
        <ele>354</ele>
        <time>2019-04-14T09:51:27.589Z</time>
      </trkpt>
      <trkpt lat="43.89613" lon="3.50823">
        <ele>354</ele>
        <time>2019-04-14T09:51:32.587Z</time>
      </trkpt>
      <trkpt lat="43.89615" lon="3.50816">
        <ele>346</ele>
        <time>2019-04-14T09:51:37.598Z</time>
      </trkpt>
      <trkpt lat="43.89616" lon="3.5081">
        <ele>346</ele>
        <time>2019-04-14T09:51:42.617Z</time>
      </trkpt>
      <trkpt lat="43.89618" lon="3.50806">
        <ele>346</ele>
        <time>2019-04-14T09:51:47.612Z</time>
      </trkpt>
      <trkpt lat="43.8962" lon="3.50801">
        <ele>346</ele>
        <time>2019-04-14T09:51:52.615Z</time>
      </trkpt>
      <trkpt lat="43.89623" lon="3.50797">
        <ele>346</ele>
        <time>2019-04-14T09:51:57.593Z</time>
      </trkpt>
      <trkpt lat="43.89627" lon="3.50794">
        <ele>360</ele>
        <time>2019-04-14T09:52:02.590Z</time>
      </trkpt>
      <trkpt lat="43.89633" lon="3.50787">
        <ele>349</ele>
        <time>2019-04-14T09:52:12.604Z</time>
      </trkpt>
      <trkpt lat="43.89634" lon="3.50792">
        <ele>360</ele>
        <time>2019-04-14T09:52:26.596Z</time>
      </trkpt>
      <trkpt lat="43.89631" lon="3.50796">
        <ele>360</ele>
        <time>2019-04-14T09:52:31.615Z</time>
      </trkpt>
      <trkpt lat="43.89627" lon="3.50799">
        <ele>360</ele>
        <time>2019-04-14T09:52:36.613Z</time>
      </trkpt>
      <trkpt lat="43.89625" lon="3.50804">
        <ele>346</ele>
        <time>2019-04-14T09:52:41.587Z</time>
      </trkpt>
      <trkpt lat="43.89623" lon="3.50811">
        <ele>346</ele>
        <time>2019-04-14T09:52:46.588Z</time>
      </trkpt>
      <trkpt lat="43.89621" lon="3.50816">
        <ele>346</ele>
        <time>2019-04-14T09:52:50.594Z</time>
      </trkpt>
      <trkpt lat="43.89619" lon="3.50821">
        <ele>354</ele>
        <time>2019-04-14T09:52:55.585Z</time>
      </trkpt>
      <trkpt lat="43.89615" lon="3.50825">
        <ele>354</ele>
        <time>2019-04-14T09:52:59.586Z</time>
      </trkpt>
      <trkpt lat="43.89613" lon="3.5083">
        <ele>354</ele>
        <time>2019-04-14T09:53:03.594Z</time>
      </trkpt>
      <trkpt lat="43.89611" lon="3.50837">
        <ele>354</ele>
        <time>2019-04-14T09:53:08.613Z</time>
      </trkpt>
      <trkpt lat="43.89609" lon="3.50845">
        <ele>354</ele>
        <time>2019-04-14T09:53:13.583Z</time>
      </trkpt>
      <trkpt lat="43.89608" lon="3.5085">
        <ele>358</ele>
        <time>2019-04-14T09:53:17.587Z</time>
      </trkpt>
      <trkpt lat="43.89606" lon="3.50857">
        <ele>358</ele>
        <time>2019-04-14T09:53:22.607Z</time>
      </trkpt>
      <trkpt lat="43.89605" lon="3.50861">
        <ele>358</ele>
        <time>2019-04-14T09:53:26.625Z</time>
      </trkpt>
      <trkpt lat="43.89605" lon="3.50866">
        <ele>358</ele>
        <time>2019-04-14T09:53:31.582Z</time>
      </trkpt>
      <trkpt lat="43.89604" lon="3.50872">
        <ele>358</ele>
        <time>2019-04-14T09:53:36.586Z</time>
      </trkpt>
      <trkpt lat="43.89606" lon="3.50878">
        <ele>364</ele>
        <time>2019-04-14T09:53:40.614Z</time>
      </trkpt>
      <trkpt lat="43.8961" lon="3.50879">
        <ele>364</ele>
        <time>2019-04-14T09:53:45.583Z</time>
      </trkpt>
      <trkpt lat="43.89613" lon="3.50876">
        <ele>364</ele>
        <time>2019-04-14T09:53:50.621Z</time>
      </trkpt>
      <trkpt lat="43.89617" lon="3.50874">
        <ele>358</ele>
        <time>2019-04-14T09:53:55.582Z</time>
      </trkpt>
      <trkpt lat="43.89621" lon="3.50868">
        <ele>358</ele>
        <time>2019-04-14T09:54:00.584Z</time>
      </trkpt>
      <trkpt lat="43.89624" lon="3.50862">
        <ele>358</ele>
        <time>2019-04-14T09:54:05.584Z</time>
      </trkpt>
      <trkpt lat="43.89626" lon="3.50857">
        <ele>375</ele>
        <time>2019-04-14T09:54:09.595Z</time>
      </trkpt>
      <trkpt lat="43.89627" lon="3.50855">
        <ele>375</ele>
        <time>2019-04-14T09:54:14.616Z</time>
      </trkpt>
      <trkpt lat="43.89631" lon="3.50849">
        <ele>375</ele>
        <time>2019-04-14T09:54:19.588Z</time>
      </trkpt>
      <trkpt lat="43.89634" lon="3.50845">
        <ele>369</ele>
        <time>2019-04-14T09:54:23.598Z</time>
      </trkpt>
      <trkpt lat="43.89636" lon="3.5084">
        <ele>369</ele>
        <time>2019-04-14T09:54:28.583Z</time>
      </trkpt>
      <trkpt lat="43.89636" lon="3.5084">
        <ele>369</ele>
        <time>2019-04-14T09:54:32.618Z</time>
      </trkpt>
      <trkpt lat="43.89638" lon="3.50836">
        <ele>369</ele>
        <time>2019-04-14T09:54:37.582Z</time>
      </trkpt>
      <trkpt lat="43.89641" lon="3.50828">
        <ele>369</ele>
        <time>2019-04-14T09:54:42.584Z</time>
      </trkpt>
      <trkpt lat="43.89642" lon="3.50822">
        <ele>369</ele>
        <time>2019-04-14T09:54:46.594Z</time>
      </trkpt>
      <trkpt lat="43.89646" lon="3.50816">
        <ele>360</ele>
        <time>2019-04-14T09:54:51.597Z</time>
      </trkpt>
      <trkpt lat="43.89648" lon="3.50811">
        <ele>360</ele>
        <time>2019-04-14T09:54:56.584Z</time>
      </trkpt>
      <trkpt lat="43.89649" lon="3.50811">
        <ele>360</ele>
        <time>2019-04-14T09:55:00.614Z</time>
      </trkpt>
      <trkpt lat="43.8965" lon="3.50814">
        <ele>360</ele>
        <time>2019-04-14T09:55:05.612Z</time>
      </trkpt>
      <trkpt lat="43.89649" lon="3.50818">
        <ele>360</ele>
        <time>2019-04-14T09:55:10.594Z</time>
      </trkpt>
      <trkpt lat="43.89646" lon="3.5082">
        <ele>369</ele>
        <time>2019-04-14T09:55:14.615Z</time>
      </trkpt>
      <trkpt lat="43.89644" lon="3.50824">
        <ele>369</ele>
        <time>2019-04-14T09:55:19.586Z</time>
      </trkpt>
      <trkpt lat="43.89643" lon="3.50829">
        <ele>369</ele>
        <time>2019-04-14T09:55:23.617Z</time>
      </trkpt>
      <trkpt lat="43.89641" lon="3.50835">
        <ele>369</ele>
        <time>2019-04-14T09:55:28.614Z</time>
      </trkpt>
      <trkpt lat="43.89639" lon="3.50842">
        <ele>369</ele>
        <time>2019-04-14T09:55:33.597Z</time>
      </trkpt>
      <trkpt lat="43.89638" lon="3.50848">
        <ele>375</ele>
        <time>2019-04-14T09:55:38.584Z</time>
      </trkpt>
      <trkpt lat="43.89638" lon="3.50854">
        <ele>375</ele>
        <time>2019-04-14T09:55:43.597Z</time>
      </trkpt>
      <trkpt lat="43.89639" lon="3.5086">
        <ele>375</ele>
        <time>2019-04-14T09:55:48.613Z</time>
      </trkpt>
      <trkpt lat="43.8964" lon="3.50863">
        <ele>375</ele>
        <time>2019-04-14T09:55:58.593Z</time>
      </trkpt>
      <trkpt lat="43.89641" lon="3.5087">
        <ele>375</ele>
        <time>2019-04-14T09:56:03.597Z</time>
      </trkpt>
      <trkpt lat="43.8964" lon="3.50876">
        <ele>381</ele>
        <time>2019-04-14T09:56:08.586Z</time>
      </trkpt>
      <trkpt lat="43.8964" lon="3.50881">
        <ele>381</ele>
        <time>2019-04-14T09:56:13.595Z</time>
      </trkpt>
      <trkpt lat="43.89639" lon="3.50885">
        <ele>381</ele>
        <time>2019-04-14T09:56:17.616Z</time>
      </trkpt>
      <trkpt lat="43.89639" lon="3.50891">
        <ele>381</ele>
        <time>2019-04-14T09:56:22.597Z</time>
      </trkpt>
      <trkpt lat="43.89637" lon="3.50895">
        <ele>381</ele>
        <time>2019-04-14T09:56:27.596Z</time>
      </trkpt>
      <trkpt lat="43.89637" lon="3.50901">
        <ele>381</ele>
        <time>2019-04-14T09:56:32.584Z</time>
      </trkpt>
      <trkpt lat="43.89636" lon="3.50907">
        <ele>385</ele>
        <time>2019-04-14T09:56:37.594Z</time>
      </trkpt>
      <trkpt lat="43.89636" lon="3.50912">
        <ele>385</ele>
        <time>2019-04-14T09:56:41.631Z</time>
      </trkpt>
      <trkpt lat="43.89636" lon="3.50916">
        <ele>385</ele>
        <time>2019-04-14T09:56:46.583Z</time>
      </trkpt>
      <trkpt lat="43.89636" lon="3.50921">
        <ele>385</ele>
        <time>2019-04-14T09:56:50.593Z</time>
      </trkpt>
      <trkpt lat="43.89637" lon="3.50925">
        <ele>385</ele>
        <time>2019-04-14T09:56:54.613Z</time>
      </trkpt>
      <trkpt lat="43.89636" lon="3.50932">
        <ele>389</ele>
        <time>2019-04-14T09:56:59.599Z</time>
      </trkpt>
      <trkpt lat="43.89638" lon="3.50939">
        <ele>389</ele>
        <time>2019-04-14T09:57:18.614Z</time>
      </trkpt>
      <trkpt lat="43.89641" lon="3.50934">
        <ele>389</ele>
        <time>2019-04-14T09:57:23.593Z</time>
      </trkpt>
      <trkpt lat="43.89643" lon="3.50932">
        <ele>389</ele>
        <time>2019-04-14T09:57:27.595Z</time>
      </trkpt>
      <trkpt lat="43.89644" lon="3.5093">
        <ele>385</ele>
        <time>2019-04-14T09:57:32.584Z</time>
      </trkpt>
      <trkpt lat="43.89645" lon="3.50926">
        <ele>385</ele>
        <time>2019-04-14T09:57:36.614Z</time>
      </trkpt>
      <trkpt lat="43.89651" lon="3.50926">
        <ele>385</ele>
        <time>2019-04-14T09:58:09.625Z</time>
      </trkpt>
      <trkpt lat="43.89649" lon="3.50931">
        <ele>389</ele>
        <time>2019-04-14T09:58:14.595Z</time>
      </trkpt>
      <trkpt lat="43.8965" lon="3.50936">
        <ele>389</ele>
        <time>2019-04-14T09:58:19.587Z</time>
      </trkpt>
      <trkpt lat="43.8965" lon="3.50939">
        <ele>389</ele>
        <time>2019-04-14T09:58:23.598Z</time>
      </trkpt>
      <trkpt lat="43.8965" lon="3.50945">
        <ele>389</ele>
        <time>2019-04-14T09:58:28.582Z</time>
      </trkpt>
      <trkpt lat="43.8965" lon="3.5095">
        <ele>389</ele>
        <time>2019-04-14T09:58:37.613Z</time>
      </trkpt>
      <trkpt lat="43.89651" lon="3.5096">
        <ele>393</ele>
        <time>2019-04-14T09:58:42.585Z</time>
      </trkpt>
      <trkpt lat="43.8965" lon="3.50969">
        <ele>393</ele>
        <time>2019-04-14T09:58:47.582Z</time>
      </trkpt>
      <trkpt lat="43.89651" lon="3.50974">
        <ele>393</ele>
        <time>2019-04-14T09:58:51.612Z</time>
      </trkpt>
      <trkpt lat="43.89651" lon="3.50981">
        <ele>393</ele>
        <time>2019-04-14T09:58:56.612Z</time>
      </trkpt>
      <trkpt lat="43.89651" lon="3.50987">
        <ele>396</ele>
        <time>2019-04-14T09:59:01.612Z</time>
      </trkpt>
      <trkpt lat="43.89651" lon="3.50994">
        <ele>396</ele>
        <time>2019-04-14T09:59:06.620Z</time>
      </trkpt>
      <trkpt lat="43.89651" lon="3.51">
        <ele>396</ele>
        <time>2019-04-14T09:59:11.622Z</time>
      </trkpt>
      <trkpt lat="43.8965" lon="3.51005">
        <ele>396</ele>
        <time>2019-04-14T09:59:16.584Z</time>
      </trkpt>
      <trkpt lat="43.89649" lon="3.51012">
        <ele>396</ele>
        <time>2019-04-14T09:59:21.618Z</time>
      </trkpt>
      <trkpt lat="43.89647" lon="3.51016">
        <ele>398</ele>
        <time>2019-04-14T09:59:26.614Z</time>
      </trkpt>
      <trkpt lat="43.89646" lon="3.51022">
        <ele>398</ele>
        <time>2019-04-14T09:59:31.595Z</time>
      </trkpt>
      <trkpt lat="43.89648" lon="3.51028">
        <ele>398</ele>
        <time>2019-04-14T09:59:36.621Z</time>
      </trkpt>
      <trkpt lat="43.89653" lon="3.51027">
        <ele>398</ele>
        <time>2019-04-14T09:59:41.592Z</time>
      </trkpt>
      <trkpt lat="43.89654" lon="3.51024">
        <ele>416</ele>
        <time>2019-04-14T09:59:46.628Z</time>
      </trkpt>
      <trkpt lat="43.89657" lon="3.51018">
        <ele>416</ele>
        <time>2019-04-14T09:59:51.590Z</time>
      </trkpt>
      <trkpt lat="43.89657" lon="3.51018">
        <ele>416</ele>
        <time>2019-04-14T09:59:55.614Z</time>
      </trkpt>
      <trkpt lat="43.89658" lon="3.51017">
        <ele>416</ele>
        <time>2019-04-14T09:59:59.627Z</time>
      </trkpt>
      <trkpt lat="43.8966" lon="3.5101">
        <ele>417</ele>
        <time>2019-04-14T10:00:04.614Z</time>
      </trkpt>
      <trkpt lat="43.89663" lon="3.51002">
        <ele>417</ele>
        <time>2019-04-14T10:00:09.589Z</time>
      </trkpt>
      <trkpt lat="43.89665" lon="3.50997">
        <ele>417</ele>
        <time>2019-04-14T10:00:13.598Z</time>
      </trkpt>
      <trkpt lat="43.89669" lon="3.50991">
        <ele>417</ele>
        <time>2019-04-14T10:00:18.598Z</time>
      </trkpt>
      <trkpt lat="43.8967" lon="3.50984">
        <ele>414</ele>
        <time>2019-04-14T10:00:23.614Z</time>
      </trkpt>
      <trkpt lat="43.89672" lon="3.5098">
        <ele>414</ele>
        <time>2019-04-14T10:00:28.583Z</time>
      </trkpt>
      <trkpt lat="43.89673" lon="3.50974">
        <ele>414</ele>
        <time>2019-04-14T10:00:33.589Z</time>
      </trkpt>
      <trkpt lat="43.89675" lon="3.50971">
        <ele>414</ele>
        <time>2019-04-14T10:00:37.618Z</time>
      </trkpt>
      <trkpt lat="43.89677" lon="3.50966">
        <ele>414</ele>
        <time>2019-04-14T10:00:42.598Z</time>
      </trkpt>
      <trkpt lat="43.89679" lon="3.5096">
        <ele>414</ele>
        <time>2019-04-14T10:00:47.597Z</time>
      </trkpt>
      <trkpt lat="43.89681" lon="3.50954">
        <ele>429</ele>
        <time>2019-04-14T10:00:52.582Z</time>
      </trkpt>
      <trkpt lat="43.89683" lon="3.50949">
        <ele>429</ele>
        <time>2019-04-14T10:00:57.600Z</time>
      </trkpt>
      <trkpt lat="43.89685" lon="3.50944">
        <ele>429</ele>
        <time>2019-04-14T10:01:02.594Z</time>
      </trkpt>
      <trkpt lat="43.89688" lon="3.50941">
        <ele>429</ele>
        <time>2019-04-14T10:01:07.614Z</time>
      </trkpt>
      <trkpt lat="43.89689" lon="3.50937">
        <ele>429</ele>
        <time>2019-04-14T10:01:11.608Z</time>
      </trkpt>
      <trkpt lat="43.89692" lon="3.5093">
        <ele>424</ele>
        <time>2019-04-14T10:01:16.612Z</time>
      </trkpt>
      <trkpt lat="43.89693" lon="3.50928">
        <ele>424</ele>
        <time>2019-04-14T10:01:21.592Z</time>
      </trkpt>
      <trkpt lat="43.89695" lon="3.50924">
        <ele>424</ele>
        <time>2019-04-14T10:01:25.613Z</time>
      </trkpt>
      <trkpt lat="43.89697" lon="3.5092">
        <ele>424</ele>
        <time>2019-04-14T10:01:29.614Z</time>
      </trkpt>
      <trkpt lat="43.89699" lon="3.50915">
        <ele>424</ele>
        <time>2019-04-14T10:01:34.585Z</time>
      </trkpt>
      <trkpt lat="43.897" lon="3.50912">
        <ele>424</ele>
        <time>2019-04-14T10:01:39.585Z</time>
      </trkpt>
      <trkpt lat="43.89702" lon="3.50907">
        <ele>424</ele>
        <time>2019-04-14T10:01:44.614Z</time>
      </trkpt>
      <trkpt lat="43.89704" lon="3.50901">
        <ele>418</ele>
        <time>2019-04-14T10:01:53.623Z</time>
      </trkpt>
      <trkpt lat="43.89706" lon="3.50904">
        <ele>424</ele>
        <time>2019-04-14T10:01:58.585Z</time>
      </trkpt>
      <trkpt lat="43.89705" lon="3.50909">
        <ele>424</ele>
        <time>2019-04-14T10:02:02.594Z</time>
      </trkpt>
      <trkpt lat="43.89703" lon="3.50913">
        <ele>424</ele>
        <time>2019-04-14T10:02:07.591Z</time>
      </trkpt>
      <trkpt lat="43.89702" lon="3.50916">
        <ele>424</ele>
        <time>2019-04-14T10:02:11.613Z</time>
      </trkpt>
      <trkpt lat="43.89701" lon="3.50921">
        <ele>424</ele>
        <time>2019-04-14T10:02:16.582Z</time>
      </trkpt>
      <trkpt lat="43.89701" lon="3.50923">
        <ele>424</ele>
        <time>2019-04-14T10:02:20.614Z</time>
      </trkpt>
      <trkpt lat="43.89701" lon="3.50929">
        <ele>424</ele>
        <time>2019-04-14T10:02:25.624Z</time>
      </trkpt>
      <trkpt lat="43.897" lon="3.50936">
        <ele>429</ele>
        <time>2019-04-14T10:02:30.613Z</time>
      </trkpt>
      <trkpt lat="43.897" lon="3.50943">
        <ele>429</ele>
        <time>2019-04-14T10:02:35.603Z</time>
      </trkpt>
      <trkpt lat="43.897" lon="3.50949">
        <ele>429</ele>
        <time>2019-04-14T10:02:40.582Z</time>
      </trkpt>
      <trkpt lat="43.89698" lon="3.50956">
        <ele>429</ele>
        <time>2019-04-14T10:02:45.591Z</time>
      </trkpt>
      <trkpt lat="43.89698" lon="3.50963">
        <ele>433</ele>
        <time>2019-04-14T10:02:50.621Z</time>
      </trkpt>
      <trkpt lat="43.89698" lon="3.50963">
        <ele>433</ele>
        <time>2019-04-14T10:02:55.601Z</time>
      </trkpt>
      <trkpt lat="43.89699" lon="3.50966">
        <ele>433</ele>
        <time>2019-04-14T10:03:04.612Z</time>
      </trkpt>
      <trkpt lat="43.89698" lon="3.50973">
        <ele>433</ele>
        <time>2019-04-14T10:03:09.585Z</time>
      </trkpt>
      <trkpt lat="43.89697" lon="3.50979">
        <ele>433</ele>
        <time>2019-04-14T10:03:14.614Z</time>
      </trkpt>
      <trkpt lat="43.89697" lon="3.50984">
        <ele>433</ele>
        <time>2019-04-14T10:03:19.587Z</time>
      </trkpt>
      <trkpt lat="43.89696" lon="3.50989">
        <ele>431</ele>
        <time>2019-04-14T10:03:23.620Z</time>
      </trkpt>
      <trkpt lat="43.89697" lon="3.50995">
        <ele>431</ele>
        <time>2019-04-14T10:03:28.612Z</time>
      </trkpt>
      <trkpt lat="43.89696" lon="3.51">
        <ele>431</ele>
        <time>2019-04-14T10:03:33.594Z</time>
      </trkpt>
      <trkpt lat="43.89695" lon="3.51004">
        <ele>431</ele>
        <time>2019-04-14T10:03:37.619Z</time>
      </trkpt>
      <trkpt lat="43.89695" lon="3.5101">
        <ele>431</ele>
        <time>2019-04-14T10:03:42.590Z</time>
      </trkpt>
      <trkpt lat="43.89696" lon="3.51017">
        <ele>429</ele>
        <time>2019-04-14T10:03:47.591Z</time>
      </trkpt>
      <trkpt lat="43.89697" lon="3.51022">
        <ele>429</ele>
        <time>2019-04-14T10:03:52.582Z</time>
      </trkpt>
      <trkpt lat="43.89697" lon="3.51027">
        <ele>429</ele>
        <time>2019-04-14T10:03:56.613Z</time>
      </trkpt>
      <trkpt lat="43.89698" lon="3.51032">
        <ele>429</ele>
        <time>2019-04-14T10:04:01.591Z</time>
      </trkpt>
      <trkpt lat="43.897" lon="3.51035">
        <ele>429</ele>
        <time>2019-04-14T10:04:06.587Z</time>
      </trkpt>
      <trkpt lat="43.89702" lon="3.51037">
        <ele>429</ele>
        <time>2019-04-14T10:04:24.603Z</time>
      </trkpt>
      <trkpt lat="43.89706" lon="3.5104">
        <ele>429</ele>
        <time>2019-04-14T10:04:29.603Z</time>
      </trkpt>
      <trkpt lat="43.89708" lon="3.51044">
        <ele>425</ele>
        <time>2019-04-14T10:04:33.598Z</time>
      </trkpt>
      <trkpt lat="43.89711" lon="3.51047">
        <ele>440</ele>
        <time>2019-04-14T10:04:38.591Z</time>
      </trkpt>
      <trkpt lat="43.89715" lon="3.5105">
        <ele>440</ele>
        <time>2019-04-14T10:04:42.622Z</time>
      </trkpt>
      <trkpt lat="43.89719" lon="3.51052">
        <ele>440</ele>
        <time>2019-04-14T10:04:47.582Z</time>
      </trkpt>
      <trkpt lat="43.89723" lon="3.51055">
        <ele>440</ele>
        <time>2019-04-14T10:04:51.598Z</time>
      </trkpt>
      <trkpt lat="43.89726" lon="3.51058">
        <ele>440</ele>
        <time>2019-04-14T10:04:56.582Z</time>
      </trkpt>
      <trkpt lat="43.8973" lon="3.5106">
        <ele>440</ele>
        <time>2019-04-14T10:05:00.614Z</time>
      </trkpt>
      <trkpt lat="43.89732" lon="3.51061">
        <ele>440</ele>
        <time>2019-04-14T10:05:05.573Z</time>
      </trkpt>
      <trkpt lat="43.89732" lon="3.51061">
        <ele>440</ele>
        <time>2019-04-14T10:05:14.579Z</time>
      </trkpt>
      <trkpt lat="43.89735" lon="3.5106">
        <ele>440</ele>
        <time>2019-04-14T10:05:18.615Z</time>
      </trkpt>
      <trkpt lat="43.89741" lon="3.51063">
        <ele>457</ele>
        <time>2019-04-14T10:05:23.601Z</time>
      </trkpt>
      <trkpt lat="43.89743" lon="3.51064">
        <ele>457</ele>
        <time>2019-04-14T10:05:28.583Z</time>
      </trkpt>
      <trkpt lat="43.89741" lon="3.51059">
        <ele>457</ele>
        <time>2019-04-14T10:05:33.599Z</time>
      </trkpt>
      <trkpt lat="43.89739" lon="3.51057">
        <ele>457</ele>
        <time>2019-04-14T10:05:38.583Z</time>
      </trkpt>
      <trkpt lat="43.89736" lon="3.51054">
        <ele>457</ele>
        <time>2019-04-14T10:05:42.612Z</time>
      </trkpt>
      <trkpt lat="43.89732" lon="3.51048">
        <ele>440</ele>
        <time>2019-04-14T10:05:47.583Z</time>
      </trkpt>
      <trkpt lat="43.8973" lon="3.51045">
        <ele>440</ele>
        <time>2019-04-14T10:05:51.626Z</time>
      </trkpt>
      <trkpt lat="43.89728" lon="3.5104">
        <ele>446</ele>
        <time>2019-04-14T10:05:56.582Z</time>
      </trkpt>
      <trkpt lat="43.89728" lon="3.51034">
        <ele>446</ele>
        <time>2019-04-14T10:06:01.591Z</time>
      </trkpt>
      <trkpt lat="43.89727" lon="3.51028">
        <ele>446</ele>
        <time>2019-04-14T10:06:06.601Z</time>
      </trkpt>
      <trkpt lat="43.89727" lon="3.51023">
        <ele>446</ele>
        <time>2019-04-14T10:06:11.592Z</time>
      </trkpt>
      <trkpt lat="43.89728" lon="3.51017">
        <ele>446</ele>
        <time>2019-04-14T10:06:16.614Z</time>
      </trkpt>
      <trkpt lat="43.89728" lon="3.51011">
        <ele>451</ele>
        <time>2019-04-14T10:06:21.594Z</time>
      </trkpt>
      <trkpt lat="43.8973" lon="3.51006">
        <ele>451</ele>
        <time>2019-04-14T10:06:26.584Z</time>
      </trkpt>
      <trkpt lat="43.89732" lon="3.51001">
        <ele>451</ele>
        <time>2019-04-14T10:06:30.616Z</time>
      </trkpt>
      <trkpt lat="43.89734" lon="3.50996">
        <ele>451</ele>
        <time>2019-04-14T10:06:35.620Z</time>
      </trkpt>
      <trkpt lat="43.89737" lon="3.5099">
        <ele>470</ele>
        <time>2019-04-14T10:06:40.613Z</time>
      </trkpt>
      <trkpt lat="43.8974" lon="3.50984">
        <ele>471</ele>
        <time>2019-04-14T10:06:45.593Z</time>
      </trkpt>
      <trkpt lat="43.89742" lon="3.50978">
        <ele>471</ele>
        <time>2019-04-14T10:06:50.592Z</time>
      </trkpt>
      <trkpt lat="43.89745" lon="3.50972">
        <ele>471</ele>
        <time>2019-04-14T10:06:55.624Z</time>
      </trkpt>
      <trkpt lat="43.89747" lon="3.50966">
        <ele>471</ele>
        <time>2019-04-14T10:07:00.612Z</time>
      </trkpt>
      <trkpt lat="43.89748" lon="3.50961">
        <ele>471</ele>
        <time>2019-04-14T10:07:05.616Z</time>
      </trkpt>
      <trkpt lat="43.8975" lon="3.50955">
        <ele>465</ele>
        <time>2019-04-14T10:07:10.591Z</time>
      </trkpt>
      <trkpt lat="43.89752" lon="3.5095">
        <ele>465</ele>
        <time>2019-04-14T10:07:14.619Z</time>
      </trkpt>
      <trkpt lat="43.89754" lon="3.50944">
        <ele>465</ele>
        <time>2019-04-14T10:07:19.588Z</time>
      </trkpt>
      <trkpt lat="43.89757" lon="3.50938">
        <ele>465</ele>
        <time>2019-04-14T10:07:24.582Z</time>
      </trkpt>
      <trkpt lat="43.8976" lon="3.50935">
        <ele>465</ele>
        <time>2019-04-14T10:07:28.611Z</time>
      </trkpt>
      <trkpt lat="43.89762" lon="3.50929">
        <ele>459</ele>
        <time>2019-04-14T10:07:33.573Z</time>
      </trkpt>
      <trkpt lat="43.89763" lon="3.50925">
        <ele>459</ele>
        <time>2019-04-14T10:07:37.582Z</time>
      </trkpt>
      <trkpt lat="43.89765" lon="3.50921">
        <ele>478</ele>
        <time>2019-04-14T10:07:41.595Z</time>
      </trkpt>
      <trkpt lat="43.89767" lon="3.50915">
        <ele>478</ele>
        <time>2019-04-14T10:07:46.584Z</time>
      </trkpt>
      <trkpt lat="43.8977" lon="3.5091">
        <ele>478</ele>
        <time>2019-04-14T10:07:51.593Z</time>
      </trkpt>
      <trkpt lat="43.89773" lon="3.50906">
        <ele>478</ele>
        <time>2019-04-14T10:07:56.583Z</time>
      </trkpt>
      <trkpt lat="43.89775" lon="3.50901">
        <ele>471</ele>
        <time>2019-04-14T10:08:01.612Z</time>
      </trkpt>
      <trkpt lat="43.89778" lon="3.50897">
        <ele>471</ele>
        <time>2019-04-14T10:08:06.584Z</time>
      </trkpt>
      <trkpt lat="43.8978" lon="3.50893">
        <ele>471</ele>
        <time>2019-04-14T10:08:10.592Z</time>
      </trkpt>
      <trkpt lat="43.89783" lon="3.50888">
        <ele>471</ele>
        <time>2019-04-14T10:08:15.612Z</time>
      </trkpt>
      <trkpt lat="43.89786" lon="3.50884">
        <ele>471</ele>
        <time>2019-04-14T10:08:19.630Z</time>
      </trkpt>
      <trkpt lat="43.89789" lon="3.5088">
        <ele>471</ele>
        <time>2019-04-14T10:08:24.614Z</time>
      </trkpt>
      <trkpt lat="43.89791" lon="3.50876">
        <ele>471</ele>
        <time>2019-04-14T10:08:29.612Z</time>
      </trkpt>
      <trkpt lat="43.89794" lon="3.50871">
        <ele>478</ele>
        <time>2019-04-14T10:08:34.584Z</time>
      </trkpt>
      <trkpt lat="43.89796" lon="3.50867">
        <ele>478</ele>
        <time>2019-04-14T10:08:38.595Z</time>
      </trkpt>
      <trkpt lat="43.89801" lon="3.50861">
        <ele>478</ele>
        <time>2019-04-14T10:08:47.591Z</time>
      </trkpt>
      <trkpt lat="43.89802" lon="3.50865">
        <ele>478</ele>
        <time>2019-04-14T10:08:51.598Z</time>
      </trkpt>
      <trkpt lat="43.898" lon="3.5087">
        <ele>478</ele>
        <time>2019-04-14T10:08:56.576Z</time>
      </trkpt>
      <trkpt lat="43.89797" lon="3.50876">
        <ele>490</ele>
        <time>2019-04-14T10:09:01.612Z</time>
      </trkpt>
      <trkpt lat="43.89794" lon="3.50882">
        <ele>490</ele>
        <time>2019-04-14T10:09:06.588Z</time>
      </trkpt>
      <trkpt lat="43.89792" lon="3.50886">
        <ele>490</ele>
        <time>2019-04-14T10:09:10.620Z</time>
      </trkpt>
      <trkpt lat="43.8979" lon="3.50891">
        <ele>471</ele>
        <time>2019-04-14T10:09:15.622Z</time>
      </trkpt>
      <trkpt lat="43.89787" lon="3.50898">
        <ele>471</ele>
        <time>2019-04-14T10:09:20.613Z</time>
      </trkpt>
      <trkpt lat="43.89785" lon="3.50905">
        <ele>478</ele>
        <time>2019-04-14T10:09:25.593Z</time>
      </trkpt>
      <trkpt lat="43.89785" lon="3.5091">
        <ele>478</ele>
        <time>2019-04-14T10:09:29.613Z</time>
      </trkpt>
      <trkpt lat="43.89785" lon="3.50915">
        <ele>478</ele>
        <time>2019-04-14T10:09:34.612Z</time>
      </trkpt>
      <trkpt lat="43.89785" lon="3.5092">
        <ele>478</ele>
        <time>2019-04-14T10:09:38.614Z</time>
      </trkpt>
      <trkpt lat="43.89783" lon="3.50926">
        <ele>478</ele>
        <time>2019-04-14T10:09:43.624Z</time>
      </trkpt>
      <trkpt lat="43.89783" lon="3.50932">
        <ele>486</ele>
        <time>2019-04-14T10:09:48.585Z</time>
      </trkpt>
      <trkpt lat="43.89784" lon="3.50938">
        <ele>486</ele>
        <time>2019-04-14T10:09:53.593Z</time>
      </trkpt>
      <trkpt lat="43.89784" lon="3.50944">
        <ele>486</ele>
        <time>2019-04-14T10:09:58.623Z</time>
      </trkpt>
      <trkpt lat="43.89783" lon="3.5095">
        <ele>486</ele>
        <time>2019-04-14T10:10:03.583Z</time>
      </trkpt>
      <trkpt lat="43.89783" lon="3.50956">
        <ele>486</ele>
        <time>2019-04-14T10:10:07.613Z</time>
      </trkpt>
      <trkpt lat="43.89783" lon="3.50961">
        <ele>487</ele>
        <time>2019-04-14T10:10:11.659Z</time>
      </trkpt>
      <trkpt lat="43.89782" lon="3.50968">
        <ele>487</ele>
        <time>2019-04-14T10:10:16.612Z</time>
      </trkpt>
      <trkpt lat="43.8978" lon="3.50975">
        <ele>487</ele>
        <time>2019-04-14T10:10:21.613Z</time>
      </trkpt>
      <trkpt lat="43.8978" lon="3.50981">
        <ele>487</ele>
        <time>2019-04-14T10:10:26.591Z</time>
      </trkpt>
      <trkpt lat="43.89779" lon="3.50987">
        <ele>483</ele>
        <time>2019-04-14T10:10:30.592Z</time>
      </trkpt>
      <trkpt lat="43.89779" lon="3.50992">
        <ele>483</ele>
        <time>2019-04-14T10:10:34.619Z</time>
      </trkpt>
      <trkpt lat="43.89779" lon="3.50998">
        <ele>483</ele>
        <time>2019-04-14T10:10:39.595Z</time>
      </trkpt>
      <trkpt lat="43.89785" lon="3.51">
        <ele>483</ele>
        <time>2019-04-14T10:11:25.575Z</time>
      </trkpt>
      <trkpt lat="43.89787" lon="3.50997">
        <ele>483</ele>
        <time>2019-04-14T10:11:35.574Z</time>
      </trkpt>
      <trkpt lat="43.89787" lon="3.50997">
        <ele>483</ele>
        <time>2019-04-14T10:11:40.575Z</time>
      </trkpt>
      <trkpt lat="43.89787" lon="3.50993">
        <ele>483</ele>
        <time>2019-04-14T10:11:50.603Z</time>
      </trkpt>
      <trkpt lat="43.8979" lon="3.50984">
        <ele>487</ele>
        <time>2019-04-14T10:11:55.576Z</time>
      </trkpt>
      <trkpt lat="43.89791" lon="3.50979">
        <ele>487</ele>
        <time>2019-04-14T10:11:59.623Z</time>
      </trkpt>
      <trkpt lat="43.89792" lon="3.50973">
        <ele>501</ele>
        <time>2019-04-14T10:12:04.615Z</time>
      </trkpt>
      <trkpt lat="43.89794" lon="3.50967">
        <ele>501</ele>
        <time>2019-04-14T10:12:09.589Z</time>
      </trkpt>
      <trkpt lat="43.89796" lon="3.50962">
        <ele>501</ele>
        <time>2019-04-14T10:12:13.613Z</time>
      </trkpt>
      <trkpt lat="43.89798" lon="3.50956">
        <ele>501</ele>
        <time>2019-04-14T10:12:18.592Z</time>
      </trkpt>
      <trkpt lat="43.898" lon="3.50952">
        <ele>501</ele>
        <time>2019-04-14T10:12:22.603Z</time>
      </trkpt>
      <trkpt lat="43.89802" lon="3.50946">
        <ele>501</ele>
        <time>2019-04-14T10:12:27.582Z</time>
      </trkpt>
      <trkpt lat="43.89805" lon="3.5094">
        <ele>501</ele>
        <time>2019-04-14T10:12:32.582Z</time>
      </trkpt>
      <trkpt lat="43.89809" lon="3.50935">
        <ele>501</ele>
        <time>2019-04-14T10:12:37.583Z</time>
      </trkpt>
      <trkpt lat="43.89811" lon="3.50931">
        <ele>500</ele>
        <time>2019-04-14T10:12:41.610Z</time>
      </trkpt>
      <trkpt lat="43.89813" lon="3.50926">
        <ele>500</ele>
        <time>2019-04-14T10:12:45.621Z</time>
      </trkpt>
      <trkpt lat="43.89816" lon="3.5092">
        <ele>500</ele>
        <time>2019-04-14T10:12:50.583Z</time>
      </trkpt>
      <trkpt lat="43.89819" lon="3.50914">
        <ele>500</ele>
        <time>2019-04-14T10:12:55.601Z</time>
      </trkpt>
      <trkpt lat="43.89822" lon="3.50908">
        <ele>512</ele>
        <time>2019-04-14T10:13:00.581Z</time>
      </trkpt>
      <trkpt lat="43.89824" lon="3.50903">
        <ele>507</ele>
        <time>2019-04-14T10:13:05.632Z</time>
      </trkpt>
      <trkpt lat="43.89827" lon="3.509">
        <ele>507</ele>
        <time>2019-04-14T10:13:10.592Z</time>
      </trkpt>
      <trkpt lat="43.8983" lon="3.50893">
        <ele>507</ele>
        <time>2019-04-14T10:13:15.590Z</time>
      </trkpt>
      <trkpt lat="43.89833" lon="3.5089">
        <ele>507</ele>
        <time>2019-04-14T10:13:20.586Z</time>
      </trkpt>
      <trkpt lat="43.89835" lon="3.50885">
        <ele>507</ele>
        <time>2019-04-14T10:13:25.585Z</time>
      </trkpt>
      <trkpt lat="43.89837" lon="3.50883">
        <ele>507</ele>
        <time>2019-04-14T10:13:29.623Z</time>
      </trkpt>
      <trkpt lat="43.89844" lon="3.50884">
        <ele>507</ele>
        <time>2019-04-14T10:14:08.613Z</time>
      </trkpt>
      <trkpt lat="43.89842" lon="3.50891">
        <ele>507</ele>
        <time>2019-04-14T10:14:13.580Z</time>
      </trkpt>
      <trkpt lat="43.89841" lon="3.50894">
        <ele>507</ele>
        <time>2019-04-14T10:14:17.592Z</time>
      </trkpt>
      <trkpt lat="43.89836" lon="3.509">
        <ele>507</ele>
        <time>2019-04-14T10:14:22.612Z</time>
      </trkpt>
      <trkpt lat="43.89834" lon="3.50905">
        <ele>512</ele>
        <time>2019-04-14T10:14:27.586Z</time>
      </trkpt>
      <trkpt lat="43.89831" lon="3.5091">
        <ele>512</ele>
        <time>2019-04-14T10:14:32.612Z</time>
      </trkpt>
      <trkpt lat="43.8983" lon="3.50916">
        <ele>512</ele>
        <time>2019-04-14T10:14:36.616Z</time>
      </trkpt>
      <trkpt lat="43.89828" lon="3.5092">
        <ele>512</ele>
        <time>2019-04-14T10:14:41.590Z</time>
      </trkpt>
      <trkpt lat="43.89825" lon="3.50928">
        <ele>512</ele>
        <time>2019-04-14T10:14:46.594Z</time>
      </trkpt>
      <trkpt lat="43.89824" lon="3.50934">
        <ele>513</ele>
        <time>2019-04-14T10:14:50.624Z</time>
      </trkpt>
      <trkpt lat="43.89824" lon="3.5094">
        <ele>513</ele>
        <time>2019-04-14T10:14:55.612Z</time>
      </trkpt>
      <trkpt lat="43.89823" lon="3.50947">
        <ele>513</ele>
        <time>2019-04-14T10:15:00.614Z</time>
      </trkpt>
      <trkpt lat="43.89823" lon="3.50955">
        <ele>513</ele>
        <time>2019-04-14T10:15:05.613Z</time>
      </trkpt>
      <trkpt lat="43.89823" lon="3.50961">
        <ele>512</ele>
        <time>2019-04-14T10:15:10.613Z</time>
      </trkpt>
      <trkpt lat="43.89823" lon="3.50967">
        <ele>512</ele>
        <time>2019-04-14T10:15:15.615Z</time>
      </trkpt>
      <trkpt lat="43.89822" lon="3.50975">
        <ele>512</ele>
        <time>2019-04-14T10:15:20.582Z</time>
      </trkpt>
      <trkpt lat="43.89821" lon="3.50982">
        <ele>512</ele>
        <time>2019-04-14T10:15:25.595Z</time>
      </trkpt>
      <trkpt lat="43.89822" lon="3.50988">
        <ele>511</ele>
        <time>2019-04-14T10:15:30.592Z</time>
      </trkpt>
      <trkpt lat="43.89824" lon="3.50993">
        <ele>511</ele>
        <time>2019-04-14T10:15:35.599Z</time>
      </trkpt>
      <trkpt lat="43.89828" lon="3.50995">
        <ele>511</ele>
        <time>2019-04-14T10:15:40.583Z</time>
      </trkpt>
      <trkpt lat="43.8984" lon="3.50996">
        <ele>511</ele>
        <time>2019-04-14T10:16:26.597Z</time>
      </trkpt>
      <trkpt lat="43.89849" lon="3.51007">
        <ele>526</ele>
        <time>2019-04-14T10:17:08.584Z</time>
      </trkpt>
      <trkpt lat="43.89852" lon="3.51009">
        <ele>526</ele>
        <time>2019-04-14T10:17:12.610Z</time>
      </trkpt>
      <trkpt lat="43.89858" lon="3.51003">
        <ele>526</ele>
        <time>2019-04-14T10:17:30.603Z</time>
      </trkpt>
      <trkpt lat="43.89862" lon="3.50994">
        <ele>526</ele>
        <time>2019-04-14T10:17:35.589Z</time>
      </trkpt>
      <trkpt lat="43.89859" lon="3.5099">
        <ele>526</ele>
        <time>2019-04-14T10:17:40.582Z</time>
      </trkpt>
      <trkpt lat="43.8986" lon="3.50986">
        <ele>530</ele>
        <time>2019-04-14T10:17:45.581Z</time>
      </trkpt>
      <trkpt lat="43.89858" lon="3.50982">
        <ele>530</ele>
        <time>2019-04-14T10:17:49.614Z</time>
      </trkpt>
      <trkpt lat="43.89857" lon="3.50973">
        <ele>530</ele>
        <time>2019-04-14T10:17:54.611Z</time>
      </trkpt>
      <trkpt lat="43.89859" lon="3.50965">
        <ele>530</ele>
        <time>2019-04-14T10:17:59.601Z</time>
      </trkpt>
      <trkpt lat="43.89863" lon="3.50961">
        <ele>530</ele>
        <time>2019-04-14T10:18:04.583Z</time>
      </trkpt>
      <trkpt lat="43.89864" lon="3.50955">
        <ele>529</ele>
        <time>2019-04-14T10:18:09.582Z</time>
      </trkpt>
      <trkpt lat="43.89865" lon="3.50949">
        <ele>529</ele>
        <time>2019-04-14T10:18:13.614Z</time>
      </trkpt>
      <trkpt lat="43.89867" lon="3.50945">
        <ele>529</ele>
        <time>2019-04-14T10:18:18.581Z</time>
      </trkpt>
      <trkpt lat="43.89868" lon="3.50944">
        <ele>529</ele>
        <time>2019-04-14T10:18:22.603Z</time>
      </trkpt>
      <trkpt lat="43.89874" lon="3.50941">
        <ele>529</ele>
        <time>2019-04-14T10:18:27.602Z</time>
      </trkpt>
      <trkpt lat="43.89876" lon="3.50939">
        <ele>553</ele>
        <time>2019-04-14T10:18:32.575Z</time>
      </trkpt>
      <trkpt lat="43.89876" lon="3.50933">
        <ele>553</ele>
        <time>2019-04-14T10:18:45.612Z</time>
      </trkpt>
      <trkpt lat="43.89876" lon="3.50932">
        <ele>553</ele>
        <time>2019-04-14T10:19:19.586Z</time>
      </trkpt>
      <trkpt lat="43.8988" lon="3.50927">
        <ele>548</ele>
        <time>2019-04-14T10:19:23.592Z</time>
      </trkpt>
      <trkpt lat="43.89882" lon="3.50925">
        <ele>548</ele>
        <time>2019-04-14T10:19:28.579Z</time>
      </trkpt>
      <trkpt lat="43.89886" lon="3.5092">
        <ele>548</ele>
        <time>2019-04-14T10:19:38.596Z</time>
      </trkpt>
      <trkpt lat="43.89895" lon="3.50914">
        <ele>548</ele>
        <time>2019-04-14T10:19:43.611Z</time>
      </trkpt>
      <trkpt lat="43.89899" lon="3.50911">
        <ele>548</ele>
        <time>2019-04-14T10:19:48.581Z</time>
      </trkpt>
      <trkpt lat="43.89901" lon="3.50908">
        <ele>548</ele>
        <time>2019-04-14T10:19:53.591Z</time>
      </trkpt>
      <trkpt lat="43.89904" lon="3.50904">
        <ele>570</ele>
        <time>2019-04-14T10:19:58.582Z</time>
      </trkpt>
      <trkpt lat="43.89909" lon="3.50909">
        <ele>570</ele>
        <time>2019-04-14T10:20:42.581Z</time>
      </trkpt>
      <trkpt lat="43.89908" lon="3.50911">
        <ele>570</ele>
        <time>2019-04-14T10:20:52.583Z</time>
      </trkpt>
      <trkpt lat="43.89908" lon="3.50912">
        <ele>570</ele>
        <time>2019-04-14T10:20:56.611Z</time>
      </trkpt>
      <trkpt lat="43.89909" lon="3.50914">
        <ele>570</ele>
        <time>2019-04-14T10:21:01.592Z</time>
      </trkpt>
      <trkpt lat="43.89918" lon="3.50929">
        <ele>570</ele>
        <time>2019-04-14T10:21:46.624Z</time>
      </trkpt>
      <trkpt lat="43.8992" lon="3.50931">
        <ele>572</ele>
        <time>2019-04-14T10:22:01.593Z</time>
      </trkpt>
      <trkpt lat="43.89922" lon="3.50933">
        <ele>572</ele>
        <time>2019-04-14T10:22:11.610Z</time>
      </trkpt>
      <trkpt lat="43.89924" lon="3.50932">
        <ele>572</ele>
        <time>2019-04-14T10:22:35.578Z</time>
      </trkpt>
      <trkpt lat="43.89926" lon="3.50931">
        <ele>572</ele>
        <time>2019-04-14T10:22:40.581Z</time>
      </trkpt>
      <trkpt lat="43.8993" lon="3.5093">
        <ele>570</ele>
        <time>2019-04-14T10:22:59.616Z</time>
      </trkpt>
      <trkpt lat="43.89932" lon="3.50928">
        <ele>589</ele>
        <time>2019-04-14T10:23:04.616Z</time>
      </trkpt>
      <trkpt lat="43.89936" lon="3.50924">
        <ele>589</ele>
        <time>2019-04-14T10:23:33.588Z</time>
      </trkpt>
      <trkpt lat="43.89939" lon="3.5092">
        <ele>589</ele>
        <time>2019-04-14T10:23:38.581Z</time>
      </trkpt>
      <trkpt lat="43.8994" lon="3.50919">
        <ele>589</ele>
        <time>2019-04-14T10:23:43.585Z</time>
      </trkpt>
      <trkpt lat="43.89947" lon="3.5092">
        <ele>589</ele>
        <time>2019-04-14T10:24:17.611Z</time>
      </trkpt>
      <trkpt lat="43.89948" lon="3.5092">
        <ele>589</ele>
        <time>2019-04-14T10:24:22.586Z</time>
      </trkpt>
      <trkpt lat="43.8995" lon="3.5092">
        <ele>589</ele>
        <time>2019-04-14T10:24:26.604Z</time>
      </trkpt>
      <trkpt lat="43.89951" lon="3.50921">
        <ele>589</ele>
        <time>2019-04-14T10:24:31.579Z</time>
      </trkpt>
      <trkpt lat="43.89954" lon="3.5092">
        <ele>589</ele>
        <time>2019-04-14T10:24:41.579Z</time>
      </trkpt>
      <trkpt lat="43.8996" lon="3.50916">
        <ele>601</ele>
        <time>2019-04-14T10:24:46.591Z</time>
      </trkpt>
      <trkpt lat="43.89964" lon="3.5091">
        <ele>601</ele>
        <time>2019-04-14T10:24:51.582Z</time>
      </trkpt>
      <trkpt lat="43.89966" lon="3.50907">
        <ele>601</ele>
        <time>2019-04-14T10:24:55.590Z</time>
      </trkpt>
      <trkpt lat="43.89969" lon="3.50903">
        <ele>601</ele>
        <time>2019-04-14T10:25:00.582Z</time>
      </trkpt>
      <trkpt lat="43.89972" lon="3.50897">
        <ele>596</ele>
        <time>2019-04-14T10:25:05.592Z</time>
      </trkpt>
      <trkpt lat="43.89974" lon="3.50894">
        <ele>596</ele>
        <time>2019-04-14T10:25:09.608Z</time>
      </trkpt>
      <trkpt lat="43.89976" lon="3.50892">
        <ele>596</ele>
        <time>2019-04-14T10:25:13.624Z</time>
      </trkpt>
      <trkpt lat="43.89979" lon="3.5089">
        <ele>596</ele>
        <time>2019-04-14T10:25:18.613Z</time>
      </trkpt>
      <trkpt lat="43.89979" lon="3.50889">
        <ele>596</ele>
        <time>2019-04-14T10:25:22.617Z</time>
      </trkpt>
      <trkpt lat="43.89984" lon="3.50887">
        <ele>596</ele>
        <time>2019-04-14T10:25:42.583Z</time>
      </trkpt>
      <trkpt lat="43.89982" lon="3.50892">
        <ele>596</ele>
        <time>2019-04-14T10:25:47.586Z</time>
      </trkpt>
      <trkpt lat="43.89981" lon="3.50894">
        <ele>596</ele>
        <time>2019-04-14T10:25:51.594Z</time>
      </trkpt>
      <trkpt lat="43.8998" lon="3.50898">
        <ele>596</ele>
        <time>2019-04-14T10:25:56.581Z</time>
      </trkpt>
      <trkpt lat="43.89979" lon="3.50901">
        <ele>596</ele>
        <time>2019-04-14T10:26:00.610Z</time>
      </trkpt>
      <trkpt lat="43.89981" lon="3.50899">
        <ele>596</ele>
        <time>2019-04-14T10:26:14.593Z</time>
      </trkpt>
      <trkpt lat="43.89983" lon="3.50898">
        <ele>596</ele>
        <time>2019-04-14T10:26:18.604Z</time>
      </trkpt>
      <trkpt lat="43.89985" lon="3.50898">
        <ele>596</ele>
        <time>2019-04-14T10:26:23.584Z</time>
      </trkpt>
      <trkpt lat="43.89986" lon="3.50897">
        <ele>609</ele>
        <time>2019-04-14T10:26:28.611Z</time>
      </trkpt>
      <trkpt lat="43.8999" lon="3.50895">
        <ele>609</ele>
        <time>2019-04-14T10:26:33.596Z</time>
      </trkpt>
      <trkpt lat="43.89993" lon="3.50898">
        <ele>609</ele>
        <time>2019-04-14T10:27:11.585Z</time>
      </trkpt>
      <trkpt lat="43.89993" lon="3.50901">
        <ele>609</ele>
        <time>2019-04-14T10:27:15.592Z</time>
      </trkpt>
      <trkpt lat="43.89992" lon="3.50906">
        <ele>617</ele>
        <time>2019-04-14T10:27:20.577Z</time>
      </trkpt>
      <trkpt lat="43.89991" lon="3.50908">
        <ele>617</ele>
        <time>2019-04-14T10:27:25.583Z</time>
      </trkpt>
      <trkpt lat="43.89991" lon="3.5091">
        <ele>617</ele>
        <time>2019-04-14T10:27:30.597Z</time>
      </trkpt>
      <trkpt lat="43.89991" lon="3.5092">
        <ele>617</ele>
        <time>2019-04-14T10:27:48.582Z</time>
      </trkpt>
      <trkpt lat="43.89991" lon="3.50923">
        <ele>617</ele>
        <time>2019-04-14T10:27:53.614Z</time>
      </trkpt>
      <trkpt lat="43.89989" lon="3.50928">
        <ele>617</ele>
        <time>2019-04-14T10:28:02.588Z</time>
      </trkpt>
      <trkpt lat="43.89989" lon="3.50938">
        <ele>622</ele>
        <time>2019-04-14T10:28:06.617Z</time>
      </trkpt>
      <trkpt lat="43.89994" lon="3.5094">
        <ele>622</ele>
        <time>2019-04-14T10:28:21.590Z</time>
      </trkpt>
      <trkpt lat="43.89994" lon="3.50939">
        <ele>622</ele>
        <time>2019-04-14T10:28:26.581Z</time>
      </trkpt>
      <trkpt lat="43.89997" lon="3.50937">
        <ele>622</ele>
        <time>2019-04-14T10:28:30.587Z</time>
      </trkpt>
      <trkpt lat="43.89999" lon="3.50937">
        <ele>622</ele>
        <time>2019-04-14T10:28:35.626Z</time>
      </trkpt>
      <trkpt lat="43.90001" lon="3.50937">
        <ele>622</ele>
        <time>2019-04-14T10:28:45.584Z</time>
      </trkpt>
      <trkpt lat="43.9" lon="3.50941">
        <ele>622</ele>
        <time>2019-04-14T10:29:14.613Z</time>
      </trkpt>
      <trkpt lat="43.89998" lon="3.50947">
        <ele>622</ele>
        <time>2019-04-14T10:29:19.618Z</time>
      </trkpt>
      <trkpt lat="43.89997" lon="3.50951">
        <ele>622</ele>
        <time>2019-04-14T10:29:24.585Z</time>
      </trkpt>
      <trkpt lat="43.89995" lon="3.50955">
        <ele>622</ele>
        <time>2019-04-14T10:29:29.585Z</time>
      </trkpt>
      <trkpt lat="43.89995" lon="3.50959">
        <ele>629</ele>
        <time>2019-04-14T10:29:33.592Z</time>
      </trkpt>
      <trkpt lat="43.89994" lon="3.50965">
        <ele>629</ele>
        <time>2019-04-14T10:29:38.621Z</time>
      </trkpt>
      <trkpt lat="43.89993" lon="3.50971">
        <ele>629</ele>
        <time>2019-04-14T10:29:43.587Z</time>
      </trkpt>
      <trkpt lat="43.89994" lon="3.50974">
        <ele>629</ele>
        <time>2019-04-14T10:29:47.613Z</time>
      </trkpt>
      <trkpt lat="43.89994" lon="3.50976">
        <ele>629</ele>
        <time>2019-04-14T10:29:51.618Z</time>
      </trkpt>
      <trkpt lat="43.89995" lon="3.50975">
        <ele>629</ele>
        <time>2019-04-14T10:30:09.584Z</time>
      </trkpt>
      <trkpt lat="43.89998" lon="3.50974">
        <ele>629</ele>
        <time>2019-04-14T10:30:14.588Z</time>
      </trkpt>
      <trkpt lat="43.9" lon="3.50969">
        <ele>629</ele>
        <time>2019-04-14T10:30:18.618Z</time>
      </trkpt>
      <trkpt lat="43.90004" lon="3.50965">
        <ele>629</ele>
        <time>2019-04-14T10:30:23.573Z</time>
      </trkpt>
      <trkpt lat="43.90006" lon="3.50964">
        <ele>629</ele>
        <time>2019-04-14T10:30:27.613Z</time>
      </trkpt>
      <trkpt lat="43.90009" lon="3.5096">
        <ele>629</ele>
        <time>2019-04-14T10:30:32.581Z</time>
      </trkpt>
      <trkpt lat="43.9001" lon="3.50958">
        <ele>622</ele>
        <time>2019-04-14T10:30:37.594Z</time>
      </trkpt>
      <trkpt lat="43.9001" lon="3.50957">
        <ele>622</ele>
        <time>2019-04-14T10:30:47.592Z</time>
      </trkpt>
      <trkpt lat="43.90014" lon="3.50952">
        <ele>622</ele>
        <time>2019-04-14T10:30:52.581Z</time>
      </trkpt>
      <trkpt lat="43.90018" lon="3.50962">
        <ele>646</ele>
        <time>2019-04-14T10:31:45.612Z</time>
      </trkpt>
      <trkpt lat="43.90018" lon="3.50963">
        <ele>646</ele>
        <time>2019-04-14T10:31:50.582Z</time>
      </trkpt>
      <trkpt lat="43.90017" lon="3.50969">
        <ele>646</ele>
        <time>2019-04-14T10:31:54.612Z</time>
      </trkpt>
      <trkpt lat="43.90014" lon="3.50973">
        <ele>646</ele>
        <time>2019-04-14T10:31:59.593Z</time>
      </trkpt>
      <trkpt lat="43.90012" lon="3.50976">
        <ele>629</ele>
        <time>2019-04-14T10:32:03.620Z</time>
      </trkpt>
      <trkpt lat="43.90013" lon="3.50983">
        <ele>629</ele>
        <time>2019-04-14T10:35:36.609Z</time>
      </trkpt>
      <trkpt lat="43.90016" lon="3.50982">
        <ele>646</ele>
        <time>2019-04-14T10:35:41.602Z</time>
      </trkpt>
      <trkpt lat="43.90017" lon="3.50986">
        <ele>646</ele>
        <time>2019-04-14T10:35:46.616Z</time>
      </trkpt>
      <trkpt lat="43.90018" lon="3.50992">
        <ele>642</ele>
        <time>2019-04-14T10:35:51.577Z</time>
      </trkpt>
      <trkpt lat="43.9002" lon="3.50997">
        <ele>642</ele>
        <time>2019-04-14T10:35:56.583Z</time>
      </trkpt>
      <trkpt lat="43.90021" lon="3.51002">
        <ele>642</ele>
        <time>2019-04-14T10:36:00.614Z</time>
      </trkpt>
      <trkpt lat="43.90023" lon="3.51009">
        <ele>642</ele>
        <time>2019-04-14T10:36:05.582Z</time>
      </trkpt>
      <trkpt lat="43.90026" lon="3.51014">
        <ele>642</ele>
        <time>2019-04-14T10:36:09.590Z</time>
      </trkpt>
      <trkpt lat="43.90029" lon="3.51017">
        <ele>635</ele>
        <time>2019-04-14T10:36:14.598Z</time>
      </trkpt>
      <trkpt lat="43.90032" lon="3.51022">
        <ele>635</ele>
        <time>2019-04-14T10:36:19.620Z</time>
      </trkpt>
      <trkpt lat="43.90035" lon="3.51026">
        <ele>635</ele>
        <time>2019-04-14T10:36:24.584Z</time>
      </trkpt>
      <trkpt lat="43.90039" lon="3.5103">
        <ele>635</ele>
        <time>2019-04-14T10:36:29.594Z</time>
      </trkpt>
      <trkpt lat="43.90041" lon="3.51034">
        <ele>635</ele>
        <time>2019-04-14T10:36:34.586Z</time>
      </trkpt>
      <trkpt lat="43.90043" lon="3.51042">
        <ele>642</ele>
        <time>2019-04-14T10:36:39.613Z</time>
      </trkpt>
      <trkpt lat="43.90046" lon="3.51049">
        <ele>642</ele>
        <time>2019-04-14T10:36:44.612Z</time>
      </trkpt>
      <trkpt lat="43.90049" lon="3.51051">
        <ele>642</ele>
        <time>2019-04-14T10:36:49.581Z</time>
      </trkpt>
      <trkpt lat="43.9005" lon="3.51057">
        <ele>642</ele>
        <time>2019-04-14T10:36:54.582Z</time>
      </trkpt>
      <trkpt lat="43.90051" lon="3.51069">
        <ele>642</ele>
        <time>2019-04-14T10:37:45.583Z</time>
      </trkpt>
      <trkpt lat="43.9005" lon="3.51075">
        <ele>633</ele>
        <time>2019-04-14T10:38:00.581Z</time>
      </trkpt>
      <trkpt lat="43.90052" lon="3.51083">
        <ele>633</ele>
        <time>2019-04-14T10:38:05.591Z</time>
      </trkpt>
      <trkpt lat="43.90057" lon="3.51084">
        <ele>633</ele>
        <time>2019-04-14T10:38:10.586Z</time>
      </trkpt>
      <trkpt lat="43.90057" lon="3.51084">
        <ele>633</ele>
        <time>2019-04-14T10:38:15.581Z</time>
      </trkpt>
      <trkpt lat="43.90061" lon="3.51082">
        <ele>633</ele>
        <time>2019-04-14T10:38:45.576Z</time>
      </trkpt>
      <trkpt lat="43.90064" lon="3.51081">
        <ele>633</ele>
        <time>2019-04-14T10:38:49.621Z</time>
      </trkpt>
      <trkpt lat="43.90068" lon="3.51082">
        <ele>633</ele>
        <time>2019-04-14T10:38:54.597Z</time>
      </trkpt>
      <trkpt lat="43.90073" lon="3.51084">
        <ele>647</ele>
        <time>2019-04-14T10:38:58.624Z</time>
      </trkpt>
      <trkpt lat="43.90078" lon="3.51087">
        <ele>647</ele>
        <time>2019-04-14T10:39:03.613Z</time>
      </trkpt>
      <trkpt lat="43.90083" lon="3.51088">
        <ele>647</ele>
        <time>2019-04-14T10:39:08.584Z</time>
      </trkpt>
      <trkpt lat="43.90086" lon="3.51089">
        <ele>647</ele>
        <time>2019-04-14T10:39:12.612Z</time>
      </trkpt>
      <trkpt lat="43.90088" lon="3.51089">
        <ele>647</ele>
        <time>2019-04-14T10:39:17.613Z</time>
      </trkpt>
      <trkpt lat="43.90091" lon="3.5109">
        <ele>647</ele>
        <time>2019-04-14T10:39:22.575Z</time>
      </trkpt>
      <trkpt lat="43.90094" lon="3.51086">
        <ele>647</ele>
        <time>2019-04-14T10:39:36.614Z</time>
      </trkpt>
      <trkpt lat="43.90099" lon="3.51084">
        <ele>648</ele>
        <time>2019-04-14T10:39:41.589Z</time>
      </trkpt>
      <trkpt lat="43.90104" lon="3.51082">
        <ele>648</ele>
        <time>2019-04-14T10:39:45.613Z</time>
      </trkpt>
      <trkpt lat="43.9011" lon="3.51078">
        <ele>648</ele>
        <time>2019-04-14T10:39:50.583Z</time>
      </trkpt>
      <trkpt lat="43.90113" lon="3.51077">
        <ele>648</ele>
        <time>2019-04-14T10:39:54.592Z</time>
      </trkpt>
      <trkpt lat="43.90117" lon="3.51076">
        <ele>648</ele>
        <time>2019-04-14T10:39:59.606Z</time>
      </trkpt>
      <trkpt lat="43.9012" lon="3.51076">
        <ele>648</ele>
        <time>2019-04-14T10:40:04.581Z</time>
      </trkpt>
      <trkpt lat="43.90124" lon="3.51078">
        <ele>648</ele>
        <time>2019-04-14T10:40:08.616Z</time>
      </trkpt>
      <trkpt lat="43.9013" lon="3.51074">
        <ele>654</ele>
        <time>2019-04-14T10:40:13.584Z</time>
      </trkpt>
      <trkpt lat="43.90133" lon="3.51074">
        <ele>654</ele>
        <time>2019-04-14T10:40:17.594Z</time>
      </trkpt>
      <trkpt lat="43.90134" lon="3.51079">
        <ele>654</ele>
        <time>2019-04-14T10:40:21.626Z</time>
      </trkpt>
      <trkpt lat="43.90135" lon="3.51085">
        <ele>654</ele>
        <time>2019-04-14T10:40:26.583Z</time>
      </trkpt>
      <trkpt lat="43.90134" lon="3.5109">
        <ele>654</ele>
        <time>2019-04-14T10:40:30.613Z</time>
      </trkpt>
      <trkpt lat="43.90131" lon="3.51094">
        <ele>654</ele>
        <time>2019-04-14T10:40:35.585Z</time>
      </trkpt>
      <trkpt lat="43.90127" lon="3.51097">
        <ele>654</ele>
        <time>2019-04-14T10:40:40.584Z</time>
      </trkpt>
      <trkpt lat="43.90126" lon="3.51102">
        <ele>652</ele>
        <time>2019-04-14T10:40:45.582Z</time>
      </trkpt>
      <trkpt lat="43.90123" lon="3.51107">
        <ele>642</ele>
        <time>2019-04-14T10:40:50.619Z</time>
      </trkpt>
      <trkpt lat="43.90123" lon="3.51111">
        <ele>642</ele>
        <time>2019-04-14T10:40:54.573Z</time>
      </trkpt>
      <trkpt lat="43.90122" lon="3.51113">
        <ele>642</ele>
        <time>2019-04-14T10:41:13.583Z</time>
      </trkpt>
      <trkpt lat="43.90121" lon="3.51117">
        <ele>642</ele>
        <time>2019-04-14T10:41:17.595Z</time>
      </trkpt>
      <trkpt lat="43.90117" lon="3.5112">
        <ele>642</ele>
        <time>2019-04-14T10:41:22.602Z</time>
      </trkpt>
      <trkpt lat="43.90111" lon="3.51122">
        <ele>642</ele>
        <time>2019-04-14T10:41:27.595Z</time>
      </trkpt>
      <trkpt lat="43.90108" lon="3.51125">
        <ele>640</ele>
        <time>2019-04-14T10:41:31.618Z</time>
      </trkpt>
      <trkpt lat="43.90107" lon="3.51127">
        <ele>640</ele>
        <time>2019-04-14T10:41:36.573Z</time>
      </trkpt>
      <trkpt lat="43.90104" lon="3.51132">
        <ele>640</ele>
        <time>2019-04-14T10:41:49.572Z</time>
      </trkpt>
      <trkpt lat="43.90102" lon="3.51138">
        <ele>640</ele>
        <time>2019-04-14T10:41:53.587Z</time>
      </trkpt>
      <trkpt lat="43.901" lon="3.51143">
        <ele>640</ele>
        <time>2019-04-14T10:41:57.613Z</time>
      </trkpt>
      <trkpt lat="43.90096" lon="3.51145">
        <ele>633</ele>
        <time>2019-04-14T10:42:02.594Z</time>
      </trkpt>
      <trkpt lat="43.90092" lon="3.51148">
        <ele>633</ele>
        <time>2019-04-14T10:42:07.633Z</time>
      </trkpt>
      <trkpt lat="43.9009" lon="3.51155">
        <ele>632</ele>
        <time>2019-04-14T10:42:12.613Z</time>
      </trkpt>
      <trkpt lat="43.90087" lon="3.5116">
        <ele>632</ele>
        <time>2019-04-14T10:42:17.592Z</time>
      </trkpt>
      <trkpt lat="43.90082" lon="3.51162">
        <ele>632</ele>
        <time>2019-04-14T10:42:22.584Z</time>
      </trkpt>
      <trkpt lat="43.90078" lon="3.51168">
        <ele>632</ele>
        <time>2019-04-14T10:42:26.596Z</time>
      </trkpt>
      <trkpt lat="43.90074" lon="3.51171">
        <ele>632</ele>
        <time>2019-04-14T10:42:31.614Z</time>
      </trkpt>
      <trkpt lat="43.90074" lon="3.51171">
        <ele>632</ele>
        <time>2019-04-14T10:42:36.612Z</time>
      </trkpt>
      <trkpt lat="43.90073" lon="3.51172">
        <ele>632</ele>
        <time>2019-04-14T10:42:51.576Z</time>
      </trkpt>
      <trkpt lat="43.90071" lon="3.51178">
        <ele>632</ele>
        <time>2019-04-14T10:42:55.591Z</time>
      </trkpt>
      <trkpt lat="43.90066" lon="3.5119">
        <ele>620</ele>
        <time>2019-04-14T10:43:08.583Z</time>
      </trkpt>
      <trkpt lat="43.90065" lon="3.5119">
        <ele>620</ele>
        <time>2019-04-14T10:43:12.572Z</time>
      </trkpt>
      <trkpt lat="43.90064" lon="3.51197">
        <ele>620</ele>
        <time>2019-04-14T10:43:17.574Z</time>
      </trkpt>
      <trkpt lat="43.90064" lon="3.51204">
        <ele>620</ele>
        <time>2019-04-14T10:43:21.582Z</time>
      </trkpt>
      <trkpt lat="43.90063" lon="3.51209">
        <ele>627</ele>
        <time>2019-04-14T10:43:25.613Z</time>
      </trkpt>
      <trkpt lat="43.90055" lon="3.51219">
        <ele>627</ele>
        <time>2019-04-14T10:43:59.607Z</time>
      </trkpt>
      <trkpt lat="43.90052" lon="3.51222">
        <ele>627</ele>
        <time>2019-04-14T10:44:04.612Z</time>
      </trkpt>
      <trkpt lat="43.90047" lon="3.51224">
        <ele>627</ele>
        <time>2019-04-14T10:44:09.586Z</time>
      </trkpt>
      <trkpt lat="43.90043" lon="3.51227">
        <ele>627</ele>
        <time>2019-04-14T10:44:14.593Z</time>
      </trkpt>
      <trkpt lat="43.90038" lon="3.51229">
        <ele>608</ele>
        <time>2019-04-14T10:44:19.593Z</time>
      </trkpt>
      <trkpt lat="43.90036" lon="3.51237">
        <ele>617</ele>
        <time>2019-04-14T10:44:24.581Z</time>
      </trkpt>
      <trkpt lat="43.90036" lon="3.5124">
        <ele>617</ele>
        <time>2019-04-14T10:44:29.575Z</time>
      </trkpt>
      <trkpt lat="43.90037" lon="3.51241">
        <ele>617</ele>
        <time>2019-04-14T10:44:37.594Z</time>
      </trkpt>
      <trkpt lat="43.90037" lon="3.51248">
        <ele>617</ele>
        <time>2019-04-14T10:44:42.610Z</time>
      </trkpt>
      <trkpt lat="43.90039" lon="3.51254">
        <ele>617</ele>
        <time>2019-04-14T10:44:46.622Z</time>
      </trkpt>
      <trkpt lat="43.90035" lon="3.51258">
        <ele>617</ele>
        <time>2019-04-14T10:44:51.588Z</time>
      </trkpt>
      <trkpt lat="43.90034" lon="3.51266">
        <ele>627</ele>
        <time>2019-04-14T10:44:55.613Z</time>
      </trkpt>
      <trkpt lat="43.9003" lon="3.51273">
        <ele>627</ele>
        <time>2019-04-14T10:45:00.584Z</time>
      </trkpt>
      <trkpt lat="43.90027" lon="3.51276">
        <ele>627</ele>
        <time>2019-04-14T10:45:05.581Z</time>
      </trkpt>
      <trkpt lat="43.90024" lon="3.5128">
        <ele>627</ele>
        <time>2019-04-14T10:45:09.591Z</time>
      </trkpt>
      <trkpt lat="43.90021" lon="3.51284">
        <ele>627</ele>
        <time>2019-04-14T10:45:14.588Z</time>
      </trkpt>
      <trkpt lat="43.90018" lon="3.51286">
        <ele>627</ele>
        <time>2019-04-14T10:45:18.590Z</time>
      </trkpt>
      <trkpt lat="43.90015" lon="3.51289">
        <ele>627</ele>
        <time>2019-04-14T10:45:23.597Z</time>
      </trkpt>
      <trkpt lat="43.90012" lon="3.51296">
        <ele>621</ele>
        <time>2019-04-14T10:45:28.582Z</time>
      </trkpt>
      <trkpt lat="43.90008" lon="3.51303">
        <ele>621</ele>
        <time>2019-04-14T10:45:33.583Z</time>
      </trkpt>
      <trkpt lat="43.90006" lon="3.5131">
        <ele>621</ele>
        <time>2019-04-14T10:45:38.585Z</time>
      </trkpt>
      <trkpt lat="43.90005" lon="3.51316">
        <ele>621</ele>
        <time>2019-04-14T10:45:42.593Z</time>
      </trkpt>
      <trkpt lat="43.90003" lon="3.51325">
        <ele>622</ele>
        <time>2019-04-14T10:45:47.586Z</time>
      </trkpt>
      <trkpt lat="43.90003" lon="3.51332">
        <ele>622</ele>
        <time>2019-04-14T10:45:51.592Z</time>
      </trkpt>
      <trkpt lat="43.90001" lon="3.51337">
        <ele>622</ele>
        <time>2019-04-14T10:45:56.574Z</time>
      </trkpt>
      <trkpt lat="43.90002" lon="3.51337">
        <ele>622</ele>
        <time>2019-04-14T10:46:01.578Z</time>
      </trkpt>
      <trkpt lat="43.90003" lon="3.51344">
        <ele>622</ele>
        <time>2019-04-14T10:46:11.575Z</time>
      </trkpt>
      <trkpt lat="43.90002" lon="3.51351">
        <ele>620</ele>
        <time>2019-04-14T10:46:15.607Z</time>
      </trkpt>
      <trkpt lat="43.90003" lon="3.51358">
        <ele>620</ele>
        <time>2019-04-14T10:46:20.578Z</time>
      </trkpt>
      <trkpt lat="43.90001" lon="3.51364">
        <ele>620</ele>
        <time>2019-04-14T10:46:25.590Z</time>
      </trkpt>
      <trkpt lat="43.90001" lon="3.5137">
        <ele>620</ele>
        <time>2019-04-14T10:46:29.617Z</time>
      </trkpt>
      <trkpt lat="43.90004" lon="3.51376">
        <ele>619</ele>
        <time>2019-04-14T10:46:34.596Z</time>
      </trkpt>
      <trkpt lat="43.90006" lon="3.51383">
        <ele>619</ele>
        <time>2019-04-14T10:46:39.595Z</time>
      </trkpt>
      <trkpt lat="43.90007" lon="3.51389">
        <ele>619</ele>
        <time>2019-04-14T10:46:43.615Z</time>
      </trkpt>
      <trkpt lat="43.90008" lon="3.51397">
        <ele>619</ele>
        <time>2019-04-14T10:46:48.584Z</time>
      </trkpt>
      <trkpt lat="43.90009" lon="3.51401">
        <ele>619</ele>
        <time>2019-04-14T10:46:52.613Z</time>
      </trkpt>
      <trkpt lat="43.90008" lon="3.51406">
        <ele>618</ele>
        <time>2019-04-14T10:46:57.592Z</time>
      </trkpt>
      <trkpt lat="43.9001" lon="3.51413">
        <ele>618</ele>
        <time>2019-04-14T10:47:02.595Z</time>
      </trkpt>
      <trkpt lat="43.90012" lon="3.51417">
        <ele>618</ele>
        <time>2019-04-14T10:47:06.625Z</time>
      </trkpt>
      <trkpt lat="43.90011" lon="3.5142">
        <ele>618</ele>
        <time>2019-04-14T10:47:11.583Z</time>
      </trkpt>
      <trkpt lat="43.90011" lon="3.5142">
        <ele>618</ele>
        <time>2019-04-14T10:47:15.614Z</time>
      </trkpt>
      <trkpt lat="43.90013" lon="3.51421">
        <ele>618</ele>
        <time>2019-04-14T10:47:38.588Z</time>
      </trkpt>
      <trkpt lat="43.90015" lon="3.51427">
        <ele>629</ele>
        <time>2019-04-14T10:47:43.589Z</time>
      </trkpt>
      <trkpt lat="43.90017" lon="3.51433">
        <ele>629</ele>
        <time>2019-04-14T10:47:48.584Z</time>
      </trkpt>
      <trkpt lat="43.90019" lon="3.51437">
        <ele>629</ele>
        <time>2019-04-14T10:47:53.588Z</time>
      </trkpt>
      <trkpt lat="43.90021" lon="3.5144">
        <ele>629</ele>
        <time>2019-04-14T10:47:57.624Z</time>
      </trkpt>
      <trkpt lat="43.90022" lon="3.51442">
        <ele>629</ele>
        <time>2019-04-14T10:48:02.620Z</time>
      </trkpt>
      <trkpt lat="43.90023" lon="3.51442">
        <ele>629</ele>
        <time>2019-04-14T10:48:07.593Z</time>
      </trkpt>
      <trkpt lat="43.90026" lon="3.51445">
        <ele>629</ele>
        <time>2019-04-14T10:48:12.584Z</time>
      </trkpt>
      <trkpt lat="43.90028" lon="3.51442">
        <ele>629</ele>
        <time>2019-04-14T10:48:17.587Z</time>
      </trkpt>
      <trkpt lat="43.90028" lon="3.51435">
        <ele>629</ele>
        <time>2019-04-14T10:48:22.614Z</time>
      </trkpt>
      <trkpt lat="43.90028" lon="3.51429">
        <ele>629</ele>
        <time>2019-04-14T10:48:27.615Z</time>
      </trkpt>
      <trkpt lat="43.90029" lon="3.51423">
        <ele>629</ele>
        <time>2019-04-14T10:48:32.615Z</time>
      </trkpt>
      <trkpt lat="43.90029" lon="3.51417">
        <ele>629</ele>
        <time>2019-04-14T10:48:37.597Z</time>
      </trkpt>
      <trkpt lat="43.90028" lon="3.51408">
        <ele>629</ele>
        <time>2019-04-14T10:48:42.620Z</time>
      </trkpt>
      <trkpt lat="43.90028" lon="3.51401">
        <ele>629</ele>
        <time>2019-04-14T10:48:47.593Z</time>
      </trkpt>
      <trkpt lat="43.90031" lon="3.51398">
        <ele>629</ele>
        <time>2019-04-14T10:48:52.584Z</time>
      </trkpt>
      <trkpt lat="43.90032" lon="3.51394">
        <ele>629</ele>
        <time>2019-04-14T10:48:57.584Z</time>
      </trkpt>
      <trkpt lat="43.90033" lon="3.51386">
        <ele>629</ele>
        <time>2019-04-14T10:49:02.615Z</time>
      </trkpt>
      <trkpt lat="43.90034" lon="3.51379">
        <ele>629</ele>
        <time>2019-04-14T10:49:07.589Z</time>
      </trkpt>
      <trkpt lat="43.90035" lon="3.51375">
        <ele>635</ele>
        <time>2019-04-14T10:49:11.614Z</time>
      </trkpt>
      <trkpt lat="43.90036" lon="3.51369">
        <ele>635</ele>
        <time>2019-04-14T10:49:16.593Z</time>
      </trkpt>
      <trkpt lat="43.90037" lon="3.51364">
        <ele>635</ele>
        <time>2019-04-14T10:49:20.613Z</time>
      </trkpt>
      <trkpt lat="43.90038" lon="3.5136">
        <ele>635</ele>
        <time>2019-04-14T10:49:25.599Z</time>
      </trkpt>
      <trkpt lat="43.90042" lon="3.51356">
        <ele>635</ele>
        <time>2019-04-14T10:49:30.605Z</time>
      </trkpt>
      <trkpt lat="43.90042" lon="3.51349">
        <ele>644</ele>
        <time>2019-04-14T10:49:35.578Z</time>
      </trkpt>
      <trkpt lat="43.90045" lon="3.51344">
        <ele>646</ele>
        <time>2019-04-14T10:49:39.612Z</time>
      </trkpt>
      <trkpt lat="43.90047" lon="3.51338">
        <ele>646</ele>
        <time>2019-04-14T10:49:44.582Z</time>
      </trkpt>
      <trkpt lat="43.90047" lon="3.51331">
        <ele>646</ele>
        <time>2019-04-14T10:49:49.587Z</time>
      </trkpt>
      <trkpt lat="43.90047" lon="3.51325">
        <ele>646</ele>
        <time>2019-04-14T10:49:53.600Z</time>
      </trkpt>
      <trkpt lat="43.90048" lon="3.51318">
        <ele>646</ele>
        <time>2019-04-14T10:49:58.597Z</time>
      </trkpt>
      <trkpt lat="43.90049" lon="3.51312">
        <ele>646</ele>
        <time>2019-04-14T10:50:03.598Z</time>
      </trkpt>
      <trkpt lat="43.90049" lon="3.51307">
        <ele>646</ele>
        <time>2019-04-14T10:50:07.615Z</time>
      </trkpt>
      <trkpt lat="43.90051" lon="3.51302">
        <ele>646</ele>
        <time>2019-04-14T10:50:12.634Z</time>
      </trkpt>
      <trkpt lat="43.90049" lon="3.51296">
        <ele>646</ele>
        <time>2019-04-14T10:50:17.595Z</time>
      </trkpt>
      <trkpt lat="43.90051" lon="3.51296">
        <ele>646</ele>
        <time>2019-04-14T10:50:26.619Z</time>
      </trkpt>
      <trkpt lat="43.90051" lon="3.51295">
        <ele>646</ele>
        <time>2019-04-14T10:50:31.588Z</time>
      </trkpt>
      <trkpt lat="43.90055" lon="3.51289">
        <ele>642</ele>
        <time>2019-04-14T10:50:36.585Z</time>
      </trkpt>
      <trkpt lat="43.90058" lon="3.51284">
        <ele>642</ele>
        <time>2019-04-14T10:50:41.615Z</time>
      </trkpt>
      <trkpt lat="43.90059" lon="3.51281">
        <ele>642</ele>
        <time>2019-04-14T10:50:45.623Z</time>
      </trkpt>
      <trkpt lat="43.90062" lon="3.51274">
        <ele>642</ele>
        <time>2019-04-14T10:50:50.584Z</time>
      </trkpt>
      <trkpt lat="43.90063" lon="3.51269">
        <ele>642</ele>
        <time>2019-04-14T10:50:54.593Z</time>
      </trkpt>
      <trkpt lat="43.90067" lon="3.51264">
        <ele>636</ele>
        <time>2019-04-14T10:50:59.595Z</time>
      </trkpt>
      <trkpt lat="43.90071" lon="3.51263">
        <ele>649</ele>
        <time>2019-04-14T10:51:04.587Z</time>
      </trkpt>
      <trkpt lat="43.90075" lon="3.51262">
        <ele>649</ele>
        <time>2019-04-14T10:51:08.614Z</time>
      </trkpt>
      <trkpt lat="43.9008" lon="3.51264">
        <ele>649</ele>
        <time>2019-04-14T10:51:13.616Z</time>
      </trkpt>
      <trkpt lat="43.90086" lon="3.51264">
        <ele>652</ele>
        <time>2019-04-14T10:51:18.585Z</time>
      </trkpt>
      <trkpt lat="43.90091" lon="3.51264">
        <ele>649</ele>
        <time>2019-04-14T10:51:23.594Z</time>
      </trkpt>
      <trkpt lat="43.90096" lon="3.51264">
        <ele>649</ele>
        <time>2019-04-14T10:51:28.584Z</time>
      </trkpt>
      <trkpt lat="43.90102" lon="3.51263">
        <ele>652</ele>
        <time>2019-04-14T10:51:33.615Z</time>
      </trkpt>
      <trkpt lat="43.90106" lon="3.51261">
        <ele>652</ele>
        <time>2019-04-14T10:51:38.593Z</time>
      </trkpt>
      <trkpt lat="43.9011" lon="3.51259">
        <ele>652</ele>
        <time>2019-04-14T10:51:42.617Z</time>
      </trkpt>
      <trkpt lat="43.90115" lon="3.51256">
        <ele>652</ele>
        <time>2019-04-14T10:51:47.614Z</time>
      </trkpt>
      <trkpt lat="43.9012" lon="3.51254">
        <ele>652</ele>
        <time>2019-04-14T10:51:52.585Z</time>
      </trkpt>
      <trkpt lat="43.90123" lon="3.51251">
        <ele>652</ele>
        <time>2019-04-14T10:51:57.599Z</time>
      </trkpt>
      <trkpt lat="43.90126" lon="3.51248">
        <ele>654</ele>
        <time>2019-04-14T10:52:26.577Z</time>
      </trkpt>
      <trkpt lat="43.90128" lon="3.51245">
        <ele>654</ele>
        <time>2019-04-14T10:52:30.588Z</time>
      </trkpt>
      <trkpt lat="43.90129" lon="3.51243">
        <ele>654</ele>
        <time>2019-04-14T10:52:34.612Z</time>
      </trkpt>
      <trkpt lat="43.90133" lon="3.51241">
        <ele>654</ele>
        <time>2019-04-14T10:52:39.576Z</time>
      </trkpt>
      <trkpt lat="43.90137" lon="3.51236">
        <ele>654</ele>
        <time>2019-04-14T10:52:44.580Z</time>
      </trkpt>
      <trkpt lat="43.90139" lon="3.51229">
        <ele>654</ele>
        <time>2019-04-14T10:52:49.576Z</time>
      </trkpt>
      <trkpt lat="43.90141" lon="3.51222">
        <ele>654</ele>
        <time>2019-04-14T10:52:54.621Z</time>
      </trkpt>
      <trkpt lat="43.90142" lon="3.51218">
        <ele>654</ele>
        <time>2019-04-14T10:52:59.576Z</time>
      </trkpt>
      <trkpt lat="43.90144" lon="3.51211">
        <ele>654</ele>
        <time>2019-04-14T10:53:04.616Z</time>
      </trkpt>
      <trkpt lat="43.90146" lon="3.51206">
        <ele>655</ele>
        <time>2019-04-14T10:53:09.607Z</time>
      </trkpt>
      <trkpt lat="43.90148" lon="3.512">
        <ele>655</ele>
        <time>2019-04-14T10:53:14.586Z</time>
      </trkpt>
      <trkpt lat="43.90151" lon="3.51192">
        <ele>655</ele>
        <time>2019-04-14T10:53:19.587Z</time>
      </trkpt>
      <trkpt lat="43.90151" lon="3.51185">
        <ele>655</ele>
        <time>2019-04-14T10:53:24.584Z</time>
      </trkpt>
      <trkpt lat="43.90153" lon="3.5118">
        <ele>658</ele>
        <time>2019-04-14T10:53:29.590Z</time>
      </trkpt>
      <trkpt lat="43.90154" lon="3.51174">
        <ele>658</ele>
        <time>2019-04-14T10:53:33.596Z</time>
      </trkpt>
      <trkpt lat="43.90156" lon="3.51166">
        <ele>658</ele>
        <time>2019-04-14T10:53:38.587Z</time>
      </trkpt>
      <trkpt lat="43.90156" lon="3.51159">
        <ele>658</ele>
        <time>2019-04-14T10:53:42.614Z</time>
      </trkpt>
      <trkpt lat="43.90156" lon="3.5115">
        <ele>659</ele>
        <time>2019-04-14T10:53:47.587Z</time>
      </trkpt>
      <trkpt lat="43.90157" lon="3.51143">
        <ele>659</ele>
        <time>2019-04-14T10:53:52.586Z</time>
      </trkpt>
      <trkpt lat="43.90156" lon="3.51135">
        <ele>659</ele>
        <time>2019-04-14T10:53:57.595Z</time>
      </trkpt>
      <trkpt lat="43.90154" lon="3.51128">
        <ele>659</ele>
        <time>2019-04-14T10:54:02.587Z</time>
      </trkpt>
      <trkpt lat="43.90152" lon="3.51121">
        <ele>652</ele>
        <time>2019-04-14T10:54:07.586Z</time>
      </trkpt>
      <trkpt lat="43.9015" lon="3.51115">
        <ele>652</ele>
        <time>2019-04-14T10:54:12.586Z</time>
      </trkpt>
      <trkpt lat="43.90149" lon="3.51108">
        <ele>652</ele>
        <time>2019-04-14T10:54:17.585Z</time>
      </trkpt>
      <trkpt lat="43.9015" lon="3.51099">
        <ele>652</ele>
        <time>2019-04-14T10:54:22.587Z</time>
      </trkpt>
      <trkpt lat="43.90151" lon="3.51091">
        <ele>654</ele>
        <time>2019-04-14T10:54:27.585Z</time>
      </trkpt>
      <trkpt lat="43.90153" lon="3.51085">
        <ele>654</ele>
        <time>2019-04-14T10:54:31.620Z</time>
      </trkpt>
      <trkpt lat="43.90154" lon="3.5108">
        <ele>659</ele>
        <time>2019-04-14T10:54:36.586Z</time>
      </trkpt>
      <trkpt lat="43.90155" lon="3.51072">
        <ele>659</ele>
        <time>2019-04-14T10:54:41.594Z</time>
      </trkpt>
      <trkpt lat="43.90154" lon="3.51066">
        <ele>660</ele>
        <time>2019-04-14T10:54:45.633Z</time>
      </trkpt>
      <trkpt lat="43.90153" lon="3.51058">
        <ele>660</ele>
        <time>2019-04-14T10:54:50.588Z</time>
      </trkpt>
      <trkpt lat="43.90153" lon="3.51051">
        <ele>660</ele>
        <time>2019-04-14T10:54:55.588Z</time>
      </trkpt>
      <trkpt lat="43.90154" lon="3.51046">
        <ele>660</ele>
        <time>2019-04-14T10:55:00.584Z</time>
      </trkpt>
      <trkpt lat="43.90156" lon="3.51042">
        <ele>660</ele>
        <time>2019-04-14T10:55:05.586Z</time>
      </trkpt>
      <trkpt lat="43.90156" lon="3.51037">
        <ele>660</ele>
        <time>2019-04-14T10:55:09.614Z</time>
      </trkpt>
      <trkpt lat="43.90158" lon="3.51032">
        <ele>660</ele>
        <time>2019-04-14T10:55:14.587Z</time>
      </trkpt>
      <trkpt lat="43.90158" lon="3.51025">
        <ele>660</ele>
        <time>2019-04-14T10:55:19.613Z</time>
      </trkpt>
      <trkpt lat="43.90155" lon="3.51018">
        <ele>660</ele>
        <time>2019-04-14T10:55:24.583Z</time>
      </trkpt>
      <trkpt lat="43.90152" lon="3.51013">
        <ele>661</ele>
        <time>2019-04-14T10:55:29.585Z</time>
      </trkpt>
      <trkpt lat="43.9015" lon="3.51009">
        <ele>661</ele>
        <time>2019-04-14T10:55:33.617Z</time>
      </trkpt>
      <trkpt lat="43.90145" lon="3.51">
        <ele>661</ele>
        <time>2019-04-14T10:56:01.589Z</time>
      </trkpt>
      <trkpt lat="43.90145" lon="3.50999">
        <ele>661</ele>
        <time>2019-04-14T10:56:11.578Z</time>
      </trkpt>
      <trkpt lat="43.90146" lon="3.50995">
        <ele>661</ele>
        <time>2019-04-14T10:56:15.615Z</time>
      </trkpt>
      <trkpt lat="43.9015" lon="3.50994">
        <ele>661</ele>
        <time>2019-04-14T10:56:20.619Z</time>
      </trkpt>
      <trkpt lat="43.90153" lon="3.5099">
        <ele>661</ele>
        <time>2019-04-14T10:56:25.574Z</time>
      </trkpt>
      <trkpt lat="43.90155" lon="3.50987">
        <ele>661</ele>
        <time>2019-04-14T10:56:29.587Z</time>
      </trkpt>
      <trkpt lat="43.90155" lon="3.50979">
        <ele>662</ele>
        <time>2019-04-14T10:56:34.586Z</time>
      </trkpt>
      <trkpt lat="43.90156" lon="3.50972">
        <ele>662</ele>
        <time>2019-04-14T10:56:39.629Z</time>
      </trkpt>
      <trkpt lat="43.90158" lon="3.50966">
        <ele>662</ele>
        <time>2019-04-14T10:56:44.586Z</time>
      </trkpt>
      <trkpt lat="43.90157" lon="3.50961">
        <ele>662</ele>
        <time>2019-04-14T10:56:48.615Z</time>
      </trkpt>
      <trkpt lat="43.90156" lon="3.50956">
        <ele>664</ele>
        <time>2019-04-14T10:56:53.601Z</time>
      </trkpt>
      <trkpt lat="43.90157" lon="3.50951">
        <ele>664</ele>
        <time>2019-04-14T10:56:57.615Z</time>
      </trkpt>
      <trkpt lat="43.90157" lon="3.50943">
        <ele>664</ele>
        <time>2019-04-14T10:57:01.624Z</time>
      </trkpt>
      <trkpt lat="43.90157" lon="3.50935">
        <ele>664</ele>
        <time>2019-04-14T10:57:06.588Z</time>
      </trkpt>
      <trkpt lat="43.90155" lon="3.5093">
        <ele>666</ele>
        <time>2019-04-14T10:57:10.625Z</time>
      </trkpt>
      <trkpt lat="43.90155" lon="3.50923">
        <ele>666</ele>
        <time>2019-04-14T10:57:15.594Z</time>
      </trkpt>
      <trkpt lat="43.90155" lon="3.50916">
        <ele>666</ele>
        <time>2019-04-14T10:57:20.586Z</time>
      </trkpt>
      <trkpt lat="43.90155" lon="3.5091">
        <ele>666</ele>
        <time>2019-04-14T10:57:25.584Z</time>
      </trkpt>
      <trkpt lat="43.90154" lon="3.50902">
        <ele>667</ele>
        <time>2019-04-14T10:57:29.598Z</time>
      </trkpt>
      <trkpt lat="43.90154" lon="3.50895">
        <ele>667</ele>
        <time>2019-04-14T10:57:34.599Z</time>
      </trkpt>
      <trkpt lat="43.90156" lon="3.50892">
        <ele>667</ele>
        <time>2019-04-14T10:57:38.616Z</time>
      </trkpt>
      <trkpt lat="43.90158" lon="3.50888">
        <ele>667</ele>
        <time>2019-04-14T10:57:43.601Z</time>
      </trkpt>
      <trkpt lat="43.90161" lon="3.50882">
        <ele>667</ele>
        <time>2019-04-14T10:57:48.614Z</time>
      </trkpt>
      <trkpt lat="43.90165" lon="3.50876">
        <ele>667</ele>
        <time>2019-04-14T10:57:53.587Z</time>
      </trkpt>
      <trkpt lat="43.90167" lon="3.50871">
        <ele>665</ele>
        <time>2019-04-14T10:57:58.594Z</time>
      </trkpt>
      <trkpt lat="43.90169" lon="3.50865">
        <ele>665</ele>
        <time>2019-04-14T10:58:03.596Z</time>
      </trkpt>
      <trkpt lat="43.90172" lon="3.50861">
        <ele>665</ele>
        <time>2019-04-14T10:58:08.579Z</time>
      </trkpt>
      <trkpt lat="43.90173" lon="3.5086">
        <ele>665</ele>
        <time>2019-04-14T10:58:13.577Z</time>
      </trkpt>
      <trkpt lat="43.90173" lon="3.5086">
        <ele>665</ele>
        <time>2019-04-14T10:58:30.591Z</time>
      </trkpt>
      <trkpt lat="43.90173" lon="3.50851">
        <ele>665</ele>
        <time>2019-04-14T10:58:35.584Z</time>
      </trkpt>
      <trkpt lat="43.90172" lon="3.50839">
        <ele>661</ele>
        <time>2019-04-14T10:58:53.588Z</time>
      </trkpt>
      <trkpt lat="43.90171" lon="3.50834">
        <ele>661</ele>
        <time>2019-04-14T10:58:57.595Z</time>
      </trkpt>
      <trkpt lat="43.90169" lon="3.50829">
        <ele>661</ele>
        <time>2019-04-14T10:59:02.588Z</time>
      </trkpt>
      <trkpt lat="43.90165" lon="3.50826">
        <ele>661</ele>
        <time>2019-04-14T10:59:07.586Z</time>
      </trkpt>
      <trkpt lat="43.90162" lon="3.50822">
        <ele>661</ele>
        <time>2019-04-14T10:59:11.595Z</time>
      </trkpt>
      <trkpt lat="43.90156" lon="3.50818">
        <ele>657</ele>
        <time>2019-04-14T10:59:16.585Z</time>
      </trkpt>
      <trkpt lat="43.90152" lon="3.50815">
        <ele>649</ele>
        <time>2019-04-14T10:59:21.598Z</time>
      </trkpt>
      <trkpt lat="43.90149" lon="3.50814">
        <ele>649</ele>
        <time>2019-04-14T10:59:26.587Z</time>
      </trkpt>
      <trkpt lat="43.90145" lon="3.50814">
        <ele>649</ele>
        <time>2019-04-14T10:59:31.585Z</time>
      </trkpt>
      <trkpt lat="43.90143" lon="3.50815">
        <ele>649</ele>
        <time>2019-04-14T11:23:14.587Z</time>
      </trkpt>
      <trkpt lat="43.90148" lon="3.50819">
        <ele>649</ele>
        <time>2019-04-14T11:23:19.591Z</time>
      </trkpt>
      <trkpt lat="43.90152" lon="3.5082">
        <ele>655</ele>
        <time>2019-04-14T11:23:24.588Z</time>
      </trkpt>
      <trkpt lat="43.90152" lon="3.5082">
        <ele>655</ele>
        <time>2019-04-14T11:23:28.601Z</time>
      </trkpt>
      <trkpt lat="43.90154" lon="3.50823">
        <ele>661</ele>
        <time>2019-04-14T11:23:39.591Z</time>
      </trkpt>
      <trkpt lat="43.90157" lon="3.50825">
        <ele>661</ele>
        <time>2019-04-14T11:23:44.587Z</time>
      </trkpt>
      <trkpt lat="43.90161" lon="3.50826">
        <ele>661</ele>
        <time>2019-04-14T11:23:48.617Z</time>
      </trkpt>
      <trkpt lat="43.90165" lon="3.50827">
        <ele>661</ele>
        <time>2019-04-14T11:23:53.596Z</time>
      </trkpt>
      <trkpt lat="43.9017" lon="3.50828">
        <ele>661</ele>
        <time>2019-04-14T11:23:57.610Z</time>
      </trkpt>
      <trkpt lat="43.90174" lon="3.50828">
        <ele>661</ele>
        <time>2019-04-14T11:24:02.587Z</time>
      </trkpt>
      <trkpt lat="43.9018" lon="3.50827">
        <ele>661</ele>
        <time>2019-04-14T11:24:07.609Z</time>
      </trkpt>
      <trkpt lat="43.90186" lon="3.50825">
        <ele>664</ele>
        <time>2019-04-14T11:24:12.588Z</time>
      </trkpt>
      <trkpt lat="43.90191" lon="3.50823">
        <ele>664</ele>
        <time>2019-04-14T11:24:17.584Z</time>
      </trkpt>
      <trkpt lat="43.90195" lon="3.5082">
        <ele>664</ele>
        <time>2019-04-14T11:24:21.608Z</time>
      </trkpt>
      <trkpt lat="43.90199" lon="3.50817">
        <ele>662</ele>
        <time>2019-04-14T11:24:25.630Z</time>
      </trkpt>
      <trkpt lat="43.90204" lon="3.50813">
        <ele>662</ele>
        <time>2019-04-14T11:24:30.638Z</time>
      </trkpt>
      <trkpt lat="43.90208" lon="3.50808">
        <ele>662</ele>
        <time>2019-04-14T11:24:35.597Z</time>
      </trkpt>
      <trkpt lat="43.90212" lon="3.50805">
        <ele>665</ele>
        <time>2019-04-14T11:24:39.622Z</time>
      </trkpt>
      <trkpt lat="43.90216" lon="3.50802">
        <ele>665</ele>
        <time>2019-04-14T11:24:44.617Z</time>
      </trkpt>
      <trkpt lat="43.9022" lon="3.50798">
        <ele>665</ele>
        <time>2019-04-14T11:24:49.617Z</time>
      </trkpt>
      <trkpt lat="43.90223" lon="3.50792">
        <ele>665</ele>
        <time>2019-04-14T11:24:54.596Z</time>
      </trkpt>
      <trkpt lat="43.90226" lon="3.50787">
        <ele>664</ele>
        <time>2019-04-14T11:24:59.587Z</time>
      </trkpt>
      <trkpt lat="43.90229" lon="3.50783">
        <ele>664</ele>
        <time>2019-04-14T11:25:04.587Z</time>
      </trkpt>
      <trkpt lat="43.90233" lon="3.5078">
        <ele>664</ele>
        <time>2019-04-14T11:25:09.588Z</time>
      </trkpt>
      <trkpt lat="43.90235" lon="3.50776">
        <ele>664</ele>
        <time>2019-04-14T11:25:13.629Z</time>
      </trkpt>
      <trkpt lat="43.90239" lon="3.5077">
        <ele>666</ele>
        <time>2019-04-14T11:25:18.618Z</time>
      </trkpt>
      <trkpt lat="43.90243" lon="3.50764">
        <ele>666</ele>
        <time>2019-04-14T11:25:23.599Z</time>
      </trkpt>
      <trkpt lat="43.90247" lon="3.5076">
        <ele>665</ele>
        <time>2019-04-14T11:25:28.616Z</time>
      </trkpt>
      <trkpt lat="43.90249" lon="3.50755">
        <ele>665</ele>
        <time>2019-04-14T11:25:33.599Z</time>
      </trkpt>
      <trkpt lat="43.90249" lon="3.50749">
        <ele>665</ele>
        <time>2019-04-14T11:25:38.617Z</time>
      </trkpt>
      <trkpt lat="43.90249" lon="3.50743">
        <ele>665</ele>
        <time>2019-04-14T11:25:43.623Z</time>
      </trkpt>
      <trkpt lat="43.90246" lon="3.50737">
        <ele>665</ele>
        <time>2019-04-14T11:25:48.589Z</time>
      </trkpt>
      <trkpt lat="43.90245" lon="3.50732">
        <ele>664</ele>
        <time>2019-04-14T11:25:52.617Z</time>
      </trkpt>
      <trkpt lat="43.90243" lon="3.50726">
        <ele>664</ele>
        <time>2019-04-14T11:25:57.594Z</time>
      </trkpt>
      <trkpt lat="43.90239" lon="3.50719">
        <ele>664</ele>
        <time>2019-04-14T11:26:02.596Z</time>
      </trkpt>
      <trkpt lat="43.90237" lon="3.50715">
        <ele>664</ele>
        <time>2019-04-14T11:26:06.625Z</time>
      </trkpt>
      <trkpt lat="43.90232" lon="3.50708">
        <ele>656</ele>
        <time>2019-04-14T11:26:11.587Z</time>
      </trkpt>
      <trkpt lat="43.90229" lon="3.50703">
        <ele>656</ele>
        <time>2019-04-14T11:26:15.588Z</time>
      </trkpt>
      <trkpt lat="43.90225" lon="3.507">
        <ele>656</ele>
        <time>2019-04-14T11:26:19.599Z</time>
      </trkpt>
      <trkpt lat="43.90222" lon="3.50696">
        <ele>656</ele>
        <time>2019-04-14T11:26:24.617Z</time>
      </trkpt>
      <trkpt lat="43.90219" lon="3.50691">
        <ele>656</ele>
        <time>2019-04-14T11:26:29.599Z</time>
      </trkpt>
      <trkpt lat="43.90218" lon="3.50685">
        <ele>656</ele>
        <time>2019-04-14T11:26:34.594Z</time>
      </trkpt>
      <trkpt lat="43.90217" lon="3.50677">
        <ele>654</ele>
        <time>2019-04-14T11:26:39.585Z</time>
      </trkpt>
      <trkpt lat="43.90216" lon="3.5067">
        <ele>654</ele>
        <time>2019-04-14T11:26:44.620Z</time>
      </trkpt>
      <trkpt lat="43.90215" lon="3.50663">
        <ele>654</ele>
        <time>2019-04-14T11:26:49.621Z</time>
      </trkpt>
      <trkpt lat="43.90214" lon="3.50657">
        <ele>654</ele>
        <time>2019-04-14T11:26:53.628Z</time>
      </trkpt>
      <trkpt lat="43.90211" lon="3.5065">
        <ele>654</ele>
        <time>2019-04-14T11:26:58.591Z</time>
      </trkpt>
      <trkpt lat="43.90207" lon="3.50648">
        <ele>641</ele>
        <time>2019-04-14T11:27:03.594Z</time>
      </trkpt>
      <trkpt lat="43.90206" lon="3.50645">
        <ele>641</ele>
        <time>2019-04-14T11:27:07.614Z</time>
      </trkpt>
      <trkpt lat="43.90203" lon="3.50642">
        <ele>641</ele>
        <time>2019-04-14T11:27:12.620Z</time>
      </trkpt>
      <trkpt lat="43.90201" lon="3.50634">
        <ele>641</ele>
        <time>2019-04-14T11:27:17.592Z</time>
      </trkpt>
      <trkpt lat="43.90202" lon="3.50628">
        <ele>641</ele>
        <time>2019-04-14T11:27:22.597Z</time>
      </trkpt>
      <trkpt lat="43.90202" lon="3.50624">
        <ele>640</ele>
        <time>2019-04-14T11:27:27.600Z</time>
      </trkpt>
      <trkpt lat="43.90204" lon="3.50622">
        <ele>640</ele>
        <time>2019-04-14T11:27:49.577Z</time>
      </trkpt>
      <trkpt lat="43.90205" lon="3.50613">
        <ele>640</ele>
        <time>2019-04-14T11:27:54.589Z</time>
      </trkpt>
      <trkpt lat="43.90206" lon="3.50608">
        <ele>640</ele>
        <time>2019-04-14T11:27:58.612Z</time>
      </trkpt>
      <trkpt lat="43.90207" lon="3.50602">
        <ele>640</ele>
        <time>2019-04-14T11:28:02.626Z</time>
      </trkpt>
      <trkpt lat="43.90207" lon="3.50596">
        <ele>638</ele>
        <time>2019-04-14T11:28:07.595Z</time>
      </trkpt>
      <trkpt lat="43.90208" lon="3.50589">
        <ele>638</ele>
        <time>2019-04-14T11:28:12.587Z</time>
      </trkpt>
      <trkpt lat="43.90207" lon="3.50583">
        <ele>638</ele>
        <time>2019-04-14T11:28:16.621Z</time>
      </trkpt>
      <trkpt lat="43.90208" lon="3.50578">
        <ele>638</ele>
        <time>2019-04-14T11:28:21.590Z</time>
      </trkpt>
      <trkpt lat="43.90209" lon="3.50574">
        <ele>656</ele>
        <time>2019-04-14T11:28:25.615Z</time>
      </trkpt>
      <trkpt lat="43.90208" lon="3.50567">
        <ele>653</ele>
        <time>2019-04-14T11:28:30.616Z</time>
      </trkpt>
      <trkpt lat="43.90209" lon="3.50564">
        <ele>653</ele>
        <time>2019-04-14T11:28:35.587Z</time>
      </trkpt>
      <trkpt lat="43.90209" lon="3.50559">
        <ele>653</ele>
        <time>2019-04-14T11:28:39.594Z</time>
      </trkpt>
      <trkpt lat="43.90207" lon="3.50552">
        <ele>635</ele>
        <time>2019-04-14T11:28:43.627Z</time>
      </trkpt>
      <trkpt lat="43.90205" lon="3.50544">
        <ele>635</ele>
        <time>2019-04-14T11:28:48.585Z</time>
      </trkpt>
      <trkpt lat="43.90206" lon="3.50539">
        <ele>631</ele>
        <time>2019-04-14T11:28:53.621Z</time>
      </trkpt>
      <trkpt lat="43.90207" lon="3.50533">
        <ele>631</ele>
        <time>2019-04-14T11:28:58.606Z</time>
      </trkpt>
      <trkpt lat="43.90206" lon="3.50526">
        <ele>631</ele>
        <time>2019-04-14T11:29:03.608Z</time>
      </trkpt>
      <trkpt lat="43.90208" lon="3.5052">
        <ele>631</ele>
        <time>2019-04-14T11:29:08.585Z</time>
      </trkpt>
      <trkpt lat="43.90208" lon="3.50513">
        <ele>626</ele>
        <time>2019-04-14T11:29:13.616Z</time>
      </trkpt>
      <trkpt lat="43.90208" lon="3.50507">
        <ele>626</ele>
        <time>2019-04-14T11:29:18.577Z</time>
      </trkpt>
      <trkpt lat="43.90209" lon="3.50503">
        <ele>643</ele>
        <time>2019-04-14T11:29:22.588Z</time>
      </trkpt>
      <trkpt lat="43.90211" lon="3.50501">
        <ele>643</ele>
        <time>2019-04-14T11:29:26.601Z</time>
      </trkpt>
      <trkpt lat="43.90212" lon="3.50495">
        <ele>643</ele>
        <time>2019-04-14T11:29:31.621Z</time>
      </trkpt>
      <trkpt lat="43.90211" lon="3.50487">
        <ele>643</ele>
        <time>2019-04-14T11:29:36.590Z</time>
      </trkpt>
      <trkpt lat="43.90212" lon="3.50481">
        <ele>638</ele>
        <time>2019-04-14T11:29:41.585Z</time>
      </trkpt>
      <trkpt lat="43.90213" lon="3.50477">
        <ele>638</ele>
        <time>2019-04-14T11:29:45.617Z</time>
      </trkpt>
      <trkpt lat="43.90214" lon="3.50472">
        <ele>638</ele>
        <time>2019-04-14T11:29:49.624Z</time>
      </trkpt>
      <trkpt lat="43.90216" lon="3.50467">
        <ele>638</ele>
        <time>2019-04-14T11:29:54.606Z</time>
      </trkpt>
      <trkpt lat="43.90217" lon="3.50461">
        <ele>638</ele>
        <time>2019-04-14T11:29:59.599Z</time>
      </trkpt>
      <trkpt lat="43.90218" lon="3.50455">
        <ele>633</ele>
        <time>2019-04-14T11:30:04.590Z</time>
      </trkpt>
      <trkpt lat="43.90219" lon="3.5045">
        <ele>633</ele>
        <time>2019-04-14T11:30:08.618Z</time>
      </trkpt>
      <trkpt lat="43.90221" lon="3.50445">
        <ele>633</ele>
        <time>2019-04-14T11:30:13.588Z</time>
      </trkpt>
      <trkpt lat="43.90219" lon="3.50439">
        <ele>633</ele>
        <time>2019-04-14T11:30:18.619Z</time>
      </trkpt>
      <trkpt lat="43.90218" lon="3.50432">
        <ele>633</ele>
        <time>2019-04-14T11:30:23.596Z</time>
      </trkpt>
      <trkpt lat="43.90217" lon="3.50427">
        <ele>627</ele>
        <time>2019-04-14T11:30:27.615Z</time>
      </trkpt>
      <trkpt lat="43.90217" lon="3.50421">
        <ele>627</ele>
        <time>2019-04-14T11:30:32.617Z</time>
      </trkpt>
      <trkpt lat="43.90217" lon="3.50416">
        <ele>627</ele>
        <time>2019-04-14T11:30:37.586Z</time>
      </trkpt>
      <trkpt lat="43.90218" lon="3.50412">
        <ele>627</ele>
        <time>2019-04-14T11:30:41.617Z</time>
      </trkpt>
      <trkpt lat="43.90218" lon="3.50404">
        <ele>627</ele>
        <time>2019-04-14T11:30:46.600Z</time>
      </trkpt>
      <trkpt lat="43.90219" lon="3.50401">
        <ele>620</ele>
        <time>2019-04-14T11:30:50.632Z</time>
      </trkpt>
      <trkpt lat="43.9022" lon="3.50399">
        <ele>620</ele>
        <time>2019-04-14T11:30:54.634Z</time>
      </trkpt>
      <trkpt lat="43.9022" lon="3.50394">
        <ele>620</ele>
        <time>2019-04-14T11:30:59.590Z</time>
      </trkpt>
      <trkpt lat="43.90222" lon="3.50387">
        <ele>620</ele>
        <time>2019-04-14T11:31:04.587Z</time>
      </trkpt>
      <trkpt lat="43.90223" lon="3.5038">
        <ele>620</ele>
        <time>2019-04-14T11:31:08.614Z</time>
      </trkpt>
      <trkpt lat="43.90225" lon="3.50373">
        <ele>614</ele>
        <time>2019-04-14T11:31:13.625Z</time>
      </trkpt>
      <trkpt lat="43.90226" lon="3.50367">
        <ele>614</ele>
        <time>2019-04-14T11:31:18.623Z</time>
      </trkpt>
      <trkpt lat="43.90229" lon="3.50363">
        <ele>614</ele>
        <time>2019-04-14T11:31:23.599Z</time>
      </trkpt>
      <trkpt lat="43.90229" lon="3.50356">
        <ele>614</ele>
        <time>2019-04-14T11:31:27.614Z</time>
      </trkpt>
      <trkpt lat="43.90228" lon="3.50348">
        <ele>614</ele>
        <time>2019-04-14T11:31:32.614Z</time>
      </trkpt>
      <trkpt lat="43.90231" lon="3.50343">
        <ele>611</ele>
        <time>2019-04-14T11:31:37.595Z</time>
      </trkpt>
      <trkpt lat="43.90232" lon="3.50338">
        <ele>611</ele>
        <time>2019-04-14T11:31:41.615Z</time>
      </trkpt>
      <trkpt lat="43.90233" lon="3.50334">
        <ele>611</ele>
        <time>2019-04-14T11:31:46.595Z</time>
      </trkpt>
      <trkpt lat="43.90231" lon="3.50327">
        <ele>611</ele>
        <time>2019-04-14T11:32:01.592Z</time>
      </trkpt>
      <trkpt lat="43.90228" lon="3.50314">
        <ele>611</ele>
        <time>2019-04-14T11:32:06.597Z</time>
      </trkpt>
      <trkpt lat="43.90226" lon="3.50303">
        <ele>611</ele>
        <time>2019-04-14T11:32:11.587Z</time>
      </trkpt>
      <trkpt lat="43.90224" lon="3.50296">
        <ele>611</ele>
        <time>2019-04-14T11:32:16.616Z</time>
      </trkpt>
      <trkpt lat="43.90221" lon="3.50288">
        <ele>614</ele>
        <time>2019-04-14T11:32:21.589Z</time>
      </trkpt>
      <trkpt lat="43.90217" lon="3.50281">
        <ele>614</ele>
        <time>2019-04-14T11:32:26.602Z</time>
      </trkpt>
      <trkpt lat="43.90214" lon="3.50274">
        <ele>614</ele>
        <time>2019-04-14T11:32:31.594Z</time>
      </trkpt>
      <trkpt lat="43.90209" lon="3.5027">
        <ele>614</ele>
        <time>2019-04-14T11:32:36.582Z</time>
      </trkpt>
      <trkpt lat="43.90204" lon="3.50267">
        <ele>609</ele>
        <time>2019-04-14T11:32:41.586Z</time>
      </trkpt>
      <trkpt lat="43.90199" lon="3.50264">
        <ele>618</ele>
        <time>2019-04-14T11:32:45.597Z</time>
      </trkpt>
      <trkpt lat="43.90195" lon="3.50259">
        <ele>618</ele>
        <time>2019-04-14T11:32:50.622Z</time>
      </trkpt>
      <trkpt lat="43.9019" lon="3.50256">
        <ele>618</ele>
        <time>2019-04-14T11:32:55.592Z</time>
      </trkpt>
      <trkpt lat="43.90184" lon="3.50256">
        <ele>618</ele>
        <time>2019-04-14T11:33:00.585Z</time>
      </trkpt>
      <trkpt lat="43.90178" lon="3.50256">
        <ele>610</ele>
        <time>2019-04-14T11:33:05.585Z</time>
      </trkpt>
      <trkpt lat="43.90173" lon="3.50257">
        <ele>610</ele>
        <time>2019-04-14T11:33:10.588Z</time>
      </trkpt>
      <trkpt lat="43.90167" lon="3.50257">
        <ele>610</ele>
        <time>2019-04-14T11:33:15.591Z</time>
      </trkpt>
      <trkpt lat="43.90163" lon="3.50257">
        <ele>610</ele>
        <time>2019-04-14T11:33:19.595Z</time>
      </trkpt>
      <trkpt lat="43.90158" lon="3.50255">
        <ele>610</ele>
        <time>2019-04-14T11:33:24.585Z</time>
      </trkpt>
      <trkpt lat="43.90153" lon="3.50251">
        <ele>610</ele>
        <time>2019-04-14T11:33:29.590Z</time>
      </trkpt>
      <trkpt lat="43.90149" lon="3.50248">
        <ele>591</ele>
        <time>2019-04-14T11:33:33.617Z</time>
      </trkpt>
      <trkpt lat="43.90146" lon="3.50241">
        <ele>591</ele>
        <time>2019-04-14T11:33:38.633Z</time>
      </trkpt>
      <trkpt lat="43.90142" lon="3.50235">
        <ele>601</ele>
        <time>2019-04-14T11:33:43.590Z</time>
      </trkpt>
      <trkpt lat="43.9014" lon="3.50231">
        <ele>601</ele>
        <time>2019-04-14T11:33:47.596Z</time>
      </trkpt>
      <trkpt lat="43.90139" lon="3.50224">
        <ele>601</ele>
        <time>2019-04-14T11:33:52.619Z</time>
      </trkpt>
      <trkpt lat="43.90138" lon="3.50217">
        <ele>601</ele>
        <time>2019-04-14T11:33:57.586Z</time>
      </trkpt>
      <trkpt lat="43.90138" lon="3.50217">
        <ele>601</ele>
        <time>2019-04-14T11:34:01.609Z</time>
      </trkpt>
      <trkpt lat="43.90139" lon="3.50217">
        <ele>601</ele>
        <time>2019-04-14T11:34:06.607Z</time>
      </trkpt>
      <trkpt lat="43.90137" lon="3.50216">
        <ele>601</ele>
        <time>2019-04-14T11:34:15.612Z</time>
      </trkpt>
      <trkpt lat="43.90136" lon="3.50204">
        <ele>609</ele>
        <time>2019-04-14T11:34:20.576Z</time>
      </trkpt>
      <trkpt lat="43.90135" lon="3.502">
        <ele>609</ele>
        <time>2019-04-14T11:34:24.615Z</time>
      </trkpt>
      <trkpt lat="43.90135" lon="3.50195">
        <ele>609</ele>
        <time>2019-04-14T11:34:29.585Z</time>
      </trkpt>
      <trkpt lat="43.90137" lon="3.50191">
        <ele>609</ele>
        <time>2019-04-14T11:34:33.599Z</time>
      </trkpt>
      <trkpt lat="43.90139" lon="3.50184">
        <ele>609</ele>
        <time>2019-04-14T11:34:38.586Z</time>
      </trkpt>
      <trkpt lat="43.90139" lon="3.50179">
        <ele>614</ele>
        <time>2019-04-14T11:34:43.591Z</time>
      </trkpt>
      <trkpt lat="43.90139" lon="3.50174">
        <ele>614</ele>
        <time>2019-04-14T11:34:47.629Z</time>
      </trkpt>
      <trkpt lat="43.90139" lon="3.50174">
        <ele>614</ele>
        <time>2019-04-14T11:34:52.576Z</time>
      </trkpt>
      <trkpt lat="43.90137" lon="3.5017">
        <ele>614</ele>
        <time>2019-04-14T11:34:57.588Z</time>
      </trkpt>
      <trkpt lat="43.90134" lon="3.50163">
        <ele>614</ele>
        <time>2019-04-14T11:35:01.593Z</time>
      </trkpt>
      <trkpt lat="43.90132" lon="3.5016">
        <ele>614</ele>
        <time>2019-04-14T11:35:05.597Z</time>
      </trkpt>
      <trkpt lat="43.90129" lon="3.50151">
        <ele>616</ele>
        <time>2019-04-14T11:35:10.578Z</time>
      </trkpt>
      <trkpt lat="43.90127" lon="3.50148">
        <ele>616</ele>
        <time>2019-04-14T11:35:14.587Z</time>
      </trkpt>
      <trkpt lat="43.90124" lon="3.50135">
        <ele>594</ele>
        <time>2019-04-14T11:35:19.586Z</time>
      </trkpt>
      <trkpt lat="43.90121" lon="3.50132">
        <ele>594</ele>
        <time>2019-04-14T11:35:23.598Z</time>
      </trkpt>
      <trkpt lat="43.90119" lon="3.50127">
        <ele>594</ele>
        <time>2019-04-14T11:35:27.631Z</time>
      </trkpt>
      <trkpt lat="43.90116" lon="3.50121">
        <ele>595</ele>
        <time>2019-04-14T11:35:32.617Z</time>
      </trkpt>
      <trkpt lat="43.90112" lon="3.50113">
        <ele>595</ele>
        <time>2019-04-14T11:35:37.618Z</time>
      </trkpt>
      <trkpt lat="43.90111" lon="3.5011">
        <ele>595</ele>
        <time>2019-04-14T11:35:41.634Z</time>
      </trkpt>
      <trkpt lat="43.90109" lon="3.50106">
        <ele>595</ele>
        <time>2019-04-14T11:35:46.618Z</time>
      </trkpt>
      <trkpt lat="43.90105" lon="3.50103">
        <ele>595</ele>
        <time>2019-04-14T11:35:51.603Z</time>
      </trkpt>
      <trkpt lat="43.90102" lon="3.50098">
        <ele>595</ele>
        <time>2019-04-14T11:35:56.584Z</time>
      </trkpt>
      <trkpt lat="43.90099" lon="3.5009">
        <ele>610</ele>
        <time>2019-04-14T11:36:01.587Z</time>
      </trkpt>
      <trkpt lat="43.90097" lon="3.50085">
        <ele>590</ele>
        <time>2019-04-14T11:36:06.591Z</time>
      </trkpt>
      <trkpt lat="43.90095" lon="3.5008">
        <ele>590</ele>
        <time>2019-04-14T11:36:11.589Z</time>
      </trkpt>
      <trkpt lat="43.90093" lon="3.50076">
        <ele>590</ele>
        <time>2019-04-14T11:36:16.585Z</time>
      </trkpt>
      <trkpt lat="43.90092" lon="3.50071">
        <ele>590</ele>
        <time>2019-04-14T11:36:20.616Z</time>
      </trkpt>
      <trkpt lat="43.90091" lon="3.50064">
        <ele>612</ele>
        <time>2019-04-14T11:36:25.598Z</time>
      </trkpt>
      <trkpt lat="43.90091" lon="3.50063">
        <ele>612</ele>
        <time>2019-04-14T11:36:30.589Z</time>
      </trkpt>
      <trkpt lat="43.90087" lon="3.50062">
        <ele>612</ele>
        <time>2019-04-14T11:36:45.613Z</time>
      </trkpt>
      <trkpt lat="43.90084" lon="3.50055">
        <ele>612</ele>
        <time>2019-04-14T11:36:50.617Z</time>
      </trkpt>
      <trkpt lat="43.90083" lon="3.50045">
        <ele>612</ele>
        <time>2019-04-14T11:36:55.615Z</time>
      </trkpt>
      <trkpt lat="43.90082" lon="3.50038">
        <ele>624</ele>
        <time>2019-04-14T11:37:00.615Z</time>
      </trkpt>
      <trkpt lat="43.90082" lon="3.50032">
        <ele>624</ele>
        <time>2019-04-14T11:37:05.597Z</time>
      </trkpt>
      <trkpt lat="43.90081" lon="3.50029">
        <ele>624</ele>
        <time>2019-04-14T11:37:10.616Z</time>
      </trkpt>
      <trkpt lat="43.90077" lon="3.50024">
        <ele>624</ele>
        <time>2019-04-14T11:37:15.594Z</time>
      </trkpt>
      <trkpt lat="43.90075" lon="3.50018">
        <ele>624</ele>
        <time>2019-04-14T11:37:20.584Z</time>
      </trkpt>
      <trkpt lat="43.90072" lon="3.50015">
        <ele>624</ele>
        <time>2019-04-14T11:37:25.598Z</time>
      </trkpt>
      <trkpt lat="43.90066" lon="3.50012">
        <ele>613</ele>
        <time>2019-04-14T11:37:30.598Z</time>
      </trkpt>
      <trkpt lat="43.90062" lon="3.50009">
        <ele>613</ele>
        <time>2019-04-14T11:37:34.616Z</time>
      </trkpt>
      <trkpt lat="43.90058" lon="3.50006">
        <ele>613</ele>
        <time>2019-04-14T11:37:39.588Z</time>
      </trkpt>
      <trkpt lat="43.90053" lon="3.50003">
        <ele>613</ele>
        <time>2019-04-14T11:37:44.588Z</time>
      </trkpt>
      <trkpt lat="43.90051" lon="3.50002">
        <ele>613</ele>
        <time>2019-04-14T11:37:49.592Z</time>
      </trkpt>
      <trkpt lat="43.9005" lon="3.5">
        <ele>613</ele>
        <time>2019-04-14T11:38:13.575Z</time>
      </trkpt>
      <trkpt lat="43.90046" lon="3.49993">
        <ele>613</ele>
        <time>2019-04-14T11:38:18.585Z</time>
      </trkpt>
      <trkpt lat="43.90044" lon="3.49985">
        <ele>622</ele>
        <time>2019-04-14T11:38:23.589Z</time>
      </trkpt>
      <trkpt lat="43.90042" lon="3.49981">
        <ele>622</ele>
        <time>2019-04-14T11:38:27.625Z</time>
      </trkpt>
      <trkpt lat="43.9004" lon="3.49974">
        <ele>610</ele>
        <time>2019-04-14T11:38:32.615Z</time>
      </trkpt>
      <trkpt lat="43.90036" lon="3.49972">
        <ele>610</ele>
        <time>2019-04-14T11:38:37.600Z</time>
      </trkpt>
      <trkpt lat="43.90032" lon="3.49969">
        <ele>610</ele>
        <time>2019-04-14T11:38:41.614Z</time>
      </trkpt>
      <trkpt lat="43.90028" lon="3.49967">
        <ele>610</ele>
        <time>2019-04-14T11:38:45.622Z</time>
      </trkpt>
      <trkpt lat="43.90022" lon="3.49964">
        <ele>610</ele>
        <time>2019-04-14T11:38:50.627Z</time>
      </trkpt>
      <trkpt lat="43.90016" lon="3.49963">
        <ele>610</ele>
        <time>2019-04-14T11:38:55.624Z</time>
      </trkpt>
      <trkpt lat="43.90014" lon="3.49964">
        <ele>588</ele>
        <time>2019-04-14T11:39:00.614Z</time>
      </trkpt>
      <trkpt lat="43.9001" lon="3.49966">
        <ele>588</ele>
        <time>2019-04-14T11:39:15.580Z</time>
      </trkpt>
      <trkpt lat="43.90005" lon="3.49968">
        <ele>588</ele>
        <time>2019-04-14T11:39:19.591Z</time>
      </trkpt>
      <trkpt lat="43.89999" lon="3.49971">
        <ele>588</ele>
        <time>2019-04-14T11:39:24.579Z</time>
      </trkpt>
      <trkpt lat="43.89995" lon="3.49975">
        <ele>588</ele>
        <time>2019-04-14T11:39:28.582Z</time>
      </trkpt>
      <trkpt lat="43.89989" lon="3.49975">
        <ele>588</ele>
        <time>2019-04-14T11:39:33.598Z</time>
      </trkpt>
      <trkpt lat="43.89984" lon="3.49975">
        <ele>576</ele>
        <time>2019-04-14T11:39:38.584Z</time>
      </trkpt>
      <trkpt lat="43.8998" lon="3.49968">
        <ele>576</ele>
        <time>2019-04-14T11:39:43.617Z</time>
      </trkpt>
      <trkpt lat="43.89978" lon="3.49959">
        <ele>576</ele>
        <time>2019-04-14T11:39:48.584Z</time>
      </trkpt>
      <trkpt lat="43.89977" lon="3.49955">
        <ele>586</ele>
        <time>2019-04-14T11:39:52.615Z</time>
      </trkpt>
      <trkpt lat="43.89974" lon="3.49949">
        <ele>586</ele>
        <time>2019-04-14T11:39:57.619Z</time>
      </trkpt>
      <trkpt lat="43.89972" lon="3.49941">
        <ele>586</ele>
        <time>2019-04-14T11:40:02.593Z</time>
      </trkpt>
      <trkpt lat="43.89968" lon="3.49935">
        <ele>586</ele>
        <time>2019-04-14T11:40:07.614Z</time>
      </trkpt>
      <trkpt lat="43.89966" lon="3.49929">
        <ele>597</ele>
        <time>2019-04-14T11:40:12.597Z</time>
      </trkpt>
      <trkpt lat="43.89962" lon="3.49924">
        <ele>597</ele>
        <time>2019-04-14T11:40:17.594Z</time>
      </trkpt>
      <trkpt lat="43.89959" lon="3.49921">
        <ele>597</ele>
        <time>2019-04-14T11:40:22.620Z</time>
      </trkpt>
      <trkpt lat="43.89954" lon="3.49919">
        <ele>588</ele>
        <time>2019-04-14T11:40:27.594Z</time>
      </trkpt>
      <trkpt lat="43.89951" lon="3.49918">
        <ele>588</ele>
        <time>2019-04-14T11:40:31.616Z</time>
      </trkpt>
      <trkpt lat="43.89945" lon="3.49917">
        <ele>588</ele>
        <time>2019-04-14T11:40:36.585Z</time>
      </trkpt>
      <trkpt lat="43.8994" lon="3.49917">
        <ele>588</ele>
        <time>2019-04-14T11:40:41.586Z</time>
      </trkpt>
      <trkpt lat="43.89936" lon="3.4992">
        <ele>588</ele>
        <time>2019-04-14T11:40:45.594Z</time>
      </trkpt>
      <trkpt lat="43.89932" lon="3.49923">
        <ele>588</ele>
        <time>2019-04-14T11:40:50.614Z</time>
      </trkpt>
      <trkpt lat="43.89928" lon="3.49921">
        <ele>576</ele>
        <time>2019-04-14T11:40:55.593Z</time>
      </trkpt>
      <trkpt lat="43.89925" lon="3.49917">
        <ele>576</ele>
        <time>2019-04-14T11:41:00.582Z</time>
      </trkpt>
      <trkpt lat="43.89923" lon="3.49912">
        <ele>576</ele>
        <time>2019-04-14T11:41:05.618Z</time>
      </trkpt>
      <trkpt lat="43.8992" lon="3.49907">
        <ele>576</ele>
        <time>2019-04-14T11:41:10.577Z</time>
      </trkpt>
      <trkpt lat="43.89918" lon="3.49902">
        <ele>586</ele>
        <time>2019-04-14T11:41:14.593Z</time>
      </trkpt>
      <trkpt lat="43.89916" lon="3.49896">
        <ele>586</ele>
        <time>2019-04-14T11:41:19.600Z</time>
      </trkpt>
      <trkpt lat="43.89914" lon="3.4989">
        <ele>586</ele>
        <time>2019-04-14T11:41:24.584Z</time>
      </trkpt>
      <trkpt lat="43.89913" lon="3.49887">
        <ele>586</ele>
        <time>2019-04-14T11:41:28.618Z</time>
      </trkpt>
      <trkpt lat="43.89909" lon="3.49884">
        <ele>586</ele>
        <time>2019-04-14T11:41:33.615Z</time>
      </trkpt>
      <trkpt lat="43.89905" lon="3.49884">
        <ele>586</ele>
        <time>2019-04-14T11:41:37.621Z</time>
      </trkpt>
      <trkpt lat="43.89902" lon="3.49882">
        <ele>570</ele>
        <time>2019-04-14T11:41:42.592Z</time>
      </trkpt>
      <trkpt lat="43.89899" lon="3.4988">
        <ele>570</ele>
        <time>2019-04-14T11:41:46.614Z</time>
      </trkpt>
      <trkpt lat="43.89894" lon="3.4988">
        <ele>570</ele>
        <time>2019-04-14T11:41:51.595Z</time>
      </trkpt>
      <trkpt lat="43.8989" lon="3.49878">
        <ele>570</ele>
        <time>2019-04-14T11:41:56.615Z</time>
      </trkpt>
      <trkpt lat="43.89887" lon="3.49875">
        <ele>582</ele>
        <time>2019-04-14T11:42:01.594Z</time>
      </trkpt>
      <trkpt lat="43.89884" lon="3.49872">
        <ele>582</ele>
        <time>2019-04-14T11:42:06.593Z</time>
      </trkpt>
      <trkpt lat="43.89879" lon="3.4987">
        <ele>582</ele>
        <time>2019-04-14T11:42:11.587Z</time>
      </trkpt>
      <trkpt lat="43.89877" lon="3.49868">
        <ele>582</ele>
        <time>2019-04-14T11:42:15.595Z</time>
      </trkpt>
      <trkpt lat="43.89873" lon="3.49866">
        <ele>569</ele>
        <time>2019-04-14T11:42:20.582Z</time>
      </trkpt>
      <trkpt lat="43.89868" lon="3.49865">
        <ele>569</ele>
        <time>2019-04-14T11:42:25.585Z</time>
      </trkpt>
      <trkpt lat="43.89864" lon="3.49864">
        <ele>569</ele>
        <time>2019-04-14T11:42:29.598Z</time>
      </trkpt>
      <trkpt lat="43.89861" lon="3.49864">
        <ele>569</ele>
        <time>2019-04-14T11:42:33.607Z</time>
      </trkpt>
      <trkpt lat="43.89858" lon="3.49863">
        <ele>569</ele>
        <time>2019-04-14T11:42:38.591Z</time>
      </trkpt>
      <trkpt lat="43.89854" lon="3.49862">
        <ele>569</ele>
        <time>2019-04-14T11:42:42.615Z</time>
      </trkpt>
      <trkpt lat="43.89849" lon="3.49863">
        <ele>569</ele>
        <time>2019-04-14T11:42:47.617Z</time>
      </trkpt>
      <trkpt lat="43.89844" lon="3.49863">
        <ele>553</ele>
        <time>2019-04-14T11:42:52.615Z</time>
      </trkpt>
      <trkpt lat="43.89838" lon="3.49864">
        <ele>553</ele>
        <time>2019-04-14T11:42:57.625Z</time>
      </trkpt>
      <trkpt lat="43.89834" lon="3.49863">
        <ele>553</ele>
        <time>2019-04-14T11:43:02.615Z</time>
      </trkpt>
      <trkpt lat="43.89829" lon="3.49861">
        <ele>553</ele>
        <time>2019-04-14T11:43:07.596Z</time>
      </trkpt>
      <trkpt lat="43.89825" lon="3.4986">
        <ele>553</ele>
        <time>2019-04-14T11:43:11.607Z</time>
      </trkpt>
      <trkpt lat="43.89822" lon="3.49857">
        <ele>553</ele>
        <time>2019-04-14T11:43:16.582Z</time>
      </trkpt>
      <trkpt lat="43.89821" lon="3.49857">
        <ele>553</ele>
        <time>2019-04-14T11:43:20.615Z</time>
      </trkpt>
      <trkpt lat="43.8982" lon="3.49855">
        <ele>553</ele>
        <time>2019-04-14T11:43:25.583Z</time>
      </trkpt>
      <trkpt lat="43.89817" lon="3.49853">
        <ele>534</ele>
        <time>2019-04-14T11:43:29.594Z</time>
      </trkpt>
      <trkpt lat="43.89813" lon="3.49844">
        <ele>539</ele>
        <time>2019-04-14T11:43:34.593Z</time>
      </trkpt>
      <trkpt lat="43.89813" lon="3.49842">
        <ele>539</ele>
        <time>2019-04-14T11:43:39.585Z</time>
      </trkpt>
      <trkpt lat="43.89813" lon="3.49841">
        <ele>539</ele>
        <time>2019-04-14T11:43:43.614Z</time>
      </trkpt>
      <trkpt lat="43.89812" lon="3.49838">
        <ele>539</ele>
        <time>2019-04-14T11:43:47.629Z</time>
      </trkpt>
      <trkpt lat="43.89811" lon="3.49832">
        <ele>539</ele>
        <time>2019-04-14T11:43:52.591Z</time>
      </trkpt>
      <trkpt lat="43.89808" lon="3.49826">
        <ele>539</ele>
        <time>2019-04-14T11:43:57.584Z</time>
      </trkpt>
      <trkpt lat="43.89809" lon="3.49819">
        <ele>539</ele>
        <time>2019-04-14T11:44:02.590Z</time>
      </trkpt>
      <trkpt lat="43.8981" lon="3.49812">
        <ele>539</ele>
        <time>2019-04-14T11:44:07.586Z</time>
      </trkpt>
      <trkpt lat="43.8981" lon="3.49806">
        <ele>539</ele>
        <time>2019-04-14T11:44:11.597Z</time>
      </trkpt>
      <trkpt lat="43.89811" lon="3.498">
        <ele>539</ele>
        <time>2019-04-14T11:44:15.623Z</time>
      </trkpt>
      <trkpt lat="43.89812" lon="3.49793">
        <ele>539</ele>
        <time>2019-04-14T11:44:20.617Z</time>
      </trkpt>
      <trkpt lat="43.89812" lon="3.49786">
        <ele>542</ele>
        <time>2019-04-14T11:44:25.595Z</time>
      </trkpt>
      <trkpt lat="43.89813" lon="3.49778">
        <ele>542</ele>
        <time>2019-04-14T11:44:30.616Z</time>
      </trkpt>
      <trkpt lat="43.89813" lon="3.49771">
        <ele>542</ele>
        <time>2019-04-14T11:44:35.621Z</time>
      </trkpt>
      <trkpt lat="43.89814" lon="3.49764">
        <ele>542</ele>
        <time>2019-04-14T11:44:40.583Z</time>
      </trkpt>
      <trkpt lat="43.89815" lon="3.49758">
        <ele>542</ele>
        <time>2019-04-14T11:44:45.596Z</time>
      </trkpt>
      <trkpt lat="43.89817" lon="3.49751">
        <ele>542</ele>
        <time>2019-04-14T11:44:50.585Z</time>
      </trkpt>
      <trkpt lat="43.89817" lon="3.49743">
        <ele>542</ele>
        <time>2019-04-14T11:44:55.587Z</time>
      </trkpt>
      <trkpt lat="43.89817" lon="3.49737">
        <ele>542</ele>
        <time>2019-04-14T11:44:59.593Z</time>
      </trkpt>
      <trkpt lat="43.89818" lon="3.49729">
        <ele>538</ele>
        <time>2019-04-14T11:45:04.615Z</time>
      </trkpt>
      <trkpt lat="43.89819" lon="3.49721">
        <ele>538</ele>
        <time>2019-04-14T11:45:09.623Z</time>
      </trkpt>
      <trkpt lat="43.89821" lon="3.49715">
        <ele>551</ele>
        <time>2019-04-14T11:45:14.613Z</time>
      </trkpt>
      <trkpt lat="43.89822" lon="3.49707">
        <ele>543</ele>
        <time>2019-04-14T11:45:19.596Z</time>
      </trkpt>
      <trkpt lat="43.89823" lon="3.49699">
        <ele>543</ele>
        <time>2019-04-14T11:45:24.584Z</time>
      </trkpt>
      <trkpt lat="43.89826" lon="3.49691">
        <ele>543</ele>
        <time>2019-04-14T11:45:29.602Z</time>
      </trkpt>
      <trkpt lat="43.89827" lon="3.49682">
        <ele>543</ele>
        <time>2019-04-14T11:45:34.585Z</time>
      </trkpt>
      <trkpt lat="43.89828" lon="3.49676">
        <ele>536</ele>
        <time>2019-04-14T11:45:38.627Z</time>
      </trkpt>
      <trkpt lat="43.8983" lon="3.49668">
        <ele>536</ele>
        <time>2019-04-14T11:45:43.605Z</time>
      </trkpt>
      <trkpt lat="43.89832" lon="3.49663">
        <ele>536</ele>
        <time>2019-04-14T11:45:48.587Z</time>
      </trkpt>
      <trkpt lat="43.89835" lon="3.49657">
        <ele>536</ele>
        <time>2019-04-14T11:45:53.588Z</time>
      </trkpt>
      <trkpt lat="43.89836" lon="3.49652">
        <ele>527</ele>
        <time>2019-04-14T11:45:57.618Z</time>
      </trkpt>
      <trkpt lat="43.8984" lon="3.49648">
        <ele>527</ele>
        <time>2019-04-14T11:46:02.584Z</time>
      </trkpt>
      <trkpt lat="43.89843" lon="3.49643">
        <ele>527</ele>
        <time>2019-04-14T11:46:06.597Z</time>
      </trkpt>
      <trkpt lat="43.89848" lon="3.4964">
        <ele>540</ele>
        <time>2019-04-14T11:46:10.616Z</time>
      </trkpt>
      <trkpt lat="43.89853" lon="3.49636">
        <ele>540</ele>
        <time>2019-04-14T11:46:15.588Z</time>
      </trkpt>
      <trkpt lat="43.89857" lon="3.49634">
        <ele>540</ele>
        <time>2019-04-14T11:46:19.603Z</time>
      </trkpt>
      <trkpt lat="43.89861" lon="3.4963">
        <ele>540</ele>
        <time>2019-04-14T11:46:24.586Z</time>
      </trkpt>
      <trkpt lat="43.89865" lon="3.49625">
        <ele>540</ele>
        <time>2019-04-14T11:46:29.585Z</time>
      </trkpt>
      <trkpt lat="43.89867" lon="3.49622">
        <ele>530</ele>
        <time>2019-04-14T11:46:33.618Z</time>
      </trkpt>
      <trkpt lat="43.89871" lon="3.49617">
        <ele>530</ele>
        <time>2019-04-14T11:46:38.624Z</time>
      </trkpt>
      <trkpt lat="43.89876" lon="3.49613">
        <ele>540</ele>
        <time>2019-04-14T11:46:43.594Z</time>
      </trkpt>
      <trkpt lat="43.8988" lon="3.4961">
        <ele>540</ele>
        <time>2019-04-14T11:46:47.622Z</time>
      </trkpt>
      <trkpt lat="43.89885" lon="3.49605">
        <ele>540</ele>
        <time>2019-04-14T11:46:52.586Z</time>
      </trkpt>
      <trkpt lat="43.89889" lon="3.49601">
        <ele>540</ele>
        <time>2019-04-14T11:46:56.619Z</time>
      </trkpt>
      <trkpt lat="43.89893" lon="3.49594">
        <ele>531</ele>
        <time>2019-04-14T11:47:01.589Z</time>
      </trkpt>
      <trkpt lat="43.89897" lon="3.4959">
        <ele>531</ele>
        <time>2019-04-14T11:47:05.596Z</time>
      </trkpt>
      <trkpt lat="43.89902" lon="3.49586">
        <ele>531</ele>
        <time>2019-04-14T11:47:10.597Z</time>
      </trkpt>
      <trkpt lat="43.89906" lon="3.49579">
        <ele>538</ele>
        <time>2019-04-14T11:47:15.597Z</time>
      </trkpt>
      <trkpt lat="43.89911" lon="3.49573">
        <ele>538</ele>
        <time>2019-04-14T11:47:20.616Z</time>
      </trkpt>
      <trkpt lat="43.89915" lon="3.49568">
        <ele>531</ele>
        <time>2019-04-14T11:47:25.617Z</time>
      </trkpt>
      <trkpt lat="43.89918" lon="3.49563">
        <ele>531</ele>
        <time>2019-04-14T11:47:29.624Z</time>
      </trkpt>
      <trkpt lat="43.89922" lon="3.49558">
        <ele>531</ele>
        <time>2019-04-14T11:47:34.603Z</time>
      </trkpt>
      <trkpt lat="43.89925" lon="3.49552">
        <ele>531</ele>
        <time>2019-04-14T11:47:39.600Z</time>
      </trkpt>
      <trkpt lat="43.89929" lon="3.49548">
        <ele>531</ele>
        <time>2019-04-14T11:47:44.590Z</time>
      </trkpt>
      <trkpt lat="43.89932" lon="3.49543">
        <ele>538</ele>
        <time>2019-04-14T11:47:49.598Z</time>
      </trkpt>
      <trkpt lat="43.89936" lon="3.49537">
        <ele>528</ele>
        <time>2019-04-14T11:47:54.602Z</time>
      </trkpt>
      <trkpt lat="43.89939" lon="3.4953">
        <ele>528</ele>
        <time>2019-04-14T11:47:59.594Z</time>
      </trkpt>
      <trkpt lat="43.89942" lon="3.49524">
        <ele>528</ele>
        <time>2019-04-14T11:48:04.590Z</time>
      </trkpt>
      <trkpt lat="43.89945" lon="3.4952">
        <ele>528</ele>
        <time>2019-04-14T11:48:08.618Z</time>
      </trkpt>
      <trkpt lat="43.8995" lon="3.49516">
        <ele>528</ele>
        <time>2019-04-14T11:48:13.595Z</time>
      </trkpt>
      <trkpt lat="43.89952" lon="3.4951">
        <ele>519</ele>
        <time>2019-04-14T11:48:18.615Z</time>
      </trkpt>
      <trkpt lat="43.89954" lon="3.49505">
        <ele>519</ele>
        <time>2019-04-14T11:48:22.636Z</time>
      </trkpt>
      <trkpt lat="43.89958" lon="3.49498">
        <ele>519</ele>
        <time>2019-04-14T11:48:27.587Z</time>
      </trkpt>
      <trkpt lat="43.89961" lon="3.4949">
        <ele>530</ele>
        <time>2019-04-14T11:48:32.586Z</time>
      </trkpt>
      <trkpt lat="43.89963" lon="3.49484">
        <ele>522</ele>
        <time>2019-04-14T11:48:36.618Z</time>
      </trkpt>
      <trkpt lat="43.89965" lon="3.49478">
        <ele>522</ele>
        <time>2019-04-14T11:48:41.600Z</time>
      </trkpt>
      <trkpt lat="43.89967" lon="3.49474">
        <ele>522</ele>
        <time>2019-04-14T11:48:45.610Z</time>
      </trkpt>
      <trkpt lat="43.89972" lon="3.49469">
        <ele>522</ele>
        <time>2019-04-14T11:48:50.614Z</time>
      </trkpt>
      <trkpt lat="43.89976" lon="3.49464">
        <ele>522</ele>
        <time>2019-04-14T11:48:55.623Z</time>
      </trkpt>
      <trkpt lat="43.89979" lon="3.49459">
        <ele>522</ele>
        <time>2019-04-14T11:49:00.616Z</time>
      </trkpt>
      <trkpt lat="43.89983" lon="3.49454">
        <ele>512</ele>
        <time>2019-04-14T11:49:05.598Z</time>
      </trkpt>
      <trkpt lat="43.89987" lon="3.49449">
        <ele>527</ele>
        <time>2019-04-14T11:49:10.587Z</time>
      </trkpt>
      <trkpt lat="43.89991" lon="3.49444">
        <ele>527</ele>
        <time>2019-04-14T11:49:15.615Z</time>
      </trkpt>
      <trkpt lat="43.89995" lon="3.49438">
        <ele>527</ele>
        <time>2019-04-14T11:49:20.588Z</time>
      </trkpt>
      <trkpt lat="43.89998" lon="3.49434">
        <ele>527</ele>
        <time>2019-04-14T11:49:24.615Z</time>
      </trkpt>
      <trkpt lat="43.90001" lon="3.49428">
        <ele>518</ele>
        <time>2019-04-14T11:49:29.618Z</time>
      </trkpt>
      <trkpt lat="43.90004" lon="3.49419">
        <ele>518</ele>
        <time>2019-04-14T11:49:34.615Z</time>
      </trkpt>
      <trkpt lat="43.90006" lon="3.49412">
        <ele>518</ele>
        <time>2019-04-14T11:49:39.593Z</time>
      </trkpt>
      <trkpt lat="43.90008" lon="3.49407">
        <ele>518</ele>
        <time>2019-04-14T11:49:43.606Z</time>
      </trkpt>
      <trkpt lat="43.90011" lon="3.49402">
        <ele>508</ele>
        <time>2019-04-14T11:49:47.616Z</time>
      </trkpt>
      <trkpt lat="43.90014" lon="3.49395">
        <ele>508</ele>
        <time>2019-04-14T11:49:52.618Z</time>
      </trkpt>
      <trkpt lat="43.90016" lon="3.49388">
        <ele>523</ele>
        <time>2019-04-14T11:49:57.625Z</time>
      </trkpt>
      <trkpt lat="43.90019" lon="3.49381">
        <ele>523</ele>
        <time>2019-04-14T11:50:02.586Z</time>
      </trkpt>
      <trkpt lat="43.90021" lon="3.49375">
        <ele>523</ele>
        <time>2019-04-14T11:50:06.600Z</time>
      </trkpt>
      <trkpt lat="43.90023" lon="3.49367">
        <ele>515</ele>
        <time>2019-04-14T11:50:11.593Z</time>
      </trkpt>
      <trkpt lat="43.90025" lon="3.4936">
        <ele>515</ele>
        <time>2019-04-14T11:50:16.585Z</time>
      </trkpt>
      <trkpt lat="43.90028" lon="3.49355">
        <ele>515</ele>
        <time>2019-04-14T11:50:21.592Z</time>
      </trkpt>
      <trkpt lat="43.90029" lon="3.49347">
        <ele>508</ele>
        <time>2019-04-14T11:50:26.624Z</time>
      </trkpt>
      <trkpt lat="43.9003" lon="3.4934">
        <ele>508</ele>
        <time>2019-04-14T11:50:31.592Z</time>
      </trkpt>
      <trkpt lat="43.90031" lon="3.49332">
        <ele>508</ele>
        <time>2019-04-14T11:50:36.584Z</time>
      </trkpt>
      <trkpt lat="43.90031" lon="3.49326">
        <ele>508</ele>
        <time>2019-04-14T11:50:40.617Z</time>
      </trkpt>
      <trkpt lat="43.90032" lon="3.49319">
        <ele>505</ele>
        <time>2019-04-14T11:50:45.588Z</time>
      </trkpt>
      <trkpt lat="43.90034" lon="3.49311">
        <ele>505</ele>
        <time>2019-04-14T11:50:50.601Z</time>
      </trkpt>
      <trkpt lat="43.90036" lon="3.49304">
        <ele>505</ele>
        <time>2019-04-14T11:50:55.594Z</time>
      </trkpt>
      <trkpt lat="43.90035" lon="3.49295">
        <ele>505</ele>
        <time>2019-04-14T11:51:00.616Z</time>
      </trkpt>
      <trkpt lat="43.90034" lon="3.49287">
        <ele>503</ele>
        <time>2019-04-14T11:51:05.595Z</time>
      </trkpt>
      <trkpt lat="43.90034" lon="3.49279">
        <ele>503</ele>
        <time>2019-04-14T11:51:10.626Z</time>
      </trkpt>
      <trkpt lat="43.90034" lon="3.49272">
        <ele>503</ele>
        <time>2019-04-14T11:51:15.616Z</time>
      </trkpt>
      <trkpt lat="43.90033" lon="3.49266">
        <ele>503</ele>
        <time>2019-04-14T11:51:20.615Z</time>
      </trkpt>
      <trkpt lat="43.90034" lon="3.49258">
        <ele>501</ele>
        <time>2019-04-14T11:51:25.594Z</time>
      </trkpt>
      <trkpt lat="43.90033" lon="3.49249">
        <ele>501</ele>
        <time>2019-04-14T11:51:30.587Z</time>
      </trkpt>
      <trkpt lat="43.90033" lon="3.49243">
        <ele>501</ele>
        <time>2019-04-14T11:51:34.592Z</time>
      </trkpt>
      <trkpt lat="43.90033" lon="3.49236">
        <ele>498</ele>
        <time>2019-04-14T11:51:39.588Z</time>
      </trkpt>
      <trkpt lat="43.90034" lon="3.49227">
        <ele>498</ele>
        <time>2019-04-14T11:51:44.590Z</time>
      </trkpt>
      <trkpt lat="43.90034" lon="3.49221">
        <ele>498</ele>
        <time>2019-04-14T11:51:48.617Z</time>
      </trkpt>
      <trkpt lat="43.90036" lon="3.49214">
        <ele>498</ele>
        <time>2019-04-14T11:51:53.600Z</time>
      </trkpt>
      <trkpt lat="43.90038" lon="3.49208">
        <ele>494</ele>
        <time>2019-04-14T11:51:58.614Z</time>
      </trkpt>
      <trkpt lat="43.90039" lon="3.49201">
        <ele>494</ele>
        <time>2019-04-14T11:52:03.620Z</time>
      </trkpt>
      <trkpt lat="43.90042" lon="3.49195">
        <ele>494</ele>
        <time>2019-04-14T11:52:08.617Z</time>
      </trkpt>
      <trkpt lat="43.90045" lon="3.49191">
        <ele>511</ele>
        <time>2019-04-14T11:52:13.597Z</time>
      </trkpt>
      <trkpt lat="43.90047" lon="3.49185">
        <ele>511</ele>
        <time>2019-04-14T11:52:18.594Z</time>
      </trkpt>
      <trkpt lat="43.90049" lon="3.49179">
        <ele>508</ele>
        <time>2019-04-14T11:52:23.590Z</time>
      </trkpt>
      <trkpt lat="43.90052" lon="3.49174">
        <ele>508</ele>
        <time>2019-04-14T11:52:27.591Z</time>
      </trkpt>
      <trkpt lat="43.90053" lon="3.49167">
        <ele>508</ele>
        <time>2019-04-14T11:52:32.585Z</time>
      </trkpt>
      <trkpt lat="43.90053" lon="3.49158">
        <ele>508</ele>
        <time>2019-04-14T11:52:37.602Z</time>
      </trkpt>
      <trkpt lat="43.9005" lon="3.49152">
        <ele>502</ele>
        <time>2019-04-14T11:52:42.615Z</time>
      </trkpt>
      <trkpt lat="43.90051" lon="3.49147">
        <ele>502</ele>
        <time>2019-04-14T11:52:47.587Z</time>
      </trkpt>
      <trkpt lat="43.90048" lon="3.49144">
        <ele>502</ele>
        <time>2019-04-14T11:52:51.616Z</time>
      </trkpt>
      <trkpt lat="43.90046" lon="3.49142">
        <ele>502</ele>
        <time>2019-04-14T11:52:56.586Z</time>
      </trkpt>
      <trkpt lat="43.90046" lon="3.4914">
        <ele>502</ele>
        <time>2019-04-14T11:53:11.616Z</time>
      </trkpt>
      <trkpt lat="43.90047" lon="3.49135">
        <ele>502</ele>
        <time>2019-04-14T11:53:15.625Z</time>
      </trkpt>
      <trkpt lat="43.90048" lon="3.49131">
        <ele>502</ele>
        <time>2019-04-14T11:53:20.586Z</time>
      </trkpt>
      <trkpt lat="43.90048" lon="3.4913">
        <ele>502</ele>
        <time>2019-04-14T11:53:24.617Z</time>
      </trkpt>
      <trkpt lat="43.90048" lon="3.49125">
        <ele>492</ele>
        <time>2019-04-14T11:53:39.584Z</time>
      </trkpt>
      <trkpt lat="43.90049" lon="3.49122">
        <ele>492</ele>
        <time>2019-04-14T11:53:47.615Z</time>
      </trkpt>
      <trkpt lat="43.9005" lon="3.49114">
        <ele>492</ele>
        <time>2019-04-14T11:53:52.614Z</time>
      </trkpt>
      <trkpt lat="43.9005" lon="3.49107">
        <ele>492</ele>
        <time>2019-04-14T11:53:57.617Z</time>
      </trkpt>
      <trkpt lat="43.90053" lon="3.49101">
        <ele>492</ele>
        <time>2019-04-14T11:54:02.608Z</time>
      </trkpt>
      <trkpt lat="43.90056" lon="3.49094">
        <ele>483</ele>
        <time>2019-04-14T11:54:07.576Z</time>
      </trkpt>
      <trkpt lat="43.90057" lon="3.49086">
        <ele>483</ele>
        <time>2019-04-14T11:54:12.585Z</time>
      </trkpt>
      <trkpt lat="43.90058" lon="3.49079">
        <ele>483</ele>
        <time>2019-04-14T11:54:17.586Z</time>
      </trkpt>
      <trkpt lat="43.90059" lon="3.49072">
        <ele>483</ele>
        <time>2019-04-14T11:54:21.601Z</time>
      </trkpt>
      <trkpt lat="43.90061" lon="3.49062">
        <ele>472</ele>
        <time>2019-04-14T11:54:26.583Z</time>
      </trkpt>
      <trkpt lat="43.90063" lon="3.49058">
        <ele>472</ele>
        <time>2019-04-14T11:54:31.589Z</time>
      </trkpt>
      <trkpt lat="43.90064" lon="3.49053">
        <ele>472</ele>
        <time>2019-04-14T11:54:35.591Z</time>
      </trkpt>
      <trkpt lat="43.90067" lon="3.49046">
        <ele>472</ele>
        <time>2019-04-14T11:54:40.613Z</time>
      </trkpt>
      <trkpt lat="43.90069" lon="3.49039">
        <ele>459</ele>
        <time>2019-04-14T11:54:45.596Z</time>
      </trkpt>
      <trkpt lat="43.9007" lon="3.49032">
        <ele>474</ele>
        <time>2019-04-14T11:54:50.575Z</time>
      </trkpt>
      <trkpt lat="43.90072" lon="3.49027">
        <ele>474</ele>
        <time>2019-04-14T11:54:54.595Z</time>
      </trkpt>
      <trkpt lat="43.90075" lon="3.49021">
        <ele>474</ele>
        <time>2019-04-14T11:54:59.583Z</time>
      </trkpt>
      <trkpt lat="43.90076" lon="3.49016">
        <ele>474</ele>
        <time>2019-04-14T11:55:04.583Z</time>
      </trkpt>
      <trkpt lat="43.90078" lon="3.4901">
        <ele>463</ele>
        <time>2019-04-14T11:55:09.585Z</time>
      </trkpt>
      <trkpt lat="43.90079" lon="3.49006">
        <ele>463</ele>
        <time>2019-04-14T11:55:13.603Z</time>
      </trkpt>
      <trkpt lat="43.90081" lon="3.49002">
        <ele>463</ele>
        <time>2019-04-14T11:55:17.620Z</time>
      </trkpt>
      <trkpt lat="43.90086" lon="3.48996">
        <ele>463</ele>
        <time>2019-04-14T11:55:22.597Z</time>
      </trkpt>
      <trkpt lat="43.90089" lon="3.48991">
        <ele>463</ele>
        <time>2019-04-14T11:55:27.583Z</time>
      </trkpt>
      <trkpt lat="43.90091" lon="3.48987">
        <ele>463</ele>
        <time>2019-04-14T11:55:31.588Z</time>
      </trkpt>
      <trkpt lat="43.90093" lon="3.48983">
        <ele>455</ele>
        <time>2019-04-14T11:55:35.615Z</time>
      </trkpt>
      <trkpt lat="43.90094" lon="3.4898">
        <ele>455</ele>
        <time>2019-04-14T11:55:40.580Z</time>
      </trkpt>
      <trkpt lat="43.90094" lon="3.48979">
        <ele>455</ele>
        <time>2019-04-14T11:55:45.608Z</time>
      </trkpt>
      <trkpt lat="43.90096" lon="3.48975">
        <ele>455</ele>
        <time>2019-04-14T11:55:48.577Z</time>
      </trkpt>
      <trkpt lat="43.90101" lon="3.48967">
        <ele>476</ele>
        <time>2019-04-14T11:55:54.588Z</time>
      </trkpt>
      <trkpt lat="43.90102" lon="3.4896">
        <ele>476</ele>
        <time>2019-04-14T11:55:59.576Z</time>
      </trkpt>
      <trkpt lat="43.90104" lon="3.48953">
        <ele>476</ele>
        <time>2019-04-14T11:56:04.582Z</time>
      </trkpt>
      <trkpt lat="43.90108" lon="3.48946">
        <ele>476</ele>
        <time>2019-04-14T11:56:09.587Z</time>
      </trkpt>
      <trkpt lat="43.9011" lon="3.48942">
        <ele>476</ele>
        <time>2019-04-14T11:56:13.599Z</time>
      </trkpt>
      <trkpt lat="43.90113" lon="3.48936">
        <ele>476</ele>
        <time>2019-04-14T11:56:18.596Z</time>
      </trkpt>
      <trkpt lat="43.90117" lon="3.48933">
        <ele>476</ele>
        <time>2019-04-14T11:56:22.613Z</time>
      </trkpt>
      <trkpt lat="43.9012" lon="3.4893">
        <ele>474</ele>
        <time>2019-04-14T11:56:27.592Z</time>
      </trkpt>
      <trkpt lat="43.90118" lon="3.48926">
        <ele>474</ele>
        <time>2019-04-14T11:56:32.613Z</time>
      </trkpt>
      <trkpt lat="43.90114" lon="3.48922">
        <ele>474</ele>
        <time>2019-04-14T11:56:37.589Z</time>
      </trkpt>
      <trkpt lat="43.90113" lon="3.48916">
        <ele>474</ele>
        <time>2019-04-14T11:56:42.581Z</time>
      </trkpt>
      <trkpt lat="43.9011" lon="3.48911">
        <ele>474</ele>
        <time>2019-04-14T11:56:46.614Z</time>
      </trkpt>
      <trkpt lat="43.90105" lon="3.48905">
        <ele>474</ele>
        <time>2019-04-14T11:56:51.617Z</time>
      </trkpt>
      <trkpt lat="43.90102" lon="3.48902">
        <ele>487</ele>
        <time>2019-04-14T11:56:56.603Z</time>
      </trkpt>
      <trkpt lat="43.90097" lon="3.48896">
        <ele>458</ele>
        <time>2019-04-14T11:57:01.614Z</time>
      </trkpt>
      <trkpt lat="43.90093" lon="3.48892">
        <ele>458</ele>
        <time>2019-04-14T11:57:05.623Z</time>
      </trkpt>
      <trkpt lat="43.90091" lon="3.4889">
        <ele>458</ele>
        <time>2019-04-14T11:57:10.595Z</time>
      </trkpt>
      <trkpt lat="43.90087" lon="3.48886">
        <ele>458</ele>
        <time>2019-04-14T11:57:14.616Z</time>
      </trkpt>
      <trkpt lat="43.90084" lon="3.48883">
        <ele>458</ele>
        <time>2019-04-14T11:57:19.594Z</time>
      </trkpt>
      <trkpt lat="43.90082" lon="3.48878">
        <ele>458</ele>
        <time>2019-04-14T11:57:24.618Z</time>
      </trkpt>
      <trkpt lat="43.90078" lon="3.48874">
        <ele>476</ele>
        <time>2019-04-14T11:57:29.592Z</time>
      </trkpt>
      <trkpt lat="43.90074" lon="3.48869">
        <ele>476</ele>
        <time>2019-04-14T11:57:34.584Z</time>
      </trkpt>
      <trkpt lat="43.90072" lon="3.48865">
        <ele>476</ele>
        <time>2019-04-14T11:57:38.616Z</time>
      </trkpt>
      <trkpt lat="43.90068" lon="3.48858">
        <ele>443</ele>
        <time>2019-04-14T11:57:43.597Z</time>
      </trkpt>
      <trkpt lat="43.90065" lon="3.48851">
        <ele>443</ele>
        <time>2019-04-14T11:57:48.584Z</time>
      </trkpt>
      <trkpt lat="43.90062" lon="3.48846">
        <ele>462</ele>
        <time>2019-04-14T11:57:53.616Z</time>
      </trkpt>
      <trkpt lat="43.90059" lon="3.48838">
        <ele>462</ele>
        <time>2019-04-14T11:57:58.616Z</time>
      </trkpt>
      <trkpt lat="43.90056" lon="3.48832">
        <ele>462</ele>
        <time>2019-04-14T11:58:03.597Z</time>
      </trkpt>
      <trkpt lat="43.90057" lon="3.48824">
        <ele>462</ele>
        <time>2019-04-14T11:58:08.613Z</time>
      </trkpt>
      <trkpt lat="43.90056" lon="3.48816">
        <ele>468</ele>
        <time>2019-04-14T11:58:13.622Z</time>
      </trkpt>
      <trkpt lat="43.90056" lon="3.48808">
        <ele>468</ele>
        <time>2019-04-14T11:58:18.602Z</time>
      </trkpt>
      <trkpt lat="43.90055" lon="3.48803">
        <ele>468</ele>
        <time>2019-04-14T11:58:22.632Z</time>
      </trkpt>
      <trkpt lat="43.90052" lon="3.48798">
        <ele>468</ele>
        <time>2019-04-14T11:58:27.586Z</time>
      </trkpt>
      <trkpt lat="43.90046" lon="3.48792">
        <ele>468</ele>
        <time>2019-04-14T11:58:32.582Z</time>
      </trkpt>
      <trkpt lat="43.90042" lon="3.48786">
        <ele>476</ele>
        <time>2019-04-14T11:58:37.594Z</time>
      </trkpt>
      <trkpt lat="43.90039" lon="3.48783">
        <ele>458</ele>
        <time>2019-04-14T11:58:41.615Z</time>
      </trkpt>
      <trkpt lat="43.90035" lon="3.48777">
        <ele>458</ele>
        <time>2019-04-14T11:58:46.641Z</time>
      </trkpt>
      <trkpt lat="43.90032" lon="3.48771">
        <ele>458</ele>
        <time>2019-04-14T11:58:51.591Z</time>
      </trkpt>
      <trkpt lat="43.90029" lon="3.48766">
        <ele>458</ele>
        <time>2019-04-14T11:58:55.617Z</time>
      </trkpt>
      <trkpt lat="43.90025" lon="3.48761">
        <ele>469</ele>
        <time>2019-04-14T11:59:00.615Z</time>
      </trkpt>
      <trkpt lat="43.9002" lon="3.48756">
        <ele>469</ele>
        <time>2019-04-14T11:59:05.623Z</time>
      </trkpt>
      <trkpt lat="43.90017" lon="3.48749">
        <ele>469</ele>
        <time>2019-04-14T11:59:10.586Z</time>
      </trkpt>
      <trkpt lat="43.90014" lon="3.48743">
        <ele>469</ele>
        <time>2019-04-14T11:59:14.596Z</time>
      </trkpt>
      <trkpt lat="43.90012" lon="3.48738">
        <ele>455</ele>
        <time>2019-04-14T11:59:19.585Z</time>
      </trkpt>
      <trkpt lat="43.90008" lon="3.48732">
        <ele>466</ele>
        <time>2019-04-14T11:59:24.585Z</time>
      </trkpt>
      <trkpt lat="43.90004" lon="3.48728">
        <ele>466</ele>
        <time>2019-04-14T11:59:28.616Z</time>
      </trkpt>
      <trkpt lat="43.89999" lon="3.48723">
        <ele>466</ele>
        <time>2019-04-14T11:59:33.599Z</time>
      </trkpt>
      <trkpt lat="43.89992" lon="3.4872">
        <ele>466</ele>
        <time>2019-04-14T11:59:38.616Z</time>
      </trkpt>
      <trkpt lat="43.89987" lon="3.48717">
        <ele>466</ele>
        <time>2019-04-14T11:59:43.590Z</time>
      </trkpt>
      <trkpt lat="43.89983" lon="3.48713">
        <ele>450</ele>
        <time>2019-04-14T11:59:48.582Z</time>
      </trkpt>
      <trkpt lat="43.89979" lon="3.48708">
        <ele>450</ele>
        <time>2019-04-14T11:59:53.589Z</time>
      </trkpt>
      <trkpt lat="43.89972" lon="3.48705">
        <ele>458</ele>
        <time>2019-04-14T11:59:58.597Z</time>
      </trkpt>
      <trkpt lat="43.89968" lon="3.48703">
        <ele>458</ele>
        <time>2019-04-14T12:00:03.586Z</time>
      </trkpt>
      <trkpt lat="43.89964" lon="3.48701">
        <ele>458</ele>
        <time>2019-04-14T12:00:07.594Z</time>
      </trkpt>
      <trkpt lat="43.89962" lon="3.48698">
        <ele>458</ele>
        <time>2019-04-14T12:00:12.616Z</time>
      </trkpt>
      <trkpt lat="43.89959" lon="3.48697">
        <ele>458</ele>
        <time>2019-04-14T12:00:16.613Z</time>
      </trkpt>
      <trkpt lat="43.89956" lon="3.48693">
        <ele>444</ele>
        <time>2019-04-14T12:00:21.584Z</time>
      </trkpt>
      <trkpt lat="43.8995" lon="3.48689">
        <ele>444</ele>
        <time>2019-04-14T12:00:26.593Z</time>
      </trkpt>
      <trkpt lat="43.89945" lon="3.48686">
        <ele>444</ele>
        <time>2019-04-14T12:00:30.617Z</time>
      </trkpt>
      <trkpt lat="43.8994" lon="3.48682">
        <ele>444</ele>
        <time>2019-04-14T12:00:34.627Z</time>
      </trkpt>
      <trkpt lat="43.89936" lon="3.48681">
        <ele>444</ele>
        <time>2019-04-14T12:00:39.586Z</time>
      </trkpt>
      <trkpt lat="43.89931" lon="3.48679">
        <ele>459</ele>
        <time>2019-04-14T12:00:43.596Z</time>
      </trkpt>
      <trkpt lat="43.89928" lon="3.48676">
        <ele>449</ele>
        <time>2019-04-14T12:00:47.614Z</time>
      </trkpt>
      <trkpt lat="43.89925" lon="3.48675">
        <ele>449</ele>
        <time>2019-04-14T12:00:51.621Z</time>
      </trkpt>
      <trkpt lat="43.89921" lon="3.48673">
        <ele>449</ele>
        <time>2019-04-14T12:00:56.584Z</time>
      </trkpt>
      <trkpt lat="43.89916" lon="3.4867">
        <ele>449</ele>
        <time>2019-04-14T12:01:01.584Z</time>
      </trkpt>
      <trkpt lat="43.8991" lon="3.48666">
        <ele>449</ele>
        <time>2019-04-14T12:01:06.584Z</time>
      </trkpt>
      <trkpt lat="43.89907" lon="3.48663">
        <ele>449</ele>
        <time>2019-04-14T12:01:10.626Z</time>
      </trkpt>
      <trkpt lat="43.89902" lon="3.48661">
        <ele>446</ele>
        <time>2019-04-14T12:01:15.631Z</time>
      </trkpt>
      <trkpt lat="43.89897" lon="3.48657">
        <ele>446</ele>
        <time>2019-04-14T12:01:20.617Z</time>
      </trkpt>
      <trkpt lat="43.89891" lon="3.48655">
        <ele>446</ele>
        <time>2019-04-14T12:01:25.592Z</time>
      </trkpt>
      <trkpt lat="43.89885" lon="3.48654">
        <ele>446</ele>
        <time>2019-04-14T12:01:30.591Z</time>
      </trkpt>
      <trkpt lat="43.8988" lon="3.48655">
        <ele>446</ele>
        <time>2019-04-14T12:01:34.616Z</time>
      </trkpt>
      <trkpt lat="43.89876" lon="3.48655">
        <ele>446</ele>
        <time>2019-04-14T12:01:39.615Z</time>
      </trkpt>
      <trkpt lat="43.8987" lon="3.48656">
        <ele>439</ele>
        <time>2019-04-14T12:01:44.583Z</time>
      </trkpt>
      <trkpt lat="43.89863" lon="3.48659">
        <ele>439</ele>
        <time>2019-04-14T12:01:49.596Z</time>
      </trkpt>
      <trkpt lat="43.89858" lon="3.48659">
        <ele>439</ele>
        <time>2019-04-14T12:01:53.618Z</time>
      </trkpt>
      <trkpt lat="43.89852" lon="3.4866">
        <ele>439</ele>
        <time>2019-04-14T12:01:58.627Z</time>
      </trkpt>
      <trkpt lat="43.89847" lon="3.4866">
        <ele>433</ele>
        <time>2019-04-14T12:02:03.586Z</time>
      </trkpt>
      <trkpt lat="43.89843" lon="3.48661">
        <ele>433</ele>
        <time>2019-04-14T12:02:07.614Z</time>
      </trkpt>
      <trkpt lat="43.89836" lon="3.48662">
        <ele>433</ele>
        <time>2019-04-14T12:02:12.581Z</time>
      </trkpt>
      <trkpt lat="43.89829" lon="3.48661">
        <ele>433</ele>
        <time>2019-04-14T12:02:17.574Z</time>
      </trkpt>
      <trkpt lat="43.89824" lon="3.48661">
        <ele>433</ele>
        <time>2019-04-14T12:02:21.596Z</time>
      </trkpt>
      <trkpt lat="43.89817" lon="3.4866">
        <ele>428</ele>
        <time>2019-04-14T12:02:34.596Z</time>
      </trkpt>
      <trkpt lat="43.89818" lon="3.48654">
        <ele>428</ele>
        <time>2019-04-14T12:02:39.594Z</time>
      </trkpt>
      <trkpt lat="43.89815" lon="3.48653">
        <ele>425</ele>
        <time>2019-04-14T12:02:44.589Z</time>
      </trkpt>
      <trkpt lat="43.89812" lon="3.48659">
        <ele>428</ele>
        <time>2019-04-14T12:02:49.631Z</time>
      </trkpt>
      <trkpt lat="43.8981" lon="3.48663">
        <ele>428</ele>
        <time>2019-04-14T12:02:54.597Z</time>
      </trkpt>
      <trkpt lat="43.89807" lon="3.48671">
        <ele>428</ele>
        <time>2019-04-14T12:03:12.614Z</time>
      </trkpt>
      <trkpt lat="43.89805" lon="3.48667">
        <ele>428</ele>
        <time>2019-04-14T12:03:17.631Z</time>
      </trkpt>
      <trkpt lat="43.89802" lon="3.4866">
        <ele>428</ele>
        <time>2019-04-14T12:03:22.597Z</time>
      </trkpt>
      <trkpt lat="43.89802" lon="3.48653">
        <ele>428</ele>
        <time>2019-04-14T12:03:27.589Z</time>
      </trkpt>
      <trkpt lat="43.89802" lon="3.48646">
        <ele>425</ele>
        <time>2019-04-14T12:03:32.586Z</time>
      </trkpt>
      <trkpt lat="43.89803" lon="3.48641">
        <ele>425</ele>
        <time>2019-04-14T12:03:36.617Z</time>
      </trkpt>
      <trkpt lat="43.89804" lon="3.48634">
        <ele>425</ele>
        <time>2019-04-14T12:03:41.593Z</time>
      </trkpt>
      <trkpt lat="43.89805" lon="3.48627">
        <ele>425</ele>
        <time>2019-04-14T12:03:46.596Z</time>
      </trkpt>
      <trkpt lat="43.89807" lon="3.48619">
        <ele>421</ele>
        <time>2019-04-14T12:03:51.586Z</time>
      </trkpt>
      <trkpt lat="43.89809" lon="3.48612">
        <ele>421</ele>
        <time>2019-04-14T12:03:56.589Z</time>
      </trkpt>
      <trkpt lat="43.8981" lon="3.48605">
        <ele>421</ele>
        <time>2019-04-14T12:04:01.586Z</time>
      </trkpt>
      <trkpt lat="43.89812" lon="3.48598">
        <ele>421</ele>
        <time>2019-04-14T12:04:05.593Z</time>
      </trkpt>
      <trkpt lat="43.89814" lon="3.48592">
        <ele>416</ele>
        <time>2019-04-14T12:04:10.627Z</time>
      </trkpt>
      <trkpt lat="43.89814" lon="3.48587">
        <ele>416</ele>
        <time>2019-04-14T12:04:15.599Z</time>
      </trkpt>
      <trkpt lat="43.89814" lon="3.48581">
        <ele>416</ele>
        <time>2019-04-14T12:04:20.587Z</time>
      </trkpt>
      <trkpt lat="43.89815" lon="3.48575">
        <ele>416</ele>
        <time>2019-04-14T12:04:24.616Z</time>
      </trkpt>
      <trkpt lat="43.89816" lon="3.48566">
        <ele>406</ele>
        <time>2019-04-14T12:04:29.614Z</time>
      </trkpt>
      <trkpt lat="43.89818" lon="3.4856">
        <ele>406</ele>
        <time>2019-04-14T12:04:34.611Z</time>
      </trkpt>
      <trkpt lat="43.89819" lon="3.48553">
        <ele>406</ele>
        <time>2019-04-14T12:04:39.615Z</time>
      </trkpt>
      <trkpt lat="43.89821" lon="3.48547">
        <ele>424</ele>
        <time>2019-04-14T12:04:44.616Z</time>
      </trkpt>
      <trkpt lat="43.89823" lon="3.48542">
        <ele>424</ele>
        <time>2019-04-14T12:04:49.617Z</time>
      </trkpt>
      <trkpt lat="43.89824" lon="3.48537">
        <ele>416</ele>
        <time>2019-04-14T12:04:54.592Z</time>
      </trkpt>
      <trkpt lat="43.89825" lon="3.48531">
        <ele>416</ele>
        <time>2019-04-14T12:04:59.599Z</time>
      </trkpt>
      <trkpt lat="43.89827" lon="3.48522">
        <ele>416</ele>
        <time>2019-04-14T12:05:04.586Z</time>
      </trkpt>
      <trkpt lat="43.89829" lon="3.48516">
        <ele>416</ele>
        <time>2019-04-14T12:05:09.599Z</time>
      </trkpt>
      <trkpt lat="43.89831" lon="3.48509">
        <ele>407</ele>
        <time>2019-04-14T12:05:14.616Z</time>
      </trkpt>
      <trkpt lat="43.89833" lon="3.48503">
        <ele>407</ele>
        <time>2019-04-14T12:05:19.615Z</time>
      </trkpt>
      <trkpt lat="43.89836" lon="3.48496">
        <ele>407</ele>
        <time>2019-04-14T12:05:24.586Z</time>
      </trkpt>
      <trkpt lat="43.89838" lon="3.4849">
        <ele>407</ele>
        <time>2019-04-14T12:05:28.612Z</time>
      </trkpt>
      <trkpt lat="43.89839" lon="3.48484">
        <ele>399</ele>
        <time>2019-04-14T12:05:33.592Z</time>
      </trkpt>
      <trkpt lat="43.89842" lon="3.48479">
        <ele>399</ele>
        <time>2019-04-14T12:05:38.596Z</time>
      </trkpt>
      <trkpt lat="43.89844" lon="3.48473">
        <ele>399</ele>
        <time>2019-04-14T12:05:43.595Z</time>
      </trkpt>
      <trkpt lat="43.89848" lon="3.48466">
        <ele>420</ele>
        <time>2019-04-14T12:05:48.585Z</time>
      </trkpt>
      <trkpt lat="43.89848" lon="3.48461">
        <ele>420</ele>
        <time>2019-04-14T12:05:52.616Z</time>
      </trkpt>
      <trkpt lat="43.8985" lon="3.48453">
        <ele>409</ele>
        <time>2019-04-14T12:05:57.586Z</time>
      </trkpt>
      <trkpt lat="43.89852" lon="3.48448">
        <ele>409</ele>
        <time>2019-04-14T12:06:02.592Z</time>
      </trkpt>
      <trkpt lat="43.89854" lon="3.48439">
        <ele>409</ele>
        <time>2019-04-14T12:06:07.591Z</time>
      </trkpt>
      <trkpt lat="43.89858" lon="3.48435">
        <ele>409</ele>
        <time>2019-04-14T12:06:11.622Z</time>
      </trkpt>
      <trkpt lat="43.89861" lon="3.48428">
        <ele>397</ele>
        <time>2019-04-14T12:06:16.584Z</time>
      </trkpt>
      <trkpt lat="43.89863" lon="3.48422">
        <ele>397</ele>
        <time>2019-04-14T12:06:20.616Z</time>
      </trkpt>
      <trkpt lat="43.89867" lon="3.48417">
        <ele>397</ele>
        <time>2019-04-14T12:06:25.616Z</time>
      </trkpt>
      <trkpt lat="43.89871" lon="3.48412">
        <ele>397</ele>
        <time>2019-04-14T12:06:30.594Z</time>
      </trkpt>
      <trkpt lat="43.89875" lon="3.48407">
        <ele>408</ele>
        <time>2019-04-14T12:06:35.599Z</time>
      </trkpt>
      <trkpt lat="43.89879" lon="3.48401">
        <ele>398</ele>
        <time>2019-04-14T12:06:40.584Z</time>
      </trkpt>
      <trkpt lat="43.89882" lon="3.484">
        <ele>398</ele>
        <time>2019-04-14T12:06:45.583Z</time>
      </trkpt>
      <trkpt lat="43.89883" lon="3.484">
        <ele>398</ele>
        <time>2019-04-14T12:06:49.601Z</time>
      </trkpt>
      <trkpt lat="43.89885" lon="3.48392">
        <ele>398</ele>
        <time>2019-04-14T12:06:58.624Z</time>
      </trkpt>
      <trkpt lat="43.89889" lon="3.48382">
        <ele>398</ele>
        <time>2019-04-14T12:07:03.596Z</time>
      </trkpt>
      <trkpt lat="43.89893" lon="3.48376">
        <ele>398</ele>
        <time>2019-04-14T12:07:08.614Z</time>
      </trkpt>
      <trkpt lat="43.89894" lon="3.48375">
        <ele>388</ele>
        <time>2019-04-14T12:07:13.586Z</time>
      </trkpt>
      <trkpt lat="43.89896" lon="3.48373">
        <ele>388</ele>
        <time>2019-04-14T12:07:17.589Z</time>
      </trkpt>
      <trkpt lat="43.89898" lon="3.48373">
        <ele>388</ele>
        <time>2019-04-14T12:07:21.591Z</time>
      </trkpt>
      <trkpt lat="43.899" lon="3.4837">
        <ele>388</ele>
        <time>2019-04-14T12:07:25.597Z</time>
      </trkpt>
      <trkpt lat="43.89904" lon="3.4836">
        <ele>395</ele>
        <time>2019-04-14T12:07:30.589Z</time>
      </trkpt>
      <trkpt lat="43.89899" lon="3.48353">
        <ele>388</ele>
        <time>2019-04-14T12:07:49.614Z</time>
      </trkpt>
      <trkpt lat="43.89903" lon="3.4835">
        <ele>395</ele>
        <time>2019-04-14T12:07:54.622Z</time>
      </trkpt>
      <trkpt lat="43.89907" lon="3.4835">
        <ele>395</ele>
        <time>2019-04-14T12:07:59.589Z</time>
      </trkpt>
      <trkpt lat="43.8991" lon="3.4835">
        <ele>395</ele>
        <time>2019-04-14T12:08:04.589Z</time>
      </trkpt>
      <trkpt lat="43.89912" lon="3.48348">
        <ele>395</ele>
        <time>2019-04-14T12:08:08.617Z</time>
      </trkpt>
      <trkpt lat="43.89915" lon="3.48344">
        <ele>388</ele>
        <time>2019-04-14T12:08:13.588Z</time>
      </trkpt>
      <trkpt lat="43.89918" lon="3.48342">
        <ele>388</ele>
        <time>2019-04-14T12:08:18.593Z</time>
      </trkpt>
      <trkpt lat="43.89921" lon="3.48337">
        <ele>388</ele>
        <time>2019-04-14T12:08:23.595Z</time>
      </trkpt>
      <trkpt lat="43.89926" lon="3.48338">
        <ele>388</ele>
        <time>2019-04-14T12:08:28.585Z</time>
      </trkpt>
      <trkpt lat="43.8993" lon="3.48334">
        <ele>388</ele>
        <time>2019-04-14T12:08:33.597Z</time>
      </trkpt>
      <trkpt lat="43.89933" lon="3.4833">
        <ele>392</ele>
        <time>2019-04-14T12:08:37.617Z</time>
      </trkpt>
      <trkpt lat="43.89936" lon="3.48322">
        <ele>392</ele>
        <time>2019-04-14T12:08:42.577Z</time>
      </trkpt>
      <trkpt lat="43.89939" lon="3.4832">
        <ele>392</ele>
        <time>2019-04-14T12:08:46.594Z</time>
      </trkpt>
      <trkpt lat="43.89942" lon="3.48322">
        <ele>392</ele>
        <time>2019-04-14T12:08:51.597Z</time>
      </trkpt>
      <trkpt lat="43.89946" lon="3.48322">
        <ele>392</ele>
        <time>2019-04-14T12:09:01.583Z</time>
      </trkpt>
      <trkpt lat="43.89948" lon="3.48321">
        <ele>392</ele>
        <time>2019-04-14T12:09:05.596Z</time>
      </trkpt>
      <trkpt lat="43.89953" lon="3.4832">
        <ele>392</ele>
        <time>2019-04-14T12:09:09.616Z</time>
      </trkpt>
      <trkpt lat="43.89957" lon="3.48316">
        <ele>389</ele>
        <time>2019-04-14T12:09:14.590Z</time>
      </trkpt>
      <trkpt lat="43.8996" lon="3.48318">
        <ele>387</ele>
        <time>2019-04-14T12:09:19.588Z</time>
      </trkpt>
      <trkpt lat="43.89964" lon="3.48318">
        <ele>387</ele>
        <time>2019-04-14T12:09:23.618Z</time>
      </trkpt>
      <trkpt lat="43.89964" lon="3.48312">
        <ele>387</ele>
        <time>2019-04-14T12:09:27.624Z</time>
      </trkpt>
      <trkpt lat="43.89965" lon="3.48306">
        <ele>387</ele>
        <time>2019-04-14T12:09:32.586Z</time>
      </trkpt>
      <trkpt lat="43.89964" lon="3.48302">
        <ele>387</ele>
        <time>2019-04-14T12:09:37.624Z</time>
      </trkpt>
      <trkpt lat="43.89967" lon="3.48302">
        <ele>387</ele>
        <time>2019-04-14T12:09:42.607Z</time>
      </trkpt>
      <trkpt lat="43.89969" lon="3.48295">
        <ele>387</ele>
        <time>2019-04-14T12:09:47.586Z</time>
      </trkpt>
      <trkpt lat="43.89969" lon="3.48294">
        <ele>387</ele>
        <time>2019-04-14T12:09:52.583Z</time>
      </trkpt>
      <trkpt lat="43.89956" lon="3.48315">
        <ele>389</ele>
        <time>2019-04-14T12:09:57.577Z</time>
      </trkpt>
      <trkpt lat="43.89957" lon="3.48307">
        <ele>389</ele>
        <time>2019-04-14T12:13:28.613Z</time>
      </trkpt>
      <trkpt lat="43.89959" lon="3.48304">
        <ele>387</ele>
        <time>2019-04-14T12:13:33.601Z</time>
      </trkpt>
      <trkpt lat="43.89958" lon="3.48298">
        <ele>389</ele>
        <time>2019-04-14T12:13:38.618Z</time>
      </trkpt>
      <trkpt lat="43.89955" lon="3.48291">
        <ele>393</ele>
        <time>2019-04-14T12:13:43.588Z</time>
      </trkpt>
      <trkpt lat="43.89954" lon="3.48292">
        <ele>393</ele>
        <time>2019-04-14T12:13:47.595Z</time>
      </trkpt>
      <trkpt lat="43.89955" lon="3.48292">
        <ele>393</ele>
        <time>2019-04-14T12:13:51.615Z</time>
      </trkpt>
      <trkpt lat="43.89955" lon="3.48292">
        <ele>393</ele>
        <time>2019-04-14T12:13:56.577Z</time>
      </trkpt>
      <trkpt lat="43.89957" lon="3.4829">
        <ele>393</ele>
        <time>2019-04-14T12:14:00.615Z</time>
      </trkpt>
      <trkpt lat="43.89961" lon="3.48287">
        <ele>389</ele>
        <time>2019-04-14T12:14:04.617Z</time>
      </trkpt>
      <trkpt lat="43.89961" lon="3.48282">
        <ele>389</ele>
        <time>2019-04-14T12:14:13.597Z</time>
      </trkpt>
      <trkpt lat="43.89972" lon="3.48292">
        <ele>387</ele>
        <time>2019-04-14T12:16:11.586Z</time>
      </trkpt>
      <trkpt lat="43.8997" lon="3.48291">
        <ele>389</ele>
        <time>2019-04-14T12:16:16.587Z</time>
      </trkpt>
      <trkpt lat="43.89969" lon="3.48291">
        <ele>389</ele>
        <time>2019-04-14T12:16:20.588Z</time>
      </trkpt>
      <trkpt lat="43.89968" lon="3.4829">
        <ele>389</ele>
        <time>2019-04-14T12:16:25.585Z</time>
      </trkpt>
      <trkpt lat="43.89966" lon="3.48289">
        <ele>389</ele>
        <time>2019-04-14T12:16:30.584Z</time>
      </trkpt>
      <trkpt lat="43.89971" lon="3.4829">
        <ele>389</ele>
        <time>2019-04-14T12:16:58.591Z</time>
      </trkpt>
      <trkpt lat="43.89972" lon="3.4829">
        <ele>389</ele>
        <time>2019-04-14T12:17:02.592Z</time>
      </trkpt>
      <trkpt lat="43.89973" lon="3.4829">
        <ele>389</ele>
        <time>2019-04-14T12:17:06.598Z</time>
      </trkpt>
      <trkpt lat="43.89976" lon="3.48281">
        <ele>389</ele>
        <time>2019-04-14T12:17:30.615Z</time>
      </trkpt>
      <trkpt lat="43.89979" lon="3.48276">
        <ele>389</ele>
        <time>2019-04-14T12:17:35.616Z</time>
      </trkpt>
      <trkpt lat="43.89981" lon="3.48273">
        <ele>389</ele>
        <time>2019-04-14T12:17:40.588Z</time>
      </trkpt>
      <trkpt lat="43.89981" lon="3.48273">
        <ele>389</ele>
        <time>2019-04-14T12:17:44.617Z</time>
      </trkpt>
      <trkpt lat="43.89979" lon="3.48274">
        <ele>389</ele>
        <time>2019-04-14T12:17:49.601Z</time>
      </trkpt>
      <trkpt lat="43.89973" lon="3.48274">
        <ele>389</ele>
        <time>2019-04-14T12:17:54.586Z</time>
      </trkpt>
      <trkpt lat="43.89967" lon="3.48275">
        <ele>389</ele>
        <time>2019-04-14T12:17:59.615Z</time>
      </trkpt>
      <trkpt lat="43.89981" lon="3.48258">
        <ele>403</ele>
        <time>2019-04-14T12:18:52.619Z</time>
      </trkpt>
      <trkpt lat="43.89975" lon="3.48262">
        <ele>403</ele>
        <time>2019-04-14T12:18:57.591Z</time>
      </trkpt>
      <trkpt lat="43.89971" lon="3.4827">
        <ele>389</ele>
        <time>2019-04-14T12:19:02.604Z</time>
      </trkpt>
      <trkpt lat="43.89966" lon="3.48271">
        <ele>389</ele>
        <time>2019-04-14T12:19:07.591Z</time>
      </trkpt>
      <trkpt lat="43.89961" lon="3.48271">
        <ele>389</ele>
        <time>2019-04-14T12:19:11.594Z</time>
      </trkpt>
      <trkpt lat="43.89958" lon="3.48275">
        <ele>393</ele>
        <time>2019-04-14T12:19:16.618Z</time>
      </trkpt>
      <trkpt lat="43.89954" lon="3.48274">
        <ele>393</ele>
        <time>2019-04-14T12:19:21.600Z</time>
      </trkpt>
      <trkpt lat="43.89952" lon="3.48271">
        <ele>393</ele>
        <time>2019-04-14T12:19:26.597Z</time>
      </trkpt>
      <trkpt lat="43.89951" lon="3.48267">
        <ele>393</ele>
        <time>2019-04-14T12:19:31.591Z</time>
      </trkpt>
      <trkpt lat="43.89951" lon="3.48266">
        <ele>393</ele>
        <time>2019-04-14T12:19:36.591Z</time>
      </trkpt>
      <trkpt lat="43.89944" lon="3.48268">
        <ele>393</ele>
        <time>2019-04-14T12:19:40.619Z</time>
      </trkpt>
      <trkpt lat="43.89939" lon="3.48273">
        <ele>393</ele>
        <time>2019-04-14T12:19:45.590Z</time>
      </trkpt>
      <trkpt lat="43.89937" lon="3.48274">
        <ele>393</ele>
        <time>2019-04-14T12:19:53.623Z</time>
      </trkpt>
      <trkpt lat="43.8993" lon="3.48274">
        <ele>397</ele>
        <time>2019-04-14T12:19:58.593Z</time>
      </trkpt>
      <trkpt lat="43.89926" lon="3.48277">
        <ele>397</ele>
        <time>2019-04-14T12:20:03.595Z</time>
      </trkpt>
      <trkpt lat="43.89925" lon="3.48278">
        <ele>397</ele>
        <time>2019-04-14T12:20:07.603Z</time>
      </trkpt>
      <trkpt lat="43.89922" lon="3.48279">
        <ele>397</ele>
        <time>2019-04-14T12:20:11.620Z</time>
      </trkpt>
      <trkpt lat="43.89921" lon="3.48279">
        <ele>397</ele>
        <time>2019-04-14T12:20:16.617Z</time>
      </trkpt>
      <trkpt lat="43.89911" lon="3.48286">
        <ele>397</ele>
        <time>2019-04-14T12:20:26.588Z</time>
      </trkpt>
      <trkpt lat="43.89908" lon="3.48286">
        <ele>397</ele>
        <time>2019-04-14T12:20:31.597Z</time>
      </trkpt>
      <trkpt lat="43.89904" lon="3.48284">
        <ele>397</ele>
        <time>2019-04-14T12:20:40.615Z</time>
      </trkpt>
      <trkpt lat="43.899" lon="3.48284">
        <ele>401</ele>
        <time>2019-04-14T12:20:45.595Z</time>
      </trkpt>
      <trkpt lat="43.89894" lon="3.48285">
        <ele>401</ele>
        <time>2019-04-14T12:20:50.593Z</time>
      </trkpt>
      <trkpt lat="43.8989" lon="3.48287">
        <ele>401</ele>
        <time>2019-04-14T12:20:54.598Z</time>
      </trkpt>
      <trkpt lat="43.89884" lon="3.4829">
        <ele>401</ele>
        <time>2019-04-14T12:20:59.625Z</time>
      </trkpt>
      <trkpt lat="43.89879" lon="3.48294">
        <ele>392</ele>
        <time>2019-04-14T12:21:04.586Z</time>
      </trkpt>
      <trkpt lat="43.89875" lon="3.48297">
        <ele>392</ele>
        <time>2019-04-14T12:21:08.617Z</time>
      </trkpt>
      <trkpt lat="43.89872" lon="3.483">
        <ele>396</ele>
        <time>2019-04-14T12:21:13.595Z</time>
      </trkpt>
      <trkpt lat="43.8987" lon="3.48299">
        <ele>396</ele>
        <time>2019-04-14T12:21:17.597Z</time>
      </trkpt>
      <trkpt lat="43.89869" lon="3.483">
        <ele>396</ele>
        <time>2019-04-14T12:21:22.596Z</time>
      </trkpt>
      <trkpt lat="43.89862" lon="3.48302">
        <ele>396</ele>
        <time>2019-04-14T12:21:27.617Z</time>
      </trkpt>
      <trkpt lat="43.89856" lon="3.48305">
        <ele>396</ele>
        <time>2019-04-14T12:21:32.615Z</time>
      </trkpt>
      <trkpt lat="43.8985" lon="3.48308">
        <ele>396</ele>
        <time>2019-04-14T12:21:37.627Z</time>
      </trkpt>
      <trkpt lat="43.89847" lon="3.48309">
        <ele>398</ele>
        <time>2019-04-14T12:21:42.584Z</time>
      </trkpt>
      <trkpt lat="43.89844" lon="3.48312">
        <ele>398</ele>
        <time>2019-04-14T12:21:51.597Z</time>
      </trkpt>
      <trkpt lat="43.89838" lon="3.48316">
        <ele>398</ele>
        <time>2019-04-14T12:21:56.615Z</time>
      </trkpt>
      <trkpt lat="43.89834" lon="3.4832">
        <ele>389</ele>
        <time>2019-04-14T12:22:01.577Z</time>
      </trkpt>
      <trkpt lat="43.89832" lon="3.48324">
        <ele>389</ele>
        <time>2019-04-14T12:22:05.598Z</time>
      </trkpt>
      <trkpt lat="43.89827" lon="3.48327">
        <ele>389</ele>
        <time>2019-04-14T12:22:10.597Z</time>
      </trkpt>
      <trkpt lat="43.89821" lon="3.48326">
        <ele>389</ele>
        <time>2019-04-14T12:22:15.616Z</time>
      </trkpt>
      <trkpt lat="43.89816" lon="3.48328">
        <ele>390</ele>
        <time>2019-04-14T12:22:20.618Z</time>
      </trkpt>
      <trkpt lat="43.89811" lon="3.4833">
        <ele>390</ele>
        <time>2019-04-14T12:22:25.616Z</time>
      </trkpt>
      <trkpt lat="43.89806" lon="3.4833">
        <ele>390</ele>
        <time>2019-04-14T12:22:30.594Z</time>
      </trkpt>
      <trkpt lat="43.89803" lon="3.48331">
        <ele>390</ele>
        <time>2019-04-14T12:22:34.595Z</time>
      </trkpt>
      <trkpt lat="43.89799" lon="3.48337">
        <ele>390</ele>
        <time>2019-04-14T12:22:39.623Z</time>
      </trkpt>
      <trkpt lat="43.89796" lon="3.48342">
        <ele>390</ele>
        <time>2019-04-14T12:22:44.616Z</time>
      </trkpt>
      <trkpt lat="43.89791" lon="3.48348">
        <ele>385</ele>
        <time>2019-04-14T12:22:49.618Z</time>
      </trkpt>
      <trkpt lat="43.89786" lon="3.48354">
        <ele>385</ele>
        <time>2019-04-14T12:22:54.622Z</time>
      </trkpt>
      <trkpt lat="43.89784" lon="3.48361">
        <ele>385</ele>
        <time>2019-04-14T12:22:59.622Z</time>
      </trkpt>
      <trkpt lat="43.8978" lon="3.48366">
        <ele>385</ele>
        <time>2019-04-14T12:23:03.637Z</time>
      </trkpt>
      <trkpt lat="43.89776" lon="3.48373">
        <ele>385</ele>
        <time>2019-04-14T12:23:08.618Z</time>
      </trkpt>
      <trkpt lat="43.89773" lon="3.4838">
        <ele>376</ele>
        <time>2019-04-14T12:23:13.587Z</time>
      </trkpt>
      <trkpt lat="43.8977" lon="3.48385">
        <ele>376</ele>
        <time>2019-04-14T12:23:17.599Z</time>
      </trkpt>
      <trkpt lat="43.89767" lon="3.4839">
        <ele>376</ele>
        <time>2019-04-14T12:23:22.621Z</time>
      </trkpt>
      <trkpt lat="43.89765" lon="3.48395">
        <ele>376</ele>
        <time>2019-04-14T12:23:26.628Z</time>
      </trkpt>
      <trkpt lat="43.89762" lon="3.48402">
        <ele>395</ele>
        <time>2019-04-14T12:23:31.590Z</time>
      </trkpt>
      <trkpt lat="43.89759" lon="3.48408">
        <ele>386</ele>
        <time>2019-04-14T12:23:36.588Z</time>
      </trkpt>
      <trkpt lat="43.89756" lon="3.48414">
        <ele>386</ele>
        <time>2019-04-14T12:23:41.615Z</time>
      </trkpt>
      <trkpt lat="43.89753" lon="3.48424">
        <ele>386</ele>
        <time>2019-04-14T12:23:46.585Z</time>
      </trkpt>
      <trkpt lat="43.89752" lon="3.4843">
        <ele>386</ele>
        <time>2019-04-14T12:23:50.618Z</time>
      </trkpt>
      <trkpt lat="43.89751" lon="3.48435">
        <ele>376</ele>
        <time>2019-04-14T12:23:55.596Z</time>
      </trkpt>
      <trkpt lat="43.89749" lon="3.48441">
        <ele>376</ele>
        <time>2019-04-14T12:23:59.616Z</time>
      </trkpt>
      <trkpt lat="43.89745" lon="3.48447">
        <ele>376</ele>
        <time>2019-04-14T12:24:04.618Z</time>
      </trkpt>
      <trkpt lat="43.89742" lon="3.48454">
        <ele>376</ele>
        <time>2019-04-14T12:24:09.616Z</time>
      </trkpt>
      <trkpt lat="43.89738" lon="3.4846">
        <ele>374</ele>
        <time>2019-04-14T12:24:14.616Z</time>
      </trkpt>
      <trkpt lat="43.89734" lon="3.48466">
        <ele>382</ele>
        <time>2019-04-14T12:24:19.618Z</time>
      </trkpt>
      <trkpt lat="43.8973" lon="3.4847">
        <ele>382</ele>
        <time>2019-04-14T12:24:24.586Z</time>
      </trkpt>
      <trkpt lat="43.89726" lon="3.48473">
        <ele>382</ele>
        <time>2019-04-14T12:24:28.615Z</time>
      </trkpt>
      <trkpt lat="43.89723" lon="3.48478">
        <ele>382</ele>
        <time>2019-04-14T12:24:32.619Z</time>
      </trkpt>
      <trkpt lat="43.8972" lon="3.48484">
        <ele>382</ele>
        <time>2019-04-14T12:24:37.624Z</time>
      </trkpt>
      <trkpt lat="43.89715" lon="3.48491">
        <ele>377</ele>
        <time>2019-04-14T12:24:42.616Z</time>
      </trkpt>
      <trkpt lat="43.89711" lon="3.48497">
        <ele>377</ele>
        <time>2019-04-14T12:24:47.587Z</time>
      </trkpt>
      <trkpt lat="43.89708" lon="3.48501">
        <ele>392</ele>
        <time>2019-04-14T12:24:51.622Z</time>
      </trkpt>
      <trkpt lat="43.89704" lon="3.48506">
        <ele>392</ele>
        <time>2019-04-14T12:24:56.589Z</time>
      </trkpt>
      <trkpt lat="43.89701" lon="3.48512">
        <ele>392</ele>
        <time>2019-04-14T12:25:01.619Z</time>
      </trkpt>
      <trkpt lat="43.897" lon="3.48517">
        <ele>387</ele>
        <time>2019-04-14T12:25:06.589Z</time>
      </trkpt>
      <trkpt lat="43.897" lon="3.48524">
        <ele>387</ele>
        <time>2019-04-14T12:25:11.600Z</time>
      </trkpt>
      <trkpt lat="43.89698" lon="3.48529">
        <ele>387</ele>
        <time>2019-04-14T12:25:15.624Z</time>
      </trkpt>
      <trkpt lat="43.89695" lon="3.48535">
        <ele>387</ele>
        <time>2019-04-14T12:25:20.616Z</time>
      </trkpt>
      <trkpt lat="43.89692" lon="3.48542">
        <ele>379</ele>
        <time>2019-04-14T12:25:25.621Z</time>
      </trkpt>
      <trkpt lat="43.89688" lon="3.48549">
        <ele>379</ele>
        <time>2019-04-14T12:25:30.621Z</time>
      </trkpt>
      <trkpt lat="43.89687" lon="3.48553">
        <ele>379</ele>
        <time>2019-04-14T12:25:34.627Z</time>
      </trkpt>
      <trkpt lat="43.89685" lon="3.4856">
        <ele>379</ele>
        <time>2019-04-14T12:25:39.615Z</time>
      </trkpt>
      <trkpt lat="43.89682" lon="3.48567">
        <ele>379</ele>
        <time>2019-04-14T12:25:44.618Z</time>
      </trkpt>
      <trkpt lat="43.8968" lon="3.48575">
        <ele>387</ele>
        <time>2019-04-14T12:25:49.624Z</time>
      </trkpt>
      <trkpt lat="43.89676" lon="3.48579">
        <ele>387</ele>
        <time>2019-04-14T12:25:54.590Z</time>
      </trkpt>
      <trkpt lat="43.89674" lon="3.48584">
        <ele>387</ele>
        <time>2019-04-14T12:25:58.606Z</time>
      </trkpt>
      <trkpt lat="43.89671" lon="3.4859">
        <ele>387</ele>
        <time>2019-04-14T12:26:03.620Z</time>
      </trkpt>
      <trkpt lat="43.89669" lon="3.48597">
        <ele>387</ele>
        <time>2019-04-14T12:26:08.616Z</time>
      </trkpt>
      <trkpt lat="43.89668" lon="3.48601">
        <ele>382</ele>
        <time>2019-04-14T12:26:13.585Z</time>
      </trkpt>
      <trkpt lat="43.89669" lon="3.48606">
        <ele>382</ele>
        <time>2019-04-14T12:26:17.595Z</time>
      </trkpt>
      <trkpt lat="43.8967" lon="3.48614">
        <ele>382</ele>
        <time>2019-04-14T12:26:22.586Z</time>
      </trkpt>
      <trkpt lat="43.8967" lon="3.48621">
        <ele>382</ele>
        <time>2019-04-14T12:26:26.596Z</time>
      </trkpt>
      <trkpt lat="43.89669" lon="3.48627">
        <ele>378</ele>
        <time>2019-04-14T12:26:30.606Z</time>
      </trkpt>
      <trkpt lat="43.89668" lon="3.48634">
        <ele>378</ele>
        <time>2019-04-14T12:26:35.586Z</time>
      </trkpt>
      <trkpt lat="43.89668" lon="3.4864">
        <ele>378</ele>
        <time>2019-04-14T12:26:39.589Z</time>
      </trkpt>
      <trkpt lat="43.89665" lon="3.48647">
        <ele>378</ele>
        <time>2019-04-14T12:26:43.598Z</time>
      </trkpt>
      <trkpt lat="43.89663" lon="3.48656">
        <ele>376</ele>
        <time>2019-04-14T12:26:48.617Z</time>
      </trkpt>
      <trkpt lat="43.89661" lon="3.48664">
        <ele>376</ele>
        <time>2019-04-14T12:26:53.602Z</time>
      </trkpt>
      <trkpt lat="43.89659" lon="3.48669">
        <ele>376</ele>
        <time>2019-04-14T12:26:57.627Z</time>
      </trkpt>
      <trkpt lat="43.89658" lon="3.48675">
        <ele>376</ele>
        <time>2019-04-14T12:27:02.592Z</time>
      </trkpt>
      <trkpt lat="43.89656" lon="3.48681">
        <ele>374</ele>
        <time>2019-04-14T12:27:06.616Z</time>
      </trkpt>
      <trkpt lat="43.89656" lon="3.48688">
        <ele>374</ele>
        <time>2019-04-14T12:27:11.621Z</time>
      </trkpt>
      <trkpt lat="43.89656" lon="3.48696">
        <ele>374</ele>
        <time>2019-04-14T12:27:16.617Z</time>
      </trkpt>
      <trkpt lat="43.89655" lon="3.48704">
        <ele>374</ele>
        <time>2019-04-14T12:27:21.595Z</time>
      </trkpt>
      <trkpt lat="43.89655" lon="3.48713">
        <ele>371</ele>
        <time>2019-04-14T12:27:26.614Z</time>
      </trkpt>
      <trkpt lat="43.89654" lon="3.48721">
        <ele>371</ele>
        <time>2019-04-14T12:27:31.594Z</time>
      </trkpt>
      <trkpt lat="43.89655" lon="3.48729">
        <ele>371</ele>
        <time>2019-04-14T12:27:36.587Z</time>
      </trkpt>
      <trkpt lat="43.89654" lon="3.48736">
        <ele>371</ele>
        <time>2019-04-14T12:27:41.618Z</time>
      </trkpt>
      <trkpt lat="43.89654" lon="3.48745">
        <ele>370</ele>
        <time>2019-04-14T12:27:46.585Z</time>
      </trkpt>
      <trkpt lat="43.89654" lon="3.48754">
        <ele>370</ele>
        <time>2019-04-14T12:27:51.617Z</time>
      </trkpt>
      <trkpt lat="43.89654" lon="3.48764">
        <ele>370</ele>
        <time>2019-04-14T12:27:56.585Z</time>
      </trkpt>
      <trkpt lat="43.89653" lon="3.48769">
        <ele>383</ele>
        <time>2019-04-14T12:28:00.621Z</time>
      </trkpt>
      <trkpt lat="43.89651" lon="3.48769">
        <ele>383</ele>
        <time>2019-04-14T12:28:05.603Z</time>
      </trkpt>
      <trkpt lat="43.89652" lon="3.48777">
        <ele>383</ele>
        <time>2019-04-14T12:28:10.604Z</time>
      </trkpt>
      <trkpt lat="43.89653" lon="3.48783">
        <ele>383</ele>
        <time>2019-04-14T12:28:14.621Z</time>
      </trkpt>
      <trkpt lat="43.89654" lon="3.48789">
        <ele>372</ele>
        <time>2019-04-14T12:28:19.585Z</time>
      </trkpt>
      <trkpt lat="43.89656" lon="3.48795">
        <ele>369</ele>
        <time>2019-04-14T12:28:23.618Z</time>
      </trkpt>
      <trkpt lat="43.89658" lon="3.48803">
        <ele>369</ele>
        <time>2019-04-14T12:28:28.617Z</time>
      </trkpt>
      <trkpt lat="43.89659" lon="3.4881">
        <ele>369</ele>
        <time>2019-04-14T12:28:33.597Z</time>
      </trkpt>
      <trkpt lat="43.89662" lon="3.48817">
        <ele>369</ele>
        <time>2019-04-14T12:28:38.595Z</time>
      </trkpt>
      <trkpt lat="43.89665" lon="3.48822">
        <ele>366</ele>
        <time>2019-04-14T12:28:42.617Z</time>
      </trkpt>
      <trkpt lat="43.89667" lon="3.48828">
        <ele>366</ele>
        <time>2019-04-14T12:28:47.584Z</time>
      </trkpt>
      <trkpt lat="43.89668" lon="3.48834">
        <ele>366</ele>
        <time>2019-04-14T12:28:51.615Z</time>
      </trkpt>
      <trkpt lat="43.89669" lon="3.48842">
        <ele>366</ele>
        <time>2019-04-14T12:28:56.619Z</time>
      </trkpt>
      <trkpt lat="43.89672" lon="3.48848">
        <ele>363</ele>
        <time>2019-04-14T12:29:01.617Z</time>
      </trkpt>
      <trkpt lat="43.89674" lon="3.48857">
        <ele>363</ele>
        <time>2019-04-14T12:29:06.595Z</time>
      </trkpt>
      <trkpt lat="43.89674" lon="3.48865">
        <ele>363</ele>
        <time>2019-04-14T12:29:11.618Z</time>
      </trkpt>
      <trkpt lat="43.89676" lon="3.48871">
        <ele>363</ele>
        <time>2019-04-14T12:29:15.626Z</time>
      </trkpt>
      <trkpt lat="43.89676" lon="3.48878">
        <ele>361</ele>
        <time>2019-04-14T12:29:20.588Z</time>
      </trkpt>
      <trkpt lat="43.89677" lon="3.48887">
        <ele>361</ele>
        <time>2019-04-14T12:29:25.615Z</time>
      </trkpt>
      <trkpt lat="43.89676" lon="3.48894">
        <ele>361</ele>
        <time>2019-04-14T12:29:30.591Z</time>
      </trkpt>
      <trkpt lat="43.89674" lon="3.48901">
        <ele>361</ele>
        <time>2019-04-14T12:29:35.591Z</time>
      </trkpt>
      <trkpt lat="43.89673" lon="3.48907">
        <ele>359</ele>
        <time>2019-04-14T12:29:39.590Z</time>
      </trkpt>
      <trkpt lat="43.89671" lon="3.48914">
        <ele>359</ele>
        <time>2019-04-14T12:29:44.616Z</time>
      </trkpt>
      <trkpt lat="43.89667" lon="3.48915">
        <ele>359</ele>
        <time>2019-04-14T12:29:49.595Z</time>
      </trkpt>
      <trkpt lat="43.89661" lon="3.48917">
        <ele>359</ele>
        <time>2019-04-14T12:29:53.618Z</time>
      </trkpt>
      <trkpt lat="43.89656" lon="3.48916">
        <ele>359</ele>
        <time>2019-04-14T12:29:58.585Z</time>
      </trkpt>
      <trkpt lat="43.89654" lon="3.48912">
        <ele>359</ele>
        <time>2019-04-14T12:30:02.613Z</time>
      </trkpt>
      <trkpt lat="43.89652" lon="3.48907">
        <ele>359</ele>
        <time>2019-04-14T12:30:06.625Z</time>
      </trkpt>
      <trkpt lat="43.8965" lon="3.48903">
        <ele>359</ele>
        <time>2019-04-14T12:30:11.596Z</time>
      </trkpt>
      <trkpt lat="43.89646" lon="3.48898">
        <ele>362</ele>
        <time>2019-04-14T12:30:16.585Z</time>
      </trkpt>
      <trkpt lat="43.8964" lon="3.48895">
        <ele>362</ele>
        <time>2019-04-14T12:30:21.586Z</time>
      </trkpt>
      <trkpt lat="43.89637" lon="3.48891">
        <ele>362</ele>
        <time>2019-04-14T12:30:25.592Z</time>
      </trkpt>
      <trkpt lat="43.89633" lon="3.48886">
        <ele>362</ele>
        <time>2019-04-14T12:30:29.609Z</time>
      </trkpt>
      <trkpt lat="43.8963" lon="3.48881">
        <ele>362</ele>
        <time>2019-04-14T12:30:34.612Z</time>
      </trkpt>
      <trkpt lat="43.89625" lon="3.48876">
        <ele>362</ele>
        <time>2019-04-14T12:30:39.578Z</time>
      </trkpt>
      <trkpt lat="43.8962" lon="3.48871">
        <ele>364</ele>
        <time>2019-04-14T12:30:43.601Z</time>
      </trkpt>
      <trkpt lat="43.89613" lon="3.48868">
        <ele>364</ele>
        <time>2019-04-14T12:30:48.617Z</time>
      </trkpt>
      <trkpt lat="43.89608" lon="3.48866">
        <ele>364</ele>
        <time>2019-04-14T12:30:53.621Z</time>
      </trkpt>
      <trkpt lat="43.89601" lon="3.48861">
        <ele>364</ele>
        <time>2019-04-14T12:30:58.604Z</time>
      </trkpt>
      <trkpt lat="43.89595" lon="3.48856">
        <ele>362</ele>
        <time>2019-04-14T12:31:03.605Z</time>
      </trkpt>
      <trkpt lat="43.89588" lon="3.48853">
        <ele>362</ele>
        <time>2019-04-14T12:31:08.585Z</time>
      </trkpt>
      <trkpt lat="43.89584" lon="3.4885">
        <ele>362</ele>
        <time>2019-04-14T12:31:12.616Z</time>
      </trkpt>
      <trkpt lat="43.8958" lon="3.48845">
        <ele>370</ele>
        <time>2019-04-14T12:31:17.595Z</time>
      </trkpt>
      <trkpt lat="43.89575" lon="3.48841">
        <ele>370</ele>
        <time>2019-04-14T12:31:22.619Z</time>
      </trkpt>
      <trkpt lat="43.89571" lon="3.48839">
        <ele>370</ele>
        <time>2019-04-14T12:31:27.597Z</time>
      </trkpt>
      <trkpt lat="43.89567" lon="3.48837">
        <ele>370</ele>
        <time>2019-04-14T12:31:31.614Z</time>
      </trkpt>
      <trkpt lat="43.89561" lon="3.48835">
        <ele>370</ele>
        <time>2019-04-14T12:31:36.583Z</time>
      </trkpt>
      <trkpt lat="43.89555" lon="3.48833">
        <ele>370</ele>
        <time>2019-04-14T12:31:41.619Z</time>
      </trkpt>
      <trkpt lat="43.8955" lon="3.4883">
        <ele>370</ele>
        <time>2019-04-14T12:31:46.627Z</time>
      </trkpt>
      <trkpt lat="43.89543" lon="3.48827">
        <ele>370</ele>
        <time>2019-04-14T12:31:51.624Z</time>
      </trkpt>
      <trkpt lat="43.89539" lon="3.48823">
        <ele>365</ele>
        <time>2019-04-14T12:31:56.584Z</time>
      </trkpt>
      <trkpt lat="43.89536" lon="3.4882">
        <ele>365</ele>
        <time>2019-04-14T12:32:00.615Z</time>
      </trkpt>
      <trkpt lat="43.89532" lon="3.48817">
        <ele>374</ele>
        <time>2019-04-14T12:32:05.597Z</time>
      </trkpt>
      <trkpt lat="43.89527" lon="3.48816">
        <ele>374</ele>
        <time>2019-04-14T12:32:09.626Z</time>
      </trkpt>
      <trkpt lat="43.89522" lon="3.48815">
        <ele>374</ele>
        <time>2019-04-14T12:32:14.598Z</time>
      </trkpt>
      <trkpt lat="43.89516" lon="3.48814">
        <ele>374</ele>
        <time>2019-04-14T12:32:19.614Z</time>
      </trkpt>
      <trkpt lat="43.8951" lon="3.48811">
        <ele>369</ele>
        <time>2019-04-14T12:32:24.615Z</time>
      </trkpt>
      <trkpt lat="43.89505" lon="3.48807">
        <ele>369</ele>
        <time>2019-04-14T12:32:29.592Z</time>
      </trkpt>
      <trkpt lat="43.89502" lon="3.48805">
        <ele>369</ele>
        <time>2019-04-14T12:32:33.607Z</time>
      </trkpt>
      <trkpt lat="43.89499" lon="3.48804">
        <ele>369</ele>
        <time>2019-04-14T12:32:43.586Z</time>
      </trkpt>
      <trkpt lat="43.89496" lon="3.48802">
        <ele>369</ele>
        <time>2019-04-14T12:32:47.616Z</time>
      </trkpt>
      <trkpt lat="43.89491" lon="3.48802">
        <ele>369</ele>
        <time>2019-04-14T12:32:52.613Z</time>
      </trkpt>
      <trkpt lat="43.89487" lon="3.48803">
        <ele>369</ele>
        <time>2019-04-14T12:32:57.597Z</time>
      </trkpt>
      <trkpt lat="43.89483" lon="3.48803">
        <ele>368</ele>
        <time>2019-04-14T12:33:01.621Z</time>
      </trkpt>
      <trkpt lat="43.89479" lon="3.48803">
        <ele>368</ele>
        <time>2019-04-14T12:33:06.594Z</time>
      </trkpt>
      <trkpt lat="43.89472" lon="3.48805">
        <ele>368</ele>
        <time>2019-04-14T12:33:11.622Z</time>
      </trkpt>
      <trkpt lat="43.89465" lon="3.48809">
        <ele>368</ele>
        <time>2019-04-14T12:33:16.616Z</time>
      </trkpt>
      <trkpt lat="43.89458" lon="3.48813">
        <ele>370</ele>
        <time>2019-04-14T12:33:21.618Z</time>
      </trkpt>
      <trkpt lat="43.89453" lon="3.48814">
        <ele>370</ele>
        <time>2019-04-14T12:33:26.597Z</time>
      </trkpt>
      <trkpt lat="43.89449" lon="3.48817">
        <ele>370</ele>
        <time>2019-04-14T12:33:30.623Z</time>
      </trkpt>
      <trkpt lat="43.89443" lon="3.48819">
        <ele>370</ele>
        <time>2019-04-14T12:33:35.591Z</time>
      </trkpt>
      <trkpt lat="43.89439" lon="3.48818">
        <ele>370</ele>
        <time>2019-04-14T12:33:39.618Z</time>
      </trkpt>
      <trkpt lat="43.89434" lon="3.4882">
        <ele>361</ele>
        <time>2019-04-14T12:33:44.617Z</time>
      </trkpt>
      <trkpt lat="43.89431" lon="3.48824">
        <ele>361</ele>
        <time>2019-04-14T12:33:49.618Z</time>
      </trkpt>
      <trkpt lat="43.89425" lon="3.48828">
        <ele>370</ele>
        <time>2019-04-14T12:33:54.595Z</time>
      </trkpt>
      <trkpt lat="43.89421" lon="3.48833">
        <ele>370</ele>
        <time>2019-04-14T12:33:59.615Z</time>
      </trkpt>
      <trkpt lat="43.89417" lon="3.4884">
        <ele>370</ele>
        <time>2019-04-14T12:34:04.584Z</time>
      </trkpt>
      <trkpt lat="43.89414" lon="3.48843">
        <ele>370</ele>
        <time>2019-04-14T12:34:08.614Z</time>
      </trkpt>
      <trkpt lat="43.89411" lon="3.48848">
        <ele>362</ele>
        <time>2019-04-14T12:34:13.616Z</time>
      </trkpt>
      <trkpt lat="43.89409" lon="3.48856">
        <ele>362</ele>
        <time>2019-04-14T12:34:18.616Z</time>
      </trkpt>
      <trkpt lat="43.89408" lon="3.4886">
        <ele>362</ele>
        <time>2019-04-14T12:34:23.622Z</time>
      </trkpt>
      <trkpt lat="43.89404" lon="3.48867">
        <ele>362</ele>
        <time>2019-04-14T12:34:28.615Z</time>
      </trkpt>
      <trkpt lat="43.894" lon="3.48873">
        <ele>374</ele>
        <time>2019-04-14T12:34:33.616Z</time>
      </trkpt>
      <trkpt lat="43.89397" lon="3.48879">
        <ele>365</ele>
        <time>2019-04-14T12:34:38.618Z</time>
      </trkpt>
      <trkpt lat="43.89394" lon="3.48885">
        <ele>365</ele>
        <time>2019-04-14T12:34:43.591Z</time>
      </trkpt>
      <trkpt lat="43.89393" lon="3.48891">
        <ele>365</ele>
        <time>2019-04-14T12:34:48.614Z</time>
      </trkpt>
      <trkpt lat="43.8939" lon="3.48896">
        <ele>365</ele>
        <time>2019-04-14T12:34:53.596Z</time>
      </trkpt>
      <trkpt lat="43.89388" lon="3.48904">
        <ele>359</ele>
        <time>2019-04-14T12:34:58.605Z</time>
      </trkpt>
      <trkpt lat="43.89387" lon="3.48911">
        <ele>359</ele>
        <time>2019-04-14T12:35:03.581Z</time>
      </trkpt>
      <trkpt lat="43.89385" lon="3.48916">
        <ele>359</ele>
        <time>2019-04-14T12:35:07.616Z</time>
      </trkpt>
      <trkpt lat="43.89384" lon="3.48926">
        <ele>359</ele>
        <time>2019-04-14T12:35:12.586Z</time>
      </trkpt>
      <trkpt lat="43.89383" lon="3.48932">
        <ele>358</ele>
        <time>2019-04-14T12:35:16.617Z</time>
      </trkpt>
      <trkpt lat="43.89381" lon="3.4894">
        <ele>358</ele>
        <time>2019-04-14T12:35:21.605Z</time>
      </trkpt>
      <trkpt lat="43.89379" lon="3.48948">
        <ele>358</ele>
        <time>2019-04-14T12:35:26.617Z</time>
      </trkpt>
      <trkpt lat="43.89378" lon="3.48955">
        <ele>358</ele>
        <time>2019-04-14T12:35:31.622Z</time>
      </trkpt>
      <trkpt lat="43.89379" lon="3.48962">
        <ele>358</ele>
        <time>2019-04-14T12:35:36.621Z</time>
      </trkpt>
      <trkpt lat="43.89378" lon="3.48971">
        <ele>358</ele>
        <time>2019-04-14T12:35:41.599Z</time>
      </trkpt>
      <trkpt lat="43.89378" lon="3.48979">
        <ele>358</ele>
        <time>2019-04-14T12:35:46.596Z</time>
      </trkpt>
      <trkpt lat="43.89378" lon="3.48985">
        <ele>358</ele>
        <time>2019-04-14T12:35:50.616Z</time>
      </trkpt>
      <trkpt lat="43.89378" lon="3.48992">
        <ele>358</ele>
        <time>2019-04-14T12:35:55.625Z</time>
      </trkpt>
      <trkpt lat="43.89378" lon="3.49">
        <ele>358</ele>
        <time>2019-04-14T12:36:00.620Z</time>
      </trkpt>
      <trkpt lat="43.89378" lon="3.49008">
        <ele>358</ele>
        <time>2019-04-14T12:36:05.595Z</time>
      </trkpt>
      <trkpt lat="43.89377" lon="3.49014">
        <ele>358</ele>
        <time>2019-04-14T12:36:09.617Z</time>
      </trkpt>
      <trkpt lat="43.89379" lon="3.49023">
        <ele>358</ele>
        <time>2019-04-14T12:36:14.601Z</time>
      </trkpt>
      <trkpt lat="43.89379" lon="3.49029">
        <ele>358</ele>
        <time>2019-04-14T12:36:19.614Z</time>
      </trkpt>
      <trkpt lat="43.89377" lon="3.49038">
        <ele>358</ele>
        <time>2019-04-14T12:36:24.616Z</time>
      </trkpt>
      <trkpt lat="43.8938" lon="3.49046">
        <ele>358</ele>
        <time>2019-04-14T12:36:29.594Z</time>
      </trkpt>
      <trkpt lat="43.89383" lon="3.49052">
        <ele>358</ele>
        <time>2019-04-14T12:36:33.617Z</time>
      </trkpt>
      <trkpt lat="43.89384" lon="3.49059">
        <ele>358</ele>
        <time>2019-04-14T12:36:38.598Z</time>
      </trkpt>
      <trkpt lat="43.89385" lon="3.49065">
        <ele>358</ele>
        <time>2019-04-14T12:36:42.615Z</time>
      </trkpt>
      <trkpt lat="43.89384" lon="3.49073">
        <ele>359</ele>
        <time>2019-04-14T12:36:47.618Z</time>
      </trkpt>
      <trkpt lat="43.89384" lon="3.49081">
        <ele>359</ele>
        <time>2019-04-14T12:36:52.583Z</time>
      </trkpt>
      <trkpt lat="43.89385" lon="3.49087">
        <ele>359</ele>
        <time>2019-04-14T12:36:57.623Z</time>
      </trkpt>
      <trkpt lat="43.89386" lon="3.49095">
        <ele>359</ele>
        <time>2019-04-14T12:37:02.587Z</time>
      </trkpt>
      <trkpt lat="43.89389" lon="3.49103">
        <ele>357</ele>
        <time>2019-04-14T12:37:07.617Z</time>
      </trkpt>
      <trkpt lat="43.89392" lon="3.4911">
        <ele>357</ele>
        <time>2019-04-14T12:37:12.615Z</time>
      </trkpt>
      <trkpt lat="43.89391" lon="3.49117">
        <ele>357</ele>
        <time>2019-04-14T12:37:17.617Z</time>
      </trkpt>
      <trkpt lat="43.89392" lon="3.49123">
        <ele>357</ele>
        <time>2019-04-14T12:37:22.593Z</time>
      </trkpt>
      <trkpt lat="43.89394" lon="3.49131">
        <ele>356</ele>
        <time>2019-04-14T12:37:27.594Z</time>
      </trkpt>
      <trkpt lat="43.89394" lon="3.49136">
        <ele>356</ele>
        <time>2019-04-14T12:37:31.627Z</time>
      </trkpt>
      <trkpt lat="43.89395" lon="3.49145">
        <ele>356</ele>
        <time>2019-04-14T12:37:36.617Z</time>
      </trkpt>
      <trkpt lat="43.89394" lon="3.49155">
        <ele>357</ele>
        <time>2019-04-14T12:37:41.614Z</time>
      </trkpt>
      <trkpt lat="43.89393" lon="3.49163">
        <ele>357</ele>
        <time>2019-04-14T12:37:46.608Z</time>
      </trkpt>
      <trkpt lat="43.89392" lon="3.49169">
        <ele>357</ele>
        <time>2019-04-14T12:37:51.598Z</time>
      </trkpt>
      <trkpt lat="43.89393" lon="3.49177">
        <ele>357</ele>
        <time>2019-04-14T12:37:56.616Z</time>
      </trkpt>
      <trkpt lat="43.89396" lon="3.49182">
        <ele>357</ele>
        <time>2019-04-14T12:38:01.585Z</time>
      </trkpt>
      <trkpt lat="43.89397" lon="3.49185">
        <ele>357</ele>
        <time>2019-04-14T12:38:05.615Z</time>
      </trkpt>
      <trkpt lat="43.89396" lon="3.49194">
        <ele>357</ele>
        <time>2019-04-14T12:38:10.622Z</time>
      </trkpt>
      <trkpt lat="43.89398" lon="3.49204">
        <ele>357</ele>
        <time>2019-04-14T12:38:15.624Z</time>
      </trkpt>
      <trkpt lat="43.89401" lon="3.49212">
        <ele>360</ele>
        <time>2019-04-14T12:38:20.585Z</time>
      </trkpt>
      <trkpt lat="43.894" lon="3.49217">
        <ele>360</ele>
        <time>2019-04-14T12:38:25.625Z</time>
      </trkpt>
      <trkpt lat="43.89402" lon="3.49221">
        <ele>360</ele>
        <time>2019-04-14T12:38:45.579Z</time>
      </trkpt>
      <trkpt lat="43.89401" lon="3.49229">
        <ele>360</ele>
        <time>2019-04-14T12:38:50.584Z</time>
      </trkpt>
      <trkpt lat="43.89399" lon="3.49236">
        <ele>360</ele>
        <time>2019-04-14T12:38:55.594Z</time>
      </trkpt>
      <trkpt lat="43.89399" lon="3.49242">
        <ele>362</ele>
        <time>2019-04-14T12:39:00.584Z</time>
      </trkpt>
      <trkpt lat="43.89398" lon="3.4925">
        <ele>362</ele>
        <time>2019-04-14T12:39:05.595Z</time>
      </trkpt>
      <trkpt lat="43.89398" lon="3.49257">
        <ele>362</ele>
        <time>2019-04-14T12:39:09.598Z</time>
      </trkpt>
      <trkpt lat="43.89399" lon="3.49267">
        <ele>360</ele>
        <time>2019-04-14T12:39:14.585Z</time>
      </trkpt>
      <trkpt lat="43.894" lon="3.49274">
        <ele>360</ele>
        <time>2019-04-14T12:39:19.586Z</time>
      </trkpt>
      <trkpt lat="43.894" lon="3.49278">
        <ele>360</ele>
        <time>2019-04-14T12:39:23.600Z</time>
      </trkpt>
      <trkpt lat="43.89398" lon="3.49286">
        <ele>360</ele>
        <time>2019-04-14T12:39:28.586Z</time>
      </trkpt>
      <trkpt lat="43.89398" lon="3.49287">
        <ele>360</ele>
        <time>2019-04-14T12:39:33.595Z</time>
      </trkpt>
      <trkpt lat="43.89397" lon="3.49291">
        <ele>360</ele>
        <time>2019-04-14T12:39:38.586Z</time>
      </trkpt>
      <trkpt lat="43.89395" lon="3.49296">
        <ele>358</ele>
        <time>2019-04-14T12:39:42.602Z</time>
      </trkpt>
      <trkpt lat="43.89396" lon="3.49301">
        <ele>358</ele>
        <time>2019-04-14T12:39:46.618Z</time>
      </trkpt>
      <trkpt lat="43.89397" lon="3.49308">
        <ele>358</ele>
        <time>2019-04-14T12:39:51.624Z</time>
      </trkpt>
      <trkpt lat="43.89397" lon="3.49316">
        <ele>358</ele>
        <time>2019-04-14T12:39:56.614Z</time>
      </trkpt>
      <trkpt lat="43.89396" lon="3.49328">
        <ele>356</ele>
        <time>2019-04-14T12:40:06.595Z</time>
      </trkpt>
      <trkpt lat="43.89399" lon="3.49332">
        <ele>356</ele>
        <time>2019-04-14T12:40:10.617Z</time>
      </trkpt>
      <trkpt lat="43.894" lon="3.49334">
        <ele>356</ele>
        <time>2019-04-14T12:40:14.620Z</time>
      </trkpt>
      <trkpt lat="43.894" lon="3.49334">
        <ele>356</ele>
        <time>2019-04-14T12:40:29.577Z</time>
      </trkpt>
      <trkpt lat="43.89398" lon="3.49337">
        <ele>356</ele>
        <time>2019-04-14T12:40:35.599Z</time>
      </trkpt>
      <trkpt lat="43.89397" lon="3.49343">
        <ele>356</ele>
        <time>2019-04-14T12:40:40.580Z</time>
      </trkpt>
      <trkpt lat="43.89395" lon="3.49344">
        <ele>356</ele>
        <time>2019-04-14T12:40:44.618Z</time>
      </trkpt>
      <trkpt lat="43.89391" lon="3.49348">
        <ele>355</ele>
        <time>2019-04-14T12:40:49.601Z</time>
      </trkpt>
      <trkpt lat="43.89387" lon="3.49352">
        <ele>355</ele>
        <time>2019-04-14T12:40:53.621Z</time>
      </trkpt>
      <trkpt lat="43.89384" lon="3.49355">
        <ele>355</ele>
        <time>2019-04-14T12:40:58.583Z</time>
      </trkpt>
      <trkpt lat="43.8938" lon="3.49358">
        <ele>355</ele>
        <time>2019-04-14T12:41:02.615Z</time>
      </trkpt>
      <trkpt lat="43.89376" lon="3.49364">
        <ele>355</ele>
        <time>2019-04-14T12:41:07.616Z</time>
      </trkpt>
      <trkpt lat="43.89373" lon="3.49369">
        <ele>353</ele>
        <time>2019-04-14T12:41:12.583Z</time>
      </trkpt>
      <trkpt lat="43.89369" lon="3.49372">
        <ele>353</ele>
        <time>2019-04-14T12:41:17.601Z</time>
      </trkpt>
      <trkpt lat="43.89363" lon="3.49373">
        <ele>353</ele>
        <time>2019-04-14T12:41:21.616Z</time>
      </trkpt>
      <trkpt lat="43.89357" lon="3.49374">
        <ele>353</ele>
        <time>2019-04-14T12:41:26.614Z</time>
      </trkpt>
      <trkpt lat="43.89351" lon="3.49374">
        <ele>353</ele>
        <time>2019-04-14T12:41:31.599Z</time>
      </trkpt>
      <trkpt lat="43.89347" lon="3.49373">
        <ele>350</ele>
        <time>2019-04-14T12:41:35.620Z</time>
      </trkpt>
      <trkpt lat="43.89341" lon="3.49372">
        <ele>350</ele>
        <time>2019-04-14T12:41:40.615Z</time>
      </trkpt>
      <trkpt lat="43.89335" lon="3.4937">
        <ele>350</ele>
        <time>2019-04-14T12:41:45.585Z</time>
      </trkpt>
      <trkpt lat="43.89333" lon="3.49366">
        <ele>350</ele>
        <time>2019-04-14T12:41:49.604Z</time>
      </trkpt>
      <trkpt lat="43.89331" lon="3.49364">
        <ele>350</ele>
        <time>2019-04-14T12:41:54.596Z</time>
      </trkpt>
      <trkpt lat="43.89328" lon="3.4936">
        <ele>350</ele>
        <time>2019-04-14T12:41:59.586Z</time>
      </trkpt>
      <trkpt lat="43.89329" lon="3.49354">
        <ele>350</ele>
        <time>2019-04-14T12:42:03.601Z</time>
      </trkpt>
      <trkpt lat="43.89328" lon="3.49348">
        <ele>350</ele>
        <time>2019-04-14T12:42:08.587Z</time>
      </trkpt>
      <trkpt lat="43.89327" lon="3.4934">
        <ele>352</ele>
        <time>2019-04-14T12:42:13.617Z</time>
      </trkpt>
      <trkpt lat="43.89324" lon="3.49333">
        <ele>352</ele>
        <time>2019-04-14T12:42:18.594Z</time>
      </trkpt>
      <trkpt lat="43.89323" lon="3.49327">
        <ele>352</ele>
        <time>2019-04-14T12:42:22.635Z</time>
      </trkpt>
      <trkpt lat="43.89321" lon="3.49322">
        <ele>352</ele>
        <time>2019-04-14T12:42:27.595Z</time>
      </trkpt>
      <trkpt lat="43.89319" lon="3.49316">
        <ele>352</ele>
        <time>2019-04-14T12:42:31.616Z</time>
      </trkpt>
      <trkpt lat="43.89317" lon="3.49308">
        <ele>352</ele>
        <time>2019-04-14T12:42:36.622Z</time>
      </trkpt>
      <trkpt lat="43.89313" lon="3.493">
        <ele>352</ele>
        <time>2019-04-14T12:42:41.615Z</time>
      </trkpt>
      <trkpt lat="43.89312" lon="3.49295">
        <ele>352</ele>
        <time>2019-04-14T12:42:46.614Z</time>
      </trkpt>
      <trkpt lat="43.8931" lon="3.49288">
        <ele>354</ele>
        <time>2019-04-14T12:42:51.596Z</time>
      </trkpt>
      <trkpt lat="43.89308" lon="3.49281">
        <ele>354</ele>
        <time>2019-04-14T12:42:55.615Z</time>
      </trkpt>
      <trkpt lat="43.89306" lon="3.49274">
        <ele>354</ele>
        <time>2019-04-14T12:43:00.583Z</time>
      </trkpt>
      <trkpt lat="43.89304" lon="3.49264">
        <ele>354</ele>
        <time>2019-04-14T12:43:05.621Z</time>
      </trkpt>
      <trkpt lat="43.89303" lon="3.49256">
        <ele>357</ele>
        <time>2019-04-14T12:43:10.595Z</time>
      </trkpt>
      <trkpt lat="43.89301" lon="3.49247">
        <ele>357</ele>
        <time>2019-04-14T12:43:15.597Z</time>
      </trkpt>
      <trkpt lat="43.893" lon="3.49241">
        <ele>357</ele>
        <time>2019-04-14T12:43:20.614Z</time>
      </trkpt>
      <trkpt lat="43.89299" lon="3.49239">
        <ele>357</ele>
        <time>2019-04-14T12:43:25.617Z</time>
      </trkpt>
      <trkpt lat="43.89298" lon="3.49236">
        <ele>357</ele>
        <time>2019-04-14T12:43:30.584Z</time>
      </trkpt>
      <trkpt lat="43.89298" lon="3.49234">
        <ele>361</ele>
        <time>2019-04-14T12:43:50.577Z</time>
      </trkpt>
      <trkpt lat="43.89296" lon="3.4923">
        <ele>361</ele>
        <time>2019-04-14T12:43:55.588Z</time>
      </trkpt>
      <trkpt lat="43.89294" lon="3.49225">
        <ele>361</ele>
        <time>2019-04-14T12:44:00.584Z</time>
      </trkpt>
      <trkpt lat="43.89292" lon="3.4922">
        <ele>361</ele>
        <time>2019-04-14T12:44:05.626Z</time>
      </trkpt>
      <trkpt lat="43.89291" lon="3.49218">
        <ele>357</ele>
        <time>2019-04-14T12:44:10.594Z</time>
      </trkpt>
      <trkpt lat="43.89289" lon="3.49212">
        <ele>357</ele>
        <time>2019-04-14T12:44:14.615Z</time>
      </trkpt>
      <trkpt lat="43.89286" lon="3.49203">
        <ele>358</ele>
        <time>2019-04-14T12:44:19.587Z</time>
      </trkpt>
      <trkpt lat="43.89283" lon="3.49195">
        <ele>358</ele>
        <time>2019-04-14T12:44:24.584Z</time>
      </trkpt>
      <trkpt lat="43.89279" lon="3.49188">
        <ele>358</ele>
        <time>2019-04-14T12:44:29.631Z</time>
      </trkpt>
      <trkpt lat="43.89275" lon="3.49183">
        <ele>358</ele>
        <time>2019-04-14T12:44:34.618Z</time>
      </trkpt>
      <trkpt lat="43.8927" lon="3.49176">
        <ele>364</ele>
        <time>2019-04-14T12:44:38.629Z</time>
      </trkpt>
      <trkpt lat="43.89266" lon="3.4917">
        <ele>364</ele>
        <time>2019-04-14T12:44:43.591Z</time>
      </trkpt>
      <trkpt lat="43.89263" lon="3.49165">
        <ele>354</ele>
        <time>2019-04-14T12:44:47.616Z</time>
      </trkpt>
      <trkpt lat="43.8926" lon="3.4916">
        <ele>354</ele>
        <time>2019-04-14T12:44:52.615Z</time>
      </trkpt>
      <trkpt lat="43.89259" lon="3.4916">
        <ele>354</ele>
        <time>2019-04-14T12:44:57.614Z</time>
      </trkpt>
      <trkpt lat="43.89253" lon="3.49157">
        <ele>354</ele>
        <time>2019-04-14T12:45:01.630Z</time>
      </trkpt>
      <trkpt lat="43.89248" lon="3.49151">
        <ele>367</ele>
        <time>2019-04-14T12:45:06.590Z</time>
      </trkpt>
      <trkpt lat="43.89244" lon="3.49147">
        <ele>367</ele>
        <time>2019-04-14T12:45:11.586Z</time>
      </trkpt>
      <trkpt lat="43.89239" lon="3.49144">
        <ele>367</ele>
        <time>2019-04-14T12:45:16.585Z</time>
      </trkpt>
      <trkpt lat="43.89238" lon="3.49144">
        <ele>367</ele>
        <time>2019-04-14T12:45:20.615Z</time>
      </trkpt>
      <trkpt lat="43.89232" lon="3.49141">
        <ele>358</ele>
        <time>2019-04-14T12:45:25.587Z</time>
      </trkpt>
      <trkpt lat="43.89226" lon="3.4914">
        <ele>358</ele>
        <time>2019-04-14T12:45:30.587Z</time>
      </trkpt>
      <trkpt lat="43.89222" lon="3.49138">
        <ele>358</ele>
        <time>2019-04-14T12:45:34.608Z</time>
      </trkpt>
      <trkpt lat="43.89218" lon="3.49136">
        <ele>358</ele>
        <time>2019-04-14T12:45:39.593Z</time>
      </trkpt>
      <trkpt lat="43.89214" lon="3.49131">
        <ele>358</ele>
        <time>2019-04-14T12:45:44.585Z</time>
      </trkpt>
      <trkpt lat="43.8921" lon="3.49129">
        <ele>358</ele>
        <time>2019-04-14T12:45:49.587Z</time>
      </trkpt>
      <trkpt lat="43.89205" lon="3.49128">
        <ele>355</ele>
        <time>2019-04-14T12:45:53.597Z</time>
      </trkpt>
      <trkpt lat="43.892" lon="3.49126">
        <ele>355</ele>
        <time>2019-04-14T12:46:03.592Z</time>
      </trkpt>
      <trkpt lat="43.89195" lon="3.49122">
        <ele>366</ele>
        <time>2019-04-14T12:46:08.587Z</time>
      </trkpt>
      <trkpt lat="43.89189" lon="3.4912">
        <ele>366</ele>
        <time>2019-04-14T12:46:13.588Z</time>
      </trkpt>
      <trkpt lat="43.89186" lon="3.4912">
        <ele>366</ele>
        <time>2019-04-14T12:46:17.626Z</time>
      </trkpt>
      <trkpt lat="43.89179" lon="3.49121">
        <ele>363</ele>
        <time>2019-04-14T12:46:22.583Z</time>
      </trkpt>
      <trkpt lat="43.89179" lon="3.49121">
        <ele>363</ele>
        <time>2019-04-14T12:46:26.598Z</time>
      </trkpt>
      <trkpt lat="43.89167" lon="3.4912">
        <ele>363</ele>
        <time>2019-04-14T12:46:35.617Z</time>
      </trkpt>
      <trkpt lat="43.89155" lon="3.49121">
        <ele>363</ele>
        <time>2019-04-14T12:46:40.614Z</time>
      </trkpt>
      <trkpt lat="43.89147" lon="3.49124">
        <ele>359</ele>
        <time>2019-04-14T12:46:45.595Z</time>
      </trkpt>
      <trkpt lat="43.89141" lon="3.49122">
        <ele>359</ele>
        <time>2019-04-14T12:46:49.614Z</time>
      </trkpt>
      <trkpt lat="43.89135" lon="3.49124">
        <ele>359</ele>
        <time>2019-04-14T12:46:54.589Z</time>
      </trkpt>
      <trkpt lat="43.89132" lon="3.49128">
        <ele>354</ele>
        <time>2019-04-14T12:46:58.614Z</time>
      </trkpt>
      <trkpt lat="43.89127" lon="3.49131">
        <ele>354</ele>
        <time>2019-04-14T12:47:03.620Z</time>
      </trkpt>
      <trkpt lat="43.89123" lon="3.49132">
        <ele>357</ele>
        <time>2019-04-14T12:47:08.614Z</time>
      </trkpt>
      <trkpt lat="43.89119" lon="3.49135">
        <ele>357</ele>
        <time>2019-04-14T12:47:13.618Z</time>
      </trkpt>
      <trkpt lat="43.89114" lon="3.49136">
        <ele>357</ele>
        <time>2019-04-14T12:47:18.615Z</time>
      </trkpt>
      <trkpt lat="43.89111" lon="3.4914">
        <ele>357</ele>
        <time>2019-04-14T12:47:23.598Z</time>
      </trkpt>
      <trkpt lat="43.89108" lon="3.49143">
        <ele>357</ele>
        <time>2019-04-14T12:47:28.587Z</time>
      </trkpt>
      <trkpt lat="43.89104" lon="3.49147">
        <ele>357</ele>
        <time>2019-04-14T12:47:33.599Z</time>
      </trkpt>
      <trkpt lat="43.89101" lon="3.49153">
        <ele>355</ele>
        <time>2019-04-14T12:47:38.589Z</time>
      </trkpt>
      <trkpt lat="43.89098" lon="3.49159">
        <ele>355</ele>
        <time>2019-04-14T12:47:43.593Z</time>
      </trkpt>
      <trkpt lat="43.89096" lon="3.49165">
        <ele>364</ele>
        <time>2019-04-14T12:47:56.615Z</time>
      </trkpt>
      <trkpt lat="43.89094" lon="3.49174">
        <ele>364</ele>
        <time>2019-04-14T12:48:01.596Z</time>
      </trkpt>
      <trkpt lat="43.8909" lon="3.49182">
        <ele>362</ele>
        <time>2019-04-14T12:48:06.593Z</time>
      </trkpt>
      <trkpt lat="43.8909" lon="3.49183">
        <ele>362</ele>
        <time>2019-04-14T12:48:11.578Z</time>
      </trkpt>
      <trkpt lat="43.8909" lon="3.49188">
        <ele>362</ele>
        <time>2019-04-14T12:48:20.589Z</time>
      </trkpt>
      <trkpt lat="43.89088" lon="3.49197">
        <ele>362</ele>
        <time>2019-04-14T12:48:25.579Z</time>
      </trkpt>
      <trkpt lat="43.89087" lon="3.49202">
        <ele>362</ele>
        <time>2019-04-14T12:48:30.585Z</time>
      </trkpt>
      <trkpt lat="43.89085" lon="3.49206">
        <ele>362</ele>
        <time>2019-04-14T12:48:34.627Z</time>
      </trkpt>
      <trkpt lat="43.89083" lon="3.49213">
        <ele>362</ele>
        <time>2019-04-14T12:48:39.585Z</time>
      </trkpt>
      <trkpt lat="43.89083" lon="3.49223">
        <ele>362</ele>
        <time>2019-04-14T12:48:44.584Z</time>
      </trkpt>
      <trkpt lat="43.89084" lon="3.49231">
        <ele>362</ele>
        <time>2019-04-14T12:48:49.587Z</time>
      </trkpt>
      <trkpt lat="43.89084" lon="3.49239">
        <ele>355</ele>
        <time>2019-04-14T12:48:53.601Z</time>
      </trkpt>
      <trkpt lat="43.89082" lon="3.49248">
        <ele>355</ele>
        <time>2019-04-14T12:48:58.598Z</time>
      </trkpt>
      <trkpt lat="43.89084" lon="3.49257">
        <ele>355</ele>
        <time>2019-04-14T12:49:03.588Z</time>
      </trkpt>
      <trkpt lat="43.89084" lon="3.49264">
        <ele>357</ele>
        <time>2019-04-14T12:49:08.615Z</time>
      </trkpt>
      <trkpt lat="43.89085" lon="3.49272">
        <ele>357</ele>
        <time>2019-04-14T12:49:13.596Z</time>
      </trkpt>
      <trkpt lat="43.89087" lon="3.49277">
        <ele>357</ele>
        <time>2019-04-14T12:49:17.619Z</time>
      </trkpt>
      <trkpt lat="43.8909" lon="3.49285">
        <ele>357</ele>
        <time>2019-04-14T12:49:22.599Z</time>
      </trkpt>
      <trkpt lat="43.89094" lon="3.49294">
        <ele>357</ele>
        <time>2019-04-14T12:49:27.586Z</time>
      </trkpt>
      <trkpt lat="43.89094" lon="3.49301">
        <ele>357</ele>
        <time>2019-04-14T12:49:31.617Z</time>
      </trkpt>
      <trkpt lat="43.89095" lon="3.49308">
        <ele>357</ele>
        <time>2019-04-14T12:49:36.614Z</time>
      </trkpt>
      <trkpt lat="43.89096" lon="3.49314">
        <ele>357</ele>
        <time>2019-04-14T12:49:41.630Z</time>
      </trkpt>
      <trkpt lat="43.89098" lon="3.49319">
        <ele>350</ele>
        <time>2019-04-14T12:49:46.616Z</time>
      </trkpt>
      <trkpt lat="43.89101" lon="3.49328">
        <ele>350</ele>
        <time>2019-04-14T12:49:51.588Z</time>
      </trkpt>
      <trkpt lat="43.89102" lon="3.49334">
        <ele>350</ele>
        <time>2019-04-14T12:49:55.624Z</time>
      </trkpt>
      <trkpt lat="43.89105" lon="3.49341">
        <ele>350</ele>
        <time>2019-04-14T12:50:00.587Z</time>
      </trkpt>
      <trkpt lat="43.89105" lon="3.49348">
        <ele>350</ele>
        <time>2019-04-14T12:50:05.585Z</time>
      </trkpt>
      <trkpt lat="43.89106" lon="3.49353">
        <ele>350</ele>
        <time>2019-04-14T12:50:09.618Z</time>
      </trkpt>
      <trkpt lat="43.89106" lon="3.49359">
        <ele>350</ele>
        <time>2019-04-14T12:50:14.586Z</time>
      </trkpt>
      <trkpt lat="43.89106" lon="3.49365">
        <ele>350</ele>
        <time>2019-04-14T12:50:18.622Z</time>
      </trkpt>
      <trkpt lat="43.89106" lon="3.49373">
        <ele>350</ele>
        <time>2019-04-14T12:50:23.599Z</time>
      </trkpt>
      <trkpt lat="43.89104" lon="3.49381">
        <ele>350</ele>
        <time>2019-04-14T12:50:28.616Z</time>
      </trkpt>
      <trkpt lat="43.89103" lon="3.49385">
        <ele>350</ele>
        <time>2019-04-14T12:50:32.616Z</time>
      </trkpt>
      <trkpt lat="43.891" lon="3.49393">
        <ele>350</ele>
        <time>2019-04-14T12:50:37.616Z</time>
      </trkpt>
      <trkpt lat="43.89096" lon="3.49399">
        <ele>353</ele>
        <time>2019-04-14T12:50:42.616Z</time>
      </trkpt>
      <trkpt lat="43.89093" lon="3.49407">
        <ele>351</ele>
        <time>2019-04-14T12:50:47.585Z</time>
      </trkpt>
      <trkpt lat="43.8909" lon="3.49413">
        <ele>351</ele>
        <time>2019-04-14T12:50:51.627Z</time>
      </trkpt>
      <trkpt lat="43.89087" lon="3.49418">
        <ele>351</ele>
        <time>2019-04-14T12:50:56.586Z</time>
      </trkpt>
      <trkpt lat="43.89083" lon="3.49425">
        <ele>351</ele>
        <time>2019-04-14T12:51:01.599Z</time>
      </trkpt>
      <trkpt lat="43.8908" lon="3.49431">
        <ele>351</ele>
        <time>2019-04-14T12:51:06.597Z</time>
      </trkpt>
      <trkpt lat="43.89077" lon="3.49434">
        <ele>351</ele>
        <time>2019-04-14T12:51:10.621Z</time>
      </trkpt>
      <trkpt lat="43.8907" lon="3.49439">
        <ele>351</ele>
        <time>2019-04-14T12:51:15.599Z</time>
      </trkpt>
      <trkpt lat="43.89066" lon="3.49444">
        <ele>352</ele>
        <time>2019-04-14T12:51:19.619Z</time>
      </trkpt>
      <trkpt lat="43.89063" lon="3.4945">
        <ele>352</ele>
        <time>2019-04-14T12:51:24.587Z</time>
      </trkpt>
      <trkpt lat="43.89061" lon="3.49457">
        <ele>352</ele>
        <time>2019-04-14T12:51:29.585Z</time>
      </trkpt>
      <trkpt lat="43.89059" lon="3.49463">
        <ele>349</ele>
        <time>2019-04-14T12:51:33.619Z</time>
      </trkpt>
      <trkpt lat="43.89055" lon="3.49466">
        <ele>349</ele>
        <time>2019-04-14T12:51:38.615Z</time>
      </trkpt>
      <trkpt lat="43.89053" lon="3.49469">
        <ele>349</ele>
        <time>2019-04-14T12:51:43.599Z</time>
      </trkpt>
      <trkpt lat="43.89047" lon="3.49477">
        <ele>349</ele>
        <time>2019-04-14T12:51:53.588Z</time>
      </trkpt>
      <trkpt lat="43.89041" lon="3.49482">
        <ele>349</ele>
        <time>2019-04-14T12:52:02.591Z</time>
      </trkpt>
      <trkpt lat="43.8904" lon="3.49484">
        <ele>349</ele>
        <time>2019-04-14T12:52:20.577Z</time>
      </trkpt>
      <trkpt lat="43.89031" lon="3.49492">
        <ele>350</ele>
        <time>2019-04-14T12:52:25.588Z</time>
      </trkpt>
      <trkpt lat="43.89025" lon="3.49493">
        <ele>350</ele>
        <time>2019-04-14T12:52:29.618Z</time>
      </trkpt>
      <trkpt lat="43.89019" lon="3.49494">
        <ele>350</ele>
        <time>2019-04-14T12:52:34.620Z</time>
      </trkpt>
      <trkpt lat="43.89014" lon="3.49498">
        <ele>351</ele>
        <time>2019-04-14T12:52:39.618Z</time>
      </trkpt>
      <trkpt lat="43.89008" lon="3.495">
        <ele>351</ele>
        <time>2019-04-14T12:52:44.619Z</time>
      </trkpt>
      <trkpt lat="43.89004" lon="3.495">
        <ele>351</ele>
        <time>2019-04-14T12:52:49.632Z</time>
      </trkpt>
      <trkpt lat="43.88996" lon="3.49501">
        <ele>351</ele>
        <time>2019-04-14T12:52:54.587Z</time>
      </trkpt>
      <trkpt lat="43.88993" lon="3.49504">
        <ele>351</ele>
        <time>2019-04-14T12:52:58.596Z</time>
      </trkpt>
      <trkpt lat="43.88985" lon="3.49506">
        <ele>352</ele>
        <time>2019-04-14T12:53:03.608Z</time>
      </trkpt>
      <trkpt lat="43.8898" lon="3.49508">
        <ele>352</ele>
        <time>2019-04-14T12:53:08.615Z</time>
      </trkpt>
      <trkpt lat="43.88976" lon="3.49508">
        <ele>352</ele>
        <time>2019-04-14T12:53:13.589Z</time>
      </trkpt>
      <trkpt lat="43.88973" lon="3.49509">
        <ele>352</ele>
        <time>2019-04-14T12:53:17.616Z</time>
      </trkpt>
      <trkpt lat="43.88967" lon="3.49511">
        <ele>352</ele>
        <time>2019-04-14T12:53:22.596Z</time>
      </trkpt>
      <trkpt lat="43.88963" lon="3.49513">
        <ele>352</ele>
        <time>2019-04-14T12:53:27.585Z</time>
      </trkpt>
      <trkpt lat="43.88959" lon="3.49515">
        <ele>346</ele>
        <time>2019-04-14T12:53:31.594Z</time>
      </trkpt>
      <trkpt lat="43.88956" lon="3.49517">
        <ele>349</ele>
        <time>2019-04-14T12:53:35.621Z</time>
      </trkpt>
      <trkpt lat="43.88953" lon="3.49521">
        <ele>349</ele>
        <time>2019-04-14T12:53:40.585Z</time>
      </trkpt>
      <trkpt lat="43.88951" lon="3.49523">
        <ele>349</ele>
        <time>2019-04-14T12:53:45.595Z</time>
      </trkpt>
      <trkpt lat="43.88947" lon="3.49526">
        <ele>349</ele>
        <time>2019-04-14T12:53:50.597Z</time>
      </trkpt>
      <trkpt lat="43.88943" lon="3.49529">
        <ele>349</ele>
        <time>2019-04-14T12:53:54.615Z</time>
      </trkpt>
      <trkpt lat="43.88938" lon="3.4953">
        <ele>349</ele>
        <time>2019-04-14T12:53:59.597Z</time>
      </trkpt>
      <trkpt lat="43.88932" lon="3.49533">
        <ele>349</ele>
        <time>2019-04-14T12:54:04.588Z</time>
      </trkpt>
      <trkpt lat="43.88926" lon="3.49535">
        <ele>356</ele>
        <time>2019-04-14T12:54:09.590Z</time>
      </trkpt>
      <trkpt lat="43.88921" lon="3.49538">
        <ele>356</ele>
        <time>2019-04-14T12:54:13.619Z</time>
      </trkpt>
      <trkpt lat="43.88914" lon="3.49545">
        <ele>352</ele>
        <time>2019-04-14T12:54:18.591Z</time>
      </trkpt>
      <trkpt lat="43.8891" lon="3.4955">
        <ele>352</ele>
        <time>2019-04-14T12:54:23.598Z</time>
      </trkpt>
      <trkpt lat="43.88909" lon="3.49553">
        <ele>352</ele>
        <time>2019-04-14T12:54:27.593Z</time>
      </trkpt>
      <trkpt lat="43.88905" lon="3.49565">
        <ele>352</ele>
        <time>2019-04-14T12:54:54.620Z</time>
      </trkpt>
      <trkpt lat="43.88904" lon="3.49572">
        <ele>351</ele>
        <time>2019-04-14T12:54:59.623Z</time>
      </trkpt>
      <trkpt lat="43.88903" lon="3.49578">
        <ele>357</ele>
        <time>2019-04-14T12:55:04.589Z</time>
      </trkpt>
      <trkpt lat="43.88899" lon="3.49583">
        <ele>357</ele>
        <time>2019-04-14T12:55:08.616Z</time>
      </trkpt>
      <trkpt lat="43.88898" lon="3.49585">
        <ele>357</ele>
        <time>2019-04-14T12:55:13.623Z</time>
      </trkpt>
      <trkpt lat="43.88897" lon="3.49595">
        <ele>357</ele>
        <time>2019-04-14T12:55:18.625Z</time>
      </trkpt>
      <trkpt lat="43.88897" lon="3.49596">
        <ele>357</ele>
        <time>2019-04-14T12:55:23.618Z</time>
      </trkpt>
      <trkpt lat="43.88897" lon="3.49599">
        <ele>354</ele>
        <time>2019-04-14T12:55:28.617Z</time>
      </trkpt>
      <trkpt lat="43.88897" lon="3.49604">
        <ele>354</ele>
        <time>2019-04-14T12:55:33.627Z</time>
      </trkpt>
      <trkpt lat="43.88896" lon="3.49608">
        <ele>354</ele>
        <time>2019-04-14T12:55:38.587Z</time>
      </trkpt>
      <trkpt lat="43.88896" lon="3.4961">
        <ele>354</ele>
        <time>2019-04-14T12:55:43.590Z</time>
      </trkpt>
      <trkpt lat="43.88897" lon="3.49617">
        <ele>354</ele>
        <time>2019-04-14T12:55:47.619Z</time>
      </trkpt>
      <trkpt lat="43.88895" lon="3.49632">
        <ele>356</ele>
        <time>2019-04-14T12:55:57.596Z</time>
      </trkpt>
      <trkpt lat="43.88894" lon="3.49639">
        <ele>356</ele>
        <time>2019-04-14T12:56:01.598Z</time>
      </trkpt>
      <trkpt lat="43.88895" lon="3.49644">
        <ele>356</ele>
        <time>2019-04-14T12:56:06.595Z</time>
      </trkpt>
      <trkpt lat="43.88895" lon="3.49651">
        <ele>356</ele>
        <time>2019-04-14T12:56:10.619Z</time>
      </trkpt>
      <trkpt lat="43.88897" lon="3.49658">
        <ele>359</ele>
        <time>2019-04-14T12:56:15.586Z</time>
      </trkpt>
      <trkpt lat="43.88898" lon="3.49665">
        <ele>359</ele>
        <time>2019-04-14T12:56:19.600Z</time>
      </trkpt>
      <trkpt lat="43.88899" lon="3.49672">
        <ele>359</ele>
        <time>2019-04-14T12:56:24.586Z</time>
      </trkpt>
      <trkpt lat="43.88903" lon="3.49679">
        <ele>350</ele>
        <time>2019-04-14T12:56:29.588Z</time>
      </trkpt>
      <trkpt lat="43.88903" lon="3.49686">
        <ele>352</ele>
        <time>2019-04-14T12:56:34.599Z</time>
      </trkpt>
      <trkpt lat="43.88906" lon="3.49692">
        <ele>352</ele>
        <time>2019-04-14T12:56:38.626Z</time>
      </trkpt>
      <trkpt lat="43.8891" lon="3.49696">
        <ele>352</ele>
        <time>2019-04-14T12:56:43.597Z</time>
      </trkpt>
      <trkpt lat="43.8891" lon="3.49696">
        <ele>352</ele>
        <time>2019-04-14T12:56:47.616Z</time>
      </trkpt>
      <trkpt lat="43.88913" lon="3.497">
        <ele>352</ele>
        <time>2019-04-14T12:56:52.585Z</time>
      </trkpt>
      <trkpt lat="43.88918" lon="3.49706">
        <ele>352</ele>
        <time>2019-04-14T12:56:57.587Z</time>
      </trkpt>
      <trkpt lat="43.88922" lon="3.49714">
        <ele>364</ele>
        <time>2019-04-14T12:57:02.615Z</time>
      </trkpt>
      <trkpt lat="43.88924" lon="3.49716">
        <ele>364</ele>
        <time>2019-04-14T12:57:11.615Z</time>
      </trkpt>
      <trkpt lat="43.88926" lon="3.4972">
        <ele>364</ele>
        <time>2019-04-14T12:57:16.588Z</time>
      </trkpt>
      <trkpt lat="43.88928" lon="3.49721">
        <ele>364</ele>
        <time>2019-04-14T12:57:30.581Z</time>
      </trkpt>
      <trkpt lat="43.88934" lon="3.49723">
        <ele>352</ele>
        <time>2019-04-14T12:57:34.583Z</time>
      </trkpt>
      <trkpt lat="43.88942" lon="3.49727">
        <ele>352</ele>
        <time>2019-04-14T12:57:39.622Z</time>
      </trkpt>
      <trkpt lat="43.88948" lon="3.49727">
        <ele>352</ele>
        <time>2019-04-14T12:57:44.586Z</time>
      </trkpt>
      <trkpt lat="43.88952" lon="3.49726">
        <ele>352</ele>
        <time>2019-04-14T12:57:48.616Z</time>
      </trkpt>
      <trkpt lat="43.88957" lon="3.49726">
        <ele>352</ele>
        <time>2019-04-14T12:57:53.586Z</time>
      </trkpt>
      <trkpt lat="43.8896" lon="3.49726">
        <ele>347</ele>
        <time>2019-04-14T12:57:57.593Z</time>
      </trkpt>
      <trkpt lat="43.88966" lon="3.49726">
        <ele>347</ele>
        <time>2019-04-14T12:58:02.595Z</time>
      </trkpt>
      <trkpt lat="43.88973" lon="3.49726">
        <ele>347</ele>
        <time>2019-04-14T12:58:07.593Z</time>
      </trkpt>
      <trkpt lat="43.88979" lon="3.49726">
        <ele>347</ele>
        <time>2019-04-14T12:58:11.604Z</time>
      </trkpt>
      <trkpt lat="43.88982" lon="3.49727">
        <ele>347</ele>
        <time>2019-04-14T12:58:16.587Z</time>
      </trkpt>
      <trkpt lat="43.88987" lon="3.49726">
        <ele>345</ele>
        <time>2019-04-14T12:58:21.588Z</time>
      </trkpt>
      <trkpt lat="43.8899" lon="3.49728">
        <ele>345</ele>
        <time>2019-04-14T12:58:26.587Z</time>
      </trkpt>
      <trkpt lat="43.88996" lon="3.49736">
        <ele>345</ele>
        <time>2019-04-14T12:58:36.585Z</time>
      </trkpt>
      <trkpt lat="43.89001" lon="3.49741">
        <ele>361</ele>
        <time>2019-04-14T12:58:41.597Z</time>
      </trkpt>
      <trkpt lat="43.89007" lon="3.49748">
        <ele>361</ele>
        <time>2019-04-14T12:58:46.587Z</time>
      </trkpt>
      <trkpt lat="43.89013" lon="3.49754">
        <ele>361</ele>
        <time>2019-04-14T12:58:50.597Z</time>
      </trkpt>
      <trkpt lat="43.8902" lon="3.49756">
        <ele>356</ele>
        <time>2019-04-14T12:58:54.620Z</time>
      </trkpt>
      <trkpt lat="43.89026" lon="3.49756">
        <ele>356</ele>
        <time>2019-04-14T12:58:59.598Z</time>
      </trkpt>
      <trkpt lat="43.8903" lon="3.49753">
        <ele>356</ele>
        <time>2019-04-14T12:59:04.578Z</time>
      </trkpt>
      <trkpt lat="43.89033" lon="3.49753">
        <ele>356</ele>
        <time>2019-04-14T12:59:08.616Z</time>
      </trkpt>
      <trkpt lat="43.89036" lon="3.49752">
        <ele>356</ele>
        <time>2019-04-14T12:59:13.623Z</time>
      </trkpt>
      <trkpt lat="43.89042" lon="3.49753">
        <ele>355</ele>
        <time>2019-04-14T12:59:18.616Z</time>
      </trkpt>
      <trkpt lat="43.89048" lon="3.49754">
        <ele>355</ele>
        <time>2019-04-14T12:59:23.621Z</time>
      </trkpt>
      <trkpt lat="43.89054" lon="3.49756">
        <ele>355</ele>
        <time>2019-04-14T12:59:28.615Z</time>
      </trkpt>
      <trkpt lat="43.89059" lon="3.49756">
        <ele>355</ele>
        <time>2019-04-14T12:59:33.617Z</time>
      </trkpt>
      <trkpt lat="43.89061" lon="3.49756">
        <ele>355</ele>
        <time>2019-04-14T12:59:38.597Z</time>
      </trkpt>
      <trkpt lat="43.89072" lon="3.49756">
        <ele>352</ele>
        <time>2019-04-14T12:59:43.591Z</time>
      </trkpt>
      <trkpt lat="43.8908" lon="3.49754">
        <ele>352</ele>
        <time>2019-04-14T12:59:47.616Z</time>
      </trkpt>
      <trkpt lat="43.8909" lon="3.49755">
        <ele>352</ele>
        <time>2019-04-14T12:59:52.616Z</time>
      </trkpt>
      <trkpt lat="43.89094" lon="3.49755">
        <ele>352</ele>
        <time>2019-04-14T12:59:57.596Z</time>
      </trkpt>
      <trkpt lat="43.89101" lon="3.49755">
        <ele>348</ele>
        <time>2019-04-14T13:00:02.616Z</time>
      </trkpt>
      <trkpt lat="43.89105" lon="3.49757">
        <ele>348</ele>
        <time>2019-04-14T13:00:06.618Z</time>
      </trkpt>
      <trkpt lat="43.89109" lon="3.49759">
        <ele>348</ele>
        <time>2019-04-14T13:00:11.595Z</time>
      </trkpt>
      <trkpt lat="43.89114" lon="3.49762">
        <ele>348</ele>
        <time>2019-04-14T13:00:15.644Z</time>
      </trkpt>
      <trkpt lat="43.89122" lon="3.49765">
        <ele>354</ele>
        <time>2019-04-14T13:00:20.616Z</time>
      </trkpt>
      <trkpt lat="43.8913" lon="3.49767">
        <ele>345</ele>
        <time>2019-04-14T13:00:25.615Z</time>
      </trkpt>
      <trkpt lat="43.89136" lon="3.49768">
        <ele>345</ele>
        <time>2019-04-14T13:00:30.586Z</time>
      </trkpt>
      <trkpt lat="43.89138" lon="3.49772">
        <ele>345</ele>
        <time>2019-04-14T13:00:34.598Z</time>
      </trkpt>
      <trkpt lat="43.89143" lon="3.49781">
        <ele>345</ele>
        <time>2019-04-14T13:00:39.614Z</time>
      </trkpt>
      <trkpt lat="43.89148" lon="3.49789">
        <ele>345</ele>
        <time>2019-04-14T13:00:44.586Z</time>
      </trkpt>
      <trkpt lat="43.89154" lon="3.49794">
        <ele>348</ele>
        <time>2019-04-14T13:00:49.587Z</time>
      </trkpt>
      <trkpt lat="43.89157" lon="3.49799">
        <ele>348</ele>
        <time>2019-04-14T13:00:53.604Z</time>
      </trkpt>
      <trkpt lat="43.89161" lon="3.49807">
        <ele>348</ele>
        <time>2019-04-14T13:00:58.586Z</time>
      </trkpt>
      <trkpt lat="43.89164" lon="3.4981">
        <ele>348</ele>
        <time>2019-04-14T13:01:02.618Z</time>
      </trkpt>
      <trkpt lat="43.89168" lon="3.49819">
        <ele>348</ele>
        <time>2019-04-14T13:01:07.596Z</time>
      </trkpt>
      <trkpt lat="43.8917" lon="3.49827">
        <ele>354</ele>
        <time>2019-04-14T13:01:11.616Z</time>
      </trkpt>
      <trkpt lat="43.89171" lon="3.49835">
        <ele>354</ele>
        <time>2019-04-14T13:01:16.615Z</time>
      </trkpt>
      <trkpt lat="43.89173" lon="3.49843">
        <ele>354</ele>
        <time>2019-04-14T13:01:21.599Z</time>
      </trkpt>
      <trkpt lat="43.89175" lon="3.49851">
        <ele>350</ele>
        <time>2019-04-14T13:01:26.615Z</time>
      </trkpt>
      <trkpt lat="43.89175" lon="3.49856">
        <ele>350</ele>
        <time>2019-04-14T13:01:30.623Z</time>
      </trkpt>
      <trkpt lat="43.89175" lon="3.49861">
        <ele>350</ele>
        <time>2019-04-14T13:01:35.593Z</time>
      </trkpt>
      <trkpt lat="43.89173" lon="3.49861">
        <ele>350</ele>
        <time>2019-04-14T13:02:19.584Z</time>
      </trkpt>
      <trkpt lat="43.89163" lon="3.49874">
        <ele>350</ele>
        <time>2019-04-14T13:02:56.615Z</time>
      </trkpt>
      <trkpt lat="43.89161" lon="3.49886">
        <ele>351</ele>
        <time>2019-04-14T13:03:01.588Z</time>
      </trkpt>
      <trkpt lat="43.8916" lon="3.49894">
        <ele>351</ele>
        <time>2019-04-14T13:03:05.598Z</time>
      </trkpt>
      <trkpt lat="43.8916" lon="3.49902">
        <ele>351</ele>
        <time>2019-04-14T13:03:09.597Z</time>
      </trkpt>
      <trkpt lat="43.89161" lon="3.49908">
        <ele>350</ele>
        <time>2019-04-14T13:03:13.622Z</time>
      </trkpt>
      <trkpt lat="43.89158" lon="3.49916">
        <ele>350</ele>
        <time>2019-04-14T13:03:18.619Z</time>
      </trkpt>
      <trkpt lat="43.89156" lon="3.49921">
        <ele>350</ele>
        <time>2019-04-14T13:03:23.596Z</time>
      </trkpt>
      <trkpt lat="43.89154" lon="3.49923">
        <ele>350</ele>
        <time>2019-04-14T13:03:27.618Z</time>
      </trkpt>
      <trkpt lat="43.89152" lon="3.49929">
        <ele>361</ele>
        <time>2019-04-14T13:03:36.617Z</time>
      </trkpt>
      <trkpt lat="43.89149" lon="3.49936">
        <ele>361</ele>
        <time>2019-04-14T13:03:41.617Z</time>
      </trkpt>
      <trkpt lat="43.89147" lon="3.49944">
        <ele>361</ele>
        <time>2019-04-14T13:03:46.618Z</time>
      </trkpt>
      <trkpt lat="43.89146" lon="3.49952">
        <ele>361</ele>
        <time>2019-04-14T13:03:51.615Z</time>
      </trkpt>
      <trkpt lat="43.89145" lon="3.4996">
        <ele>360</ele>
        <time>2019-04-14T13:03:56.586Z</time>
      </trkpt>
      <trkpt lat="43.89143" lon="3.49968">
        <ele>360</ele>
        <time>2019-04-14T13:04:01.585Z</time>
      </trkpt>
      <trkpt lat="43.89142" lon="3.49973">
        <ele>360</ele>
        <time>2019-04-14T13:04:05.597Z</time>
      </trkpt>
      <trkpt lat="43.89142" lon="3.49981">
        <ele>360</ele>
        <time>2019-04-14T13:04:10.627Z</time>
      </trkpt>
      <trkpt lat="43.89139" lon="3.49987">
        <ele>353</ele>
        <time>2019-04-14T13:04:15.596Z</time>
      </trkpt>
      <trkpt lat="43.89135" lon="3.49996">
        <ele>353</ele>
        <time>2019-04-14T13:04:20.586Z</time>
      </trkpt>
      <trkpt lat="43.89133" lon="3.50002">
        <ele>353</ele>
        <time>2019-04-14T13:04:25.587Z</time>
      </trkpt>
      <trkpt lat="43.89131" lon="3.50007">
        <ele>353</ele>
        <time>2019-04-14T13:04:29.595Z</time>
      </trkpt>
      <trkpt lat="43.89129" lon="3.50013">
        <ele>353</ele>
        <time>2019-04-14T13:04:33.606Z</time>
      </trkpt>
      <trkpt lat="43.89126" lon="3.5002">
        <ele>350</ele>
        <time>2019-04-14T13:04:38.622Z</time>
      </trkpt>
      <trkpt lat="43.89125" lon="3.50028">
        <ele>350</ele>
        <time>2019-04-14T13:04:43.618Z</time>
      </trkpt>
      <trkpt lat="43.89123" lon="3.50036">
        <ele>366</ele>
        <time>2019-04-14T13:04:48.588Z</time>
      </trkpt>
      <trkpt lat="43.89122" lon="3.50042">
        <ele>362</ele>
        <time>2019-04-14T13:04:52.620Z</time>
      </trkpt>
      <trkpt lat="43.89125" lon="3.50049">
        <ele>362</ele>
        <time>2019-04-14T13:04:57.598Z</time>
      </trkpt>
      <trkpt lat="43.89125" lon="3.50056">
        <ele>362</ele>
        <time>2019-04-14T13:05:02.597Z</time>
      </trkpt>
      <trkpt lat="43.89121" lon="3.50062">
        <ele>362</ele>
        <time>2019-04-14T13:05:07.589Z</time>
      </trkpt>
      <trkpt lat="43.89118" lon="3.50067">
        <ele>362</ele>
        <time>2019-04-14T13:05:12.586Z</time>
      </trkpt>
      <trkpt lat="43.89117" lon="3.50071">
        <ele>354</ele>
        <time>2019-04-14T13:05:16.618Z</time>
      </trkpt>
      <trkpt lat="43.89114" lon="3.50077">
        <ele>354</ele>
        <time>2019-04-14T13:05:21.591Z</time>
      </trkpt>
      <trkpt lat="43.89112" lon="3.50084">
        <ele>354</ele>
        <time>2019-04-14T13:05:26.581Z</time>
      </trkpt>
      <trkpt lat="43.8911" lon="3.50091">
        <ele>354</ele>
        <time>2019-04-14T13:05:30.616Z</time>
      </trkpt>
      <trkpt lat="43.89107" lon="3.50097">
        <ele>349</ele>
        <time>2019-04-14T13:05:35.597Z</time>
      </trkpt>
      <trkpt lat="43.89104" lon="3.50106">
        <ele>349</ele>
        <time>2019-04-14T13:05:40.586Z</time>
      </trkpt>
      <trkpt lat="43.89101" lon="3.50114">
        <ele>349</ele>
        <time>2019-04-14T13:05:45.588Z</time>
      </trkpt>
      <trkpt lat="43.891" lon="3.50122">
        <ele>349</ele>
        <time>2019-04-14T13:05:50.584Z</time>
      </trkpt>
      <trkpt lat="43.89097" lon="3.50129">
        <ele>355</ele>
        <time>2019-04-14T13:05:55.588Z</time>
      </trkpt>
      <trkpt lat="43.89096" lon="3.50134">
        <ele>355</ele>
        <time>2019-04-14T13:05:59.595Z</time>
      </trkpt>
      <trkpt lat="43.89093" lon="3.50142">
        <ele>355</ele>
        <time>2019-04-14T13:06:04.586Z</time>
      </trkpt>
      <trkpt lat="43.89093" lon="3.50149">
        <ele>355</ele>
        <time>2019-04-14T13:06:08.618Z</time>
      </trkpt>
      <trkpt lat="43.8909" lon="3.50155">
        <ele>349</ele>
        <time>2019-04-14T13:06:13.619Z</time>
      </trkpt>
      <trkpt lat="43.8909" lon="3.50158">
        <ele>349</ele>
        <time>2019-04-14T13:06:18.596Z</time>
      </trkpt>
      <trkpt lat="43.8909" lon="3.50164">
        <ele>349</ele>
        <time>2019-04-14T13:06:23.593Z</time>
      </trkpt>
      <trkpt lat="43.89089" lon="3.50168">
        <ele>349</ele>
        <time>2019-04-14T13:06:27.600Z</time>
      </trkpt>
      <trkpt lat="43.89087" lon="3.50175">
        <ele>349</ele>
        <time>2019-04-14T13:06:32.587Z</time>
      </trkpt>
      <trkpt lat="43.89086" lon="3.5018">
        <ele>349</ele>
        <time>2019-04-14T13:06:36.618Z</time>
      </trkpt>
      <trkpt lat="43.89085" lon="3.50187">
        <ele>349</ele>
        <time>2019-04-14T13:06:41.613Z</time>
      </trkpt>
      <trkpt lat="43.89084" lon="3.50191">
        <ele>349</ele>
        <time>2019-04-14T13:06:45.628Z</time>
      </trkpt>
      <trkpt lat="43.89083" lon="3.50199">
        <ele>349</ele>
        <time>2019-04-14T13:06:50.619Z</time>
      </trkpt>
      <trkpt lat="43.89083" lon="3.50204">
        <ele>349</ele>
        <time>2019-04-14T13:06:54.628Z</time>
      </trkpt>
      <trkpt lat="43.89081" lon="3.50211">
        <ele>348</ele>
        <time>2019-04-14T13:06:59.588Z</time>
      </trkpt>
      <trkpt lat="43.89078" lon="3.50216">
        <ele>348</ele>
        <time>2019-04-14T13:07:04.585Z</time>
      </trkpt>
      <trkpt lat="43.89075" lon="3.5022">
        <ele>348</ele>
        <time>2019-04-14T13:07:09.622Z</time>
      </trkpt>
      <trkpt lat="43.89074" lon="3.50223">
        <ele>348</ele>
        <time>2019-04-14T13:07:14.591Z</time>
      </trkpt>
      <trkpt lat="43.89074" lon="3.50224">
        <ele>348</ele>
        <time>2019-04-14T13:07:19.603Z</time>
      </trkpt>
      <trkpt lat="43.89073" lon="3.50226">
        <ele>348</ele>
        <time>2019-04-14T13:07:39.598Z</time>
      </trkpt>
      <trkpt lat="43.8907" lon="3.50234">
        <ele>348</ele>
        <time>2019-04-14T13:07:44.616Z</time>
      </trkpt>
      <trkpt lat="43.89071" lon="3.50243">
        <ele>344</ele>
        <time>2019-04-14T13:07:49.585Z</time>
      </trkpt>
      <trkpt lat="43.89074" lon="3.50252">
        <ele>344</ele>
        <time>2019-04-14T13:07:54.597Z</time>
      </trkpt>
      <trkpt lat="43.89076" lon="3.5026">
        <ele>344</ele>
        <time>2019-04-14T13:07:59.599Z</time>
      </trkpt>
      <trkpt lat="43.89076" lon="3.50271">
        <ele>343</ele>
        <time>2019-04-14T13:08:04.586Z</time>
      </trkpt>
      <trkpt lat="43.89076" lon="3.50279">
        <ele>343</ele>
        <time>2019-04-14T13:08:09.590Z</time>
      </trkpt>
      <trkpt lat="43.89077" lon="3.50287">
        <ele>343</ele>
        <time>2019-04-14T13:08:14.586Z</time>
      </trkpt>
      <trkpt lat="43.89078" lon="3.50292">
        <ele>350</ele>
        <time>2019-04-14T13:08:18.622Z</time>
      </trkpt>
      <trkpt lat="43.89079" lon="3.50299">
        <ele>350</ele>
        <time>2019-04-14T13:08:23.598Z</time>
      </trkpt>
      <trkpt lat="43.8908" lon="3.50303">
        <ele>350</ele>
        <time>2019-04-14T13:08:28.617Z</time>
      </trkpt>
      <trkpt lat="43.89084" lon="3.50308">
        <ele>350</ele>
        <time>2019-04-14T13:08:33.593Z</time>
      </trkpt>
      <trkpt lat="43.89086" lon="3.50315">
        <ele>350</ele>
        <time>2019-04-14T13:08:38.588Z</time>
      </trkpt>
      <trkpt lat="43.89086" lon="3.50324">
        <ele>363</ele>
        <time>2019-04-14T13:08:43.596Z</time>
      </trkpt>
      <trkpt lat="43.89084" lon="3.50328">
        <ele>363</ele>
        <time>2019-04-14T13:08:48.617Z</time>
      </trkpt>
      <trkpt lat="43.89084" lon="3.50334">
        <ele>363</ele>
        <time>2019-04-14T13:08:53.618Z</time>
      </trkpt>
      <trkpt lat="43.89085" lon="3.50339">
        <ele>363</ele>
        <time>2019-04-14T13:08:57.620Z</time>
      </trkpt>
      <trkpt lat="43.89093" lon="3.50343">
        <ele>363</ele>
        <time>2019-04-14T13:09:02.596Z</time>
      </trkpt>
      <trkpt lat="43.89107" lon="3.50337">
        <ele>350</ele>
        <time>2019-04-14T13:09:26.585Z</time>
      </trkpt>
      <trkpt lat="43.89112" lon="3.50343">
        <ele>350</ele>
        <time>2019-04-14T13:09:35.598Z</time>
      </trkpt>
      <trkpt lat="43.89119" lon="3.50348">
        <ele>360</ele>
        <time>2019-04-14T13:09:40.586Z</time>
      </trkpt>
      <trkpt lat="43.89122" lon="3.50351">
        <ele>360</ele>
        <time>2019-04-14T13:09:45.586Z</time>
      </trkpt>
      <trkpt lat="43.89126" lon="3.50356">
        <ele>353</ele>
        <time>2019-04-14T13:09:50.588Z</time>
      </trkpt>
      <trkpt lat="43.89131" lon="3.5036">
        <ele>353</ele>
        <time>2019-04-14T13:09:54.601Z</time>
      </trkpt>
      <trkpt lat="43.89134" lon="3.50363">
        <ele>353</ele>
        <time>2019-04-14T13:09:58.599Z</time>
      </trkpt>
      <trkpt lat="43.89136" lon="3.50367">
        <ele>353</ele>
        <time>2019-04-14T13:10:03.591Z</time>
      </trkpt>
      <trkpt lat="43.89139" lon="3.5037">
        <ele>353</ele>
        <time>2019-04-14T13:10:08.587Z</time>
      </trkpt>
      <trkpt lat="43.89143" lon="3.50375">
        <ele>353</ele>
        <time>2019-04-14T13:10:13.598Z</time>
      </trkpt>
      <trkpt lat="43.89146" lon="3.5038">
        <ele>363</ele>
        <time>2019-04-14T13:10:17.603Z</time>
      </trkpt>
      <trkpt lat="43.89149" lon="3.50385">
        <ele>363</ele>
        <time>2019-04-14T13:10:22.591Z</time>
      </trkpt>
      <trkpt lat="43.89151" lon="3.50389">
        <ele>363</ele>
        <time>2019-04-14T13:10:26.614Z</time>
      </trkpt>
      <trkpt lat="43.89155" lon="3.50393">
        <ele>353</ele>
        <time>2019-04-14T13:10:31.598Z</time>
      </trkpt>
      <trkpt lat="43.89158" lon="3.50396">
        <ele>353</ele>
        <time>2019-04-14T13:10:35.628Z</time>
      </trkpt>
      <trkpt lat="43.89161" lon="3.50398">
        <ele>353</ele>
        <time>2019-04-14T13:10:40.586Z</time>
      </trkpt>
      <trkpt lat="43.89165" lon="3.50401">
        <ele>353</ele>
        <time>2019-04-14T13:10:45.587Z</time>
      </trkpt>
      <trkpt lat="43.89169" lon="3.50405">
        <ele>368</ele>
        <time>2019-04-14T13:10:49.596Z</time>
      </trkpt>
      <trkpt lat="43.89174" lon="3.50407">
        <ele>368</ele>
        <time>2019-04-14T13:10:54.622Z</time>
      </trkpt>
      <trkpt lat="43.89178" lon="3.50407">
        <ele>368</ele>
        <time>2019-04-14T13:10:59.584Z</time>
      </trkpt>
      <trkpt lat="43.89181" lon="3.50408">
        <ele>361</ele>
        <time>2019-04-14T13:11:03.618Z</time>
      </trkpt>
      <trkpt lat="43.89186" lon="3.50408">
        <ele>361</ele>
        <time>2019-04-14T13:11:08.616Z</time>
      </trkpt>
      <trkpt lat="43.89193" lon="3.50411">
        <ele>361</ele>
        <time>2019-04-14T13:11:13.620Z</time>
      </trkpt>
      <trkpt lat="43.89197" lon="3.50411">
        <ele>361</ele>
        <time>2019-04-14T13:11:18.595Z</time>
      </trkpt>
      <trkpt lat="43.89201" lon="3.50411">
        <ele>361</ele>
        <time>2019-04-14T13:11:37.578Z</time>
      </trkpt>
      <trkpt lat="43.8921" lon="3.50412">
        <ele>359</ele>
        <time>2019-04-14T13:11:43.576Z</time>
      </trkpt>
      <trkpt lat="43.89216" lon="3.50413">
        <ele>359</ele>
        <time>2019-04-14T13:11:47.587Z</time>
      </trkpt>
      <trkpt lat="43.89221" lon="3.50415">
        <ele>359</ele>
        <time>2019-04-14T13:11:51.596Z</time>
      </trkpt>
      <trkpt lat="43.89227" lon="3.50417">
        <ele>359</ele>
        <time>2019-04-14T13:11:55.618Z</time>
      </trkpt>
      <trkpt lat="43.89233" lon="3.50418">
        <ele>359</ele>
        <time>2019-04-14T13:12:00.587Z</time>
      </trkpt>
      <trkpt lat="43.89238" lon="3.50418">
        <ele>362</ele>
        <time>2019-04-14T13:12:05.594Z</time>
      </trkpt>
      <trkpt lat="43.89245" lon="3.50418">
        <ele>362</ele>
        <time>2019-04-14T13:12:09.596Z</time>
      </trkpt>
      <trkpt lat="43.89253" lon="3.50418">
        <ele>362</ele>
        <time>2019-04-14T13:12:14.588Z</time>
      </trkpt>
      <trkpt lat="43.8926" lon="3.50417">
        <ele>362</ele>
        <time>2019-04-14T13:12:18.618Z</time>
      </trkpt>
      <trkpt lat="43.89266" lon="3.50415">
        <ele>371</ele>
        <time>2019-04-14T13:12:23.594Z</time>
      </trkpt>
      <trkpt lat="43.89273" lon="3.50407">
        <ele>371</ele>
        <time>2019-04-14T13:12:28.583Z</time>
      </trkpt>
      <trkpt lat="43.89276" lon="3.50404">
        <ele>371</ele>
        <time>2019-04-14T13:12:32.614Z</time>
      </trkpt>
      <trkpt lat="43.89281" lon="3.50401">
        <ele>358</ele>
        <time>2019-04-14T13:12:37.618Z</time>
      </trkpt>
      <trkpt lat="43.89285" lon="3.50397">
        <ele>358</ele>
        <time>2019-04-14T13:12:42.616Z</time>
      </trkpt>
      <trkpt lat="43.89289" lon="3.50395">
        <ele>358</ele>
        <time>2019-04-14T13:12:46.622Z</time>
      </trkpt>
      <trkpt lat="43.89291" lon="3.50391">
        <ele>358</ele>
        <time>2019-04-14T13:12:51.595Z</time>
      </trkpt>
      <trkpt lat="43.89295" lon="3.50387">
        <ele>372</ele>
        <time>2019-04-14T13:12:56.615Z</time>
      </trkpt>
      <trkpt lat="43.89298" lon="3.50383">
        <ele>372</ele>
        <time>2019-04-14T13:13:01.587Z</time>
      </trkpt>
      <trkpt lat="43.89302" lon="3.50377">
        <ele>372</ele>
        <time>2019-04-14T13:13:06.583Z</time>
      </trkpt>
      <trkpt lat="43.89305" lon="3.50371">
        <ele>361</ele>
        <time>2019-04-14T13:13:11.623Z</time>
      </trkpt>
      <trkpt lat="43.89311" lon="3.50364">
        <ele>361</ele>
        <time>2019-04-14T13:13:16.582Z</time>
      </trkpt>
      <trkpt lat="43.89314" lon="3.50358">
        <ele>361</ele>
        <time>2019-04-14T13:13:20.614Z</time>
      </trkpt>
      <trkpt lat="43.89317" lon="3.5035">
        <ele>361</ele>
        <time>2019-04-14T13:13:25.588Z</time>
      </trkpt>
      <trkpt lat="43.8932" lon="3.50344">
        <ele>361</ele>
        <time>2019-04-14T13:13:29.617Z</time>
      </trkpt>
      <trkpt lat="43.89323" lon="3.50338">
        <ele>361</ele>
        <time>2019-04-14T13:13:34.596Z</time>
      </trkpt>
      <trkpt lat="43.89327" lon="3.50332">
        <ele>361</ele>
        <time>2019-04-14T13:13:39.585Z</time>
      </trkpt>
      <trkpt lat="43.8933" lon="3.50325">
        <ele>361</ele>
        <time>2019-04-14T13:13:44.587Z</time>
      </trkpt>
      <trkpt lat="43.89332" lon="3.50321">
        <ele>361</ele>
        <time>2019-04-14T13:13:49.600Z</time>
      </trkpt>
      <trkpt lat="43.89335" lon="3.50317">
        <ele>351</ele>
        <time>2019-04-14T13:13:53.617Z</time>
      </trkpt>
      <trkpt lat="43.8934" lon="3.5031">
        <ele>351</ele>
        <time>2019-04-14T13:13:58.614Z</time>
      </trkpt>
      <trkpt lat="43.89347" lon="3.50305">
        <ele>351</ele>
        <time>2019-04-14T13:14:03.628Z</time>
      </trkpt>
      <trkpt lat="43.89351" lon="3.50299">
        <ele>357</ele>
        <time>2019-04-14T13:14:08.618Z</time>
      </trkpt>
      <trkpt lat="43.89356" lon="3.50296">
        <ele>357</ele>
        <time>2019-04-14T13:14:13.599Z</time>
      </trkpt>
      <trkpt lat="43.8936" lon="3.50295">
        <ele>357</ele>
        <time>2019-04-14T13:14:18.587Z</time>
      </trkpt>
      <trkpt lat="43.89364" lon="3.50294">
        <ele>357</ele>
        <time>2019-04-14T13:14:22.600Z</time>
      </trkpt>
      <trkpt lat="43.89369" lon="3.50294">
        <ele>357</ele>
        <time>2019-04-14T13:14:27.596Z</time>
      </trkpt>
      <trkpt lat="43.89371" lon="3.50295">
        <ele>357</ele>
        <time>2019-04-14T13:14:31.619Z</time>
      </trkpt>
      <trkpt lat="43.89375" lon="3.50295">
        <ele>358</ele>
        <time>2019-04-14T13:14:36.580Z</time>
      </trkpt>
      <trkpt lat="43.89377" lon="3.50294">
        <ele>358</ele>
        <time>2019-04-14T13:14:40.586Z</time>
      </trkpt>
      <trkpt lat="43.89383" lon="3.50294">
        <ele>358</ele>
        <time>2019-04-14T13:14:45.586Z</time>
      </trkpt>
      <trkpt lat="43.89387" lon="3.50295">
        <ele>358</ele>
        <time>2019-04-14T13:14:49.600Z</time>
      </trkpt>
      <trkpt lat="43.89392" lon="3.50298">
        <ele>358</ele>
        <time>2019-04-14T13:14:54.604Z</time>
      </trkpt>
      <trkpt lat="43.89394" lon="3.50299">
        <ele>358</ele>
        <time>2019-04-14T13:14:59.590Z</time>
      </trkpt>
      <trkpt lat="43.89398" lon="3.50302">
        <ele>358</ele>
        <time>2019-04-14T13:15:08.588Z</time>
      </trkpt>
      <trkpt lat="43.89401" lon="3.50304">
        <ele>358</ele>
        <time>2019-04-14T13:15:12.605Z</time>
      </trkpt>
      <trkpt lat="43.89408" lon="3.50306">
        <ele>358</ele>
        <time>2019-04-14T13:15:17.596Z</time>
      </trkpt>
      <trkpt lat="43.89413" lon="3.5031">
        <ele>358</ele>
        <time>2019-04-14T13:15:22.595Z</time>
      </trkpt>
      <trkpt lat="43.89419" lon="3.50315">
        <ele>358</ele>
        <time>2019-04-14T13:15:27.586Z</time>
      </trkpt>
      <trkpt lat="43.89423" lon="3.50316">
        <ele>358</ele>
        <time>2019-04-14T13:15:32.587Z</time>
      </trkpt>
      <trkpt lat="43.89426" lon="3.50319">
        <ele>358</ele>
        <time>2019-04-14T13:15:36.615Z</time>
      </trkpt>
      <trkpt lat="43.89429" lon="3.5032">
        <ele>366</ele>
        <time>2019-04-14T13:15:41.598Z</time>
      </trkpt>
      <trkpt lat="43.89433" lon="3.50322">
        <ele>366</ele>
        <time>2019-04-14T13:15:45.597Z</time>
      </trkpt>
      <trkpt lat="43.89439" lon="3.50326">
        <ele>366</ele>
        <time>2019-04-14T13:15:50.618Z</time>
      </trkpt>
      <trkpt lat="43.89445" lon="3.50329">
        <ele>366</ele>
        <time>2019-04-14T13:15:55.579Z</time>
      </trkpt>
      <trkpt lat="43.89447" lon="3.50333">
        <ele>366</ele>
        <time>2019-04-14T13:16:00.585Z</time>
      </trkpt>
      <trkpt lat="43.89453" lon="3.50338">
        <ele>366</ele>
        <time>2019-04-14T13:16:05.595Z</time>
      </trkpt>
      <trkpt lat="43.89458" lon="3.50342">
        <ele>366</ele>
        <time>2019-04-14T13:16:10.598Z</time>
      </trkpt>
      <trkpt lat="43.89464" lon="3.50345">
        <ele>361</ele>
        <time>2019-04-14T13:16:15.595Z</time>
      </trkpt>
      <trkpt lat="43.89468" lon="3.5035">
        <ele>370</ele>
        <time>2019-04-14T13:16:19.619Z</time>
      </trkpt>
      <trkpt lat="43.89472" lon="3.50355">
        <ele>370</ele>
        <time>2019-04-14T13:16:24.615Z</time>
      </trkpt>
      <trkpt lat="43.89477" lon="3.50359">
        <ele>370</ele>
        <time>2019-04-14T13:16:29.616Z</time>
      </trkpt>
      <trkpt lat="43.89481" lon="3.50364">
        <ele>370</ele>
        <time>2019-04-14T13:16:34.623Z</time>
      </trkpt>
      <trkpt lat="43.89484" lon="3.5037">
        <ele>370</ele>
        <time>2019-04-14T13:16:38.627Z</time>
      </trkpt>
      <trkpt lat="43.89486" lon="3.50376">
        <ele>376</ele>
        <time>2019-04-14T13:16:43.594Z</time>
      </trkpt>
      <trkpt lat="43.89488" lon="3.50383">
        <ele>367</ele>
        <time>2019-04-14T13:16:48.584Z</time>
      </trkpt>
      <trkpt lat="43.89492" lon="3.50389">
        <ele>367</ele>
        <time>2019-04-14T13:16:52.616Z</time>
      </trkpt>
      <trkpt lat="43.89495" lon="3.50396">
        <ele>367</ele>
        <time>2019-04-14T13:16:57.595Z</time>
      </trkpt>
      <trkpt lat="43.89497" lon="3.504">
        <ele>367</ele>
        <time>2019-04-14T13:17:01.621Z</time>
      </trkpt>
      <trkpt lat="43.89498" lon="3.50407">
        <ele>371</ele>
        <time>2019-04-14T13:17:06.588Z</time>
      </trkpt>
      <trkpt lat="43.89499" lon="3.50415">
        <ele>371</ele>
        <time>2019-04-14T13:17:11.594Z</time>
      </trkpt>
      <trkpt lat="43.89501" lon="3.50424">
        <ele>371</ele>
        <time>2019-04-14T13:17:16.616Z</time>
      </trkpt>
      <trkpt lat="43.89504" lon="3.50429">
        <ele>371</ele>
        <time>2019-04-14T13:17:21.589Z</time>
      </trkpt>
      <trkpt lat="43.89506" lon="3.50435">
        <ele>376</ele>
        <time>2019-04-14T13:17:26.596Z</time>
      </trkpt>
      <trkpt lat="43.89509" lon="3.50443">
        <ele>376</ele>
        <time>2019-04-14T13:17:31.617Z</time>
      </trkpt>
      <trkpt lat="43.89513" lon="3.5045">
        <ele>376</ele>
        <time>2019-04-14T13:17:36.614Z</time>
      </trkpt>
      <trkpt lat="43.89516" lon="3.50458">
        <ele>367</ele>
        <time>2019-04-14T13:17:41.624Z</time>
      </trkpt>
      <trkpt lat="43.89519" lon="3.50466">
        <ele>370</ele>
        <time>2019-04-14T13:17:46.601Z</time>
      </trkpt>
      <trkpt lat="43.89521" lon="3.50471">
        <ele>370</ele>
        <time>2019-04-14T13:17:50.616Z</time>
      </trkpt>
      <trkpt lat="43.89524" lon="3.50478">
        <ele>370</ele>
        <time>2019-04-14T13:17:55.615Z</time>
      </trkpt>
      <trkpt lat="43.89528" lon="3.50484">
        <ele>370</ele>
        <time>2019-04-14T13:18:00.618Z</time>
      </trkpt>
      <trkpt lat="43.89532" lon="3.5049">
        <ele>373</ele>
        <time>2019-04-14T13:18:05.626Z</time>
      </trkpt>
      <trkpt lat="43.89535" lon="3.50495">
        <ele>373</ele>
        <time>2019-04-14T13:18:10.598Z</time>
      </trkpt>
      <trkpt lat="43.89537" lon="3.50501">
        <ele>373</ele>
        <time>2019-04-14T13:18:14.617Z</time>
      </trkpt>
      <trkpt lat="43.89537" lon="3.50509">
        <ele>373</ele>
        <time>2019-04-14T13:18:19.587Z</time>
      </trkpt>
      <trkpt lat="43.89538" lon="3.50516">
        <ele>373</ele>
        <time>2019-04-14T13:19:23.602Z</time>
      </trkpt>
      <trkpt lat="43.89534" lon="3.50514">
        <ele>373</ele>
        <time>2019-04-14T13:19:28.577Z</time>
      </trkpt>
      <trkpt lat="43.8953" lon="3.50513">
        <ele>373</ele>
        <time>2019-04-14T13:19:33.622Z</time>
      </trkpt>
      <trkpt lat="43.89528" lon="3.50513">
        <ele>373</ele>
        <time>2019-04-14T13:19:38.578Z</time>
      </trkpt>
      <trkpt lat="43.89527" lon="3.50512">
        <ele>373</ele>
        <time>2019-04-14T13:19:51.593Z</time>
      </trkpt>
      <trkpt lat="43.89523" lon="3.5051">
        <ele>373</ele>
        <time>2019-04-14T13:19:55.617Z</time>
      </trkpt>
      <trkpt lat="43.89522" lon="3.5051">
        <ele>373</ele>
        <time>2019-04-14T13:19:59.621Z</time>
      </trkpt>
      <trkpt lat="43.89519" lon="3.50505">
        <ele>373</ele>
        <time>2019-04-14T13:20:04.584Z</time>
      </trkpt>
      <trkpt lat="43.89514" lon="3.50501">
        <ele>373</ele>
        <time>2019-04-14T13:20:08.617Z</time>
      </trkpt>
      <trkpt lat="43.89511" lon="3.50497">
        <ele>382</ele>
        <time>2019-04-14T13:20:13.620Z</time>
      </trkpt>
      <trkpt lat="43.89506" lon="3.50493">
        <ele>382</ele>
        <time>2019-04-14T13:20:17.624Z</time>
      </trkpt>
      <trkpt lat="43.89503" lon="3.50486">
        <ele>380</ele>
        <time>2019-04-14T13:20:22.617Z</time>
      </trkpt>
      <trkpt lat="43.89499" lon="3.50478">
        <ele>380</ele>
        <time>2019-04-14T13:20:27.618Z</time>
      </trkpt>
      <trkpt lat="43.89496" lon="3.50471">
        <ele>380</ele>
        <time>2019-04-14T13:20:32.613Z</time>
      </trkpt>
      <trkpt lat="43.89494" lon="3.50464">
        <ele>380</ele>
        <time>2019-04-14T13:20:37.619Z</time>
      </trkpt>
      <trkpt lat="43.89491" lon="3.50455">
        <ele>376</ele>
        <time>2019-04-14T13:20:42.586Z</time>
      </trkpt>
      <trkpt lat="43.89488" lon="3.50448">
        <ele>376</ele>
        <time>2019-04-14T13:20:47.598Z</time>
      </trkpt>
      <trkpt lat="43.89485" lon="3.5044">
        <ele>388</ele>
        <time>2019-04-14T13:20:52.619Z</time>
      </trkpt>
      <trkpt lat="43.89484" lon="3.50432">
        <ele>388</ele>
        <time>2019-04-14T13:20:57.593Z</time>
      </trkpt>
      <trkpt lat="43.89484" lon="3.50424">
        <ele>382</ele>
        <time>2019-04-14T13:21:02.598Z</time>
      </trkpt>
      <trkpt lat="43.89482" lon="3.50416">
        <ele>382</ele>
        <time>2019-04-14T13:21:07.587Z</time>
      </trkpt>
      <trkpt lat="43.89478" lon="3.5041">
        <ele>382</ele>
        <time>2019-04-14T13:21:12.615Z</time>
      </trkpt>
      <trkpt lat="43.89475" lon="3.50404">
        <ele>382</ele>
        <time>2019-04-14T13:21:17.614Z</time>
      </trkpt>
      <trkpt lat="43.89471" lon="3.504">
        <ele>376</ele>
        <time>2019-04-14T13:21:22.600Z</time>
      </trkpt>
      <trkpt lat="43.89466" lon="3.50404">
        <ele>382</ele>
        <time>2019-04-14T13:21:27.586Z</time>
      </trkpt>
      <trkpt lat="43.89466" lon="3.50411">
        <ele>382</ele>
        <time>2019-04-14T13:21:32.616Z</time>
      </trkpt>
      <trkpt lat="43.89467" lon="3.5042">
        <ele>382</ele>
        <time>2019-04-14T13:21:37.618Z</time>
      </trkpt>
      <trkpt lat="43.89467" lon="3.50428">
        <ele>382</ele>
        <time>2019-04-14T13:21:41.623Z</time>
      </trkpt>
      <trkpt lat="43.89467" lon="3.50436">
        <ele>388</ele>
        <time>2019-04-14T13:21:46.618Z</time>
      </trkpt>
      <trkpt lat="43.89468" lon="3.50444">
        <ele>388</ele>
        <time>2019-04-14T13:21:51.583Z</time>
      </trkpt>
      <trkpt lat="43.89469" lon="3.5045">
        <ele>388</ele>
        <time>2019-04-14T13:21:55.618Z</time>
      </trkpt>
      <trkpt lat="43.89471" lon="3.50457">
        <ele>388</ele>
        <time>2019-04-14T13:22:00.616Z</time>
      </trkpt>
      <trkpt lat="43.89472" lon="3.50465">
        <ele>391</ele>
        <time>2019-04-14T13:22:05.584Z</time>
      </trkpt>
      <trkpt lat="43.89471" lon="3.50473">
        <ele>391</ele>
        <time>2019-04-14T13:22:10.591Z</time>
      </trkpt>
      <trkpt lat="43.89472" lon="3.5048">
        <ele>391</ele>
        <time>2019-04-14T13:22:15.585Z</time>
      </trkpt>
      <trkpt lat="43.89471" lon="3.50487">
        <ele>392</ele>
        <time>2019-04-14T13:22:19.617Z</time>
      </trkpt>
      <trkpt lat="43.89471" lon="3.50496">
        <ele>392</ele>
        <time>2019-04-14T13:22:24.615Z</time>
      </trkpt>
      <trkpt lat="43.8947" lon="3.50503">
        <ele>392</ele>
        <time>2019-04-14T13:22:29.587Z</time>
      </trkpt>
      <trkpt lat="43.89469" lon="3.50509">
        <ele>392</ele>
        <time>2019-04-14T13:22:33.596Z</time>
      </trkpt>
      <trkpt lat="43.89469" lon="3.50516">
        <ele>392</ele>
        <time>2019-04-14T13:22:38.584Z</time>
      </trkpt>
      <trkpt lat="43.89468" lon="3.50522">
        <ele>392</ele>
        <time>2019-04-14T13:22:42.586Z</time>
      </trkpt>
      <trkpt lat="43.89469" lon="3.50528">
        <ele>392</ele>
        <time>2019-04-14T13:22:46.596Z</time>
      </trkpt>
      <trkpt lat="43.89469" lon="3.50533">
        <ele>392</ele>
        <time>2019-04-14T13:22:50.618Z</time>
      </trkpt>
      <trkpt lat="43.8947" lon="3.5054">
        <ele>392</ele>
        <time>2019-04-14T13:22:55.592Z</time>
      </trkpt>
      <trkpt lat="43.89472" lon="3.50548">
        <ele>392</ele>
        <time>2019-04-14T13:23:00.615Z</time>
      </trkpt>
      <trkpt lat="43.89473" lon="3.50554">
        <ele>392</ele>
        <time>2019-04-14T13:23:05.615Z</time>
      </trkpt>
      <trkpt lat="43.89471" lon="3.50562">
        <ele>392</ele>
        <time>2019-04-14T13:23:10.615Z</time>
      </trkpt>
      <trkpt lat="43.8947" lon="3.50572">
        <ele>393</ele>
        <time>2019-04-14T13:23:15.615Z</time>
      </trkpt>
      <trkpt lat="43.89469" lon="3.5058">
        <ele>393</ele>
        <time>2019-04-14T13:23:20.617Z</time>
      </trkpt>
      <trkpt lat="43.89469" lon="3.50589">
        <ele>393</ele>
        <time>2019-04-14T13:23:25.586Z</time>
      </trkpt>
      <trkpt lat="43.89469" lon="3.50595">
        <ele>393</ele>
        <time>2019-04-14T13:23:29.595Z</time>
      </trkpt>
      <trkpt lat="43.89469" lon="3.50602">
        <ele>395</ele>
        <time>2019-04-14T13:23:34.585Z</time>
      </trkpt>
      <trkpt lat="43.89468" lon="3.50609">
        <ele>395</ele>
        <time>2019-04-14T13:23:38.619Z</time>
      </trkpt>
      <trkpt lat="43.89469" lon="3.50617">
        <ele>395</ele>
        <time>2019-04-14T13:23:43.602Z</time>
      </trkpt>
      <trkpt lat="43.89469" lon="3.50623">
        <ele>395</ele>
        <time>2019-04-14T13:23:47.614Z</time>
      </trkpt>
      <trkpt lat="43.89469" lon="3.5063">
        <ele>396</ele>
        <time>2019-04-14T13:23:52.584Z</time>
      </trkpt>
      <trkpt lat="43.89468" lon="3.50638">
        <ele>396</ele>
        <time>2019-04-14T13:23:57.593Z</time>
      </trkpt>
      <trkpt lat="43.89466" lon="3.50645">
        <ele>396</ele>
        <time>2019-04-14T13:24:15.600Z</time>
      </trkpt>
      <trkpt lat="43.89464" lon="3.50644">
        <ele>396</ele>
        <time>2019-04-14T13:24:25.592Z</time>
      </trkpt>
      <trkpt lat="43.89462" lon="3.50638">
        <ele>396</ele>
        <time>2019-04-14T13:24:30.596Z</time>
      </trkpt>
      <trkpt lat="43.89461" lon="3.50633">
        <ele>396</ele>
        <time>2019-04-14T13:24:35.584Z</time>
      </trkpt>
      <trkpt lat="43.8946" lon="3.50629">
        <ele>396</ele>
        <time>2019-04-14T13:24:39.597Z</time>
      </trkpt>
      <trkpt lat="43.89451" lon="3.50621">
        <ele>412</ele>
        <time>2019-04-14T13:24:59.606Z</time>
      </trkpt>
      <trkpt lat="43.8945" lon="3.50624">
        <ele>412</ele>
        <time>2019-04-14T13:25:04.616Z</time>
      </trkpt>
      <trkpt lat="43.89449" lon="3.50629">
        <ele>416</ele>
        <time>2019-04-14T13:25:09.610Z</time>
      </trkpt>
      <trkpt lat="43.8945" lon="3.50636">
        <ele>416</ele>
        <time>2019-04-14T13:25:14.596Z</time>
      </trkpt>
      <trkpt lat="43.89451" lon="3.5064">
        <ele>416</ele>
        <time>2019-04-14T13:25:19.597Z</time>
      </trkpt>
      <trkpt lat="43.89452" lon="3.50645">
        <ele>416</ele>
        <time>2019-04-14T13:25:23.624Z</time>
      </trkpt>
      <trkpt lat="43.89451" lon="3.50651">
        <ele>416</ele>
        <time>2019-04-14T13:25:27.621Z</time>
      </trkpt>
      <trkpt lat="43.89451" lon="3.50659">
        <ele>417</ele>
        <time>2019-04-14T13:25:32.583Z</time>
      </trkpt>
      <trkpt lat="43.89451" lon="3.50665">
        <ele>417</ele>
        <time>2019-04-14T13:25:36.616Z</time>
      </trkpt>
      <trkpt lat="43.8945" lon="3.50671">
        <ele>417</ele>
        <time>2019-04-14T13:25:41.596Z</time>
      </trkpt>
      <trkpt lat="43.8945" lon="3.50677">
        <ele>417</ele>
        <time>2019-04-14T13:25:46.606Z</time>
      </trkpt>
      <trkpt lat="43.8945" lon="3.50682">
        <ele>411</ele>
        <time>2019-04-14T13:25:51.600Z</time>
      </trkpt>
      <trkpt lat="43.89449" lon="3.50688">
        <ele>411</ele>
        <time>2019-04-14T13:25:55.621Z</time>
      </trkpt>
      <trkpt lat="43.89446" lon="3.50694">
        <ele>411</ele>
        <time>2019-04-14T13:26:00.614Z</time>
      </trkpt>
      <trkpt lat="43.89443" lon="3.507">
        <ele>411</ele>
        <time>2019-04-14T13:26:05.595Z</time>
      </trkpt>
      <trkpt lat="43.89441" lon="3.50703">
        <ele>411</ele>
        <time>2019-04-14T13:26:10.614Z</time>
      </trkpt>
      <trkpt lat="43.89437" lon="3.50706">
        <ele>411</ele>
        <time>2019-04-14T13:26:15.589Z</time>
      </trkpt>
      <trkpt lat="43.89433" lon="3.50707">
        <ele>411</ele>
        <time>2019-04-14T13:26:55.589Z</time>
      </trkpt>
      <trkpt lat="43.89433" lon="3.507">
        <ele>411</ele>
        <time>2019-04-14T13:27:01.601Z</time>
      </trkpt>
      <trkpt lat="43.89429" lon="3.50696">
        <ele>413</ele>
        <time>2019-04-14T13:27:06.614Z</time>
      </trkpt>
      <trkpt lat="43.89428" lon="3.50694">
        <ele>413</ele>
        <time>2019-04-14T13:27:11.594Z</time>
      </trkpt>
      <trkpt lat="43.89427" lon="3.50691">
        <ele>413</ele>
        <time>2019-04-14T13:27:15.612Z</time>
      </trkpt>
      <trkpt lat="43.89425" lon="3.50683">
        <ele>413</ele>
        <time>2019-04-14T13:27:20.586Z</time>
      </trkpt>
      <trkpt lat="43.89424" lon="3.50677">
        <ele>422</ele>
        <time>2019-04-14T13:27:24.619Z</time>
      </trkpt>
      <trkpt lat="43.89419" lon="3.50676">
        <ele>422</ele>
        <time>2019-04-14T13:27:29.595Z</time>
      </trkpt>
      <trkpt lat="43.89414" lon="3.50678">
        <ele>422</ele>
        <time>2019-04-14T13:27:34.595Z</time>
      </trkpt>
      <trkpt lat="43.8941" lon="3.50672">
        <ele>422</ele>
        <time>2019-04-14T13:27:39.591Z</time>
      </trkpt>
      <trkpt lat="43.89408" lon="3.50668">
        <ele>422</ele>
        <time>2019-04-14T13:27:43.633Z</time>
      </trkpt>
      <trkpt lat="43.89404" lon="3.50667">
        <ele>422</ele>
        <time>2019-04-14T13:27:48.584Z</time>
      </trkpt>
      <trkpt lat="43.894" lon="3.50668">
        <ele>424</ele>
        <time>2019-04-14T13:27:52.617Z</time>
      </trkpt>
      <trkpt lat="43.89395" lon="3.50667">
        <ele>424</ele>
        <time>2019-04-14T13:27:57.616Z</time>
      </trkpt>
      <trkpt lat="43.89395" lon="3.50663">
        <ele>424</ele>
        <time>2019-04-14T13:28:02.586Z</time>
      </trkpt>
      <trkpt lat="43.89397" lon="3.50659">
        <ele>424</ele>
        <time>2019-04-14T13:28:06.593Z</time>
      </trkpt>
      <trkpt lat="43.89397" lon="3.50653">
        <ele>424</ele>
        <time>2019-04-14T13:28:11.598Z</time>
      </trkpt>
      <trkpt lat="43.89396" lon="3.50646">
        <ele>430</ele>
        <time>2019-04-14T13:28:16.586Z</time>
      </trkpt>
      <trkpt lat="43.89395" lon="3.5064">
        <ele>430</ele>
        <time>2019-04-14T13:28:21.585Z</time>
      </trkpt>
      <trkpt lat="43.89393" lon="3.50635">
        <ele>430</ele>
        <time>2019-04-14T13:28:26.588Z</time>
      </trkpt>
      <trkpt lat="43.89391" lon="3.5063">
        <ele>430</ele>
        <time>2019-04-14T13:28:30.592Z</time>
      </trkpt>
      <trkpt lat="43.89389" lon="3.50623">
        <ele>435</ele>
        <time>2019-04-14T13:28:35.596Z</time>
      </trkpt>
      <trkpt lat="43.89386" lon="3.50618">
        <ele>435</ele>
        <time>2019-04-14T13:28:40.589Z</time>
      </trkpt>
      <trkpt lat="43.89383" lon="3.50612">
        <ele>435</ele>
        <time>2019-04-14T13:28:45.603Z</time>
      </trkpt>
      <trkpt lat="43.89381" lon="3.50607">
        <ele>435</ele>
        <time>2019-04-14T13:28:50.617Z</time>
      </trkpt>
      <trkpt lat="43.89379" lon="3.50607">
        <ele>435</ele>
        <time>2019-04-14T13:28:55.597Z</time>
      </trkpt>
      <trkpt lat="43.89379" lon="3.5061">
        <ele>435</ele>
        <time>2019-04-14T13:29:00.584Z</time>
      </trkpt>
      <trkpt lat="43.89377" lon="3.50614">
        <ele>435</ele>
        <time>2019-04-14T13:29:04.614Z</time>
      </trkpt>
      <trkpt lat="43.89374" lon="3.50619">
        <ele>441</ele>
        <time>2019-04-14T13:29:09.608Z</time>
      </trkpt>
      <trkpt lat="43.89371" lon="3.50625">
        <ele>438</ele>
        <time>2019-04-14T13:29:14.631Z</time>
      </trkpt>
      <trkpt lat="43.89365" lon="3.50627">
        <ele>438</ele>
        <time>2019-04-14T13:29:19.601Z</time>
      </trkpt>
      <trkpt lat="43.89359" lon="3.50627">
        <ele>438</ele>
        <time>2019-04-14T13:29:24.577Z</time>
      </trkpt>
      <trkpt lat="43.89355" lon="3.50627">
        <ele>438</ele>
        <time>2019-04-14T13:29:28.586Z</time>
      </trkpt>
      <trkpt lat="43.8935" lon="3.50627">
        <ele>438</ele>
        <time>2019-04-14T13:29:32.618Z</time>
      </trkpt>
      <trkpt lat="43.89346" lon="3.50627">
        <ele>437</ele>
        <time>2019-04-14T13:29:37.627Z</time>
      </trkpt>
      <trkpt lat="43.89343" lon="3.50626">
        <ele>437</ele>
        <time>2019-04-14T13:29:41.630Z</time>
      </trkpt>
      <trkpt lat="43.89336" lon="3.50625">
        <ele>437</ele>
        <time>2019-04-14T13:29:46.615Z</time>
      </trkpt>
      <trkpt lat="43.89329" lon="3.50625">
        <ele>437</ele>
        <time>2019-04-14T13:29:51.592Z</time>
      </trkpt>
      <trkpt lat="43.89323" lon="3.50626">
        <ele>437</ele>
        <time>2019-04-14T13:29:55.610Z</time>
      </trkpt>
      <trkpt lat="43.89318" lon="3.50626">
        <ele>437</ele>
        <time>2019-04-14T13:30:00.619Z</time>
      </trkpt>
      <trkpt lat="43.89313" lon="3.50625">
        <ele>448</ele>
        <time>2019-04-14T13:30:05.625Z</time>
      </trkpt>
      <trkpt lat="43.89308" lon="3.50623">
        <ele>448</ele>
        <time>2019-04-14T13:30:10.586Z</time>
      </trkpt>
      <trkpt lat="43.89306" lon="3.50623">
        <ele>448</ele>
        <time>2019-04-14T13:30:14.618Z</time>
      </trkpt>
      <trkpt lat="43.89301" lon="3.50622">
        <ele>448</ele>
        <time>2019-04-14T13:30:19.621Z</time>
      </trkpt>
      <trkpt lat="43.893" lon="3.50621">
        <ele>448</ele>
        <time>2019-04-14T13:30:24.578Z</time>
      </trkpt>
      <trkpt lat="43.89298" lon="3.50619">
        <ele>448</ele>
        <time>2019-04-14T13:30:28.588Z</time>
      </trkpt>
      <trkpt lat="43.89292" lon="3.50616">
        <ele>448</ele>
        <time>2019-04-14T13:30:33.590Z</time>
      </trkpt>
      <trkpt lat="43.89287" lon="3.50614">
        <ele>446</ele>
        <time>2019-04-14T13:30:38.597Z</time>
      </trkpt>
      <trkpt lat="43.89281" lon="3.50613">
        <ele>446</ele>
        <time>2019-04-14T13:30:43.618Z</time>
      </trkpt>
      <trkpt lat="43.89278" lon="3.50612">
        <ele>446</ele>
        <time>2019-04-14T13:30:48.586Z</time>
      </trkpt>
      <trkpt lat="43.89272" lon="3.5061">
        <ele>446</ele>
        <time>2019-04-14T13:30:52.617Z</time>
      </trkpt>
      <trkpt lat="43.89265" lon="3.50609">
        <ele>446</ele>
        <time>2019-04-14T13:30:57.617Z</time>
      </trkpt>
      <trkpt lat="43.89261" lon="3.50608">
        <ele>444</ele>
        <time>2019-04-14T13:31:02.622Z</time>
      </trkpt>
      <trkpt lat="43.89253" lon="3.50609">
        <ele>444</ele>
        <time>2019-04-14T13:31:07.596Z</time>
      </trkpt>
      <trkpt lat="43.89246" lon="3.50608">
        <ele>444</ele>
        <time>2019-04-14T13:31:12.615Z</time>
      </trkpt>
      <trkpt lat="43.8924" lon="3.50608">
        <ele>444</ele>
        <time>2019-04-14T13:31:17.594Z</time>
      </trkpt>
      <trkpt lat="43.89236" lon="3.50606">
        <ele>448</ele>
        <time>2019-04-14T13:31:22.578Z</time>
      </trkpt>
      <trkpt lat="43.8923" lon="3.50606">
        <ele>448</ele>
        <time>2019-04-14T13:31:27.577Z</time>
      </trkpt>
      <trkpt lat="43.89224" lon="3.50606">
        <ele>448</ele>
        <time>2019-04-14T13:31:32.577Z</time>
      </trkpt>
      <trkpt lat="43.89219" lon="3.50604">
        <ele>448</ele>
        <time>2019-04-14T13:31:36.619Z</time>
      </trkpt>
      <trkpt lat="43.89212" lon="3.50602">
        <ele>448</ele>
        <time>2019-04-14T13:31:41.589Z</time>
      </trkpt>
      <trkpt lat="43.89208" lon="3.50603">
        <ele>451</ele>
        <time>2019-04-14T13:31:45.598Z</time>
      </trkpt>
      <trkpt lat="43.89201" lon="3.50601">
        <ele>451</ele>
        <time>2019-04-14T13:31:50.598Z</time>
      </trkpt>
      <trkpt lat="43.89194" lon="3.50602">
        <ele>451</ele>
        <time>2019-04-14T13:31:55.619Z</time>
      </trkpt>
      <trkpt lat="43.89188" lon="3.50602">
        <ele>451</ele>
        <time>2019-04-14T13:32:00.588Z</time>
      </trkpt>
      <trkpt lat="43.89182" lon="3.50601">
        <ele>451</ele>
        <time>2019-04-14T13:32:05.617Z</time>
      </trkpt>
      <trkpt lat="43.89177" lon="3.50601">
        <ele>454</ele>
        <time>2019-04-14T13:32:10.623Z</time>
      </trkpt>
      <trkpt lat="43.89169" lon="3.506">
        <ele>454</ele>
        <time>2019-04-14T13:32:15.601Z</time>
      </trkpt>
      <trkpt lat="43.89164" lon="3.506">
        <ele>454</ele>
        <time>2019-04-14T13:32:19.618Z</time>
      </trkpt>
      <trkpt lat="43.89158" lon="3.50599">
        <ele>454</ele>
        <time>2019-04-14T13:32:23.630Z</time>
      </trkpt>
      <trkpt lat="43.89153" lon="3.50598">
        <ele>458</ele>
        <time>2019-04-14T13:32:28.586Z</time>
      </trkpt>
      <trkpt lat="43.89147" lon="3.50596">
        <ele>456</ele>
        <time>2019-04-14T13:32:33.626Z</time>
      </trkpt>
      <trkpt lat="43.89142" lon="3.50595">
        <ele>456</ele>
        <time>2019-04-14T13:32:38.599Z</time>
      </trkpt>
      <trkpt lat="43.89139" lon="3.50596">
        <ele>456</ele>
        <time>2019-04-14T13:32:42.604Z</time>
      </trkpt>
      <trkpt lat="43.89134" lon="3.50596">
        <ele>456</ele>
        <time>2019-04-14T13:32:47.617Z</time>
      </trkpt>
      <trkpt lat="43.89131" lon="3.50597">
        <ele>458</ele>
        <time>2019-04-14T13:32:52.590Z</time>
      </trkpt>
      <trkpt lat="43.8913" lon="3.50598">
        <ele>458</ele>
        <time>2019-04-14T13:32:57.599Z</time>
      </trkpt>
      <trkpt lat="43.89127" lon="3.50597">
        <ele>456</ele>
        <time>2019-04-14T13:33:02.622Z</time>
      </trkpt>
      <trkpt lat="43.89122" lon="3.50598">
        <ele>465</ele>
        <time>2019-04-14T13:33:07.616Z</time>
      </trkpt>
      <trkpt lat="43.89122" lon="3.50598">
        <ele>465</ele>
        <time>2019-04-14T13:33:12.617Z</time>
      </trkpt>
      <trkpt lat="43.89118" lon="3.50599">
        <ele>465</ele>
        <time>2019-04-14T13:33:17.590Z</time>
      </trkpt>
      <trkpt lat="43.89116" lon="3.506">
        <ele>465</ele>
        <time>2019-04-14T13:33:21.620Z</time>
      </trkpt>
      <trkpt lat="43.8911" lon="3.506">
        <ele>465</ele>
        <time>2019-04-14T13:33:26.587Z</time>
      </trkpt>
      <trkpt lat="43.89106" lon="3.50599">
        <ele>465</ele>
        <time>2019-04-14T13:33:30.595Z</time>
      </trkpt>
      <trkpt lat="43.89104" lon="3.50599">
        <ele>465</ele>
        <time>2019-04-14T13:33:35.586Z</time>
      </trkpt>
      <trkpt lat="43.891" lon="3.50602">
        <ele>465</ele>
        <time>2019-04-14T13:33:45.604Z</time>
      </trkpt>
      <trkpt lat="43.89097" lon="3.50601">
        <ele>475</ele>
        <time>2019-04-14T13:33:50.620Z</time>
      </trkpt>
      <trkpt lat="43.89096" lon="3.50601">
        <ele>475</ele>
        <time>2019-04-14T13:33:59.619Z</time>
      </trkpt>
      <trkpt lat="43.89091" lon="3.50602">
        <ele>475</ele>
        <time>2019-04-14T13:34:04.587Z</time>
      </trkpt>
      <trkpt lat="43.89088" lon="3.50603">
        <ele>475</ele>
        <time>2019-04-14T13:34:08.617Z</time>
      </trkpt>
      <trkpt lat="43.89085" lon="3.50598">
        <ele>475</ele>
        <time>2019-04-14T13:34:13.600Z</time>
      </trkpt>
      <trkpt lat="43.89084" lon="3.50596">
        <ele>472</ele>
        <time>2019-04-14T13:34:18.618Z</time>
      </trkpt>
      <trkpt lat="43.89083" lon="3.50595">
        <ele>472</ele>
        <time>2019-04-14T13:34:23.618Z</time>
      </trkpt>
      <trkpt lat="43.8908" lon="3.5059">
        <ele>472</ele>
        <time>2019-04-14T13:34:28.589Z</time>
      </trkpt>
      <trkpt lat="43.89076" lon="3.50586">
        <ele>472</ele>
        <time>2019-04-14T13:34:33.601Z</time>
      </trkpt>
      <trkpt lat="43.8907" lon="3.50586">
        <ele>472</ele>
        <time>2019-04-14T13:34:38.603Z</time>
      </trkpt>
      <trkpt lat="43.89065" lon="3.50585">
        <ele>481</ele>
        <time>2019-04-14T13:34:42.616Z</time>
      </trkpt>
      <trkpt lat="43.89061" lon="3.50585">
        <ele>481</ele>
        <time>2019-04-14T13:34:47.594Z</time>
      </trkpt>
      <trkpt lat="43.89057" lon="3.50585">
        <ele>481</ele>
        <time>2019-04-14T13:34:52.617Z</time>
      </trkpt>
      <trkpt lat="43.89056" lon="3.50582">
        <ele>481</ele>
        <time>2019-04-14T13:34:57.621Z</time>
      </trkpt>
      <trkpt lat="43.89055" lon="3.50581">
        <ele>481</ele>
        <time>2019-04-14T13:35:02.588Z</time>
      </trkpt>
      <trkpt lat="43.89051" lon="3.5058">
        <ele>481</ele>
        <time>2019-04-14T13:35:11.588Z</time>
      </trkpt>
      <trkpt lat="43.89047" lon="3.50581">
        <ele>481</ele>
        <time>2019-04-14T13:35:15.594Z</time>
      </trkpt>
      <trkpt lat="43.89043" lon="3.50583">
        <ele>481</ele>
        <time>2019-04-14T13:35:19.626Z</time>
      </trkpt>
      <trkpt lat="43.89038" lon="3.50586">
        <ele>489</ele>
        <time>2019-04-14T13:35:24.585Z</time>
      </trkpt>
      <trkpt lat="43.89036" lon="3.50587">
        <ele>489</ele>
        <time>2019-04-14T13:35:28.591Z</time>
      </trkpt>
      <trkpt lat="43.89035" lon="3.50588">
        <ele>489</ele>
        <time>2019-04-14T13:35:33.604Z</time>
      </trkpt>
      <trkpt lat="43.89031" lon="3.50588">
        <ele>489</ele>
        <time>2019-04-14T13:35:38.598Z</time>
      </trkpt>
      <trkpt lat="43.89027" lon="3.50589">
        <ele>489</ele>
        <time>2019-04-14T13:35:43.618Z</time>
      </trkpt>
      <trkpt lat="43.89024" lon="3.50591">
        <ele>489</ele>
        <time>2019-04-14T13:35:48.616Z</time>
      </trkpt>
      <trkpt lat="43.89018" lon="3.50594">
        <ele>489</ele>
        <time>2019-04-14T13:35:58.597Z</time>
      </trkpt>
      <trkpt lat="43.89017" lon="3.50594">
        <ele>489</ele>
        <time>2019-04-14T13:36:02.614Z</time>
      </trkpt>
      <trkpt lat="43.89017" lon="3.50594">
        <ele>489</ele>
        <time>2019-04-14T13:36:07.588Z</time>
      </trkpt>
      <trkpt lat="43.89014" lon="3.50596">
        <ele>489</ele>
        <time>2019-04-14T13:36:11.625Z</time>
      </trkpt>
      <trkpt lat="43.89012" lon="3.50597">
        <ele>501</ele>
        <time>2019-04-14T13:36:21.598Z</time>
      </trkpt>
      <trkpt lat="43.89001" lon="3.50594">
        <ele>501</ele>
        <time>2019-04-14T13:36:49.590Z</time>
      </trkpt>
      <trkpt lat="43.89003" lon="3.5059">
        <ele>501</ele>
        <time>2019-04-14T13:36:54.589Z</time>
      </trkpt>
      <trkpt lat="43.89003" lon="3.50587">
        <ele>501</ele>
        <time>2019-04-14T13:36:59.587Z</time>
      </trkpt>
      <trkpt lat="43.89001" lon="3.50581">
        <ele>501</ele>
        <time>2019-04-14T13:37:04.618Z</time>
      </trkpt>
      <trkpt lat="43.88999" lon="3.50576">
        <ele>501</ele>
        <time>2019-04-14T13:37:09.620Z</time>
      </trkpt>
      <trkpt lat="43.88995" lon="3.50573">
        <ele>501</ele>
        <time>2019-04-14T13:37:14.587Z</time>
      </trkpt>
      <trkpt lat="43.88992" lon="3.50575">
        <ele>501</ele>
        <time>2019-04-14T13:37:18.595Z</time>
      </trkpt>
      <trkpt lat="43.88989" lon="3.50577">
        <ele>501</ele>
        <time>2019-04-14T13:37:22.602Z</time>
      </trkpt>
      <trkpt lat="43.88985" lon="3.50577">
        <ele>513</ele>
        <time>2019-04-14T13:37:27.596Z</time>
      </trkpt>
      <trkpt lat="43.88983" lon="3.50578">
        <ele>513</ele>
        <time>2019-04-14T13:37:31.617Z</time>
      </trkpt>
      <trkpt lat="43.88982" lon="3.50581">
        <ele>513</ele>
        <time>2019-04-14T13:37:36.617Z</time>
      </trkpt>
      <trkpt lat="43.88978" lon="3.50582">
        <ele>513</ele>
        <time>2019-04-14T13:37:41.594Z</time>
      </trkpt>
      <trkpt lat="43.88974" lon="3.50584">
        <ele>513</ele>
        <time>2019-04-14T13:37:46.594Z</time>
      </trkpt>
      <trkpt lat="43.88969" lon="3.50586">
        <ele>513</ele>
        <time>2019-04-14T13:37:51.602Z</time>
      </trkpt>
      <trkpt lat="43.88968" lon="3.50587">
        <ele>513</ele>
        <time>2019-04-14T13:37:56.622Z</time>
      </trkpt>
      <trkpt lat="43.88962" lon="3.50591">
        <ele>513</ele>
        <time>2019-04-14T13:38:01.628Z</time>
      </trkpt>
      <trkpt lat="43.88958" lon="3.50595">
        <ele>530</ele>
        <time>2019-04-14T13:38:06.588Z</time>
      </trkpt>
      <trkpt lat="43.88954" lon="3.50599">
        <ele>520</ele>
        <time>2019-04-14T13:38:14.600Z</time>
      </trkpt>
      <trkpt lat="43.88952" lon="3.50597">
        <ele>530</ele>
        <time>2019-04-14T13:38:19.626Z</time>
      </trkpt>
      <trkpt lat="43.88955" lon="3.50594">
        <ele>530</ele>
        <time>2019-04-14T13:38:24.586Z</time>
      </trkpt>
      <trkpt lat="43.88955" lon="3.5059">
        <ele>530</ele>
        <time>2019-04-14T13:38:29.588Z</time>
      </trkpt>
      <trkpt lat="43.88956" lon="3.50584">
        <ele>530</ele>
        <time>2019-04-14T13:38:33.607Z</time>
      </trkpt>
      <trkpt lat="43.88958" lon="3.50578">
        <ele>530</ele>
        <time>2019-04-14T13:38:38.626Z</time>
      </trkpt>
      <trkpt lat="43.88957" lon="3.5057">
        <ele>530</ele>
        <time>2019-04-14T13:38:43.596Z</time>
      </trkpt>
      <trkpt lat="43.88956" lon="3.50563">
        <ele>531</ele>
        <time>2019-04-14T13:38:48.618Z</time>
      </trkpt>
      <trkpt lat="43.88953" lon="3.50556">
        <ele>531</ele>
        <time>2019-04-14T13:38:53.592Z</time>
      </trkpt>
      <trkpt lat="43.88951" lon="3.50555">
        <ele>531</ele>
        <time>2019-04-14T13:38:58.630Z</time>
      </trkpt>
      <trkpt lat="43.88953" lon="3.5056">
        <ele>531</ele>
        <time>2019-04-14T13:39:03.603Z</time>
      </trkpt>
      <trkpt lat="43.88953" lon="3.50567">
        <ele>531</ele>
        <time>2019-04-14T13:39:08.618Z</time>
      </trkpt>
      <trkpt lat="43.88951" lon="3.50572">
        <ele>530</ele>
        <time>2019-04-14T13:39:13.583Z</time>
      </trkpt>
      <trkpt lat="43.88951" lon="3.50573">
        <ele>530</ele>
        <time>2019-04-14T13:39:18.592Z</time>
      </trkpt>
      <trkpt lat="43.88948" lon="3.50579">
        <ele>530</ele>
        <time>2019-04-14T13:39:23.592Z</time>
      </trkpt>
      <trkpt lat="43.88944" lon="3.50584">
        <ele>530</ele>
        <time>2019-04-14T13:39:27.598Z</time>
      </trkpt>
      <trkpt lat="43.88938" lon="3.50586">
        <ele>530</ele>
        <time>2019-04-14T13:39:32.620Z</time>
      </trkpt>
      <trkpt lat="43.88934" lon="3.50589">
        <ele>530</ele>
        <time>2019-04-14T13:39:37.642Z</time>
      </trkpt>
      <trkpt lat="43.88931" lon="3.50591">
        <ele>530</ele>
        <time>2019-04-14T13:39:42.620Z</time>
      </trkpt>
      <trkpt lat="43.88928" lon="3.50593">
        <ele>542</ele>
        <time>2019-04-14T13:39:47.619Z</time>
      </trkpt>
      <trkpt lat="43.88925" lon="3.50596">
        <ele>542</ele>
        <time>2019-04-14T13:39:52.587Z</time>
      </trkpt>
      <trkpt lat="43.88923" lon="3.50593">
        <ele>542</ele>
        <time>2019-04-14T13:39:57.595Z</time>
      </trkpt>
      <trkpt lat="43.88925" lon="3.50588">
        <ele>542</ele>
        <time>2019-04-14T13:40:02.593Z</time>
      </trkpt>
      <trkpt lat="43.88927" lon="3.50584">
        <ele>542</ele>
        <time>2019-04-14T13:40:07.605Z</time>
      </trkpt>
      <trkpt lat="43.8893" lon="3.50579">
        <ele>542</ele>
        <time>2019-04-14T13:40:12.617Z</time>
      </trkpt>
      <trkpt lat="43.88931" lon="3.50574">
        <ele>530</ele>
        <time>2019-04-14T13:40:17.587Z</time>
      </trkpt>
      <trkpt lat="43.8893" lon="3.50569">
        <ele>546</ele>
        <time>2019-04-14T13:40:21.597Z</time>
      </trkpt>
      <trkpt lat="43.88928" lon="3.50565">
        <ele>546</ele>
        <time>2019-04-14T13:40:25.624Z</time>
      </trkpt>
      <trkpt lat="43.88925" lon="3.50561">
        <ele>546</ele>
        <time>2019-04-14T13:40:30.625Z</time>
      </trkpt>
      <trkpt lat="43.88918" lon="3.50556">
        <ele>546</ele>
        <time>2019-04-14T13:40:53.592Z</time>
      </trkpt>
      <trkpt lat="43.88917" lon="3.50561">
        <ele>546</ele>
        <time>2019-04-14T13:40:57.627Z</time>
      </trkpt>
      <trkpt lat="43.88914" lon="3.50565">
        <ele>546</ele>
        <time>2019-04-14T13:41:02.607Z</time>
      </trkpt>
      <trkpt lat="43.88913" lon="3.50569">
        <ele>546</ele>
        <time>2019-04-14T13:41:07.604Z</time>
      </trkpt>
      <trkpt lat="43.88912" lon="3.50568">
        <ele>546</ele>
        <time>2019-04-14T13:41:11.618Z</time>
      </trkpt>
      <trkpt lat="43.88911" lon="3.50563">
        <ele>546</ele>
        <time>2019-04-14T13:41:16.619Z</time>
      </trkpt>
      <trkpt lat="43.88909" lon="3.50561">
        <ele>546</ele>
        <time>2019-04-14T13:41:21.632Z</time>
      </trkpt>
      <trkpt lat="43.88907" lon="3.50566">
        <ele>546</ele>
        <time>2019-04-14T13:41:26.585Z</time>
      </trkpt>
      <trkpt lat="43.88905" lon="3.5057">
        <ele>542</ele>
        <time>2019-04-14T13:41:31.589Z</time>
      </trkpt>
      <trkpt lat="43.88902" lon="3.50571">
        <ele>559</ele>
        <time>2019-04-14T13:41:35.628Z</time>
      </trkpt>
      <trkpt lat="43.88899" lon="3.50573">
        <ele>559</ele>
        <time>2019-04-14T13:41:40.618Z</time>
      </trkpt>
      <trkpt lat="43.88896" lon="3.50576">
        <ele>559</ele>
        <time>2019-04-14T13:41:45.603Z</time>
      </trkpt>
      <trkpt lat="43.88894" lon="3.50578">
        <ele>559</ele>
        <time>2019-04-14T13:41:49.618Z</time>
      </trkpt>
      <trkpt lat="43.88891" lon="3.5058">
        <ele>559</ele>
        <time>2019-04-14T13:41:54.594Z</time>
      </trkpt>
      <trkpt lat="43.88886" lon="3.5058">
        <ele>559</ele>
        <time>2019-04-14T13:42:07.620Z</time>
      </trkpt>
      <trkpt lat="43.88889" lon="3.50576">
        <ele>559</ele>
        <time>2019-04-14T13:42:12.590Z</time>
      </trkpt>
      <trkpt lat="43.8889" lon="3.50573">
        <ele>559</ele>
        <time>2019-04-14T13:42:17.602Z</time>
      </trkpt>
      <trkpt lat="43.88891" lon="3.50569">
        <ele>559</ele>
        <time>2019-04-14T13:42:21.622Z</time>
      </trkpt>
      <trkpt lat="43.88892" lon="3.50566">
        <ele>565</ele>
        <time>2019-04-14T13:42:26.578Z</time>
      </trkpt>
      <trkpt lat="43.88886" lon="3.50559">
        <ele>565</ele>
        <time>2019-04-14T13:42:52.588Z</time>
      </trkpt>
      <trkpt lat="43.88884" lon="3.50559">
        <ele>565</ele>
        <time>2019-04-14T13:42:57.599Z</time>
      </trkpt>
      <trkpt lat="43.88881" lon="3.5056">
        <ele>565</ele>
        <time>2019-04-14T13:43:02.591Z</time>
      </trkpt>
      <trkpt lat="43.88878" lon="3.50561">
        <ele>565</ele>
        <time>2019-04-14T13:43:06.622Z</time>
      </trkpt>
      <trkpt lat="43.88876" lon="3.50563">
        <ele>565</ele>
        <time>2019-04-14T13:43:11.609Z</time>
      </trkpt>
      <trkpt lat="43.88866" lon="3.5056">
        <ele>581</ele>
        <time>2019-04-14T13:43:40.619Z</time>
      </trkpt>
      <trkpt lat="43.88869" lon="3.50556">
        <ele>581</ele>
        <time>2019-04-14T13:43:45.618Z</time>
      </trkpt>
      <trkpt lat="43.88869" lon="3.50553">
        <ele>581</ele>
        <time>2019-04-14T13:43:49.632Z</time>
      </trkpt>
      <trkpt lat="43.88865" lon="3.50549">
        <ele>581</ele>
        <time>2019-04-14T13:43:54.594Z</time>
      </trkpt>
      <trkpt lat="43.88862" lon="3.50547">
        <ele>581</ele>
        <time>2019-04-14T13:43:58.625Z</time>
      </trkpt>
      <trkpt lat="43.88854" lon="3.50545">
        <ele>581</ele>
        <time>2019-04-14T13:44:30.603Z</time>
      </trkpt>
      <trkpt lat="43.88855" lon="3.50553">
        <ele>581</ele>
        <time>2019-04-14T13:44:35.605Z</time>
      </trkpt>
      <trkpt lat="43.88856" lon="3.50557">
        <ele>581</ele>
        <time>2019-04-14T13:44:39.618Z</time>
      </trkpt>
      <trkpt lat="43.88855" lon="3.50562">
        <ele>581</ele>
        <time>2019-04-14T13:44:44.590Z</time>
      </trkpt>
      <trkpt lat="43.88853" lon="3.50565">
        <ele>581</ele>
        <time>2019-04-14T13:44:48.621Z</time>
      </trkpt>
      <trkpt lat="43.88848" lon="3.5056">
        <ele>581</ele>
        <time>2019-04-14T13:45:06.596Z</time>
      </trkpt>
      <trkpt lat="43.88847" lon="3.50564">
        <ele>581</ele>
        <time>2019-04-14T13:45:11.596Z</time>
      </trkpt>
      <trkpt lat="43.88846" lon="3.50565">
        <ele>603</ele>
        <time>2019-04-14T13:45:15.619Z</time>
      </trkpt>
      <trkpt lat="43.88843" lon="3.50566">
        <ele>603</ele>
        <time>2019-04-14T13:45:20.591Z</time>
      </trkpt>
      <trkpt lat="43.88841" lon="3.50568">
        <ele>603</ele>
        <time>2019-04-14T13:45:24.618Z</time>
      </trkpt>
      <trkpt lat="43.8884" lon="3.50569">
        <ele>603</ele>
        <time>2019-04-14T13:45:29.591Z</time>
      </trkpt>
      <trkpt lat="43.88837" lon="3.50571">
        <ele>602</ele>
        <time>2019-04-14T13:45:33.596Z</time>
      </trkpt>
      <trkpt lat="43.88834" lon="3.50574">
        <ele>602</ele>
        <time>2019-04-14T13:45:37.610Z</time>
      </trkpt>
      <trkpt lat="43.88831" lon="3.50577">
        <ele>602</ele>
        <time>2019-04-14T13:45:42.619Z</time>
      </trkpt>
      <trkpt lat="43.88827" lon="3.5058">
        <ele>602</ele>
        <time>2019-04-14T13:45:47.625Z</time>
      </trkpt>
      <trkpt lat="43.88824" lon="3.50582">
        <ele>602</ele>
        <time>2019-04-14T13:45:52.592Z</time>
      </trkpt>
      <trkpt lat="43.88823" lon="3.50584">
        <ele>602</ele>
        <time>2019-04-14T13:45:56.619Z</time>
      </trkpt>
      <trkpt lat="43.88819" lon="3.50586">
        <ele>618</ele>
        <time>2019-04-14T13:46:01.602Z</time>
      </trkpt>
      <trkpt lat="43.88819" lon="3.50588">
        <ele>618</ele>
        <time>2019-04-14T13:46:06.589Z</time>
      </trkpt>
      <trkpt lat="43.88811" lon="3.50588">
        <ele>618</ele>
        <time>2019-04-14T13:46:44.588Z</time>
      </trkpt>
      <trkpt lat="43.88808" lon="3.50592">
        <ele>618</ele>
        <time>2019-04-14T13:46:48.626Z</time>
      </trkpt>
      <trkpt lat="43.88807" lon="3.50595">
        <ele>618</ele>
        <time>2019-04-14T13:46:53.594Z</time>
      </trkpt>
      <trkpt lat="43.88806" lon="3.50598">
        <ele>616</ele>
        <time>2019-04-14T13:47:02.598Z</time>
      </trkpt>
      <trkpt lat="43.88803" lon="3.50603">
        <ele>616</ele>
        <time>2019-04-14T13:47:06.620Z</time>
      </trkpt>
      <trkpt lat="43.88797" lon="3.50609">
        <ele>616</ele>
        <time>2019-04-14T13:47:11.603Z</time>
      </trkpt>
      <trkpt lat="43.88793" lon="3.50612">
        <ele>616</ele>
        <time>2019-04-14T13:47:15.605Z</time>
      </trkpt>
      <trkpt lat="43.88787" lon="3.50613">
        <ele>622</ele>
        <time>2019-04-14T13:47:19.618Z</time>
      </trkpt>
      <trkpt lat="43.88782" lon="3.50617">
        <ele>622</ele>
        <time>2019-04-14T13:47:24.589Z</time>
      </trkpt>
      <trkpt lat="43.88779" lon="3.5062">
        <ele>622</ele>
        <time>2019-04-14T13:47:28.616Z</time>
      </trkpt>
      <trkpt lat="43.88774" lon="3.50624">
        <ele>622</ele>
        <time>2019-04-14T13:47:33.614Z</time>
      </trkpt>
      <trkpt lat="43.88769" lon="3.50627">
        <ele>621</ele>
        <time>2019-04-14T13:47:38.590Z</time>
      </trkpt>
      <trkpt lat="43.88767" lon="3.50628">
        <ele>621</ele>
        <time>2019-04-14T13:47:42.601Z</time>
      </trkpt>
      <trkpt lat="43.88762" lon="3.50631">
        <ele>621</ele>
        <time>2019-04-14T13:47:47.619Z</time>
      </trkpt>
      <trkpt lat="43.88758" lon="3.50634">
        <ele>621</ele>
        <time>2019-04-14T13:47:51.627Z</time>
      </trkpt>
      <trkpt lat="43.88755" lon="3.5064">
        <ele>621</ele>
        <time>2019-04-14T13:47:56.622Z</time>
      </trkpt>
      <trkpt lat="43.88758" lon="3.50646">
        <ele>621</ele>
        <time>2019-04-14T13:48:01.632Z</time>
      </trkpt>
      <trkpt lat="43.88762" lon="3.50651">
        <ele>621</ele>
        <time>2019-04-14T13:48:06.623Z</time>
      </trkpt>
      <trkpt lat="43.88765" lon="3.50654">
        <ele>619</ele>
        <time>2019-04-14T13:48:11.594Z</time>
      </trkpt>
      <trkpt lat="43.88769" lon="3.50659">
        <ele>619</ele>
        <time>2019-04-14T13:48:16.590Z</time>
      </trkpt>
      <trkpt lat="43.88772" lon="3.50664">
        <ele>619</ele>
        <time>2019-04-14T13:48:21.593Z</time>
      </trkpt>
      <trkpt lat="43.88774" lon="3.50669">
        <ele>619</ele>
        <time>2019-04-14T13:48:25.602Z</time>
      </trkpt>
      <trkpt lat="43.88776" lon="3.50677">
        <ele>619</ele>
        <time>2019-04-14T13:48:30.590Z</time>
      </trkpt>
      <trkpt lat="43.88779" lon="3.50685">
        <ele>619</ele>
        <time>2019-04-14T13:48:35.605Z</time>
      </trkpt>
      <trkpt lat="43.8878" lon="3.50692">
        <ele>619</ele>
        <time>2019-04-14T13:48:40.617Z</time>
      </trkpt>
      <trkpt lat="43.8878" lon="3.50699">
        <ele>619</ele>
        <time>2019-04-14T13:48:45.618Z</time>
      </trkpt>
      <trkpt lat="43.88783" lon="3.50704">
        <ele>619</ele>
        <time>2019-04-14T13:48:50.593Z</time>
      </trkpt>
      <trkpt lat="43.8878" lon="3.50712">
        <ele>618</ele>
        <time>2019-04-14T13:48:55.593Z</time>
      </trkpt>
      <trkpt lat="43.88779" lon="3.50717">
        <ele>618</ele>
        <time>2019-04-14T13:48:59.621Z</time>
      </trkpt>
      <trkpt lat="43.88782" lon="3.50724">
        <ele>618</ele>
        <time>2019-04-14T13:49:04.588Z</time>
      </trkpt>
      <trkpt lat="43.88782" lon="3.50732">
        <ele>618</ele>
        <time>2019-04-14T13:49:09.604Z</time>
      </trkpt>
      <trkpt lat="43.88783" lon="3.5074">
        <ele>617</ele>
        <time>2019-04-14T13:49:14.592Z</time>
      </trkpt>
      <trkpt lat="43.88778" lon="3.50746">
        <ele>617</ele>
        <time>2019-04-14T13:49:19.587Z</time>
      </trkpt>
      <trkpt lat="43.88774" lon="3.50749">
        <ele>617</ele>
        <time>2019-04-14T13:49:23.597Z</time>
      </trkpt>
      <trkpt lat="43.88773" lon="3.50753">
        <ele>617</ele>
        <time>2019-04-14T13:49:27.608Z</time>
      </trkpt>
      <trkpt lat="43.8877" lon="3.5076">
        <ele>617</ele>
        <time>2019-04-14T13:49:32.590Z</time>
      </trkpt>
      <trkpt lat="43.8877" lon="3.50766">
        <ele>615</ele>
        <time>2019-04-14T13:49:37.589Z</time>
      </trkpt>
      <trkpt lat="43.88768" lon="3.50776">
        <ele>615</ele>
        <time>2019-04-14T13:49:42.597Z</time>
      </trkpt>
      <trkpt lat="43.88769" lon="3.50783">
        <ele>615</ele>
        <time>2019-04-14T13:49:47.621Z</time>
      </trkpt>
      <trkpt lat="43.88768" lon="3.50791">
        <ele>615</ele>
        <time>2019-04-14T13:49:52.626Z</time>
      </trkpt>
      <trkpt lat="43.88769" lon="3.50798">
        <ele>613</ele>
        <time>2019-04-14T13:49:57.621Z</time>
      </trkpt>
      <trkpt lat="43.88768" lon="3.50808">
        <ele>613</ele>
        <time>2019-04-14T13:50:02.622Z</time>
      </trkpt>
      <trkpt lat="43.88764" lon="3.50816">
        <ele>613</ele>
        <time>2019-04-14T13:50:07.599Z</time>
      </trkpt>
      <trkpt lat="43.88761" lon="3.50819">
        <ele>614</ele>
        <time>2019-04-14T13:50:11.620Z</time>
      </trkpt>
      <trkpt lat="43.88756" lon="3.50822">
        <ele>614</ele>
        <time>2019-04-14T13:50:15.623Z</time>
      </trkpt>
      <trkpt lat="43.88751" lon="3.50824">
        <ele>614</ele>
        <time>2019-04-14T13:50:20.588Z</time>
      </trkpt>
      <trkpt lat="43.88748" lon="3.50827">
        <ele>614</ele>
        <time>2019-04-14T13:50:24.617Z</time>
      </trkpt>
      <trkpt lat="43.88746" lon="3.50833">
        <ele>614</ele>
        <time>2019-04-14T13:50:29.596Z</time>
      </trkpt>
      <trkpt lat="43.88743" lon="3.50841">
        <ele>614</ele>
        <time>2019-04-14T13:50:34.605Z</time>
      </trkpt>
    </trkseg>
  </trk>
</gpx>